<?xml version="1.0" encoding="UTF-8" standalone="yes"?>
<gpx xmlns="http://www.topografix.com/GPX/1/1">
    <metadata>
        <author>
            <name>Polar</name>
        </author>
        <time>2015-01-04T14:51:29.000Z</time>
    </metadata>
    <trk>
        <trkseg>
            <trkpt lat="49.82341117" lon="7.80230917">
                <time>2015-01-04T14:51:29.000Z</time>
                <sat>233</sat>
            </trkpt>
            <trkpt lat="49.82341117" lon="7.80230917">
                <time>2015-01-04T14:51:30.000Z</time>
                <sat>233</sat>
            </trkpt>
            <trkpt lat="49.82341183" lon="7.8023145">
                <time>2015-01-04T14:51:31.000Z</time>
                <sat>232</sat>
            </trkpt>
            <trkpt lat="49.8234115" lon="7.80231483">
                <time>2015-01-04T14:51:32.000Z</time>
                <sat>232</sat>
            </trkpt>
            <trkpt lat="49.82340583" lon="7.80231183">
                <time>2015-01-04T14:51:33.000Z</time>
                <sat>231</sat>
            </trkpt>
            <trkpt lat="49.82340433" lon="7.8023105">
                <time>2015-01-04T14:51:34.000Z</time>
                <sat>230</sat>
            </trkpt>
            <trkpt lat="49.82340167" lon="7.80230633">
                <time>2015-01-04T14:51:35.000Z</time>
                <sat>229</sat>
            </trkpt>
            <trkpt lat="49.82339783" lon="7.80229767">
                <time>2015-01-04T14:51:36.000Z</time>
                <sat>228</sat>
            </trkpt>
            <trkpt lat="49.82339433" lon="7.80228417">
                <time>2015-01-04T14:51:37.000Z</time>
                <sat>226</sat>
            </trkpt>
            <trkpt lat="49.82339117" lon="7.80226383">
                <time>2015-01-04T14:51:38.000Z</time>
                <sat>223</sat>
            </trkpt>
            <trkpt lat="49.82338767" lon="7.80223767">
                <time>2015-01-04T14:51:39.000Z</time>
                <sat>222</sat>
            </trkpt>
            <trkpt lat="49.82338433" lon="7.80220733">
                <time>2015-01-04T14:51:40.000Z</time>
                <sat>220</sat>
            </trkpt>
            <trkpt lat="49.82338017" lon="7.80217483">
                <time>2015-01-04T14:51:41.000Z</time>
                <sat>219</sat>
            </trkpt>
            <trkpt lat="49.82337567" lon="7.8021415">
                <time>2015-01-04T14:51:42.000Z</time>
                <sat>218</sat>
            </trkpt>
            <trkpt lat="49.82337067" lon="7.80210717">
                <time>2015-01-04T14:51:43.000Z</time>
                <sat>216</sat>
            </trkpt>
            <trkpt lat="49.82336483" lon="7.80207367">
                <time>2015-01-04T14:51:44.000Z</time>
                <sat>215</sat>
            </trkpt>
            <trkpt lat="49.82335767" lon="7.802041">
                <time>2015-01-04T14:51:45.000Z</time>
                <sat>214</sat>
            </trkpt>
            <trkpt lat="49.82334883" lon="7.80201033">
                <time>2015-01-04T14:51:46.000Z</time>
                <sat>213</sat>
            </trkpt>
            <trkpt lat="49.82333817" lon="7.801982">
                <time>2015-01-04T14:51:47.000Z</time>
                <sat>212</sat>
            </trkpt>
            <trkpt lat="49.8233255" lon="7.80195633">
                <time>2015-01-04T14:51:48.000Z</time>
                <sat>211</sat>
            </trkpt>
            <trkpt lat="49.8233115" lon="7.801934">
                <time>2015-01-04T14:51:49.000Z</time>
                <sat>210</sat>
            </trkpt>
            <trkpt lat="49.82329633" lon="7.8019155">
                <time>2015-01-04T14:51:50.000Z</time>
                <sat>210</sat>
            </trkpt>
            <trkpt lat="49.823281" lon="7.80190067">
                <time>2015-01-04T14:51:51.000Z</time>
                <sat>210</sat>
            </trkpt>
            <trkpt lat="49.82326517" lon="7.80188933">
                <time>2015-01-04T14:51:52.000Z</time>
                <sat>210</sat>
            </trkpt>
            <trkpt lat="49.82324933" lon="7.80188067">
                <time>2015-01-04T14:51:53.000Z</time>
                <sat>209</sat>
            </trkpt>
            <trkpt lat="49.82323133" lon="7.80187433">
                <time>2015-01-04T14:51:54.000Z</time>
                <sat>210</sat>
            </trkpt>
            <trkpt lat="49.823214" lon="7.80187117">
                <time>2015-01-04T14:51:55.000Z</time>
                <sat>210</sat>
            </trkpt>
            <trkpt lat="49.8231955" lon="7.80186917">
                <time>2015-01-04T14:51:56.000Z</time>
                <sat>211</sat>
            </trkpt>
            <trkpt lat="49.82317867" lon="7.8018675">
                <time>2015-01-04T14:51:57.000Z</time>
                <sat>212</sat>
            </trkpt>
            <trkpt lat="49.82316" lon="7.801866">
                <time>2015-01-04T14:51:58.000Z</time>
                <sat>212</sat>
            </trkpt>
            <trkpt lat="49.82314217" lon="7.80186583">
                <time>2015-01-04T14:51:59.000Z</time>
                <sat>211</sat>
            </trkpt>
            <trkpt lat="49.82312383" lon="7.80186717">
                <time>2015-01-04T14:52:00.000Z</time>
                <sat>212</sat>
            </trkpt>
            <trkpt lat="49.82310617" lon="7.80186883">
                <time>2015-01-04T14:52:01.000Z</time>
                <sat>213</sat>
            </trkpt>
            <trkpt lat="49.82308783" lon="7.80187">
                <time>2015-01-04T14:52:02.000Z</time>
                <sat>214</sat>
            </trkpt>
            <trkpt lat="49.82306883" lon="7.80187217">
                <time>2015-01-04T14:52:03.000Z</time>
                <sat>215</sat>
            </trkpt>
            <trkpt lat="49.82304883" lon="7.80187517">
                <time>2015-01-04T14:52:04.000Z</time>
                <sat>215</sat>
            </trkpt>
            <trkpt lat="49.82302867" lon="7.80188">
                <time>2015-01-04T14:52:05.000Z</time>
                <sat>216</sat>
            </trkpt>
            <trkpt lat="49.82300833" lon="7.80188717">
                <time>2015-01-04T14:52:06.000Z</time>
                <sat>216</sat>
            </trkpt>
            <trkpt lat="49.82298133" lon="7.80190517">
                <time>2015-01-04T14:52:07.000Z</time>
                <sat>216</sat>
            </trkpt>
            <trkpt lat="49.82296767" lon="7.8019255">
                <time>2015-01-04T14:52:08.000Z</time>
                <sat>217</sat>
            </trkpt>
            <trkpt lat="49.82296467" lon="7.80194033">
                <time>2015-01-04T14:52:09.000Z</time>
                <sat>219</sat>
            </trkpt>
            <trkpt lat="49.82296167" lon="7.80196733">
                <time>2015-01-04T14:52:10.000Z</time>
                <sat>218</sat>
            </trkpt>
            <trkpt lat="49.82296433" lon="7.8019945">
                <time>2015-01-04T14:52:11.000Z</time>
                <sat>218</sat>
            </trkpt>
            <trkpt lat="49.82296767" lon="7.80201917">
                <time>2015-01-04T14:52:12.000Z</time>
                <sat>217</sat>
            </trkpt>
            <trkpt lat="49.82296883" lon="7.80204333">
                <time>2015-01-04T14:52:13.000Z</time>
                <sat>217</sat>
            </trkpt>
            <trkpt lat="49.82296867" lon="7.8020665">
                <time>2015-01-04T14:52:14.000Z</time>
                <sat>218</sat>
            </trkpt>
            <trkpt lat="49.82296717" lon="7.80209133">
                <time>2015-01-04T14:52:15.000Z</time>
                <sat>221</sat>
            </trkpt>
            <trkpt lat="49.82296417" lon="7.80211717">
                <time>2015-01-04T14:52:16.000Z</time>
                <sat>223</sat>
            </trkpt>
            <trkpt lat="49.8229605" lon="7.80214383">
                <time>2015-01-04T14:52:17.000Z</time>
                <sat>224</sat>
            </trkpt>
            <trkpt lat="49.822956" lon="7.8021685">
                <time>2015-01-04T14:52:18.000Z</time>
                <sat>224</sat>
            </trkpt>
            <trkpt lat="49.82295083" lon="7.80219083">
                <time>2015-01-04T14:52:19.000Z</time>
                <sat>224</sat>
            </trkpt>
            <trkpt lat="49.82294433" lon="7.80221067">
                <time>2015-01-04T14:52:20.000Z</time>
                <sat>225</sat>
            </trkpt>
            <trkpt lat="49.82293667" lon="7.80222617">
                <time>2015-01-04T14:52:21.000Z</time>
                <sat>224</sat>
            </trkpt>
            <trkpt lat="49.822926" lon="7.80224083">
                <time>2015-01-04T14:52:22.000Z</time>
                <sat>225</sat>
            </trkpt>
            <trkpt lat="49.822913" lon="7.80225467">
                <time>2015-01-04T14:52:23.000Z</time>
                <sat>227</sat>
            </trkpt>
            <trkpt lat="49.82289783" lon="7.80227033">
                <time>2015-01-04T14:52:24.000Z</time>
                <sat>228</sat>
            </trkpt>
            <trkpt lat="49.82288267" lon="7.80228483">
                <time>2015-01-04T14:52:25.000Z</time>
                <sat>229</sat>
            </trkpt>
            <trkpt lat="49.82286383" lon="7.8022965">
                <time>2015-01-04T14:52:26.000Z</time>
                <sat>229</sat>
            </trkpt>
            <trkpt lat="49.822844" lon="7.8023055">
                <time>2015-01-04T14:52:27.000Z</time>
                <sat>230</sat>
            </trkpt>
            <trkpt lat="49.8228225" lon="7.80231317">
                <time>2015-01-04T14:52:28.000Z</time>
                <sat>230</sat>
            </trkpt>
            <trkpt lat="49.8228015" lon="7.80232267">
                <time>2015-01-04T14:52:29.000Z</time>
                <sat>232</sat>
            </trkpt>
            <trkpt lat="49.82278067" lon="7.80233317">
                <time>2015-01-04T14:52:30.000Z</time>
                <sat>232</sat>
            </trkpt>
            <trkpt lat="49.82275933" lon="7.80234633">
                <time>2015-01-04T14:52:31.000Z</time>
                <sat>233</sat>
            </trkpt>
            <trkpt lat="49.822739" lon="7.8023605">
                <time>2015-01-04T14:52:32.000Z</time>
                <sat>233</sat>
            </trkpt>
            <trkpt lat="49.8227185" lon="7.80237483">
                <time>2015-01-04T14:52:33.000Z</time>
                <sat>233</sat>
            </trkpt>
            <trkpt lat="49.82269833" lon="7.8023915">
                <time>2015-01-04T14:52:34.000Z</time>
                <sat>229</sat>
            </trkpt>
            <trkpt lat="49.82268267" lon="7.802413">
                <time>2015-01-04T14:52:35.000Z</time>
                <sat>229</sat>
            </trkpt>
            <trkpt lat="49.82267083" lon="7.80244">
                <time>2015-01-04T14:52:36.000Z</time>
                <sat>229</sat>
            </trkpt>
            <trkpt lat="49.822662" lon="7.80246917">
                <time>2015-01-04T14:52:37.000Z</time>
                <sat>226</sat>
            </trkpt>
            <trkpt lat="49.82265233" lon="7.80249733">
                <time>2015-01-04T14:52:38.000Z</time>
                <sat>225</sat>
            </trkpt>
            <trkpt lat="49.8226425" lon="7.80252617">
                <time>2015-01-04T14:52:39.000Z</time>
                <sat>224</sat>
            </trkpt>
            <trkpt lat="49.8226325" lon="7.80255733">
                <time>2015-01-04T14:52:40.000Z</time>
                <sat>222</sat>
            </trkpt>
            <trkpt lat="49.82262117" lon="7.80259">
                <time>2015-01-04T14:52:41.000Z</time>
                <sat>221</sat>
            </trkpt>
            <trkpt lat="49.822609" lon="7.802623">
                <time>2015-01-04T14:52:42.000Z</time>
                <sat>221</sat>
            </trkpt>
            <trkpt lat="49.82259767" lon="7.8026535">
                <time>2015-01-04T14:52:43.000Z</time>
                <sat>220</sat>
            </trkpt>
            <trkpt lat="49.82258633" lon="7.802683">
                <time>2015-01-04T14:52:44.000Z</time>
                <sat>219</sat>
            </trkpt>
            <trkpt lat="49.82257533" lon="7.802712">
                <time>2015-01-04T14:52:45.000Z</time>
                <sat>219</sat>
            </trkpt>
            <trkpt lat="49.82256383" lon="7.8027405">
                <time>2015-01-04T14:52:46.000Z</time>
                <sat>219</sat>
            </trkpt>
            <trkpt lat="49.822552" lon="7.802769">
                <time>2015-01-04T14:52:47.000Z</time>
                <sat>218</sat>
            </trkpt>
            <trkpt lat="49.82254017" lon="7.80279733">
                <time>2015-01-04T14:52:48.000Z</time>
                <sat>218</sat>
            </trkpt>
            <trkpt lat="49.82252767" lon="7.802827">
                <time>2015-01-04T14:52:49.000Z</time>
                <sat>219</sat>
            </trkpt>
            <trkpt lat="49.82250917" lon="7.802869">
                <time>2015-01-04T14:52:50.000Z</time>
                <sat>219</sat>
            </trkpt>
            <trkpt lat="49.8224965" lon="7.80290117">
                <time>2015-01-04T14:52:51.000Z</time>
                <sat>219</sat>
            </trkpt>
            <trkpt lat="49.822484" lon="7.80293667">
                <time>2015-01-04T14:52:52.000Z</time>
                <sat>220</sat>
            </trkpt>
            <trkpt lat="49.8224725" lon="7.80296667">
                <time>2015-01-04T14:52:53.000Z</time>
                <sat>220</sat>
            </trkpt>
            <trkpt lat="49.82245917" lon="7.802995">
                <time>2015-01-04T14:52:54.000Z</time>
                <sat>220</sat>
            </trkpt>
            <trkpt lat="49.82244517" lon="7.80302267">
                <time>2015-01-04T14:52:55.000Z</time>
                <sat>220</sat>
            </trkpt>
            <trkpt lat="49.82243183" lon="7.80305067">
                <time>2015-01-04T14:52:56.000Z</time>
                <sat>220</sat>
            </trkpt>
            <trkpt lat="49.82241867" lon="7.80307867">
                <time>2015-01-04T14:52:57.000Z</time>
                <sat>219</sat>
            </trkpt>
            <trkpt lat="49.8224065" lon="7.80310683">
                <time>2015-01-04T14:52:58.000Z</time>
                <sat>219</sat>
            </trkpt>
            <trkpt lat="49.82239517" lon="7.80313567">
                <time>2015-01-04T14:52:59.000Z</time>
                <sat>218</sat>
            </trkpt>
            <trkpt lat="49.82238367" lon="7.80316433">
                <time>2015-01-04T14:53:00.000Z</time>
                <sat>218</sat>
            </trkpt>
            <trkpt lat="49.822372" lon="7.8031915">
                <time>2015-01-04T14:53:01.000Z</time>
                <sat>218</sat>
            </trkpt>
            <trkpt lat="49.822361" lon="7.80321867">
                <time>2015-01-04T14:53:02.000Z</time>
                <sat>217</sat>
            </trkpt>
            <trkpt lat="49.82235083" lon="7.8032445">
                <time>2015-01-04T14:53:03.000Z</time>
                <sat>216</sat>
            </trkpt>
            <trkpt lat="49.82234217" lon="7.80326883">
                <time>2015-01-04T14:53:04.000Z</time>
                <sat>215</sat>
            </trkpt>
            <trkpt lat="49.82233417" lon="7.80329467">
                <time>2015-01-04T14:53:05.000Z</time>
                <sat>215</sat>
            </trkpt>
            <trkpt lat="49.822327" lon="7.80332183">
                <time>2015-01-04T14:53:06.000Z</time>
                <sat>214</sat>
            </trkpt>
            <trkpt lat="49.82232" lon="7.80334967">
                <time>2015-01-04T14:53:07.000Z</time>
                <sat>214</sat>
            </trkpt>
            <trkpt lat="49.822312" lon="7.803377">
                <time>2015-01-04T14:53:08.000Z</time>
                <sat>214</sat>
            </trkpt>
            <trkpt lat="49.82230567" lon="7.80340283">
                <time>2015-01-04T14:53:09.000Z</time>
                <sat>213</sat>
            </trkpt>
            <trkpt lat="49.8223" lon="7.80342783">
                <time>2015-01-04T14:53:10.000Z</time>
                <sat>213</sat>
            </trkpt>
            <trkpt lat="49.82229383" lon="7.80345567">
                <time>2015-01-04T14:53:11.000Z</time>
                <sat>212</sat>
            </trkpt>
            <trkpt lat="49.8222875" lon="7.80348433">
                <time>2015-01-04T14:53:12.000Z</time>
                <sat>212</sat>
            </trkpt>
            <trkpt lat="49.82228067" lon="7.8035125">
                <time>2015-01-04T14:53:13.000Z</time>
                <sat>212</sat>
            </trkpt>
            <trkpt lat="49.82227383" lon="7.80354017">
                <time>2015-01-04T14:53:14.000Z</time>
                <sat>212</sat>
            </trkpt>
            <trkpt lat="49.822267" lon="7.80356733">
                <time>2015-01-04T14:53:15.000Z</time>
                <sat>211</sat>
            </trkpt>
            <trkpt lat="49.82226033" lon="7.80359483">
                <time>2015-01-04T14:53:16.000Z</time>
                <sat>210</sat>
            </trkpt>
            <trkpt lat="49.82225367" lon="7.8036215">
                <time>2015-01-04T14:53:17.000Z</time>
                <sat>210</sat>
            </trkpt>
            <trkpt lat="49.822247" lon="7.8036485">
                <time>2015-01-04T14:53:18.000Z</time>
                <sat>210</sat>
            </trkpt>
            <trkpt lat="49.82224033" lon="7.80367533">
                <time>2015-01-04T14:53:19.000Z</time>
                <sat>210</sat>
            </trkpt>
            <trkpt lat="49.82223167" lon="7.80370283">
                <time>2015-01-04T14:53:20.000Z</time>
                <sat>210</sat>
            </trkpt>
            <trkpt lat="49.82222167" lon="7.80373117">
                <time>2015-01-04T14:53:21.000Z</time>
                <sat>210</sat>
            </trkpt>
            <trkpt lat="49.82221217" lon="7.80376">
                <time>2015-01-04T14:53:22.000Z</time>
                <sat>210</sat>
            </trkpt>
            <trkpt lat="49.82220267" lon="7.80378917">
                <time>2015-01-04T14:53:23.000Z</time>
                <sat>210</sat>
            </trkpt>
            <trkpt lat="49.82219383" lon="7.80381833">
                <time>2015-01-04T14:53:24.000Z</time>
                <sat>210</sat>
            </trkpt>
            <trkpt lat="49.82218617" lon="7.803848">
                <time>2015-01-04T14:53:25.000Z</time>
                <sat>210</sat>
            </trkpt>
            <trkpt lat="49.82217883" lon="7.80387733">
                <time>2015-01-04T14:53:26.000Z</time>
                <sat>210</sat>
            </trkpt>
            <trkpt lat="49.82217083" lon="7.80390883">
                <time>2015-01-04T14:53:27.000Z</time>
                <sat>210</sat>
            </trkpt>
            <trkpt lat="49.82216267" lon="7.80393983">
                <time>2015-01-04T14:53:28.000Z</time>
                <sat>210</sat>
            </trkpt>
            <trkpt lat="49.82215467" lon="7.80396883">
                <time>2015-01-04T14:53:29.000Z</time>
                <sat>210</sat>
            </trkpt>
            <trkpt lat="49.82214617" lon="7.80399817">
                <time>2015-01-04T14:53:30.000Z</time>
                <sat>210</sat>
            </trkpt>
            <trkpt lat="49.82213817" lon="7.80402717">
                <time>2015-01-04T14:53:31.000Z</time>
                <sat>210</sat>
            </trkpt>
            <trkpt lat="49.82213017" lon="7.8040575">
                <time>2015-01-04T14:53:32.000Z</time>
                <sat>210</sat>
            </trkpt>
            <trkpt lat="49.82212267" lon="7.80408883">
                <time>2015-01-04T14:53:33.000Z</time>
                <sat>210</sat>
            </trkpt>
            <trkpt lat="49.82211517" lon="7.80412067">
                <time>2015-01-04T14:53:34.000Z</time>
                <sat>209</sat>
            </trkpt>
            <trkpt lat="49.8221075" lon="7.80415083">
                <time>2015-01-04T14:53:35.000Z</time>
                <sat>209</sat>
            </trkpt>
            <trkpt lat="49.8220995" lon="7.80418067">
                <time>2015-01-04T14:53:36.000Z</time>
                <sat>209</sat>
            </trkpt>
            <trkpt lat="49.8220915" lon="7.80421117">
                <time>2015-01-04T14:53:37.000Z</time>
                <sat>209</sat>
            </trkpt>
            <trkpt lat="49.82208317" lon="7.80424083">
                <time>2015-01-04T14:53:38.000Z</time>
                <sat>210</sat>
            </trkpt>
            <trkpt lat="49.82207317" lon="7.80427133">
                <time>2015-01-04T14:53:39.000Z</time>
                <sat>210</sat>
            </trkpt>
            <trkpt lat="49.8220645" lon="7.80430217">
                <time>2015-01-04T14:53:40.000Z</time>
                <sat>210</sat>
            </trkpt>
            <trkpt lat="49.82205617" lon="7.804334">
                <time>2015-01-04T14:53:41.000Z</time>
                <sat>210</sat>
            </trkpt>
            <trkpt lat="49.82204717" lon="7.804366">
                <time>2015-01-04T14:53:42.000Z</time>
                <sat>210</sat>
            </trkpt>
            <trkpt lat="49.82203867" lon="7.80439683">
                <time>2015-01-04T14:53:43.000Z</time>
                <sat>210</sat>
            </trkpt>
            <trkpt lat="49.8220285" lon="7.80442667">
                <time>2015-01-04T14:53:44.000Z</time>
                <sat>210</sat>
            </trkpt>
            <trkpt lat="49.82201783" lon="7.8044545">
                <time>2015-01-04T14:53:45.000Z</time>
                <sat>210</sat>
            </trkpt>
            <trkpt lat="49.822008" lon="7.8044825">
                <time>2015-01-04T14:53:46.000Z</time>
                <sat>210</sat>
            </trkpt>
            <trkpt lat="49.82199883" lon="7.80451133">
                <time>2015-01-04T14:53:47.000Z</time>
                <sat>210</sat>
            </trkpt>
            <trkpt lat="49.82199017" lon="7.80454117">
                <time>2015-01-04T14:53:48.000Z</time>
                <sat>210</sat>
            </trkpt>
            <trkpt lat="49.82198167" lon="7.80457133">
                <time>2015-01-04T14:53:49.000Z</time>
                <sat>210</sat>
            </trkpt>
            <trkpt lat="49.82197417" lon="7.80460067">
                <time>2015-01-04T14:53:50.000Z</time>
                <sat>209</sat>
            </trkpt>
            <trkpt lat="49.82196733" lon="7.80462933">
                <time>2015-01-04T14:53:51.000Z</time>
                <sat>209</sat>
            </trkpt>
            <trkpt lat="49.82196067" lon="7.80465833">
                <time>2015-01-04T14:53:52.000Z</time>
                <sat>209</sat>
            </trkpt>
            <trkpt lat="49.82195317" lon="7.80468833">
                <time>2015-01-04T14:53:53.000Z</time>
                <sat>209</sat>
            </trkpt>
            <trkpt lat="49.82194583" lon="7.80471917">
                <time>2015-01-04T14:53:54.000Z</time>
                <sat>209</sat>
            </trkpt>
            <trkpt lat="49.82193867" lon="7.804751">
                <time>2015-01-04T14:53:55.000Z</time>
                <sat>209</sat>
            </trkpt>
            <trkpt lat="49.82193133" lon="7.80478267">
                <time>2015-01-04T14:53:56.000Z</time>
                <sat>209</sat>
            </trkpt>
            <trkpt lat="49.82192367" lon="7.804814">
                <time>2015-01-04T14:53:57.000Z</time>
                <sat>209</sat>
            </trkpt>
            <trkpt lat="49.8219155" lon="7.80484467">
                <time>2015-01-04T14:53:58.000Z</time>
                <sat>209</sat>
            </trkpt>
            <trkpt lat="49.82190767" lon="7.8048755">
                <time>2015-01-04T14:53:59.000Z</time>
                <sat>209</sat>
            </trkpt>
            <trkpt lat="49.82189967" lon="7.80490683">
                <time>2015-01-04T14:54:00.000Z</time>
                <sat>209</sat>
            </trkpt>
            <trkpt lat="49.82189117" lon="7.804937">
                <time>2015-01-04T14:54:01.000Z</time>
                <sat>209</sat>
            </trkpt>
            <trkpt lat="49.82188233" lon="7.80496733">
                <time>2015-01-04T14:54:02.000Z</time>
                <sat>209</sat>
            </trkpt>
            <trkpt lat="49.82187383" lon="7.80499717">
                <time>2015-01-04T14:54:03.000Z</time>
                <sat>209</sat>
            </trkpt>
            <trkpt lat="49.82186533" lon="7.80502683">
                <time>2015-01-04T14:54:04.000Z</time>
                <sat>209</sat>
            </trkpt>
            <trkpt lat="49.82185733" lon="7.8050555">
                <time>2015-01-04T14:54:05.000Z</time>
                <sat>209</sat>
            </trkpt>
            <trkpt lat="49.82184883" lon="7.8050835">
                <time>2015-01-04T14:54:06.000Z</time>
                <sat>210</sat>
            </trkpt>
            <trkpt lat="49.82184017" lon="7.80511183">
                <time>2015-01-04T14:54:07.000Z</time>
                <sat>210</sat>
            </trkpt>
            <trkpt lat="49.82183217" lon="7.80514133">
                <time>2015-01-04T14:54:08.000Z</time>
                <sat>210</sat>
            </trkpt>
            <trkpt lat="49.82182417" lon="7.80517017">
                <time>2015-01-04T14:54:09.000Z</time>
                <sat>210</sat>
            </trkpt>
            <trkpt lat="49.821816" lon="7.80519883">
                <time>2015-01-04T14:54:10.000Z</time>
                <sat>210</sat>
            </trkpt>
            <trkpt lat="49.82180733" lon="7.805227">
                <time>2015-01-04T14:54:11.000Z</time>
                <sat>210</sat>
            </trkpt>
            <trkpt lat="49.82179867" lon="7.80525367">
                <time>2015-01-04T14:54:12.000Z</time>
                <sat>209</sat>
            </trkpt>
            <trkpt lat="49.82179017" lon="7.805281">
                <time>2015-01-04T14:54:13.000Z</time>
                <sat>209</sat>
            </trkpt>
            <trkpt lat="49.821782" lon="7.80530883">
                <time>2015-01-04T14:54:14.000Z</time>
                <sat>209</sat>
            </trkpt>
            <trkpt lat="49.821774" lon="7.80533683">
                <time>2015-01-04T14:54:15.000Z</time>
                <sat>209</sat>
            </trkpt>
            <trkpt lat="49.821766" lon="7.80536517">
                <time>2015-01-04T14:54:16.000Z</time>
                <sat>209</sat>
            </trkpt>
            <trkpt lat="49.82175817" lon="7.805395">
                <time>2015-01-04T14:54:17.000Z</time>
                <sat>209</sat>
            </trkpt>
            <trkpt lat="49.82175067" lon="7.80542483">
                <time>2015-01-04T14:54:18.000Z</time>
                <sat>209</sat>
            </trkpt>
            <trkpt lat="49.8217425" lon="7.8054555">
                <time>2015-01-04T14:54:19.000Z</time>
                <sat>209</sat>
            </trkpt>
            <trkpt lat="49.82173433" lon="7.80548567">
                <time>2015-01-04T14:54:20.000Z</time>
                <sat>209</sat>
            </trkpt>
            <trkpt lat="49.8217265" lon="7.80551567">
                <time>2015-01-04T14:54:21.000Z</time>
                <sat>209</sat>
            </trkpt>
            <trkpt lat="49.8217185" lon="7.8055455">
                <time>2015-01-04T14:54:22.000Z</time>
                <sat>209</sat>
            </trkpt>
            <trkpt lat="49.82171017" lon="7.8055755">
                <time>2015-01-04T14:54:23.000Z</time>
                <sat>209</sat>
            </trkpt>
            <trkpt lat="49.82170183" lon="7.805607">
                <time>2015-01-04T14:54:24.000Z</time>
                <sat>209</sat>
            </trkpt>
            <trkpt lat="49.82169367" lon="7.805638">
                <time>2015-01-04T14:54:25.000Z</time>
                <sat>209</sat>
            </trkpt>
            <trkpt lat="49.82168533" lon="7.805668">
                <time>2015-01-04T14:54:26.000Z</time>
                <sat>208</sat>
            </trkpt>
            <trkpt lat="49.82167767" lon="7.80569717">
                <time>2015-01-04T14:54:27.000Z</time>
                <sat>208</sat>
            </trkpt>
            <trkpt lat="49.82167" lon="7.80572667">
                <time>2015-01-04T14:54:28.000Z</time>
                <sat>208</sat>
            </trkpt>
            <trkpt lat="49.8216625" lon="7.8057565">
                <time>2015-01-04T14:54:29.000Z</time>
                <sat>208</sat>
            </trkpt>
            <trkpt lat="49.82165467" lon="7.80578633">
                <time>2015-01-04T14:54:30.000Z</time>
                <sat>208</sat>
            </trkpt>
            <trkpt lat="49.821647" lon="7.80581583">
                <time>2015-01-04T14:54:31.000Z</time>
                <sat>208</sat>
            </trkpt>
            <trkpt lat="49.82163933" lon="7.805846">
                <time>2015-01-04T14:54:32.000Z</time>
                <sat>208</sat>
            </trkpt>
            <trkpt lat="49.82163183" lon="7.80587617">
                <time>2015-01-04T14:54:33.000Z</time>
                <sat>208</sat>
            </trkpt>
            <trkpt lat="49.82162417" lon="7.80590667">
                <time>2015-01-04T14:54:34.000Z</time>
                <sat>208</sat>
            </trkpt>
            <trkpt lat="49.821617" lon="7.8059365">
                <time>2015-01-04T14:54:35.000Z</time>
                <sat>208</sat>
            </trkpt>
            <trkpt lat="49.8216095" lon="7.80596483">
                <time>2015-01-04T14:54:36.000Z</time>
                <sat>208</sat>
            </trkpt>
            <trkpt lat="49.8216015" lon="7.80599333">
                <time>2015-01-04T14:54:37.000Z</time>
                <sat>208</sat>
            </trkpt>
            <trkpt lat="49.82159383" lon="7.80602183">
                <time>2015-01-04T14:54:38.000Z</time>
                <sat>208</sat>
            </trkpt>
            <trkpt lat="49.82158583" lon="7.80605067">
                <time>2015-01-04T14:54:39.000Z</time>
                <sat>208</sat>
            </trkpt>
            <trkpt lat="49.821578" lon="7.80608033">
                <time>2015-01-04T14:54:40.000Z</time>
                <sat>208</sat>
            </trkpt>
            <trkpt lat="49.82157" lon="7.806111">
                <time>2015-01-04T14:54:41.000Z</time>
                <sat>208</sat>
            </trkpt>
            <trkpt lat="49.82156267" lon="7.80614133">
                <time>2015-01-04T14:54:42.000Z</time>
                <sat>208</sat>
            </trkpt>
            <trkpt lat="49.82155567" lon="7.80617183">
                <time>2015-01-04T14:54:43.000Z</time>
                <sat>208</sat>
            </trkpt>
            <trkpt lat="49.82154833" lon="7.80620267">
                <time>2015-01-04T14:54:44.000Z</time>
                <sat>208</sat>
            </trkpt>
            <trkpt lat="49.82154083" lon="7.8062335">
                <time>2015-01-04T14:54:45.000Z</time>
                <sat>208</sat>
            </trkpt>
            <trkpt lat="49.8215325" lon="7.80626333">
                <time>2015-01-04T14:54:46.000Z</time>
                <sat>208</sat>
            </trkpt>
            <trkpt lat="49.82152417" lon="7.80629283">
                <time>2015-01-04T14:54:47.000Z</time>
                <sat>208</sat>
            </trkpt>
            <trkpt lat="49.821516" lon="7.80632267">
                <time>2015-01-04T14:54:48.000Z</time>
                <sat>208</sat>
            </trkpt>
            <trkpt lat="49.821508" lon="7.80635167">
                <time>2015-01-04T14:54:49.000Z</time>
                <sat>208</sat>
            </trkpt>
            <trkpt lat="49.82150017" lon="7.80638083">
                <time>2015-01-04T14:54:50.000Z</time>
                <sat>208</sat>
            </trkpt>
            <trkpt lat="49.8214925" lon="7.80641017">
                <time>2015-01-04T14:54:51.000Z</time>
                <sat>208</sat>
            </trkpt>
            <trkpt lat="49.82148483" lon="7.80644">
                <time>2015-01-04T14:54:52.000Z</time>
                <sat>208</sat>
            </trkpt>
            <trkpt lat="49.82147733" lon="7.8064705">
                <time>2015-01-04T14:54:53.000Z</time>
                <sat>208</sat>
            </trkpt>
            <trkpt lat="49.82146967" lon="7.80650067">
                <time>2015-01-04T14:54:54.000Z</time>
                <sat>208</sat>
            </trkpt>
            <trkpt lat="49.82146233" lon="7.80653">
                <time>2015-01-04T14:54:55.000Z</time>
                <sat>208</sat>
            </trkpt>
            <trkpt lat="49.82145483" lon="7.80655933">
                <time>2015-01-04T14:54:56.000Z</time>
                <sat>208</sat>
            </trkpt>
            <trkpt lat="49.82144733" lon="7.80659">
                <time>2015-01-04T14:54:57.000Z</time>
                <sat>208</sat>
            </trkpt>
            <trkpt lat="49.82143967" lon="7.8066205">
                <time>2015-01-04T14:54:58.000Z</time>
                <sat>208</sat>
            </trkpt>
            <trkpt lat="49.821432" lon="7.80664983">
                <time>2015-01-04T14:54:59.000Z</time>
                <sat>208</sat>
            </trkpt>
            <trkpt lat="49.82142417" lon="7.80667983">
                <time>2015-01-04T14:55:00.000Z</time>
                <sat>208</sat>
            </trkpt>
            <trkpt lat="49.82141617" lon="7.80671017">
                <time>2015-01-04T14:55:01.000Z</time>
                <sat>208</sat>
            </trkpt>
            <trkpt lat="49.82140833" lon="7.8067395">
                <time>2015-01-04T14:55:02.000Z</time>
                <sat>208</sat>
            </trkpt>
            <trkpt lat="49.821401" lon="7.8067685">
                <time>2015-01-04T14:55:03.000Z</time>
                <sat>208</sat>
            </trkpt>
            <trkpt lat="49.82139317" lon="7.80679733">
                <time>2015-01-04T14:55:04.000Z</time>
                <sat>208</sat>
            </trkpt>
            <trkpt lat="49.8213855" lon="7.80682567">
                <time>2015-01-04T14:55:05.000Z</time>
                <sat>208</sat>
            </trkpt>
            <trkpt lat="49.82137783" lon="7.8068545">
                <time>2015-01-04T14:55:06.000Z</time>
                <sat>208</sat>
            </trkpt>
            <trkpt lat="49.82137" lon="7.80688283">
                <time>2015-01-04T14:55:07.000Z</time>
                <sat>207</sat>
            </trkpt>
            <trkpt lat="49.821362" lon="7.80691117">
                <time>2015-01-04T14:55:08.000Z</time>
                <sat>207</sat>
            </trkpt>
            <trkpt lat="49.821354" lon="7.8069415">
                <time>2015-01-04T14:55:09.000Z</time>
                <sat>207</sat>
            </trkpt>
            <trkpt lat="49.8213465" lon="7.80697217">
                <time>2015-01-04T14:55:10.000Z</time>
                <sat>207</sat>
            </trkpt>
            <trkpt lat="49.82133933" lon="7.80700133">
                <time>2015-01-04T14:55:11.000Z</time>
                <sat>207</sat>
            </trkpt>
            <trkpt lat="49.8213325" lon="7.80703283">
                <time>2015-01-04T14:55:12.000Z</time>
                <sat>207</sat>
            </trkpt>
            <trkpt lat="49.82132633" lon="7.80706483">
                <time>2015-01-04T14:55:13.000Z</time>
                <sat>208</sat>
            </trkpt>
            <trkpt lat="49.82131983" lon="7.807096">
                <time>2015-01-04T14:55:14.000Z</time>
                <sat>208</sat>
            </trkpt>
            <trkpt lat="49.82131333" lon="7.80712667">
                <time>2015-01-04T14:55:15.000Z</time>
                <sat>208</sat>
            </trkpt>
            <trkpt lat="49.82130633" lon="7.80715783">
                <time>2015-01-04T14:55:16.000Z</time>
                <sat>208</sat>
            </trkpt>
            <trkpt lat="49.82129917" lon="7.807189">
                <time>2015-01-04T14:55:17.000Z</time>
                <sat>208</sat>
            </trkpt>
            <trkpt lat="49.8212925" lon="7.80722017">
                <time>2015-01-04T14:55:18.000Z</time>
                <sat>209</sat>
            </trkpt>
            <trkpt lat="49.82128617" lon="7.8072505">
                <time>2015-01-04T14:55:19.000Z</time>
                <sat>209</sat>
            </trkpt>
            <trkpt lat="49.82127933" lon="7.80728117">
                <time>2015-01-04T14:55:20.000Z</time>
                <sat>209</sat>
            </trkpt>
            <trkpt lat="49.82127267" lon="7.807312">
                <time>2015-01-04T14:55:21.000Z</time>
                <sat>209</sat>
            </trkpt>
            <trkpt lat="49.8212655" lon="7.80734233">
                <time>2015-01-04T14:55:22.000Z</time>
                <sat>209</sat>
            </trkpt>
            <trkpt lat="49.82125833" lon="7.80737167">
                <time>2015-01-04T14:55:23.000Z</time>
                <sat>209</sat>
            </trkpt>
            <trkpt lat="49.82125117" lon="7.8074005">
                <time>2015-01-04T14:55:24.000Z</time>
                <sat>208</sat>
            </trkpt>
            <trkpt lat="49.82124383" lon="7.80743033">
                <time>2015-01-04T14:55:25.000Z</time>
                <sat>208</sat>
            </trkpt>
            <trkpt lat="49.82123683" lon="7.80746083">
                <time>2015-01-04T14:55:26.000Z</time>
                <sat>208</sat>
            </trkpt>
            <trkpt lat="49.82122983" lon="7.80749133">
                <time>2015-01-04T14:55:27.000Z</time>
                <sat>208</sat>
            </trkpt>
            <trkpt lat="49.82122283" lon="7.80752167">
                <time>2015-01-04T14:55:28.000Z</time>
                <sat>209</sat>
            </trkpt>
            <trkpt lat="49.82121517" lon="7.80755217">
                <time>2015-01-04T14:55:29.000Z</time>
                <sat>208</sat>
            </trkpt>
            <trkpt lat="49.82120767" lon="7.80758233">
                <time>2015-01-04T14:55:30.000Z</time>
                <sat>208</sat>
            </trkpt>
            <trkpt lat="49.82120033" lon="7.80761333">
                <time>2015-01-04T14:55:31.000Z</time>
                <sat>208</sat>
            </trkpt>
            <trkpt lat="49.82119333" lon="7.8076445">
                <time>2015-01-04T14:55:32.000Z</time>
                <sat>208</sat>
            </trkpt>
            <trkpt lat="49.8211865" lon="7.807675">
                <time>2015-01-04T14:55:33.000Z</time>
                <sat>208</sat>
            </trkpt>
            <trkpt lat="49.82118017" lon="7.807706">
                <time>2015-01-04T14:55:34.000Z</time>
                <sat>208</sat>
            </trkpt>
            <trkpt lat="49.82117367" lon="7.8077375">
                <time>2015-01-04T14:55:35.000Z</time>
                <sat>209</sat>
            </trkpt>
            <trkpt lat="49.821167" lon="7.80776767">
                <time>2015-01-04T14:55:36.000Z</time>
                <sat>209</sat>
            </trkpt>
            <trkpt lat="49.82116083" lon="7.80779717">
                <time>2015-01-04T14:55:37.000Z</time>
                <sat>209</sat>
            </trkpt>
            <trkpt lat="49.8211545" lon="7.8078275">
                <time>2015-01-04T14:55:38.000Z</time>
                <sat>209</sat>
            </trkpt>
            <trkpt lat="49.82114767" lon="7.8078585">
                <time>2015-01-04T14:55:39.000Z</time>
                <sat>209</sat>
            </trkpt>
            <trkpt lat="49.82114067" lon="7.80788867">
                <time>2015-01-04T14:55:40.000Z</time>
                <sat>209</sat>
            </trkpt>
            <trkpt lat="49.8211335" lon="7.80791867">
                <time>2015-01-04T14:55:41.000Z</time>
                <sat>209</sat>
            </trkpt>
            <trkpt lat="49.82112633" lon="7.80794867">
                <time>2015-01-04T14:55:42.000Z</time>
                <sat>209</sat>
            </trkpt>
            <trkpt lat="49.82111917" lon="7.80797883">
                <time>2015-01-04T14:55:43.000Z</time>
                <sat>209</sat>
            </trkpt>
            <trkpt lat="49.82111183" lon="7.8080095">
                <time>2015-01-04T14:55:44.000Z</time>
                <sat>210</sat>
            </trkpt>
            <trkpt lat="49.8211045" lon="7.8080415">
                <time>2015-01-04T14:55:45.000Z</time>
                <sat>210</sat>
            </trkpt>
            <trkpt lat="49.82109733" lon="7.8080735">
                <time>2015-01-04T14:55:46.000Z</time>
                <sat>210</sat>
            </trkpt>
            <trkpt lat="49.82109017" lon="7.808105">
                <time>2015-01-04T14:55:47.000Z</time>
                <sat>210</sat>
            </trkpt>
            <trkpt lat="49.82108267" lon="7.80813683">
                <time>2015-01-04T14:55:48.000Z</time>
                <sat>210</sat>
            </trkpt>
            <trkpt lat="49.821075" lon="7.808168">
                <time>2015-01-04T14:55:49.000Z</time>
                <sat>210</sat>
            </trkpt>
            <trkpt lat="49.82106733" lon="7.8081985">
                <time>2015-01-04T14:55:50.000Z</time>
                <sat>210</sat>
            </trkpt>
            <trkpt lat="49.82105983" lon="7.80822933">
                <time>2015-01-04T14:55:51.000Z</time>
                <sat>210</sat>
            </trkpt>
            <trkpt lat="49.82105267" lon="7.80825967">
                <time>2015-01-04T14:55:52.000Z</time>
                <sat>210</sat>
            </trkpt>
            <trkpt lat="49.8210455" lon="7.80828983">
                <time>2015-01-04T14:55:53.000Z</time>
                <sat>210</sat>
            </trkpt>
            <trkpt lat="49.82103833" lon="7.80832">
                <time>2015-01-04T14:55:54.000Z</time>
                <sat>210</sat>
            </trkpt>
            <trkpt lat="49.8210315" lon="7.80835">
                <time>2015-01-04T14:55:55.000Z</time>
                <sat>210</sat>
            </trkpt>
            <trkpt lat="49.82102483" lon="7.8083805">
                <time>2015-01-04T14:55:56.000Z</time>
                <sat>210</sat>
            </trkpt>
            <trkpt lat="49.821018" lon="7.80841067">
                <time>2015-01-04T14:55:57.000Z</time>
                <sat>210</sat>
            </trkpt>
            <trkpt lat="49.82101067" lon="7.80844117">
                <time>2015-01-04T14:55:58.000Z</time>
                <sat>210</sat>
            </trkpt>
            <trkpt lat="49.8210035" lon="7.80847167">
                <time>2015-01-04T14:55:59.000Z</time>
                <sat>210</sat>
            </trkpt>
            <trkpt lat="49.82099617" lon="7.80850183">
                <time>2015-01-04T14:56:00.000Z</time>
                <sat>210</sat>
            </trkpt>
            <trkpt lat="49.82098917" lon="7.808532">
                <time>2015-01-04T14:56:01.000Z</time>
                <sat>210</sat>
            </trkpt>
            <trkpt lat="49.820982" lon="7.8085625">
                <time>2015-01-04T14:56:02.000Z</time>
                <sat>210</sat>
            </trkpt>
            <trkpt lat="49.82097483" lon="7.80859317">
                <time>2015-01-04T14:56:03.000Z</time>
                <sat>210</sat>
            </trkpt>
            <trkpt lat="49.82096767" lon="7.8086235">
                <time>2015-01-04T14:56:04.000Z</time>
                <sat>210</sat>
            </trkpt>
            <trkpt lat="49.8209605" lon="7.80865467">
                <time>2015-01-04T14:56:05.000Z</time>
                <sat>210</sat>
            </trkpt>
            <trkpt lat="49.82095333" lon="7.80868583">
                <time>2015-01-04T14:56:06.000Z</time>
                <sat>210</sat>
            </trkpt>
            <trkpt lat="49.820946" lon="7.8087165">
                <time>2015-01-04T14:56:07.000Z</time>
                <sat>210</sat>
            </trkpt>
            <trkpt lat="49.82093867" lon="7.80874767">
                <time>2015-01-04T14:56:08.000Z</time>
                <sat>210</sat>
            </trkpt>
            <trkpt lat="49.8209315" lon="7.808779">
                <time>2015-01-04T14:56:09.000Z</time>
                <sat>210</sat>
            </trkpt>
            <trkpt lat="49.8209245" lon="7.80881067">
                <time>2015-01-04T14:56:10.000Z</time>
                <sat>210</sat>
            </trkpt>
            <trkpt lat="49.82091733" lon="7.8088435">
                <time>2015-01-04T14:56:11.000Z</time>
                <sat>211</sat>
            </trkpt>
            <trkpt lat="49.82091017" lon="7.80887683">
                <time>2015-01-04T14:56:12.000Z</time>
                <sat>211</sat>
            </trkpt>
            <trkpt lat="49.82090317" lon="7.8089075">
                <time>2015-01-04T14:56:13.000Z</time>
                <sat>210</sat>
            </trkpt>
            <trkpt lat="49.82089667" lon="7.80893683">
                <time>2015-01-04T14:56:14.000Z</time>
                <sat>211</sat>
            </trkpt>
            <trkpt lat="49.82089017" lon="7.8089655">
                <time>2015-01-04T14:56:15.000Z</time>
                <sat>210</sat>
            </trkpt>
            <trkpt lat="49.82088417" lon="7.808995">
                <time>2015-01-04T14:56:16.000Z</time>
                <sat>210</sat>
            </trkpt>
            <trkpt lat="49.8208785" lon="7.80902583">
                <time>2015-01-04T14:56:17.000Z</time>
                <sat>210</sat>
            </trkpt>
            <trkpt lat="49.82087383" lon="7.8090565">
                <time>2015-01-04T14:56:18.000Z</time>
                <sat>210</sat>
            </trkpt>
            <trkpt lat="49.8208695" lon="7.809087">
                <time>2015-01-04T14:56:19.000Z</time>
                <sat>210</sat>
            </trkpt>
            <trkpt lat="49.82086517" lon="7.80911833">
                <time>2015-01-04T14:56:20.000Z</time>
                <sat>210</sat>
            </trkpt>
            <trkpt lat="49.82086133" lon="7.80915083">
                <time>2015-01-04T14:56:21.000Z</time>
                <sat>210</sat>
            </trkpt>
            <trkpt lat="49.820858" lon="7.80918283">
                <time>2015-01-04T14:56:22.000Z</time>
                <sat>210</sat>
            </trkpt>
            <trkpt lat="49.82085467" lon="7.8092145">
                <time>2015-01-04T14:56:23.000Z</time>
                <sat>210</sat>
            </trkpt>
            <trkpt lat="49.8208515" lon="7.80924683">
                <time>2015-01-04T14:56:24.000Z</time>
                <sat>210</sat>
            </trkpt>
            <trkpt lat="49.820849" lon="7.80927967">
                <time>2015-01-04T14:56:25.000Z</time>
                <sat>210</sat>
            </trkpt>
            <trkpt lat="49.820847" lon="7.80931283">
                <time>2015-01-04T14:56:26.000Z</time>
                <sat>210</sat>
            </trkpt>
            <trkpt lat="49.82084533" lon="7.809347">
                <time>2015-01-04T14:56:27.000Z</time>
                <sat>210</sat>
            </trkpt>
            <trkpt lat="49.82084383" lon="7.80938033">
                <time>2015-01-04T14:56:28.000Z</time>
                <sat>209</sat>
            </trkpt>
            <trkpt lat="49.82084283" lon="7.80941383">
                <time>2015-01-04T14:56:29.000Z</time>
                <sat>209</sat>
            </trkpt>
            <trkpt lat="49.82084333" lon="7.80944683">
                <time>2015-01-04T14:56:30.000Z</time>
                <sat>209</sat>
            </trkpt>
            <trkpt lat="49.82084517" lon="7.80948083">
                <time>2015-01-04T14:56:31.000Z</time>
                <sat>209</sat>
            </trkpt>
            <trkpt lat="49.82084683" lon="7.8095155">
                <time>2015-01-04T14:56:32.000Z</time>
                <sat>209</sat>
            </trkpt>
            <trkpt lat="49.82084733" lon="7.809549">
                <time>2015-01-04T14:56:33.000Z</time>
                <sat>209</sat>
            </trkpt>
            <trkpt lat="49.82084683" lon="7.80958233">
                <time>2015-01-04T14:56:34.000Z</time>
                <sat>209</sat>
            </trkpt>
            <trkpt lat="49.82084683" lon="7.80961517">
                <time>2015-01-04T14:56:35.000Z</time>
                <sat>209</sat>
            </trkpt>
            <trkpt lat="49.82084733" lon="7.80964833">
                <time>2015-01-04T14:56:36.000Z</time>
                <sat>209</sat>
            </trkpt>
            <trkpt lat="49.82084783" lon="7.80968033">
                <time>2015-01-04T14:56:37.000Z</time>
                <sat>209</sat>
            </trkpt>
            <trkpt lat="49.82084933" lon="7.8097135">
                <time>2015-01-04T14:56:38.000Z</time>
                <sat>209</sat>
            </trkpt>
            <trkpt lat="49.8208515" lon="7.80974617">
                <time>2015-01-04T14:56:39.000Z</time>
                <sat>209</sat>
            </trkpt>
            <trkpt lat="49.820853" lon="7.80977933">
                <time>2015-01-04T14:56:40.000Z</time>
                <sat>210</sat>
            </trkpt>
            <trkpt lat="49.820855" lon="7.8098125">
                <time>2015-01-04T14:56:41.000Z</time>
                <sat>210</sat>
            </trkpt>
            <trkpt lat="49.8208575" lon="7.809846">
                <time>2015-01-04T14:56:42.000Z</time>
                <sat>210</sat>
            </trkpt>
            <trkpt lat="49.82085967" lon="7.80987983">
                <time>2015-01-04T14:56:43.000Z</time>
                <sat>209</sat>
            </trkpt>
            <trkpt lat="49.8208625" lon="7.80991367">
                <time>2015-01-04T14:56:44.000Z</time>
                <sat>210</sat>
            </trkpt>
            <trkpt lat="49.82086567" lon="7.80994833">
                <time>2015-01-04T14:56:45.000Z</time>
                <sat>210</sat>
            </trkpt>
            <trkpt lat="49.82086767" lon="7.809982">
                <time>2015-01-04T14:56:46.000Z</time>
                <sat>210</sat>
            </trkpt>
            <trkpt lat="49.8208685" lon="7.810016">
                <time>2015-01-04T14:56:47.000Z</time>
                <sat>209</sat>
            </trkpt>
            <trkpt lat="49.82086867" lon="7.81004917">
                <time>2015-01-04T14:56:48.000Z</time>
                <sat>210</sat>
            </trkpt>
            <trkpt lat="49.82086867" lon="7.8100825">
                <time>2015-01-04T14:56:49.000Z</time>
                <sat>210</sat>
            </trkpt>
            <trkpt lat="49.820868" lon="7.81011567">
                <time>2015-01-04T14:56:50.000Z</time>
                <sat>209</sat>
            </trkpt>
            <trkpt lat="49.82086617" lon="7.81014833">
                <time>2015-01-04T14:56:51.000Z</time>
                <sat>209</sat>
            </trkpt>
            <trkpt lat="49.82086317" lon="7.81018117">
                <time>2015-01-04T14:56:52.000Z</time>
                <sat>209</sat>
            </trkpt>
            <trkpt lat="49.82085967" lon="7.81021383">
                <time>2015-01-04T14:56:53.000Z</time>
                <sat>209</sat>
            </trkpt>
            <trkpt lat="49.82085567" lon="7.81024683">
                <time>2015-01-04T14:56:54.000Z</time>
                <sat>209</sat>
            </trkpt>
            <trkpt lat="49.82085183" lon="7.81027917">
                <time>2015-01-04T14:56:55.000Z</time>
                <sat>209</sat>
            </trkpt>
            <trkpt lat="49.82084817" lon="7.8103115">
                <time>2015-01-04T14:56:56.000Z</time>
                <sat>209</sat>
            </trkpt>
            <trkpt lat="49.82084383" lon="7.8103435">
                <time>2015-01-04T14:56:57.000Z</time>
                <sat>208</sat>
            </trkpt>
            <trkpt lat="49.82083933" lon="7.81037483">
                <time>2015-01-04T14:56:58.000Z</time>
                <sat>208</sat>
            </trkpt>
            <trkpt lat="49.82083517" lon="7.81040683">
                <time>2015-01-04T14:56:59.000Z</time>
                <sat>208</sat>
            </trkpt>
            <trkpt lat="49.820831" lon="7.81043733">
                <time>2015-01-04T14:57:00.000Z</time>
                <sat>208</sat>
            </trkpt>
            <trkpt lat="49.820827" lon="7.81046817">
                <time>2015-01-04T14:57:01.000Z</time>
                <sat>207</sat>
            </trkpt>
            <trkpt lat="49.82082267" lon="7.8104995">
                <time>2015-01-04T14:57:02.000Z</time>
                <sat>207</sat>
            </trkpt>
            <trkpt lat="49.82081817" lon="7.810532">
                <time>2015-01-04T14:57:03.000Z</time>
                <sat>207</sat>
            </trkpt>
            <trkpt lat="49.82081333" lon="7.81056517">
                <time>2015-01-04T14:57:04.000Z</time>
                <sat>206</sat>
            </trkpt>
            <trkpt lat="49.820808" lon="7.81059817">
                <time>2015-01-04T14:57:05.000Z</time>
                <sat>207</sat>
            </trkpt>
            <trkpt lat="49.82080233" lon="7.81063033">
                <time>2015-01-04T14:57:06.000Z</time>
                <sat>207</sat>
            </trkpt>
            <trkpt lat="49.820797" lon="7.8106625">
                <time>2015-01-04T14:57:07.000Z</time>
                <sat>206</sat>
            </trkpt>
            <trkpt lat="49.82079183" lon="7.810695">
                <time>2015-01-04T14:57:08.000Z</time>
                <sat>206</sat>
            </trkpt>
            <trkpt lat="49.82078683" lon="7.81072783">
                <time>2015-01-04T14:57:09.000Z</time>
                <sat>206</sat>
            </trkpt>
            <trkpt lat="49.82078183" lon="7.81076217">
                <time>2015-01-04T14:57:10.000Z</time>
                <sat>206</sat>
            </trkpt>
            <trkpt lat="49.82077667" lon="7.81079583">
                <time>2015-01-04T14:57:11.000Z</time>
                <sat>206</sat>
            </trkpt>
            <trkpt lat="49.820771" lon="7.810829">
                <time>2015-01-04T14:57:12.000Z</time>
                <sat>206</sat>
            </trkpt>
            <trkpt lat="49.82076533" lon="7.810862">
                <time>2015-01-04T14:57:13.000Z</time>
                <sat>206</sat>
            </trkpt>
            <trkpt lat="49.8207595" lon="7.810896">
                <time>2015-01-04T14:57:14.000Z</time>
                <sat>206</sat>
            </trkpt>
            <trkpt lat="49.82075383" lon="7.8109295">
                <time>2015-01-04T14:57:15.000Z</time>
                <sat>206</sat>
            </trkpt>
            <trkpt lat="49.82074817" lon="7.81096317">
                <time>2015-01-04T14:57:16.000Z</time>
                <sat>206</sat>
            </trkpt>
            <trkpt lat="49.82074233" lon="7.810997">
                <time>2015-01-04T14:57:17.000Z</time>
                <sat>206</sat>
            </trkpt>
            <trkpt lat="49.82073683" lon="7.81103033">
                <time>2015-01-04T14:57:18.000Z</time>
                <sat>205</sat>
            </trkpt>
            <trkpt lat="49.8207315" lon="7.81106333">
                <time>2015-01-04T14:57:19.000Z</time>
                <sat>205</sat>
            </trkpt>
            <trkpt lat="49.8207265" lon="7.8110955">
                <time>2015-01-04T14:57:20.000Z</time>
                <sat>205</sat>
            </trkpt>
            <trkpt lat="49.82072133" lon="7.8111285">
                <time>2015-01-04T14:57:21.000Z</time>
                <sat>205</sat>
            </trkpt>
            <trkpt lat="49.8207165" lon="7.81116033">
                <time>2015-01-04T14:57:22.000Z</time>
                <sat>205</sat>
            </trkpt>
            <trkpt lat="49.82071133" lon="7.81119167">
                <time>2015-01-04T14:57:23.000Z</time>
                <sat>205</sat>
            </trkpt>
            <trkpt lat="49.82070567" lon="7.8112225">
                <time>2015-01-04T14:57:24.000Z</time>
                <sat>205</sat>
            </trkpt>
            <trkpt lat="49.82070083" lon="7.8112535">
                <time>2015-01-04T14:57:25.000Z</time>
                <sat>205</sat>
            </trkpt>
            <trkpt lat="49.82069617" lon="7.8112845">
                <time>2015-01-04T14:57:26.000Z</time>
                <sat>204</sat>
            </trkpt>
            <trkpt lat="49.82069167" lon="7.81131483">
                <time>2015-01-04T14:57:27.000Z</time>
                <sat>204</sat>
            </trkpt>
            <trkpt lat="49.82068567" lon="7.81134717">
                <time>2015-01-04T14:57:28.000Z</time>
                <sat>204</sat>
            </trkpt>
            <trkpt lat="49.82068" lon="7.811381">
                <time>2015-01-04T14:57:29.000Z</time>
                <sat>205</sat>
            </trkpt>
            <trkpt lat="49.820675" lon="7.8114155">
                <time>2015-01-04T14:57:30.000Z</time>
                <sat>205</sat>
            </trkpt>
            <trkpt lat="49.82066933" lon="7.81144917">
                <time>2015-01-04T14:57:31.000Z</time>
                <sat>204</sat>
            </trkpt>
            <trkpt lat="49.82066367" lon="7.811482">
                <time>2015-01-04T14:57:32.000Z</time>
                <sat>204</sat>
            </trkpt>
            <trkpt lat="49.82065867" lon="7.81151583">
                <time>2015-01-04T14:57:33.000Z</time>
                <sat>204</sat>
            </trkpt>
            <trkpt lat="49.82065417" lon="7.81154883">
                <time>2015-01-04T14:57:34.000Z</time>
                <sat>204</sat>
            </trkpt>
            <trkpt lat="49.82064917" lon="7.81158183">
                <time>2015-01-04T14:57:35.000Z</time>
                <sat>203</sat>
            </trkpt>
            <trkpt lat="49.82064383" lon="7.8116125">
                <time>2015-01-04T14:57:36.000Z</time>
                <sat>203</sat>
            </trkpt>
            <trkpt lat="49.82063683" lon="7.81163967">
                <time>2015-01-04T14:57:37.000Z</time>
                <sat>203</sat>
            </trkpt>
            <trkpt lat="49.82062917" lon="7.81166683">
                <time>2015-01-04T14:57:38.000Z</time>
                <sat>202</sat>
            </trkpt>
            <trkpt lat="49.82062333" lon="7.81169467">
                <time>2015-01-04T14:57:39.000Z</time>
                <sat>202</sat>
            </trkpt>
            <trkpt lat="49.82061733" lon="7.81172417">
                <time>2015-01-04T14:57:40.000Z</time>
                <sat>202</sat>
            </trkpt>
            <trkpt lat="49.820611" lon="7.81175417">
                <time>2015-01-04T14:57:41.000Z</time>
                <sat>202</sat>
            </trkpt>
            <trkpt lat="49.82060467" lon="7.81178517">
                <time>2015-01-04T14:57:42.000Z</time>
                <sat>202</sat>
            </trkpt>
            <trkpt lat="49.820598" lon="7.81181667">
                <time>2015-01-04T14:57:43.000Z</time>
                <sat>202</sat>
            </trkpt>
            <trkpt lat="49.8205925" lon="7.81184717">
                <time>2015-01-04T14:57:44.000Z</time>
                <sat>202</sat>
            </trkpt>
            <trkpt lat="49.82058733" lon="7.8118785">
                <time>2015-01-04T14:57:45.000Z</time>
                <sat>202</sat>
            </trkpt>
            <trkpt lat="49.82058167" lon="7.81191067">
                <time>2015-01-04T14:57:46.000Z</time>
                <sat>202</sat>
            </trkpt>
            <trkpt lat="49.82057583" lon="7.81194383">
                <time>2015-01-04T14:57:47.000Z</time>
                <sat>202</sat>
            </trkpt>
            <trkpt lat="49.8205705" lon="7.8119765">
                <time>2015-01-04T14:57:48.000Z</time>
                <sat>202</sat>
            </trkpt>
            <trkpt lat="49.82056483" lon="7.81200867">
                <time>2015-01-04T14:57:49.000Z</time>
                <sat>202</sat>
            </trkpt>
            <trkpt lat="49.82055883" lon="7.812041">
                <time>2015-01-04T14:57:50.000Z</time>
                <sat>202</sat>
            </trkpt>
            <trkpt lat="49.82055217" lon="7.81207367">
                <time>2015-01-04T14:57:51.000Z</time>
                <sat>202</sat>
            </trkpt>
            <trkpt lat="49.82054517" lon="7.81210667">
                <time>2015-01-04T14:57:52.000Z</time>
                <sat>202</sat>
            </trkpt>
            <trkpt lat="49.820538" lon="7.81214">
                <time>2015-01-04T14:57:53.000Z</time>
                <sat>202</sat>
            </trkpt>
            <trkpt lat="49.82053067" lon="7.81217317">
                <time>2015-01-04T14:57:54.000Z</time>
                <sat>202</sat>
            </trkpt>
            <trkpt lat="49.8205235" lon="7.81220633">
                <time>2015-01-04T14:57:55.000Z</time>
                <sat>202</sat>
            </trkpt>
            <trkpt lat="49.82051617" lon="7.81223917">
                <time>2015-01-04T14:57:56.000Z</time>
                <sat>202</sat>
            </trkpt>
            <trkpt lat="49.8205095" lon="7.812272">
                <time>2015-01-04T14:57:57.000Z</time>
                <sat>202</sat>
            </trkpt>
            <trkpt lat="49.82050317" lon="7.81230567">
                <time>2015-01-04T14:57:58.000Z</time>
                <sat>202</sat>
            </trkpt>
            <trkpt lat="49.82049733" lon="7.81233917">
                <time>2015-01-04T14:57:59.000Z</time>
                <sat>202</sat>
            </trkpt>
            <trkpt lat="49.82049233" lon="7.81237283">
                <time>2015-01-04T14:58:00.000Z</time>
                <sat>202</sat>
            </trkpt>
            <trkpt lat="49.820487" lon="7.81240783">
                <time>2015-01-04T14:58:01.000Z</time>
                <sat>202</sat>
            </trkpt>
            <trkpt lat="49.82047917" lon="7.812443">
                <time>2015-01-04T14:58:02.000Z</time>
                <sat>202</sat>
            </trkpt>
            <trkpt lat="49.82047167" lon="7.81247367">
                <time>2015-01-04T14:58:03.000Z</time>
                <sat>201</sat>
            </trkpt>
            <trkpt lat="49.8204655" lon="7.81250283">
                <time>2015-01-04T14:58:04.000Z</time>
                <sat>201</sat>
            </trkpt>
            <trkpt lat="49.82045933" lon="7.8125325">
                <time>2015-01-04T14:58:05.000Z</time>
                <sat>201</sat>
            </trkpt>
            <trkpt lat="49.8204545" lon="7.8125615">
                <time>2015-01-04T14:58:06.000Z</time>
                <sat>201</sat>
            </trkpt>
            <trkpt lat="49.820449" lon="7.81259133">
                <time>2015-01-04T14:58:07.000Z</time>
                <sat>201</sat>
            </trkpt>
            <trkpt lat="49.82044267" lon="7.81262133">
                <time>2015-01-04T14:58:08.000Z</time>
                <sat>201</sat>
            </trkpt>
            <trkpt lat="49.82043483" lon="7.81265133">
                <time>2015-01-04T14:58:09.000Z</time>
                <sat>201</sat>
            </trkpt>
            <trkpt lat="49.820427" lon="7.81268133">
                <time>2015-01-04T14:58:10.000Z</time>
                <sat>200</sat>
            </trkpt>
            <trkpt lat="49.8204195" lon="7.81271167">
                <time>2015-01-04T14:58:11.000Z</time>
                <sat>200</sat>
            </trkpt>
            <trkpt lat="49.82041233" lon="7.81274217">
                <time>2015-01-04T14:58:12.000Z</time>
                <sat>200</sat>
            </trkpt>
            <trkpt lat="49.82040567" lon="7.81277233">
                <time>2015-01-04T14:58:13.000Z</time>
                <sat>200</sat>
            </trkpt>
            <trkpt lat="49.82039883" lon="7.81280283">
                <time>2015-01-04T14:58:14.000Z</time>
                <sat>200</sat>
            </trkpt>
            <trkpt lat="49.82039167" lon="7.81283367">
                <time>2015-01-04T14:58:15.000Z</time>
                <sat>199</sat>
            </trkpt>
            <trkpt lat="49.82038383" lon="7.8128645">
                <time>2015-01-04T14:58:16.000Z</time>
                <sat>199</sat>
            </trkpt>
            <trkpt lat="49.820376" lon="7.812895">
                <time>2015-01-04T14:58:17.000Z</time>
                <sat>199</sat>
            </trkpt>
            <trkpt lat="49.820368" lon="7.81292533">
                <time>2015-01-04T14:58:18.000Z</time>
                <sat>199</sat>
            </trkpt>
            <trkpt lat="49.82035967" lon="7.81295567">
                <time>2015-01-04T14:58:19.000Z</time>
                <sat>198</sat>
            </trkpt>
            <trkpt lat="49.82035133" lon="7.81298683">
                <time>2015-01-04T14:58:20.000Z</time>
                <sat>198</sat>
            </trkpt>
            <trkpt lat="49.82034483" lon="7.81301783">
                <time>2015-01-04T14:58:21.000Z</time>
                <sat>198</sat>
            </trkpt>
            <trkpt lat="49.82033983" lon="7.81304917">
                <time>2015-01-04T14:58:22.000Z</time>
                <sat>197</sat>
            </trkpt>
            <trkpt lat="49.82033483" lon="7.81308083">
                <time>2015-01-04T14:58:23.000Z</time>
                <sat>197</sat>
            </trkpt>
            <trkpt lat="49.82033033" lon="7.81311317">
                <time>2015-01-04T14:58:24.000Z</time>
                <sat>197</sat>
            </trkpt>
            <trkpt lat="49.82032817" lon="7.8131445">
                <time>2015-01-04T14:58:25.000Z</time>
                <sat>197</sat>
            </trkpt>
            <trkpt lat="49.82032767" lon="7.81317333">
                <time>2015-01-04T14:58:26.000Z</time>
                <sat>197</sat>
            </trkpt>
            <trkpt lat="49.820328" lon="7.8132035">
                <time>2015-01-04T14:58:27.000Z</time>
                <sat>197</sat>
            </trkpt>
            <trkpt lat="49.82033083" lon="7.81323217">
                <time>2015-01-04T14:58:28.000Z</time>
                <sat>196</sat>
            </trkpt>
            <trkpt lat="49.82033533" lon="7.8132585">
                <time>2015-01-04T14:58:29.000Z</time>
                <sat>197</sat>
            </trkpt>
            <trkpt lat="49.82033983" lon="7.813281">
                <time>2015-01-04T14:58:30.000Z</time>
                <sat>197</sat>
            </trkpt>
            <trkpt lat="49.8203425" lon="7.81332783">
                <time>2015-01-04T14:58:31.000Z</time>
                <sat>197</sat>
            </trkpt>
            <trkpt lat="49.82034283" lon="7.81332983">
                <time>2015-01-04T14:58:32.000Z</time>
                <sat>198</sat>
            </trkpt>
            <trkpt lat="49.82034317" lon="7.81333267">
                <time>2015-01-04T14:58:33.000Z</time>
                <sat>198</sat>
            </trkpt>
            <trkpt lat="49.82034333" lon="7.81333517">
                <time>2015-01-04T14:58:34.000Z</time>
                <sat>198</sat>
            </trkpt>
            <trkpt lat="49.82034433" lon="7.8133415">
                <time>2015-01-04T14:58:35.000Z</time>
                <sat>198</sat>
            </trkpt>
            <trkpt lat="49.82034583" lon="7.81334817">
                <time>2015-01-04T14:58:36.000Z</time>
                <sat>198</sat>
            </trkpt>
            <trkpt lat="49.82034967" lon="7.81336133">
                <time>2015-01-04T14:58:37.000Z</time>
                <sat>198</sat>
            </trkpt>
            <trkpt lat="49.8203555" lon="7.813378">
                <time>2015-01-04T14:58:38.000Z</time>
                <sat>198</sat>
            </trkpt>
            <trkpt lat="49.82036317" lon="7.81339717">
                <time>2015-01-04T14:58:39.000Z</time>
                <sat>198</sat>
            </trkpt>
            <trkpt lat="49.82037133" lon="7.813419">
                <time>2015-01-04T14:58:40.000Z</time>
                <sat>198</sat>
            </trkpt>
            <trkpt lat="49.82038017" lon="7.81344383">
                <time>2015-01-04T14:58:41.000Z</time>
                <sat>198</sat>
            </trkpt>
            <trkpt lat="49.82038883" lon="7.81346833">
                <time>2015-01-04T14:58:42.000Z</time>
                <sat>198</sat>
            </trkpt>
            <trkpt lat="49.8203985" lon="7.813493">
                <time>2015-01-04T14:58:43.000Z</time>
                <sat>198</sat>
            </trkpt>
            <trkpt lat="49.82041017" lon="7.8135145">
                <time>2015-01-04T14:58:44.000Z</time>
                <sat>198</sat>
            </trkpt>
            <trkpt lat="49.8204245" lon="7.81353383">
                <time>2015-01-04T14:58:45.000Z</time>
                <sat>198</sat>
            </trkpt>
            <trkpt lat="49.8204405" lon="7.81355033">
                <time>2015-01-04T14:58:46.000Z</time>
                <sat>198</sat>
            </trkpt>
            <trkpt lat="49.82045733" lon="7.81356383">
                <time>2015-01-04T14:58:47.000Z</time>
                <sat>198</sat>
            </trkpt>
            <trkpt lat="49.8204745" lon="7.8135755">
                <time>2015-01-04T14:58:48.000Z</time>
                <sat>198</sat>
            </trkpt>
            <trkpt lat="49.820492" lon="7.81358533">
                <time>2015-01-04T14:58:49.000Z</time>
                <sat>198</sat>
            </trkpt>
            <trkpt lat="49.82050933" lon="7.8135925">
                <time>2015-01-04T14:58:50.000Z</time>
                <sat>198</sat>
            </trkpt>
            <trkpt lat="49.82052567" lon="7.81359767">
                <time>2015-01-04T14:58:51.000Z</time>
                <sat>198</sat>
            </trkpt>
            <trkpt lat="49.820542" lon="7.81360133">
                <time>2015-01-04T14:58:52.000Z</time>
                <sat>198</sat>
            </trkpt>
            <trkpt lat="49.82055983" lon="7.81360633">
                <time>2015-01-04T14:58:53.000Z</time>
                <sat>198</sat>
            </trkpt>
            <trkpt lat="49.8205795" lon="7.81361117">
                <time>2015-01-04T14:58:54.000Z</time>
                <sat>198</sat>
            </trkpt>
            <trkpt lat="49.82060733" lon="7.813619">
                <time>2015-01-04T14:58:55.000Z</time>
                <sat>198</sat>
            </trkpt>
            <trkpt lat="49.82061767" lon="7.81362267">
                <time>2015-01-04T14:58:56.000Z</time>
                <sat>198</sat>
            </trkpt>
            <trkpt lat="49.82063583" lon="7.81362917">
                <time>2015-01-04T14:58:57.000Z</time>
                <sat>198</sat>
            </trkpt>
            <trkpt lat="49.82066333" lon="7.81363733">
                <time>2015-01-04T14:58:58.000Z</time>
                <sat>198</sat>
            </trkpt>
            <trkpt lat="49.82068267" lon="7.8136415">
                <time>2015-01-04T14:58:59.000Z</time>
                <sat>198</sat>
            </trkpt>
            <trkpt lat="49.82069283" lon="7.81364467">
                <time>2015-01-04T14:59:00.000Z</time>
                <sat>198</sat>
            </trkpt>
            <trkpt lat="49.82072117" lon="7.813653">
                <time>2015-01-04T14:59:01.000Z</time>
                <sat>198</sat>
            </trkpt>
            <trkpt lat="49.8207415" lon="7.81366117">
                <time>2015-01-04T14:59:02.000Z</time>
                <sat>198</sat>
            </trkpt>
            <trkpt lat="49.82076183" lon="7.81366983">
                <time>2015-01-04T14:59:03.000Z</time>
                <sat>198</sat>
            </trkpt>
            <trkpt lat="49.82077967" lon="7.8136775">
                <time>2015-01-04T14:59:04.000Z</time>
                <sat>198</sat>
            </trkpt>
            <trkpt lat="49.82079883" lon="7.81368533">
                <time>2015-01-04T14:59:05.000Z</time>
                <sat>198</sat>
            </trkpt>
            <trkpt lat="49.8208155" lon="7.8136915">
                <time>2015-01-04T14:59:06.000Z</time>
                <sat>197</sat>
            </trkpt>
            <trkpt lat="49.82082917" lon="7.81369767">
                <time>2015-01-04T14:59:07.000Z</time>
                <sat>198</sat>
            </trkpt>
            <trkpt lat="49.8208355" lon="7.81370133">
                <time>2015-01-04T14:59:08.000Z</time>
                <sat>198</sat>
            </trkpt>
            <trkpt lat="49.82085067" lon="7.8137145">
                <time>2015-01-04T14:59:09.000Z</time>
                <sat>199</sat>
            </trkpt>
            <trkpt lat="49.8208755" lon="7.81374367">
                <time>2015-01-04T14:59:10.000Z</time>
                <sat>199</sat>
            </trkpt>
            <trkpt lat="49.82089033" lon="7.813767">
                <time>2015-01-04T14:59:11.000Z</time>
                <sat>199</sat>
            </trkpt>
            <trkpt lat="49.82090033" lon="7.81379267">
                <time>2015-01-04T14:59:12.000Z</time>
                <sat>199</sat>
            </trkpt>
            <trkpt lat="49.8209065" lon="7.81381667">
                <time>2015-01-04T14:59:13.000Z</time>
                <sat>199</sat>
            </trkpt>
            <trkpt lat="49.82091383" lon="7.8138375">
                <time>2015-01-04T14:59:14.000Z</time>
                <sat>199</sat>
            </trkpt>
            <trkpt lat="49.8209435" lon="7.81387067">
                <time>2015-01-04T14:59:15.000Z</time>
                <sat>197</sat>
            </trkpt>
            <trkpt lat="49.82094767" lon="7.81387017">
                <time>2015-01-04T14:59:16.000Z</time>
                <sat>197</sat>
            </trkpt>
            <trkpt lat="49.82095283" lon="7.81386867">
                <time>2015-01-04T14:59:17.000Z</time>
                <sat>197</sat>
            </trkpt>
            <trkpt lat="49.82096333" lon="7.8138655">
                <time>2015-01-04T14:59:18.000Z</time>
                <sat>197</sat>
            </trkpt>
            <trkpt lat="49.82097617" lon="7.8138615">
                <time>2015-01-04T14:59:19.000Z</time>
                <sat>197</sat>
            </trkpt>
            <trkpt lat="49.82099017" lon="7.813858">
                <time>2015-01-04T14:59:20.000Z</time>
                <sat>196</sat>
            </trkpt>
            <trkpt lat="49.8210055" lon="7.81385483">
                <time>2015-01-04T14:59:21.000Z</time>
                <sat>196</sat>
            </trkpt>
            <trkpt lat="49.82102233" lon="7.813851">
                <time>2015-01-04T14:59:22.000Z</time>
                <sat>196</sat>
            </trkpt>
            <trkpt lat="49.82104033" lon="7.81384667">
                <time>2015-01-04T14:59:23.000Z</time>
                <sat>196</sat>
            </trkpt>
            <trkpt lat="49.82105917" lon="7.813842">
                <time>2015-01-04T14:59:24.000Z</time>
                <sat>196</sat>
            </trkpt>
            <trkpt lat="49.82107717" lon="7.81383667">
                <time>2015-01-04T14:59:25.000Z</time>
                <sat>196</sat>
            </trkpt>
            <trkpt lat="49.8210945" lon="7.813831">
                <time>2015-01-04T14:59:26.000Z</time>
                <sat>196</sat>
            </trkpt>
            <trkpt lat="49.8211115" lon="7.81382483">
                <time>2015-01-04T14:59:27.000Z</time>
                <sat>196</sat>
            </trkpt>
            <trkpt lat="49.82113083" lon="7.81381933">
                <time>2015-01-04T14:59:28.000Z</time>
                <sat>196</sat>
            </trkpt>
            <trkpt lat="49.821151" lon="7.813813">
                <time>2015-01-04T14:59:29.000Z</time>
                <sat>196</sat>
            </trkpt>
            <trkpt lat="49.82117217" lon="7.8138055">
                <time>2015-01-04T14:59:30.000Z</time>
                <sat>197</sat>
            </trkpt>
            <trkpt lat="49.82119183" lon="7.8137975">
                <time>2015-01-04T14:59:31.000Z</time>
                <sat>197</sat>
            </trkpt>
            <trkpt lat="49.82121217" lon="7.81378967">
                <time>2015-01-04T14:59:32.000Z</time>
                <sat>197</sat>
            </trkpt>
            <trkpt lat="49.8212325" lon="7.81378267">
                <time>2015-01-04T14:59:33.000Z</time>
                <sat>197</sat>
            </trkpt>
            <trkpt lat="49.82125267" lon="7.8137765">
                <time>2015-01-04T14:59:34.000Z</time>
                <sat>197</sat>
            </trkpt>
            <trkpt lat="49.82127317" lon="7.81377067">
                <time>2015-01-04T14:59:35.000Z</time>
                <sat>197</sat>
            </trkpt>
            <trkpt lat="49.821294" lon="7.81376633">
                <time>2015-01-04T14:59:36.000Z</time>
                <sat>197</sat>
            </trkpt>
            <trkpt lat="49.82131433" lon="7.81376317">
                <time>2015-01-04T14:59:37.000Z</time>
                <sat>197</sat>
            </trkpt>
            <trkpt lat="49.821334" lon="7.8137615">
                <time>2015-01-04T14:59:38.000Z</time>
                <sat>197</sat>
            </trkpt>
            <trkpt lat="49.8213535" lon="7.81375967">
                <time>2015-01-04T14:59:39.000Z</time>
                <sat>197</sat>
            </trkpt>
            <trkpt lat="49.82137417" lon="7.81375817">
                <time>2015-01-04T14:59:40.000Z</time>
                <sat>197</sat>
            </trkpt>
            <trkpt lat="49.821394" lon="7.81375433">
                <time>2015-01-04T14:59:41.000Z</time>
                <sat>197</sat>
            </trkpt>
            <trkpt lat="49.821414" lon="7.81374983">
                <time>2015-01-04T14:59:42.000Z</time>
                <sat>198</sat>
            </trkpt>
            <trkpt lat="49.821434" lon="7.81374383">
                <time>2015-01-04T14:59:43.000Z</time>
                <sat>198</sat>
            </trkpt>
            <trkpt lat="49.821455" lon="7.81373817">
                <time>2015-01-04T14:59:44.000Z</time>
                <sat>198</sat>
            </trkpt>
            <trkpt lat="49.821476" lon="7.81373183">
                <time>2015-01-04T14:59:45.000Z</time>
                <sat>198</sat>
            </trkpt>
            <trkpt lat="49.82149717" lon="7.81372583">
                <time>2015-01-04T14:59:46.000Z</time>
                <sat>199</sat>
            </trkpt>
            <trkpt lat="49.82151783" lon="7.8137195">
                <time>2015-01-04T14:59:47.000Z</time>
                <sat>199</sat>
            </trkpt>
            <trkpt lat="49.82153883" lon="7.81371233">
                <time>2015-01-04T14:59:48.000Z</time>
                <sat>199</sat>
            </trkpt>
            <trkpt lat="49.8215695" lon="7.81369967">
                <time>2015-01-04T14:59:49.000Z</time>
                <sat>199</sat>
            </trkpt>
            <trkpt lat="49.82159167" lon="7.8136895">
                <time>2015-01-04T14:59:50.000Z</time>
                <sat>199</sat>
            </trkpt>
            <trkpt lat="49.821615" lon="7.8136795">
                <time>2015-01-04T14:59:51.000Z</time>
                <sat>199</sat>
            </trkpt>
            <trkpt lat="49.821636" lon="7.81366883">
                <time>2015-01-04T14:59:52.000Z</time>
                <sat>199</sat>
            </trkpt>
            <trkpt lat="49.82165667" lon="7.81365817">
                <time>2015-01-04T14:59:53.000Z</time>
                <sat>200</sat>
            </trkpt>
            <trkpt lat="49.82167783" lon="7.81364833">
                <time>2015-01-04T14:59:54.000Z</time>
                <sat>200</sat>
            </trkpt>
            <trkpt lat="49.82170117" lon="7.813639">
                <time>2015-01-04T14:59:55.000Z</time>
                <sat>200</sat>
            </trkpt>
            <trkpt lat="49.82172367" lon="7.81362983">
                <time>2015-01-04T14:59:56.000Z</time>
                <sat>200</sat>
            </trkpt>
            <trkpt lat="49.821744" lon="7.81362">
                <time>2015-01-04T14:59:57.000Z</time>
                <sat>200</sat>
            </trkpt>
            <trkpt lat="49.82176483" lon="7.8136105">
                <time>2015-01-04T14:59:58.000Z</time>
                <sat>200</sat>
            </trkpt>
            <trkpt lat="49.8217855" lon="7.813602">
                <time>2015-01-04T14:59:59.000Z</time>
                <sat>201</sat>
            </trkpt>
            <trkpt lat="49.8218065" lon="7.81359317">
                <time>2015-01-04T15:00:00.000Z</time>
                <sat>201</sat>
            </trkpt>
            <trkpt lat="49.82182667" lon="7.81358333">
                <time>2015-01-04T15:00:01.000Z</time>
                <sat>201</sat>
            </trkpt>
            <trkpt lat="49.8218475" lon="7.81357333">
                <time>2015-01-04T15:00:02.000Z</time>
                <sat>201</sat>
            </trkpt>
            <trkpt lat="49.82186767" lon="7.8135635">
                <time>2015-01-04T15:00:03.000Z</time>
                <sat>201</sat>
            </trkpt>
            <trkpt lat="49.82188767" lon="7.81355333">
                <time>2015-01-04T15:00:04.000Z</time>
                <sat>201</sat>
            </trkpt>
            <trkpt lat="49.8219085" lon="7.81354467">
                <time>2015-01-04T15:00:05.000Z</time>
                <sat>201</sat>
            </trkpt>
            <trkpt lat="49.821929" lon="7.81353617">
                <time>2015-01-04T15:00:06.000Z</time>
                <sat>201</sat>
            </trkpt>
            <trkpt lat="49.821949" lon="7.8135265">
                <time>2015-01-04T15:00:07.000Z</time>
                <sat>201</sat>
            </trkpt>
            <trkpt lat="49.82196733" lon="7.813515">
                <time>2015-01-04T15:00:08.000Z</time>
                <sat>201</sat>
            </trkpt>
            <trkpt lat="49.82198567" lon="7.81350167">
                <time>2015-01-04T15:00:09.000Z</time>
                <sat>202</sat>
            </trkpt>
            <trkpt lat="49.82200483" lon="7.813489">
                <time>2015-01-04T15:00:10.000Z</time>
                <sat>202</sat>
            </trkpt>
            <trkpt lat="49.82202417" lon="7.813478">
                <time>2015-01-04T15:00:11.000Z</time>
                <sat>202</sat>
            </trkpt>
            <trkpt lat="49.82204283" lon="7.81346817">
                <time>2015-01-04T15:00:12.000Z</time>
                <sat>202</sat>
            </trkpt>
            <trkpt lat="49.822061" lon="7.81345867">
                <time>2015-01-04T15:00:13.000Z</time>
                <sat>202</sat>
            </trkpt>
            <trkpt lat="49.8220805" lon="7.81345067">
                <time>2015-01-04T15:00:14.000Z</time>
                <sat>202</sat>
            </trkpt>
            <trkpt lat="49.82210117" lon="7.813443">
                <time>2015-01-04T15:00:15.000Z</time>
                <sat>203</sat>
            </trkpt>
            <trkpt lat="49.822119" lon="7.81343183">
                <time>2015-01-04T15:00:16.000Z</time>
                <sat>203</sat>
            </trkpt>
            <trkpt lat="49.8221335" lon="7.81341883">
                <time>2015-01-04T15:00:17.000Z</time>
                <sat>203</sat>
            </trkpt>
            <trkpt lat="49.82214983" lon="7.81340833">
                <time>2015-01-04T15:00:18.000Z</time>
                <sat>203</sat>
            </trkpt>
            <trkpt lat="49.82216617" lon="7.81339733">
                <time>2015-01-04T15:00:19.000Z</time>
                <sat>203</sat>
            </trkpt>
            <trkpt lat="49.82218283" lon="7.81338667">
                <time>2015-01-04T15:00:20.000Z</time>
                <sat>203</sat>
            </trkpt>
            <trkpt lat="49.8222015" lon="7.81337817">
                <time>2015-01-04T15:00:21.000Z</time>
                <sat>203</sat>
            </trkpt>
            <trkpt lat="49.8222195" lon="7.81337017">
                <time>2015-01-04T15:00:22.000Z</time>
                <sat>204</sat>
            </trkpt>
            <trkpt lat="49.822236" lon="7.81336167">
                <time>2015-01-04T15:00:23.000Z</time>
                <sat>204</sat>
            </trkpt>
            <trkpt lat="49.82225083" lon="7.8133515">
                <time>2015-01-04T15:00:24.000Z</time>
                <sat>204</sat>
            </trkpt>
            <trkpt lat="49.8222665" lon="7.81334217">
                <time>2015-01-04T15:00:25.000Z</time>
                <sat>204</sat>
            </trkpt>
            <trkpt lat="49.8222835" lon="7.81333467">
                <time>2015-01-04T15:00:26.000Z</time>
                <sat>204</sat>
            </trkpt>
            <trkpt lat="49.8223015" lon="7.81332817">
                <time>2015-01-04T15:00:27.000Z</time>
                <sat>204</sat>
            </trkpt>
            <trkpt lat="49.82231933" lon="7.8133215">
                <time>2015-01-04T15:00:28.000Z</time>
                <sat>204</sat>
            </trkpt>
            <trkpt lat="49.82233717" lon="7.81331483">
                <time>2015-01-04T15:00:29.000Z</time>
                <sat>204</sat>
            </trkpt>
            <trkpt lat="49.82235667" lon="7.81330933">
                <time>2015-01-04T15:00:30.000Z</time>
                <sat>204</sat>
            </trkpt>
            <trkpt lat="49.82237683" lon="7.81330283">
                <time>2015-01-04T15:00:31.000Z</time>
                <sat>204</sat>
            </trkpt>
            <trkpt lat="49.82239717" lon="7.81329517">
                <time>2015-01-04T15:00:32.000Z</time>
                <sat>204</sat>
            </trkpt>
            <trkpt lat="49.82241617" lon="7.813287">
                <time>2015-01-04T15:00:33.000Z</time>
                <sat>204</sat>
            </trkpt>
            <trkpt lat="49.82243467" lon="7.81327867">
                <time>2015-01-04T15:00:34.000Z</time>
                <sat>205</sat>
            </trkpt>
            <trkpt lat="49.82245317" lon="7.81327033">
                <time>2015-01-04T15:00:35.000Z</time>
                <sat>205</sat>
            </trkpt>
            <trkpt lat="49.82247133" lon="7.8132625">
                <time>2015-01-04T15:00:36.000Z</time>
                <sat>205</sat>
            </trkpt>
            <trkpt lat="49.82249" lon="7.8132555">
                <time>2015-01-04T15:00:37.000Z</time>
                <sat>205</sat>
            </trkpt>
            <trkpt lat="49.822509" lon="7.81324817">
                <time>2015-01-04T15:00:38.000Z</time>
                <sat>205</sat>
            </trkpt>
            <trkpt lat="49.82252833" lon="7.81324117">
                <time>2015-01-04T15:00:39.000Z</time>
                <sat>205</sat>
            </trkpt>
            <trkpt lat="49.82254733" lon="7.81323467">
                <time>2015-01-04T15:00:40.000Z</time>
                <sat>205</sat>
            </trkpt>
            <trkpt lat="49.822567" lon="7.81322817">
                <time>2015-01-04T15:00:41.000Z</time>
                <sat>206</sat>
            </trkpt>
            <trkpt lat="49.82258683" lon="7.81322133">
                <time>2015-01-04T15:00:42.000Z</time>
                <sat>206</sat>
            </trkpt>
            <trkpt lat="49.82260567" lon="7.81321333">
                <time>2015-01-04T15:00:43.000Z</time>
                <sat>206</sat>
            </trkpt>
            <trkpt lat="49.82262467" lon="7.81320533">
                <time>2015-01-04T15:00:44.000Z</time>
                <sat>206</sat>
            </trkpt>
            <trkpt lat="49.82264383" lon="7.81319817">
                <time>2015-01-04T15:00:45.000Z</time>
                <sat>206</sat>
            </trkpt>
            <trkpt lat="49.8226645" lon="7.8131915">
                <time>2015-01-04T15:00:46.000Z</time>
                <sat>207</sat>
            </trkpt>
            <trkpt lat="49.8226845" lon="7.8131845">
                <time>2015-01-04T15:00:47.000Z</time>
                <sat>207</sat>
            </trkpt>
            <trkpt lat="49.8227045" lon="7.81317717">
                <time>2015-01-04T15:00:48.000Z</time>
                <sat>207</sat>
            </trkpt>
            <trkpt lat="49.822725" lon="7.8131705">
                <time>2015-01-04T15:00:49.000Z</time>
                <sat>207</sat>
            </trkpt>
            <trkpt lat="49.82274517" lon="7.81316383">
                <time>2015-01-04T15:00:50.000Z</time>
                <sat>207</sat>
            </trkpt>
            <trkpt lat="49.82276367" lon="7.81315567">
                <time>2015-01-04T15:00:51.000Z</time>
                <sat>208</sat>
            </trkpt>
            <trkpt lat="49.82278217" lon="7.81314783">
                <time>2015-01-04T15:00:52.000Z</time>
                <sat>208</sat>
            </trkpt>
            <trkpt lat="49.8228015" lon="7.81314117">
                <time>2015-01-04T15:00:53.000Z</time>
                <sat>208</sat>
            </trkpt>
            <trkpt lat="49.82282083" lon="7.81313383">
                <time>2015-01-04T15:00:54.000Z</time>
                <sat>208</sat>
            </trkpt>
            <trkpt lat="49.8228395" lon="7.81312567">
                <time>2015-01-04T15:00:55.000Z</time>
                <sat>208</sat>
            </trkpt>
            <trkpt lat="49.822858" lon="7.81311717">
                <time>2015-01-04T15:00:56.000Z</time>
                <sat>208</sat>
            </trkpt>
            <trkpt lat="49.82287817" lon="7.81310983">
                <time>2015-01-04T15:00:57.000Z</time>
                <sat>209</sat>
            </trkpt>
            <trkpt lat="49.8228975" lon="7.813103">
                <time>2015-01-04T15:00:58.000Z</time>
                <sat>209</sat>
            </trkpt>
            <trkpt lat="49.82291567" lon="7.81309467">
                <time>2015-01-04T15:00:59.000Z</time>
                <sat>209</sat>
            </trkpt>
            <trkpt lat="49.8229325" lon="7.8130855">
                <time>2015-01-04T15:01:00.000Z</time>
                <sat>209</sat>
            </trkpt>
            <trkpt lat="49.82294967" lon="7.813076">
                <time>2015-01-04T15:01:01.000Z</time>
                <sat>209</sat>
            </trkpt>
            <trkpt lat="49.82296833" lon="7.8130665">
                <time>2015-01-04T15:01:02.000Z</time>
                <sat>209</sat>
            </trkpt>
            <trkpt lat="49.822986" lon="7.813057">
                <time>2015-01-04T15:01:03.000Z</time>
                <sat>209</sat>
            </trkpt>
            <trkpt lat="49.82300367" lon="7.81304817">
                <time>2015-01-04T15:01:04.000Z</time>
                <sat>210</sat>
            </trkpt>
            <trkpt lat="49.82302283" lon="7.81303967">
                <time>2015-01-04T15:01:05.000Z</time>
                <sat>210</sat>
            </trkpt>
            <trkpt lat="49.823042" lon="7.813031">
                <time>2015-01-04T15:01:06.000Z</time>
                <sat>210</sat>
            </trkpt>
            <trkpt lat="49.8230605" lon="7.813023">
                <time>2015-01-04T15:01:07.000Z</time>
                <sat>210</sat>
            </trkpt>
            <trkpt lat="49.82307883" lon="7.81301533">
                <time>2015-01-04T15:01:08.000Z</time>
                <sat>210</sat>
            </trkpt>
            <trkpt lat="49.82309683" lon="7.813009">
                <time>2015-01-04T15:01:09.000Z</time>
                <sat>210</sat>
            </trkpt>
            <trkpt lat="49.82311517" lon="7.81300317">
                <time>2015-01-04T15:01:10.000Z</time>
                <sat>210</sat>
            </trkpt>
            <trkpt lat="49.823133" lon="7.81299667">
                <time>2015-01-04T15:01:11.000Z</time>
                <sat>210</sat>
            </trkpt>
            <trkpt lat="49.82314933" lon="7.81298817">
                <time>2015-01-04T15:01:12.000Z</time>
                <sat>210</sat>
            </trkpt>
            <trkpt lat="49.82316533" lon="7.81298">
                <time>2015-01-04T15:01:13.000Z</time>
                <sat>210</sat>
            </trkpt>
            <trkpt lat="49.82318217" lon="7.812974">
                <time>2015-01-04T15:01:14.000Z</time>
                <sat>210</sat>
            </trkpt>
            <trkpt lat="49.823198" lon="7.81296683">
                <time>2015-01-04T15:01:15.000Z</time>
                <sat>210</sat>
            </trkpt>
            <trkpt lat="49.82321267" lon="7.81295933">
                <time>2015-01-04T15:01:16.000Z</time>
                <sat>210</sat>
            </trkpt>
            <trkpt lat="49.82322767" lon="7.81295267">
                <time>2015-01-04T15:01:17.000Z</time>
                <sat>210</sat>
            </trkpt>
            <trkpt lat="49.823242" lon="7.81294583">
                <time>2015-01-04T15:01:18.000Z</time>
                <sat>210</sat>
            </trkpt>
            <trkpt lat="49.82325583" lon="7.81293817">
                <time>2015-01-04T15:01:19.000Z</time>
                <sat>210</sat>
            </trkpt>
            <trkpt lat="49.82327033" lon="7.81293117">
                <time>2015-01-04T15:01:20.000Z</time>
                <sat>210</sat>
            </trkpt>
            <trkpt lat="49.82328683" lon="7.81292533">
                <time>2015-01-04T15:01:21.000Z</time>
                <sat>210</sat>
            </trkpt>
            <trkpt lat="49.82330533" lon="7.81292133">
                <time>2015-01-04T15:01:22.000Z</time>
                <sat>210</sat>
            </trkpt>
            <trkpt lat="49.8233245" lon="7.81291917">
                <time>2015-01-04T15:01:23.000Z</time>
                <sat>210</sat>
            </trkpt>
            <trkpt lat="49.82334367" lon="7.81291633">
                <time>2015-01-04T15:01:24.000Z</time>
                <sat>210</sat>
            </trkpt>
            <trkpt lat="49.82336283" lon="7.81291317">
                <time>2015-01-04T15:01:25.000Z</time>
                <sat>210</sat>
            </trkpt>
            <trkpt lat="49.82338" lon="7.81290983">
                <time>2015-01-04T15:01:26.000Z</time>
                <sat>210</sat>
            </trkpt>
            <trkpt lat="49.8233975" lon="7.8129065">
                <time>2015-01-04T15:01:27.000Z</time>
                <sat>210</sat>
            </trkpt>
            <trkpt lat="49.82341533" lon="7.81290317">
                <time>2015-01-04T15:01:28.000Z</time>
                <sat>210</sat>
            </trkpt>
            <trkpt lat="49.82343183" lon="7.81289933">
                <time>2015-01-04T15:01:29.000Z</time>
                <sat>210</sat>
            </trkpt>
            <trkpt lat="49.8234395" lon="7.812897">
                <time>2015-01-04T15:01:30.000Z</time>
                <sat>210</sat>
            </trkpt>
            <trkpt lat="49.82345317" lon="7.81289217">
                <time>2015-01-04T15:01:31.000Z</time>
                <sat>211</sat>
            </trkpt>
            <trkpt lat="49.823467" lon="7.81288733">
                <time>2015-01-04T15:01:32.000Z</time>
                <sat>211</sat>
            </trkpt>
            <trkpt lat="49.82348117" lon="7.81288267">
                <time>2015-01-04T15:01:33.000Z</time>
                <sat>211</sat>
            </trkpt>
            <trkpt lat="49.82349733" lon="7.812879">
                <time>2015-01-04T15:01:34.000Z</time>
                <sat>211</sat>
            </trkpt>
            <trkpt lat="49.8235135" lon="7.81287533">
                <time>2015-01-04T15:01:35.000Z</time>
                <sat>211</sat>
            </trkpt>
            <trkpt lat="49.82352917" lon="7.81287217">
                <time>2015-01-04T15:01:36.000Z</time>
                <sat>211</sat>
            </trkpt>
            <trkpt lat="49.8235445" lon="7.81286883">
                <time>2015-01-04T15:01:37.000Z</time>
                <sat>211</sat>
            </trkpt>
            <trkpt lat="49.8235595" lon="7.81286617">
                <time>2015-01-04T15:01:38.000Z</time>
                <sat>211</sat>
            </trkpt>
            <trkpt lat="49.82357533" lon="7.812864">
                <time>2015-01-04T15:01:39.000Z</time>
                <sat>211</sat>
            </trkpt>
            <trkpt lat="49.8235915" lon="7.81286117">
                <time>2015-01-04T15:01:40.000Z</time>
                <sat>211</sat>
            </trkpt>
            <trkpt lat="49.82360783" lon="7.81285833">
                <time>2015-01-04T15:01:41.000Z</time>
                <sat>211</sat>
            </trkpt>
            <trkpt lat="49.82362667" lon="7.81285617">
                <time>2015-01-04T15:01:42.000Z</time>
                <sat>211</sat>
            </trkpt>
            <trkpt lat="49.823645" lon="7.81285417">
                <time>2015-01-04T15:01:43.000Z</time>
                <sat>211</sat>
            </trkpt>
            <trkpt lat="49.8236635" lon="7.81285283">
                <time>2015-01-04T15:01:44.000Z</time>
                <sat>211</sat>
            </trkpt>
            <trkpt lat="49.823681" lon="7.81285167">
                <time>2015-01-04T15:01:45.000Z</time>
                <sat>211</sat>
            </trkpt>
            <trkpt lat="49.82369883" lon="7.81285117">
                <time>2015-01-04T15:01:46.000Z</time>
                <sat>212</sat>
            </trkpt>
            <trkpt lat="49.8237165" lon="7.81285017">
                <time>2015-01-04T15:01:47.000Z</time>
                <sat>212</sat>
            </trkpt>
            <trkpt lat="49.82373283" lon="7.81284883">
                <time>2015-01-04T15:01:48.000Z</time>
                <sat>211</sat>
            </trkpt>
            <trkpt lat="49.82375017" lon="7.8128475">
                <time>2015-01-04T15:01:49.000Z</time>
                <sat>212</sat>
            </trkpt>
            <trkpt lat="49.8237665" lon="7.8128465">
                <time>2015-01-04T15:01:50.000Z</time>
                <sat>211</sat>
            </trkpt>
            <trkpt lat="49.823783" lon="7.8128445">
                <time>2015-01-04T15:01:51.000Z</time>
                <sat>211</sat>
            </trkpt>
            <trkpt lat="49.82379917" lon="7.81284233">
                <time>2015-01-04T15:01:52.000Z</time>
                <sat>212</sat>
            </trkpt>
            <trkpt lat="49.82381633" lon="7.81284">
                <time>2015-01-04T15:01:53.000Z</time>
                <sat>212</sat>
            </trkpt>
            <trkpt lat="49.82383417" lon="7.81283867">
                <time>2015-01-04T15:01:54.000Z</time>
                <sat>212</sat>
            </trkpt>
            <trkpt lat="49.82385233" lon="7.81283817">
                <time>2015-01-04T15:01:55.000Z</time>
                <sat>212</sat>
            </trkpt>
            <trkpt lat="49.82387083" lon="7.81283783">
                <time>2015-01-04T15:01:56.000Z</time>
                <sat>212</sat>
            </trkpt>
            <trkpt lat="49.82388983" lon="7.81283783">
                <time>2015-01-04T15:01:57.000Z</time>
                <sat>212</sat>
            </trkpt>
            <trkpt lat="49.82390883" lon="7.81283767">
                <time>2015-01-04T15:01:58.000Z</time>
                <sat>212</sat>
            </trkpt>
            <trkpt lat="49.82392817" lon="7.8128375">
                <time>2015-01-04T15:01:59.000Z</time>
                <sat>213</sat>
            </trkpt>
            <trkpt lat="49.823948" lon="7.81283833">
                <time>2015-01-04T15:02:00.000Z</time>
                <sat>213</sat>
            </trkpt>
            <trkpt lat="49.82396717" lon="7.81283883">
                <time>2015-01-04T15:02:01.000Z</time>
                <sat>213</sat>
            </trkpt>
            <trkpt lat="49.8239875" lon="7.81284">
                <time>2015-01-04T15:02:02.000Z</time>
                <sat>213</sat>
            </trkpt>
            <trkpt lat="49.82400717" lon="7.81284033">
                <time>2015-01-04T15:02:03.000Z</time>
                <sat>213</sat>
            </trkpt>
            <trkpt lat="49.82402717" lon="7.81284033">
                <time>2015-01-04T15:02:04.000Z</time>
                <sat>214</sat>
            </trkpt>
            <trkpt lat="49.82404667" lon="7.81284133">
                <time>2015-01-04T15:02:05.000Z</time>
                <sat>214</sat>
            </trkpt>
            <trkpt lat="49.8240655" lon="7.8128415">
                <time>2015-01-04T15:02:06.000Z</time>
                <sat>214</sat>
            </trkpt>
            <trkpt lat="49.824085" lon="7.812843">
                <time>2015-01-04T15:02:07.000Z</time>
                <sat>214</sat>
            </trkpt>
            <trkpt lat="49.824104" lon="7.81284417">
                <time>2015-01-04T15:02:08.000Z</time>
                <sat>214</sat>
            </trkpt>
            <trkpt lat="49.82412267" lon="7.812845">
                <time>2015-01-04T15:02:09.000Z</time>
                <sat>213</sat>
            </trkpt>
            <trkpt lat="49.82414183" lon="7.81284533">
                <time>2015-01-04T15:02:10.000Z</time>
                <sat>214</sat>
            </trkpt>
            <trkpt lat="49.82416033" lon="7.81284483">
                <time>2015-01-04T15:02:11.000Z</time>
                <sat>213</sat>
            </trkpt>
            <trkpt lat="49.82417917" lon="7.8128445">
                <time>2015-01-04T15:02:12.000Z</time>
                <sat>213</sat>
            </trkpt>
            <trkpt lat="49.82419717" lon="7.812844">
                <time>2015-01-04T15:02:13.000Z</time>
                <sat>213</sat>
            </trkpt>
            <trkpt lat="49.8242155" lon="7.81284333">
                <time>2015-01-04T15:02:14.000Z</time>
                <sat>213</sat>
            </trkpt>
            <trkpt lat="49.8242335" lon="7.81284317">
                <time>2015-01-04T15:02:15.000Z</time>
                <sat>213</sat>
            </trkpt>
            <trkpt lat="49.824252" lon="7.81284317">
                <time>2015-01-04T15:02:16.000Z</time>
                <sat>213</sat>
            </trkpt>
            <trkpt lat="49.8242715" lon="7.81284417">
                <time>2015-01-04T15:02:17.000Z</time>
                <sat>213</sat>
            </trkpt>
            <trkpt lat="49.82429117" lon="7.81284483">
                <time>2015-01-04T15:02:18.000Z</time>
                <sat>213</sat>
            </trkpt>
            <trkpt lat="49.82431117" lon="7.81284533">
                <time>2015-01-04T15:02:19.000Z</time>
                <sat>213</sat>
            </trkpt>
            <trkpt lat="49.82433017" lon="7.812846">
                <time>2015-01-04T15:02:20.000Z</time>
                <sat>214</sat>
            </trkpt>
            <trkpt lat="49.82435017" lon="7.81284983">
                <time>2015-01-04T15:02:21.000Z</time>
                <sat>214</sat>
            </trkpt>
            <trkpt lat="49.82437017" lon="7.812858">
                <time>2015-01-04T15:02:22.000Z</time>
                <sat>213</sat>
            </trkpt>
            <trkpt lat="49.82438967" lon="7.8128695">
                <time>2015-01-04T15:02:23.000Z</time>
                <sat>213</sat>
            </trkpt>
            <trkpt lat="49.82440767" lon="7.81288433">
                <time>2015-01-04T15:02:24.000Z</time>
                <sat>213</sat>
            </trkpt>
            <trkpt lat="49.824424" lon="7.81289967">
                <time>2015-01-04T15:02:25.000Z</time>
                <sat>213</sat>
            </trkpt>
            <trkpt lat="49.82443933" lon="7.812916">
                <time>2015-01-04T15:02:26.000Z</time>
                <sat>213</sat>
            </trkpt>
            <trkpt lat="49.824455" lon="7.81293133">
                <time>2015-01-04T15:02:27.000Z</time>
                <sat>213</sat>
            </trkpt>
            <trkpt lat="49.82447133" lon="7.81294533">
                <time>2015-01-04T15:02:28.000Z</time>
                <sat>213</sat>
            </trkpt>
            <trkpt lat="49.82448833" lon="7.81295733">
                <time>2015-01-04T15:02:29.000Z</time>
                <sat>212</sat>
            </trkpt>
            <trkpt lat="49.82450467" lon="7.81296483">
                <time>2015-01-04T15:02:30.000Z</time>
                <sat>213</sat>
            </trkpt>
            <trkpt lat="49.8245215" lon="7.8129695">
                <time>2015-01-04T15:02:31.000Z</time>
                <sat>213</sat>
            </trkpt>
            <trkpt lat="49.8245385" lon="7.81297117">
                <time>2015-01-04T15:02:32.000Z</time>
                <sat>212</sat>
            </trkpt>
            <trkpt lat="49.8245565" lon="7.81297183">
                <time>2015-01-04T15:02:33.000Z</time>
                <sat>212</sat>
            </trkpt>
            <trkpt lat="49.82457533" lon="7.81297117">
                <time>2015-01-04T15:02:34.000Z</time>
                <sat>212</sat>
            </trkpt>
            <trkpt lat="49.82459517" lon="7.81296967">
                <time>2015-01-04T15:02:35.000Z</time>
                <sat>213</sat>
            </trkpt>
            <trkpt lat="49.82461533" lon="7.81296733">
                <time>2015-01-04T15:02:36.000Z</time>
                <sat>213</sat>
            </trkpt>
            <trkpt lat="49.82463483" lon="7.81296383">
                <time>2015-01-04T15:02:37.000Z</time>
                <sat>213</sat>
            </trkpt>
            <trkpt lat="49.824654" lon="7.81295867">
                <time>2015-01-04T15:02:38.000Z</time>
                <sat>213</sat>
            </trkpt>
            <trkpt lat="49.82468217" lon="7.81294783">
                <time>2015-01-04T15:02:39.000Z</time>
                <sat>213</sat>
            </trkpt>
            <trkpt lat="49.82470283" lon="7.81293633">
                <time>2015-01-04T15:02:40.000Z</time>
                <sat>213</sat>
            </trkpt>
            <trkpt lat="49.82472383" lon="7.81292217">
                <time>2015-01-04T15:02:41.000Z</time>
                <sat>213</sat>
            </trkpt>
            <trkpt lat="49.824742" lon="7.81290667">
                <time>2015-01-04T15:02:42.000Z</time>
                <sat>214</sat>
            </trkpt>
            <trkpt lat="49.82475967" lon="7.81288867">
                <time>2015-01-04T15:02:43.000Z</time>
                <sat>214</sat>
            </trkpt>
            <trkpt lat="49.8247755" lon="7.8128685">
                <time>2015-01-04T15:02:44.000Z</time>
                <sat>214</sat>
            </trkpt>
            <trkpt lat="49.82479083" lon="7.8128465">
                <time>2015-01-04T15:02:45.000Z</time>
                <sat>214</sat>
            </trkpt>
            <trkpt lat="49.824806" lon="7.8128235">
                <time>2015-01-04T15:02:46.000Z</time>
                <sat>214</sat>
            </trkpt>
            <trkpt lat="49.824821" lon="7.81280033">
                <time>2015-01-04T15:02:47.000Z</time>
                <sat>214</sat>
            </trkpt>
            <trkpt lat="49.82483633" lon="7.81277767">
                <time>2015-01-04T15:02:48.000Z</time>
                <sat>214</sat>
            </trkpt>
            <trkpt lat="49.824853" lon="7.81275867">
                <time>2015-01-04T15:02:49.000Z</time>
                <sat>214</sat>
            </trkpt>
            <trkpt lat="49.82487217" lon="7.81274483">
                <time>2015-01-04T15:02:50.000Z</time>
                <sat>214</sat>
            </trkpt>
            <trkpt lat="49.82489133" lon="7.81273267">
                <time>2015-01-04T15:02:51.000Z</time>
                <sat>214</sat>
            </trkpt>
            <trkpt lat="49.82490967" lon="7.81272067">
                <time>2015-01-04T15:02:52.000Z</time>
                <sat>215</sat>
            </trkpt>
            <trkpt lat="49.82492717" lon="7.81270983">
                <time>2015-01-04T15:02:53.000Z</time>
                <sat>214</sat>
            </trkpt>
            <trkpt lat="49.82494517" lon="7.81269933">
                <time>2015-01-04T15:02:54.000Z</time>
                <sat>214</sat>
            </trkpt>
            <trkpt lat="49.82496367" lon="7.81268867">
                <time>2015-01-04T15:02:55.000Z</time>
                <sat>214</sat>
            </trkpt>
            <trkpt lat="49.82498167" lon="7.8126785">
                <time>2015-01-04T15:02:56.000Z</time>
                <sat>214</sat>
            </trkpt>
            <trkpt lat="49.82500067" lon="7.81266917">
                <time>2015-01-04T15:02:57.000Z</time>
                <sat>214</sat>
            </trkpt>
            <trkpt lat="49.82501867" lon="7.81265867">
                <time>2015-01-04T15:02:58.000Z</time>
                <sat>214</sat>
            </trkpt>
            <trkpt lat="49.82503583" lon="7.81264733">
                <time>2015-01-04T15:02:59.000Z</time>
                <sat>214</sat>
            </trkpt>
            <trkpt lat="49.825053" lon="7.81263583">
                <time>2015-01-04T15:03:00.000Z</time>
                <sat>214</sat>
            </trkpt>
            <trkpt lat="49.82507033" lon="7.81262433">
                <time>2015-01-04T15:03:01.000Z</time>
                <sat>214</sat>
            </trkpt>
            <trkpt lat="49.82508867" lon="7.81261383">
                <time>2015-01-04T15:03:02.000Z</time>
                <sat>214</sat>
            </trkpt>
            <trkpt lat="49.82510683" lon="7.8126045">
                <time>2015-01-04T15:03:03.000Z</time>
                <sat>213</sat>
            </trkpt>
            <trkpt lat="49.82512567" lon="7.812596">
                <time>2015-01-04T15:03:04.000Z</time>
                <sat>213</sat>
            </trkpt>
            <trkpt lat="49.825144" lon="7.81258667">
                <time>2015-01-04T15:03:05.000Z</time>
                <sat>213</sat>
            </trkpt>
            <trkpt lat="49.82516233" lon="7.81257667">
                <time>2015-01-04T15:03:06.000Z</time>
                <sat>213</sat>
            </trkpt>
            <trkpt lat="49.8251805" lon="7.81256567">
                <time>2015-01-04T15:03:07.000Z</time>
                <sat>213</sat>
            </trkpt>
            <trkpt lat="49.82519783" lon="7.81255483">
                <time>2015-01-04T15:03:08.000Z</time>
                <sat>212</sat>
            </trkpt>
            <trkpt lat="49.825215" lon="7.81254317">
                <time>2015-01-04T15:03:09.000Z</time>
                <sat>212</sat>
            </trkpt>
            <trkpt lat="49.82523133" lon="7.8125295">
                <time>2015-01-04T15:03:10.000Z</time>
                <sat>212</sat>
            </trkpt>
            <trkpt lat="49.82524867" lon="7.81251467">
                <time>2015-01-04T15:03:11.000Z</time>
                <sat>212</sat>
            </trkpt>
            <trkpt lat="49.8252655" lon="7.81249883">
                <time>2015-01-04T15:03:12.000Z</time>
                <sat>212</sat>
            </trkpt>
            <trkpt lat="49.82528183" lon="7.81248233">
                <time>2015-01-04T15:03:13.000Z</time>
                <sat>211</sat>
            </trkpt>
            <trkpt lat="49.8252985" lon="7.8124665">
                <time>2015-01-04T15:03:14.000Z</time>
                <sat>211</sat>
            </trkpt>
            <trkpt lat="49.82531517" lon="7.81245117">
                <time>2015-01-04T15:03:15.000Z</time>
                <sat>211</sat>
            </trkpt>
            <trkpt lat="49.82533167" lon="7.81243583">
                <time>2015-01-04T15:03:16.000Z</time>
                <sat>210</sat>
            </trkpt>
            <trkpt lat="49.82534767" lon="7.81242067">
                <time>2015-01-04T15:03:17.000Z</time>
                <sat>210</sat>
            </trkpt>
            <trkpt lat="49.825364" lon="7.81240583">
                <time>2015-01-04T15:03:18.000Z</time>
                <sat>211</sat>
            </trkpt>
            <trkpt lat="49.82538133" lon="7.81239183">
                <time>2015-01-04T15:03:19.000Z</time>
                <sat>210</sat>
            </trkpt>
            <trkpt lat="49.82539933" lon="7.81237767">
                <time>2015-01-04T15:03:20.000Z</time>
                <sat>210</sat>
            </trkpt>
            <trkpt lat="49.82541633" lon="7.81236333">
                <time>2015-01-04T15:03:21.000Z</time>
                <sat>210</sat>
            </trkpt>
            <trkpt lat="49.825433" lon="7.81234983">
                <time>2015-01-04T15:03:22.000Z</time>
                <sat>209</sat>
            </trkpt>
            <trkpt lat="49.82545067" lon="7.81233633">
                <time>2015-01-04T15:03:23.000Z</time>
                <sat>209</sat>
            </trkpt>
            <trkpt lat="49.82546767" lon="7.8123235">
                <time>2015-01-04T15:03:24.000Z</time>
                <sat>209</sat>
            </trkpt>
            <trkpt lat="49.82548383" lon="7.81231">
                <time>2015-01-04T15:03:25.000Z</time>
                <sat>209</sat>
            </trkpt>
            <trkpt lat="49.8255005" lon="7.81229633">
                <time>2015-01-04T15:03:26.000Z</time>
                <sat>209</sat>
            </trkpt>
            <trkpt lat="49.8255175" lon="7.81228367">
                <time>2015-01-04T15:03:27.000Z</time>
                <sat>209</sat>
            </trkpt>
            <trkpt lat="49.82553467" lon="7.81227117">
                <time>2015-01-04T15:03:28.000Z</time>
                <sat>209</sat>
            </trkpt>
            <trkpt lat="49.82555167" lon="7.81225767">
                <time>2015-01-04T15:03:29.000Z</time>
                <sat>209</sat>
            </trkpt>
            <trkpt lat="49.82556917" lon="7.812244">
                <time>2015-01-04T15:03:30.000Z</time>
                <sat>209</sat>
            </trkpt>
            <trkpt lat="49.825587" lon="7.81223133">
                <time>2015-01-04T15:03:31.000Z</time>
                <sat>209</sat>
            </trkpt>
            <trkpt lat="49.825604" lon="7.81221833">
                <time>2015-01-04T15:03:32.000Z</time>
                <sat>208</sat>
            </trkpt>
            <trkpt lat="49.8256215" lon="7.812204">
                <time>2015-01-04T15:03:33.000Z</time>
                <sat>208</sat>
            </trkpt>
            <trkpt lat="49.82563883" lon="7.81218967">
                <time>2015-01-04T15:03:34.000Z</time>
                <sat>208</sat>
            </trkpt>
            <trkpt lat="49.82565617" lon="7.812176">
                <time>2015-01-04T15:03:35.000Z</time>
                <sat>208</sat>
            </trkpt>
            <trkpt lat="49.82567333" lon="7.81216317">
                <time>2015-01-04T15:03:36.000Z</time>
                <sat>207</sat>
            </trkpt>
            <trkpt lat="49.82569017" lon="7.81215083">
                <time>2015-01-04T15:03:37.000Z</time>
                <sat>207</sat>
            </trkpt>
            <trkpt lat="49.825708" lon="7.81213867">
                <time>2015-01-04T15:03:38.000Z</time>
                <sat>207</sat>
            </trkpt>
            <trkpt lat="49.8257265" lon="7.8121265">
                <time>2015-01-04T15:03:39.000Z</time>
                <sat>206</sat>
            </trkpt>
            <trkpt lat="49.82574533" lon="7.81211433">
                <time>2015-01-04T15:03:40.000Z</time>
                <sat>206</sat>
            </trkpt>
            <trkpt lat="49.82576333" lon="7.81210233">
                <time>2015-01-04T15:03:41.000Z</time>
                <sat>205</sat>
            </trkpt>
            <trkpt lat="49.82578133" lon="7.81209183">
                <time>2015-01-04T15:03:42.000Z</time>
                <sat>205</sat>
            </trkpt>
            <trkpt lat="49.82579983" lon="7.81208233">
                <time>2015-01-04T15:03:43.000Z</time>
                <sat>205</sat>
            </trkpt>
            <trkpt lat="49.82581733" lon="7.8120725">
                <time>2015-01-04T15:03:44.000Z</time>
                <sat>204</sat>
            </trkpt>
            <trkpt lat="49.825836" lon="7.81206383">
                <time>2015-01-04T15:03:45.000Z</time>
                <sat>205</sat>
            </trkpt>
            <trkpt lat="49.82585417" lon="7.81205517">
                <time>2015-01-04T15:03:46.000Z</time>
                <sat>204</sat>
            </trkpt>
            <trkpt lat="49.82587267" lon="7.812047">
                <time>2015-01-04T15:03:47.000Z</time>
                <sat>204</sat>
            </trkpt>
            <trkpt lat="49.82589217" lon="7.8120395">
                <time>2015-01-04T15:03:48.000Z</time>
                <sat>204</sat>
            </trkpt>
            <trkpt lat="49.82591117" lon="7.81203117">
                <time>2015-01-04T15:03:49.000Z</time>
                <sat>204</sat>
            </trkpt>
            <trkpt lat="49.82593033" lon="7.81202283">
                <time>2015-01-04T15:03:50.000Z</time>
                <sat>203</sat>
            </trkpt>
            <trkpt lat="49.825949" lon="7.81201417">
                <time>2015-01-04T15:03:51.000Z</time>
                <sat>203</sat>
            </trkpt>
            <trkpt lat="49.825968" lon="7.81200567">
                <time>2015-01-04T15:03:52.000Z</time>
                <sat>203</sat>
            </trkpt>
            <trkpt lat="49.825987" lon="7.81199817">
                <time>2015-01-04T15:03:53.000Z</time>
                <sat>203</sat>
            </trkpt>
            <trkpt lat="49.826006" lon="7.8119905">
                <time>2015-01-04T15:03:54.000Z</time>
                <sat>203</sat>
            </trkpt>
            <trkpt lat="49.82602517" lon="7.81198283">
                <time>2015-01-04T15:03:55.000Z</time>
                <sat>203</sat>
            </trkpt>
            <trkpt lat="49.82604383" lon="7.81197533">
                <time>2015-01-04T15:03:56.000Z</time>
                <sat>203</sat>
            </trkpt>
            <trkpt lat="49.82606267" lon="7.81196833">
                <time>2015-01-04T15:03:57.000Z</time>
                <sat>202</sat>
            </trkpt>
            <trkpt lat="49.82608217" lon="7.81196383">
                <time>2015-01-04T15:03:58.000Z</time>
                <sat>202</sat>
            </trkpt>
            <trkpt lat="49.826103" lon="7.81196183">
                <time>2015-01-04T15:03:59.000Z</time>
                <sat>202</sat>
            </trkpt>
            <trkpt lat="49.82612367" lon="7.81196033">
                <time>2015-01-04T15:04:00.000Z</time>
                <sat>202</sat>
            </trkpt>
            <trkpt lat="49.826144" lon="7.81195883">
                <time>2015-01-04T15:04:01.000Z</time>
                <sat>201</sat>
            </trkpt>
            <trkpt lat="49.826165" lon="7.81195783">
                <time>2015-01-04T15:04:02.000Z</time>
                <sat>201</sat>
            </trkpt>
            <trkpt lat="49.8261855" lon="7.81195667">
                <time>2015-01-04T15:04:03.000Z</time>
                <sat>201</sat>
            </trkpt>
            <trkpt lat="49.826206" lon="7.81195617">
                <time>2015-01-04T15:04:04.000Z</time>
                <sat>201</sat>
            </trkpt>
            <trkpt lat="49.8262265" lon="7.8119555">
                <time>2015-01-04T15:04:05.000Z</time>
                <sat>201</sat>
            </trkpt>
            <trkpt lat="49.82624733" lon="7.811955">
                <time>2015-01-04T15:04:06.000Z</time>
                <sat>201</sat>
            </trkpt>
            <trkpt lat="49.82626867" lon="7.8119555">
                <time>2015-01-04T15:04:07.000Z</time>
                <sat>200</sat>
            </trkpt>
            <trkpt lat="49.82628983" lon="7.81195667">
                <time>2015-01-04T15:04:08.000Z</time>
                <sat>200</sat>
            </trkpt>
            <trkpt lat="49.82631083" lon="7.811957">
                <time>2015-01-04T15:04:09.000Z</time>
                <sat>200</sat>
            </trkpt>
            <trkpt lat="49.826332" lon="7.81195733">
                <time>2015-01-04T15:04:10.000Z</time>
                <sat>200</sat>
            </trkpt>
            <trkpt lat="49.82635367" lon="7.811959">
                <time>2015-01-04T15:04:11.000Z</time>
                <sat>200</sat>
            </trkpt>
            <trkpt lat="49.82637433" lon="7.811961">
                <time>2015-01-04T15:04:12.000Z</time>
                <sat>200</sat>
            </trkpt>
            <trkpt lat="49.826395" lon="7.81196267">
                <time>2015-01-04T15:04:13.000Z</time>
                <sat>200</sat>
            </trkpt>
            <trkpt lat="49.826416" lon="7.81196467">
                <time>2015-01-04T15:04:14.000Z</time>
                <sat>199</sat>
            </trkpt>
            <trkpt lat="49.82643683" lon="7.81196717">
                <time>2015-01-04T15:04:15.000Z</time>
                <sat>199</sat>
            </trkpt>
            <trkpt lat="49.82645683" lon="7.81196833">
                <time>2015-01-04T15:04:16.000Z</time>
                <sat>199</sat>
            </trkpt>
            <trkpt lat="49.82647633" lon="7.8119695">
                <time>2015-01-04T15:04:17.000Z</time>
                <sat>199</sat>
            </trkpt>
            <trkpt lat="49.8264965" lon="7.81197333">
                <time>2015-01-04T15:04:18.000Z</time>
                <sat>198</sat>
            </trkpt>
            <trkpt lat="49.82651633" lon="7.81197933">
                <time>2015-01-04T15:04:19.000Z</time>
                <sat>198</sat>
            </trkpt>
            <trkpt lat="49.8265355" lon="7.8119845">
                <time>2015-01-04T15:04:20.000Z</time>
                <sat>198</sat>
            </trkpt>
            <trkpt lat="49.8265545" lon="7.81198933">
                <time>2015-01-04T15:04:21.000Z</time>
                <sat>197</sat>
            </trkpt>
            <trkpt lat="49.82657417" lon="7.81199467">
                <time>2015-01-04T15:04:22.000Z</time>
                <sat>197</sat>
            </trkpt>
            <trkpt lat="49.826594" lon="7.81199917">
                <time>2015-01-04T15:04:23.000Z</time>
                <sat>197</sat>
            </trkpt>
            <trkpt lat="49.82661383" lon="7.81200367">
                <time>2015-01-04T15:04:24.000Z</time>
                <sat>197</sat>
            </trkpt>
            <trkpt lat="49.82663383" lon="7.81200867">
                <time>2015-01-04T15:04:25.000Z</time>
                <sat>197</sat>
            </trkpt>
            <trkpt lat="49.826654" lon="7.81201367">
                <time>2015-01-04T15:04:26.000Z</time>
                <sat>197</sat>
            </trkpt>
            <trkpt lat="49.82667483" lon="7.81201983">
                <time>2015-01-04T15:04:27.000Z</time>
                <sat>197</sat>
            </trkpt>
            <trkpt lat="49.82669583" lon="7.81202767">
                <time>2015-01-04T15:04:28.000Z</time>
                <sat>197</sat>
            </trkpt>
            <trkpt lat="49.82671783" lon="7.81203833">
                <time>2015-01-04T15:04:29.000Z</time>
                <sat>197</sat>
            </trkpt>
            <trkpt lat="49.82673833" lon="7.81205">
                <time>2015-01-04T15:04:30.000Z</time>
                <sat>197</sat>
            </trkpt>
            <trkpt lat="49.82675583" lon="7.81206267">
                <time>2015-01-04T15:04:31.000Z</time>
                <sat>197</sat>
            </trkpt>
            <trkpt lat="49.8267725" lon="7.81207583">
                <time>2015-01-04T15:04:32.000Z</time>
                <sat>197</sat>
            </trkpt>
            <trkpt lat="49.826791" lon="7.81209167">
                <time>2015-01-04T15:04:33.000Z</time>
                <sat>196</sat>
            </trkpt>
            <trkpt lat="49.82681117" lon="7.8121075">
                <time>2015-01-04T15:04:34.000Z</time>
                <sat>197</sat>
            </trkpt>
            <trkpt lat="49.8268325" lon="7.8121215">
                <time>2015-01-04T15:04:35.000Z</time>
                <sat>197</sat>
            </trkpt>
            <trkpt lat="49.82685583" lon="7.812136">
                <time>2015-01-04T15:04:36.000Z</time>
                <sat>197</sat>
            </trkpt>
            <trkpt lat="49.82687933" lon="7.8121495">
                <time>2015-01-04T15:04:37.000Z</time>
                <sat>197</sat>
            </trkpt>
            <trkpt lat="49.82690217" lon="7.812162">
                <time>2015-01-04T15:04:38.000Z</time>
                <sat>198</sat>
            </trkpt>
            <trkpt lat="49.82692433" lon="7.81217267">
                <time>2015-01-04T15:04:39.000Z</time>
                <sat>197</sat>
            </trkpt>
            <trkpt lat="49.82694633" lon="7.81218167">
                <time>2015-01-04T15:04:40.000Z</time>
                <sat>197</sat>
            </trkpt>
            <trkpt lat="49.82696833" lon="7.81219">
                <time>2015-01-04T15:04:41.000Z</time>
                <sat>197</sat>
            </trkpt>
            <trkpt lat="49.8269905" lon="7.81219733">
                <time>2015-01-04T15:04:42.000Z</time>
                <sat>197</sat>
            </trkpt>
            <trkpt lat="49.82701317" lon="7.81220333">
                <time>2015-01-04T15:04:43.000Z</time>
                <sat>197</sat>
            </trkpt>
            <trkpt lat="49.82703533" lon="7.812207">
                <time>2015-01-04T15:04:44.000Z</time>
                <sat>197</sat>
            </trkpt>
            <trkpt lat="49.82705733" lon="7.8122105">
                <time>2015-01-04T15:04:45.000Z</time>
                <sat>197</sat>
            </trkpt>
            <trkpt lat="49.82707833" lon="7.812215">
                <time>2015-01-04T15:04:46.000Z</time>
                <sat>197</sat>
            </trkpt>
            <trkpt lat="49.82709817" lon="7.8122215">
                <time>2015-01-04T15:04:47.000Z</time>
                <sat>197</sat>
            </trkpt>
            <trkpt lat="49.82711733" lon="7.81222933">
                <time>2015-01-04T15:04:48.000Z</time>
                <sat>196</sat>
            </trkpt>
            <trkpt lat="49.8271375" lon="7.812239">
                <time>2015-01-04T15:04:49.000Z</time>
                <sat>196</sat>
            </trkpt>
            <trkpt lat="49.82715933" lon="7.8122495">
                <time>2015-01-04T15:04:50.000Z</time>
                <sat>196</sat>
            </trkpt>
            <trkpt lat="49.82718" lon="7.81226">
                <time>2015-01-04T15:04:51.000Z</time>
                <sat>196</sat>
            </trkpt>
            <trkpt lat="49.82720033" lon="7.8122715">
                <time>2015-01-04T15:04:52.000Z</time>
                <sat>196</sat>
            </trkpt>
            <trkpt lat="49.827221" lon="7.81228333">
                <time>2015-01-04T15:04:53.000Z</time>
                <sat>197</sat>
            </trkpt>
            <trkpt lat="49.82724117" lon="7.8122965">
                <time>2015-01-04T15:04:54.000Z</time>
                <sat>196</sat>
            </trkpt>
            <trkpt lat="49.8272615" lon="7.81231033">
                <time>2015-01-04T15:04:55.000Z</time>
                <sat>196</sat>
            </trkpt>
            <trkpt lat="49.82728217" lon="7.81232617">
                <time>2015-01-04T15:04:56.000Z</time>
                <sat>196</sat>
            </trkpt>
            <trkpt lat="49.82730217" lon="7.81234217">
                <time>2015-01-04T15:04:57.000Z</time>
                <sat>196</sat>
            </trkpt>
            <trkpt lat="49.82732183" lon="7.81235833">
                <time>2015-01-04T15:04:58.000Z</time>
                <sat>196</sat>
            </trkpt>
            <trkpt lat="49.82734233" lon="7.81237483">
                <time>2015-01-04T15:04:59.000Z</time>
                <sat>196</sat>
            </trkpt>
            <trkpt lat="49.827361" lon="7.81239117">
                <time>2015-01-04T15:05:00.000Z</time>
                <sat>195</sat>
            </trkpt>
            <trkpt lat="49.82737817" lon="7.81240717">
                <time>2015-01-04T15:05:01.000Z</time>
                <sat>195</sat>
            </trkpt>
            <trkpt lat="49.8273965" lon="7.81242317">
                <time>2015-01-04T15:05:02.000Z</time>
                <sat>195</sat>
            </trkpt>
            <trkpt lat="49.82741667" lon="7.81244">
                <time>2015-01-04T15:05:03.000Z</time>
                <sat>194</sat>
            </trkpt>
            <trkpt lat="49.82743667" lon="7.81245717">
                <time>2015-01-04T15:05:04.000Z</time>
                <sat>194</sat>
            </trkpt>
            <trkpt lat="49.82745483" lon="7.8124755">
                <time>2015-01-04T15:05:05.000Z</time>
                <sat>194</sat>
            </trkpt>
            <trkpt lat="49.8274715" lon="7.81249333">
                <time>2015-01-04T15:05:06.000Z</time>
                <sat>194</sat>
            </trkpt>
            <trkpt lat="49.827489" lon="7.8125115">
                <time>2015-01-04T15:05:07.000Z</time>
                <sat>194</sat>
            </trkpt>
            <trkpt lat="49.82750717" lon="7.81252933">
                <time>2015-01-04T15:05:08.000Z</time>
                <sat>193</sat>
            </trkpt>
            <trkpt lat="49.82752617" lon="7.81254767">
                <time>2015-01-04T15:05:09.000Z</time>
                <sat>193</sat>
            </trkpt>
            <trkpt lat="49.82754567" lon="7.81256667">
                <time>2015-01-04T15:05:10.000Z</time>
                <sat>193</sat>
            </trkpt>
            <trkpt lat="49.827565" lon="7.8125855">
                <time>2015-01-04T15:05:11.000Z</time>
                <sat>193</sat>
            </trkpt>
            <trkpt lat="49.82758467" lon="7.81260483">
                <time>2015-01-04T15:05:12.000Z</time>
                <sat>193</sat>
            </trkpt>
            <trkpt lat="49.82760383" lon="7.8126235">
                <time>2015-01-04T15:05:13.000Z</time>
                <sat>192</sat>
            </trkpt>
            <trkpt lat="49.82762317" lon="7.81264267">
                <time>2015-01-04T15:05:14.000Z</time>
                <sat>192</sat>
            </trkpt>
            <trkpt lat="49.8276415" lon="7.8126615">
                <time>2015-01-04T15:05:15.000Z</time>
                <sat>192</sat>
            </trkpt>
            <trkpt lat="49.82765983" lon="7.812681">
                <time>2015-01-04T15:05:16.000Z</time>
                <sat>192</sat>
            </trkpt>
            <trkpt lat="49.82767733" lon="7.81270033">
                <time>2015-01-04T15:05:17.000Z</time>
                <sat>192</sat>
            </trkpt>
            <trkpt lat="49.82769417" lon="7.81271983">
                <time>2015-01-04T15:05:18.000Z</time>
                <sat>191</sat>
            </trkpt>
            <trkpt lat="49.82771167" lon="7.81274017">
                <time>2015-01-04T15:05:19.000Z</time>
                <sat>191</sat>
            </trkpt>
            <trkpt lat="49.82772767" lon="7.81275933">
                <time>2015-01-04T15:05:20.000Z</time>
                <sat>191</sat>
            </trkpt>
            <trkpt lat="49.827743" lon="7.8127775">
                <time>2015-01-04T15:05:21.000Z</time>
                <sat>191</sat>
            </trkpt>
            <trkpt lat="49.82775883" lon="7.81279533">
                <time>2015-01-04T15:05:22.000Z</time>
                <sat>191</sat>
            </trkpt>
            <trkpt lat="49.82777433" lon="7.8128135">
                <time>2015-01-04T15:05:23.000Z</time>
                <sat>190</sat>
            </trkpt>
            <trkpt lat="49.82778867" lon="7.81283167">
                <time>2015-01-04T15:05:24.000Z</time>
                <sat>190</sat>
            </trkpt>
            <trkpt lat="49.82780333" lon="7.81285033">
                <time>2015-01-04T15:05:25.000Z</time>
                <sat>190</sat>
            </trkpt>
            <trkpt lat="49.82781867" lon="7.8128685">
                <time>2015-01-04T15:05:26.000Z</time>
                <sat>190</sat>
            </trkpt>
            <trkpt lat="49.82783433" lon="7.81288733">
                <time>2015-01-04T15:05:27.000Z</time>
                <sat>190</sat>
            </trkpt>
            <trkpt lat="49.82785033" lon="7.81290667">
                <time>2015-01-04T15:05:28.000Z</time>
                <sat>190</sat>
            </trkpt>
            <trkpt lat="49.82786633" lon="7.8129255">
                <time>2015-01-04T15:05:29.000Z</time>
                <sat>190</sat>
            </trkpt>
            <trkpt lat="49.827883" lon="7.81294533">
                <time>2015-01-04T15:05:30.000Z</time>
                <sat>190</sat>
            </trkpt>
            <trkpt lat="49.82789933" lon="7.81296567">
                <time>2015-01-04T15:05:31.000Z</time>
                <sat>190</sat>
            </trkpt>
            <trkpt lat="49.82791567" lon="7.812987">
                <time>2015-01-04T15:05:32.000Z</time>
                <sat>190</sat>
            </trkpt>
            <trkpt lat="49.82793133" lon="7.81300717">
                <time>2015-01-04T15:05:33.000Z</time>
                <sat>190</sat>
            </trkpt>
            <trkpt lat="49.82794717" lon="7.81302633">
                <time>2015-01-04T15:05:34.000Z</time>
                <sat>190</sat>
            </trkpt>
            <trkpt lat="49.82796283" lon="7.81304567">
                <time>2015-01-04T15:05:35.000Z</time>
                <sat>190</sat>
            </trkpt>
            <trkpt lat="49.82797817" lon="7.81306583">
                <time>2015-01-04T15:05:36.000Z</time>
                <sat>190</sat>
            </trkpt>
            <trkpt lat="49.827994" lon="7.81308633">
                <time>2015-01-04T15:05:37.000Z</time>
                <sat>190</sat>
            </trkpt>
            <trkpt lat="49.82801017" lon="7.81310733">
                <time>2015-01-04T15:05:38.000Z</time>
                <sat>189</sat>
            </trkpt>
            <trkpt lat="49.82802567" lon="7.81312783">
                <time>2015-01-04T15:05:39.000Z</time>
                <sat>189</sat>
            </trkpt>
            <trkpt lat="49.82804117" lon="7.8131475">
                <time>2015-01-04T15:05:40.000Z</time>
                <sat>189</sat>
            </trkpt>
            <trkpt lat="49.82805633" lon="7.813167">
                <time>2015-01-04T15:05:41.000Z</time>
                <sat>189</sat>
            </trkpt>
            <trkpt lat="49.82807117" lon="7.8131865">
                <time>2015-01-04T15:05:42.000Z</time>
                <sat>189</sat>
            </trkpt>
            <trkpt lat="49.82808633" lon="7.813206">
                <time>2015-01-04T15:05:43.000Z</time>
                <sat>189</sat>
            </trkpt>
            <trkpt lat="49.82810133" lon="7.81322567">
                <time>2015-01-04T15:05:44.000Z</time>
                <sat>189</sat>
            </trkpt>
            <trkpt lat="49.82811617" lon="7.81324533">
                <time>2015-01-04T15:05:45.000Z</time>
                <sat>189</sat>
            </trkpt>
            <trkpt lat="49.82813133" lon="7.81326483">
                <time>2015-01-04T15:05:46.000Z</time>
                <sat>189</sat>
            </trkpt>
            <trkpt lat="49.82814567" lon="7.813284">
                <time>2015-01-04T15:05:47.000Z</time>
                <sat>189</sat>
            </trkpt>
            <trkpt lat="49.82816" lon="7.81330333">
                <time>2015-01-04T15:05:48.000Z</time>
                <sat>189</sat>
            </trkpt>
            <trkpt lat="49.82817467" lon="7.81332283">
                <time>2015-01-04T15:05:49.000Z</time>
                <sat>189</sat>
            </trkpt>
            <trkpt lat="49.82818967" lon="7.813343">
                <time>2015-01-04T15:05:50.000Z</time>
                <sat>189</sat>
            </trkpt>
            <trkpt lat="49.82820533" lon="7.813363">
                <time>2015-01-04T15:05:51.000Z</time>
                <sat>189</sat>
            </trkpt>
            <trkpt lat="49.8282215" lon="7.81338333">
                <time>2015-01-04T15:05:52.000Z</time>
                <sat>189</sat>
            </trkpt>
            <trkpt lat="49.8282375" lon="7.8134035">
                <time>2015-01-04T15:05:53.000Z</time>
                <sat>189</sat>
            </trkpt>
            <trkpt lat="49.82825233" lon="7.81342383">
                <time>2015-01-04T15:05:54.000Z</time>
                <sat>188</sat>
            </trkpt>
            <trkpt lat="49.828268" lon="7.81344417">
                <time>2015-01-04T15:05:55.000Z</time>
                <sat>188</sat>
            </trkpt>
            <trkpt lat="49.82828433" lon="7.813465">
                <time>2015-01-04T15:05:56.000Z</time>
                <sat>188</sat>
            </trkpt>
            <trkpt lat="49.82830083" lon="7.8134855">
                <time>2015-01-04T15:05:57.000Z</time>
                <sat>187</sat>
            </trkpt>
            <trkpt lat="49.82831833" lon="7.81350567">
                <time>2015-01-04T15:05:58.000Z</time>
                <sat>188</sat>
            </trkpt>
            <trkpt lat="49.82833667" lon="7.81352633">
                <time>2015-01-04T15:05:59.000Z</time>
                <sat>188</sat>
            </trkpt>
            <trkpt lat="49.82835433" lon="7.81354633">
                <time>2015-01-04T15:06:00.000Z</time>
                <sat>188</sat>
            </trkpt>
            <trkpt lat="49.82837167" lon="7.81356617">
                <time>2015-01-04T15:06:01.000Z</time>
                <sat>188</sat>
            </trkpt>
            <trkpt lat="49.82838833" lon="7.81358567">
                <time>2015-01-04T15:06:02.000Z</time>
                <sat>188</sat>
            </trkpt>
            <trkpt lat="49.82840467" lon="7.81360617">
                <time>2015-01-04T15:06:03.000Z</time>
                <sat>188</sat>
            </trkpt>
            <trkpt lat="49.8284205" lon="7.81362633">
                <time>2015-01-04T15:06:04.000Z</time>
                <sat>187</sat>
            </trkpt>
            <trkpt lat="49.82843583" lon="7.8136465">
                <time>2015-01-04T15:06:05.000Z</time>
                <sat>187</sat>
            </trkpt>
            <trkpt lat="49.8284515" lon="7.81366733">
                <time>2015-01-04T15:06:06.000Z</time>
                <sat>187</sat>
            </trkpt>
            <trkpt lat="49.828467" lon="7.81368717">
                <time>2015-01-04T15:06:07.000Z</time>
                <sat>187</sat>
            </trkpt>
            <trkpt lat="49.82848267" lon="7.81370733">
                <time>2015-01-04T15:06:08.000Z</time>
                <sat>187</sat>
            </trkpt>
            <trkpt lat="49.82849767" lon="7.8137275">
                <time>2015-01-04T15:06:09.000Z</time>
                <sat>187</sat>
            </trkpt>
            <trkpt lat="49.82851317" lon="7.81374833">
                <time>2015-01-04T15:06:10.000Z</time>
                <sat>187</sat>
            </trkpt>
            <trkpt lat="49.82852867" lon="7.81376983">
                <time>2015-01-04T15:06:11.000Z</time>
                <sat>187</sat>
            </trkpt>
            <trkpt lat="49.82854267" lon="7.81379183">
                <time>2015-01-04T15:06:12.000Z</time>
                <sat>187</sat>
            </trkpt>
            <trkpt lat="49.8285555" lon="7.81381617">
                <time>2015-01-04T15:06:13.000Z</time>
                <sat>187</sat>
            </trkpt>
            <trkpt lat="49.82856667" lon="7.81384133">
                <time>2015-01-04T15:06:14.000Z</time>
                <sat>186</sat>
            </trkpt>
            <trkpt lat="49.82857783" lon="7.81386717">
                <time>2015-01-04T15:06:15.000Z</time>
                <sat>187</sat>
            </trkpt>
            <trkpt lat="49.82858817" lon="7.81389183">
                <time>2015-01-04T15:06:16.000Z</time>
                <sat>187</sat>
            </trkpt>
            <trkpt lat="49.82859733" lon="7.81391483">
                <time>2015-01-04T15:06:17.000Z</time>
                <sat>187</sat>
            </trkpt>
            <trkpt lat="49.82860717" lon="7.81393667">
                <time>2015-01-04T15:06:18.000Z</time>
                <sat>187</sat>
            </trkpt>
            <trkpt lat="49.8286175" lon="7.813956">
                <time>2015-01-04T15:06:19.000Z</time>
                <sat>187</sat>
            </trkpt>
            <trkpt lat="49.828628" lon="7.8139735">
                <time>2015-01-04T15:06:20.000Z</time>
                <sat>187</sat>
            </trkpt>
            <trkpt lat="49.8286385" lon="7.81399067">
                <time>2015-01-04T15:06:21.000Z</time>
                <sat>187</sat>
            </trkpt>
            <trkpt lat="49.82864983" lon="7.81400817">
                <time>2015-01-04T15:06:22.000Z</time>
                <sat>187</sat>
            </trkpt>
            <trkpt lat="49.8286625" lon="7.814026">
                <time>2015-01-04T15:06:23.000Z</time>
                <sat>187</sat>
            </trkpt>
            <trkpt lat="49.82867617" lon="7.81404417">
                <time>2015-01-04T15:06:24.000Z</time>
                <sat>186</sat>
            </trkpt>
            <trkpt lat="49.82869117" lon="7.81406383">
                <time>2015-01-04T15:06:25.000Z</time>
                <sat>187</sat>
            </trkpt>
            <trkpt lat="49.82870633" lon="7.81408417">
                <time>2015-01-04T15:06:26.000Z</time>
                <sat>187</sat>
            </trkpt>
            <trkpt lat="49.82872133" lon="7.81410467">
                <time>2015-01-04T15:06:27.000Z</time>
                <sat>187</sat>
            </trkpt>
            <trkpt lat="49.82873617" lon="7.81412533">
                <time>2015-01-04T15:06:28.000Z</time>
                <sat>187</sat>
            </trkpt>
            <trkpt lat="49.828752" lon="7.8141455">
                <time>2015-01-04T15:06:29.000Z</time>
                <sat>187</sat>
            </trkpt>
            <trkpt lat="49.82876867" lon="7.81416517">
                <time>2015-01-04T15:06:30.000Z</time>
                <sat>187</sat>
            </trkpt>
            <trkpt lat="49.82878483" lon="7.81418383">
                <time>2015-01-04T15:06:31.000Z</time>
                <sat>187</sat>
            </trkpt>
            <trkpt lat="49.828801" lon="7.814202">
                <time>2015-01-04T15:06:32.000Z</time>
                <sat>187</sat>
            </trkpt>
            <trkpt lat="49.82881617" lon="7.8142195">
                <time>2015-01-04T15:06:33.000Z</time>
                <sat>187</sat>
            </trkpt>
            <trkpt lat="49.8288315" lon="7.81423533">
                <time>2015-01-04T15:06:34.000Z</time>
                <sat>186</sat>
            </trkpt>
            <trkpt lat="49.828847" lon="7.81424967">
                <time>2015-01-04T15:06:35.000Z</time>
                <sat>186</sat>
            </trkpt>
            <trkpt lat="49.8288625" lon="7.8142625">
                <time>2015-01-04T15:06:36.000Z</time>
                <sat>186</sat>
            </trkpt>
            <trkpt lat="49.828878" lon="7.81427417">
                <time>2015-01-04T15:06:37.000Z</time>
                <sat>186</sat>
            </trkpt>
            <trkpt lat="49.82889367" lon="7.81428417">
                <time>2015-01-04T15:06:38.000Z</time>
                <sat>185</sat>
            </trkpt>
            <trkpt lat="49.82891017" lon="7.814293">
                <time>2015-01-04T15:06:39.000Z</time>
                <sat>185</sat>
            </trkpt>
            <trkpt lat="49.828926" lon="7.8143015">
                <time>2015-01-04T15:06:40.000Z</time>
                <sat>184</sat>
            </trkpt>
            <trkpt lat="49.828942" lon="7.81430917">
                <time>2015-01-04T15:06:41.000Z</time>
                <sat>184</sat>
            </trkpt>
            <trkpt lat="49.82895967" lon="7.81431567">
                <time>2015-01-04T15:06:42.000Z</time>
                <sat>184</sat>
            </trkpt>
            <trkpt lat="49.8289775" lon="7.81432083">
                <time>2015-01-04T15:06:43.000Z</time>
                <sat>183</sat>
            </trkpt>
            <trkpt lat="49.82899633" lon="7.81432533">
                <time>2015-01-04T15:06:44.000Z</time>
                <sat>183</sat>
            </trkpt>
            <trkpt lat="49.82901583" lon="7.81433133">
                <time>2015-01-04T15:06:45.000Z</time>
                <sat>182</sat>
            </trkpt>
            <trkpt lat="49.82903433" lon="7.814339">
                <time>2015-01-04T15:06:46.000Z</time>
                <sat>181</sat>
            </trkpt>
            <trkpt lat="49.82905433" lon="7.814348">
                <time>2015-01-04T15:06:47.000Z</time>
                <sat>182</sat>
            </trkpt>
            <trkpt lat="49.82907517" lon="7.81435933">
                <time>2015-01-04T15:06:48.000Z</time>
                <sat>182</sat>
            </trkpt>
            <trkpt lat="49.82909617" lon="7.81437283">
                <time>2015-01-04T15:06:49.000Z</time>
                <sat>182</sat>
            </trkpt>
            <trkpt lat="49.82911667" lon="7.814387">
                <time>2015-01-04T15:06:50.000Z</time>
                <sat>182</sat>
            </trkpt>
            <trkpt lat="49.82913533" lon="7.81440283">
                <time>2015-01-04T15:06:51.000Z</time>
                <sat>182</sat>
            </trkpt>
            <trkpt lat="49.82915267" lon="7.81442">
                <time>2015-01-04T15:06:52.000Z</time>
                <sat>182</sat>
            </trkpt>
            <trkpt lat="49.82916967" lon="7.81443817">
                <time>2015-01-04T15:06:53.000Z</time>
                <sat>182</sat>
            </trkpt>
            <trkpt lat="49.8291855" lon="7.8144575">
                <time>2015-01-04T15:06:54.000Z</time>
                <sat>182</sat>
            </trkpt>
            <trkpt lat="49.82920083" lon="7.8144775">
                <time>2015-01-04T15:06:55.000Z</time>
                <sat>181</sat>
            </trkpt>
            <trkpt lat="49.82921617" lon="7.8144985">
                <time>2015-01-04T15:06:56.000Z</time>
                <sat>181</sat>
            </trkpt>
            <trkpt lat="49.82923117" lon="7.81452">
                <time>2015-01-04T15:06:57.000Z</time>
                <sat>181</sat>
            </trkpt>
            <trkpt lat="49.82924667" lon="7.81454133">
                <time>2015-01-04T15:06:58.000Z</time>
                <sat>181</sat>
            </trkpt>
            <trkpt lat="49.82926333" lon="7.814562">
                <time>2015-01-04T15:06:59.000Z</time>
                <sat>181</sat>
            </trkpt>
            <trkpt lat="49.82927983" lon="7.81458233">
                <time>2015-01-04T15:07:00.000Z</time>
                <sat>180</sat>
            </trkpt>
            <trkpt lat="49.8292965" lon="7.81460317">
                <time>2015-01-04T15:07:01.000Z</time>
                <sat>180</sat>
            </trkpt>
            <trkpt lat="49.82931367" lon="7.8146245">
                <time>2015-01-04T15:07:02.000Z</time>
                <sat>180</sat>
            </trkpt>
            <trkpt lat="49.82933217" lon="7.81464633">
                <time>2015-01-04T15:07:03.000Z</time>
                <sat>181</sat>
            </trkpt>
            <trkpt lat="49.82935083" lon="7.81466817">
                <time>2015-01-04T15:07:04.000Z</time>
                <sat>181</sat>
            </trkpt>
            <trkpt lat="49.82936967" lon="7.81469067">
                <time>2015-01-04T15:07:05.000Z</time>
                <sat>181</sat>
            </trkpt>
            <trkpt lat="49.82938867" lon="7.81471383">
                <time>2015-01-04T15:07:06.000Z</time>
                <sat>181</sat>
            </trkpt>
            <trkpt lat="49.829407" lon="7.81473667">
                <time>2015-01-04T15:07:07.000Z</time>
                <sat>180</sat>
            </trkpt>
            <trkpt lat="49.82942483" lon="7.81475933">
                <time>2015-01-04T15:07:08.000Z</time>
                <sat>180</sat>
            </trkpt>
            <trkpt lat="49.82944217" lon="7.81478233">
                <time>2015-01-04T15:07:09.000Z</time>
                <sat>180</sat>
            </trkpt>
            <trkpt lat="49.82945983" lon="7.81480517">
                <time>2015-01-04T15:07:10.000Z</time>
                <sat>180</sat>
            </trkpt>
            <trkpt lat="49.82947733" lon="7.81482717">
                <time>2015-01-04T15:07:11.000Z</time>
                <sat>180</sat>
            </trkpt>
            <trkpt lat="49.8294945" lon="7.81484933">
                <time>2015-01-04T15:07:12.000Z</time>
                <sat>180</sat>
            </trkpt>
            <trkpt lat="49.82951167" lon="7.81487117">
                <time>2015-01-04T15:07:13.000Z</time>
                <sat>180</sat>
            </trkpt>
            <trkpt lat="49.82952883" lon="7.81489367">
                <time>2015-01-04T15:07:14.000Z</time>
                <sat>180</sat>
            </trkpt>
            <trkpt lat="49.8295455" lon="7.81491617">
                <time>2015-01-04T15:07:15.000Z</time>
                <sat>180</sat>
            </trkpt>
            <trkpt lat="49.82956233" lon="7.8149385">
                <time>2015-01-04T15:07:16.000Z</time>
                <sat>179</sat>
            </trkpt>
            <trkpt lat="49.829579" lon="7.81496">
                <time>2015-01-04T15:07:17.000Z</time>
                <sat>179</sat>
            </trkpt>
            <trkpt lat="49.82959517" lon="7.81498167">
                <time>2015-01-04T15:07:18.000Z</time>
                <sat>179</sat>
            </trkpt>
            <trkpt lat="49.82961117" lon="7.81500367">
                <time>2015-01-04T15:07:19.000Z</time>
                <sat>179</sat>
            </trkpt>
            <trkpt lat="49.82962783" lon="7.81502617">
                <time>2015-01-04T15:07:20.000Z</time>
                <sat>179</sat>
            </trkpt>
            <trkpt lat="49.8296455" lon="7.81504867">
                <time>2015-01-04T15:07:21.000Z</time>
                <sat>179</sat>
            </trkpt>
            <trkpt lat="49.82966317" lon="7.81507133">
                <time>2015-01-04T15:07:22.000Z</time>
                <sat>179</sat>
            </trkpt>
            <trkpt lat="49.82967983" lon="7.8150935">
                <time>2015-01-04T15:07:23.000Z</time>
                <sat>179</sat>
            </trkpt>
            <trkpt lat="49.82969617" lon="7.815115">
                <time>2015-01-04T15:07:24.000Z</time>
                <sat>179</sat>
            </trkpt>
            <trkpt lat="49.82971233" lon="7.81513617">
                <time>2015-01-04T15:07:25.000Z</time>
                <sat>179</sat>
            </trkpt>
            <trkpt lat="49.82972867" lon="7.81515733">
                <time>2015-01-04T15:07:26.000Z</time>
                <sat>179</sat>
            </trkpt>
            <trkpt lat="49.82974517" lon="7.81517967">
                <time>2015-01-04T15:07:27.000Z</time>
                <sat>179</sat>
            </trkpt>
            <trkpt lat="49.82976183" lon="7.81520317">
                <time>2015-01-04T15:07:28.000Z</time>
                <sat>179</sat>
            </trkpt>
            <trkpt lat="49.829779" lon="7.8152265">
                <time>2015-01-04T15:07:29.000Z</time>
                <sat>179</sat>
            </trkpt>
            <trkpt lat="49.82979633" lon="7.81525">
                <time>2015-01-04T15:07:30.000Z</time>
                <sat>180</sat>
            </trkpt>
            <trkpt lat="49.8298135" lon="7.81527383">
                <time>2015-01-04T15:07:31.000Z</time>
                <sat>180</sat>
            </trkpt>
            <trkpt lat="49.82983017" lon="7.815298">
                <time>2015-01-04T15:07:32.000Z</time>
                <sat>180</sat>
            </trkpt>
            <trkpt lat="49.82984617" lon="7.8153215">
                <time>2015-01-04T15:07:33.000Z</time>
                <sat>179</sat>
            </trkpt>
            <trkpt lat="49.82986217" lon="7.81534383">
                <time>2015-01-04T15:07:34.000Z</time>
                <sat>179</sat>
            </trkpt>
            <trkpt lat="49.82987867" lon="7.81536633">
                <time>2015-01-04T15:07:35.000Z</time>
                <sat>179</sat>
            </trkpt>
            <trkpt lat="49.82989483" lon="7.81538783">
                <time>2015-01-04T15:07:36.000Z</time>
                <sat>179</sat>
            </trkpt>
            <trkpt lat="49.82991033" lon="7.81540867">
                <time>2015-01-04T15:07:37.000Z</time>
                <sat>179</sat>
            </trkpt>
            <trkpt lat="49.82992633" lon="7.81542883">
                <time>2015-01-04T15:07:38.000Z</time>
                <sat>179</sat>
            </trkpt>
            <trkpt lat="49.82994317" lon="7.81544817">
                <time>2015-01-04T15:07:39.000Z</time>
                <sat>179</sat>
            </trkpt>
            <trkpt lat="49.8299605" lon="7.81546683">
                <time>2015-01-04T15:07:40.000Z</time>
                <sat>179</sat>
            </trkpt>
            <trkpt lat="49.82997783" lon="7.81548633">
                <time>2015-01-04T15:07:41.000Z</time>
                <sat>178</sat>
            </trkpt>
            <trkpt lat="49.82999533" lon="7.8155065">
                <time>2015-01-04T15:07:42.000Z</time>
                <sat>178</sat>
            </trkpt>
            <trkpt lat="49.83001283" lon="7.81552717">
                <time>2015-01-04T15:07:43.000Z</time>
                <sat>178</sat>
            </trkpt>
            <trkpt lat="49.83003" lon="7.815548">
                <time>2015-01-04T15:07:44.000Z</time>
                <sat>178</sat>
            </trkpt>
            <trkpt lat="49.83004767" lon="7.81556917">
                <time>2015-01-04T15:07:45.000Z</time>
                <sat>179</sat>
            </trkpt>
            <trkpt lat="49.83006533" lon="7.8155905">
                <time>2015-01-04T15:07:46.000Z</time>
                <sat>179</sat>
            </trkpt>
            <trkpt lat="49.83008283" lon="7.815612">
                <time>2015-01-04T15:07:47.000Z</time>
                <sat>179</sat>
            </trkpt>
            <trkpt lat="49.83010017" lon="7.81563333">
                <time>2015-01-04T15:07:48.000Z</time>
                <sat>179</sat>
            </trkpt>
            <trkpt lat="49.83011683" lon="7.81565433">
                <time>2015-01-04T15:07:49.000Z</time>
                <sat>178</sat>
            </trkpt>
            <trkpt lat="49.830133" lon="7.81567533">
                <time>2015-01-04T15:07:50.000Z</time>
                <sat>178</sat>
            </trkpt>
            <trkpt lat="49.8301495" lon="7.81569617">
                <time>2015-01-04T15:07:51.000Z</time>
                <sat>178</sat>
            </trkpt>
            <trkpt lat="49.830166" lon="7.81571767">
                <time>2015-01-04T15:07:52.000Z</time>
                <sat>178</sat>
            </trkpt>
            <trkpt lat="49.83018283" lon="7.81573867">
                <time>2015-01-04T15:07:53.000Z</time>
                <sat>178</sat>
            </trkpt>
            <trkpt lat="49.83020017" lon="7.8157595">
                <time>2015-01-04T15:07:54.000Z</time>
                <sat>178</sat>
            </trkpt>
            <trkpt lat="49.83021733" lon="7.81578067">
                <time>2015-01-04T15:07:55.000Z</time>
                <sat>178</sat>
            </trkpt>
            <trkpt lat="49.830235" lon="7.815803">
                <time>2015-01-04T15:07:56.000Z</time>
                <sat>178</sat>
            </trkpt>
            <trkpt lat="49.83025283" lon="7.81582667">
                <time>2015-01-04T15:07:57.000Z</time>
                <sat>178</sat>
            </trkpt>
            <trkpt lat="49.83026917" lon="7.81585067">
                <time>2015-01-04T15:07:58.000Z</time>
                <sat>177</sat>
            </trkpt>
            <trkpt lat="49.8302845" lon="7.8158745">
                <time>2015-01-04T15:07:59.000Z</time>
                <sat>177</sat>
            </trkpt>
            <trkpt lat="49.83029967" lon="7.8158985">
                <time>2015-01-04T15:08:00.000Z</time>
                <sat>177</sat>
            </trkpt>
            <trkpt lat="49.83031533" lon="7.81592317">
                <time>2015-01-04T15:08:01.000Z</time>
                <sat>177</sat>
            </trkpt>
            <trkpt lat="49.83033217" lon="7.81594717">
                <time>2015-01-04T15:08:02.000Z</time>
                <sat>177</sat>
            </trkpt>
            <trkpt lat="49.83034917" lon="7.81597033">
                <time>2015-01-04T15:08:03.000Z</time>
                <sat>177</sat>
            </trkpt>
            <trkpt lat="49.830366" lon="7.815994">
                <time>2015-01-04T15:08:04.000Z</time>
                <sat>177</sat>
            </trkpt>
            <trkpt lat="49.8303825" lon="7.81601717">
                <time>2015-01-04T15:08:05.000Z</time>
                <sat>177</sat>
            </trkpt>
            <trkpt lat="49.8303975" lon="7.81604067">
                <time>2015-01-04T15:08:06.000Z</time>
                <sat>176</sat>
            </trkpt>
            <trkpt lat="49.83041133" lon="7.81606433">
                <time>2015-01-04T15:08:07.000Z</time>
                <sat>176</sat>
            </trkpt>
            <trkpt lat="49.83042583" lon="7.8160875">
                <time>2015-01-04T15:08:08.000Z</time>
                <sat>176</sat>
            </trkpt>
            <trkpt lat="49.83044017" lon="7.8161105">
                <time>2015-01-04T15:08:09.000Z</time>
                <sat>176</sat>
            </trkpt>
            <trkpt lat="49.8304535" lon="7.8161335">
                <time>2015-01-04T15:08:10.000Z</time>
                <sat>176</sat>
            </trkpt>
            <trkpt lat="49.830467" lon="7.81615683">
                <time>2015-01-04T15:08:11.000Z</time>
                <sat>176</sat>
            </trkpt>
            <trkpt lat="49.830481" lon="7.81618017">
                <time>2015-01-04T15:08:12.000Z</time>
                <sat>176</sat>
            </trkpt>
            <trkpt lat="49.83049567" lon="7.81620333">
                <time>2015-01-04T15:08:13.000Z</time>
                <sat>176</sat>
            </trkpt>
            <trkpt lat="49.8305115" lon="7.81622733">
                <time>2015-01-04T15:08:14.000Z</time>
                <sat>176</sat>
            </trkpt>
            <trkpt lat="49.830528" lon="7.81625283">
                <time>2015-01-04T15:08:15.000Z</time>
                <sat>176</sat>
            </trkpt>
            <trkpt lat="49.83054367" lon="7.8162775">
                <time>2015-01-04T15:08:16.000Z</time>
                <sat>177</sat>
            </trkpt>
            <trkpt lat="49.83055783" lon="7.8163025">
                <time>2015-01-04T15:08:17.000Z</time>
                <sat>177</sat>
            </trkpt>
            <trkpt lat="49.83057" lon="7.81632733">
                <time>2015-01-04T15:08:18.000Z</time>
                <sat>177</sat>
            </trkpt>
            <trkpt lat="49.83058133" lon="7.81635183">
                <time>2015-01-04T15:08:19.000Z</time>
                <sat>177</sat>
            </trkpt>
            <trkpt lat="49.83059233" lon="7.8163755">
                <time>2015-01-04T15:08:20.000Z</time>
                <sat>177</sat>
            </trkpt>
            <trkpt lat="49.83060383" lon="7.81639933">
                <time>2015-01-04T15:08:21.000Z</time>
                <sat>177</sat>
            </trkpt>
            <trkpt lat="49.830617" lon="7.816424">
                <time>2015-01-04T15:08:22.000Z</time>
                <sat>177</sat>
            </trkpt>
            <trkpt lat="49.83063083" lon="7.81644883">
                <time>2015-01-04T15:08:23.000Z</time>
                <sat>177</sat>
            </trkpt>
            <trkpt lat="49.830644" lon="7.81647333">
                <time>2015-01-04T15:08:24.000Z</time>
                <sat>177</sat>
            </trkpt>
            <trkpt lat="49.8306565" lon="7.81649617">
                <time>2015-01-04T15:08:25.000Z</time>
                <sat>177</sat>
            </trkpt>
            <trkpt lat="49.83066983" lon="7.816518">
                <time>2015-01-04T15:08:26.000Z</time>
                <sat>177</sat>
            </trkpt>
            <trkpt lat="49.830685" lon="7.816538">
                <time>2015-01-04T15:08:27.000Z</time>
                <sat>176</sat>
            </trkpt>
            <trkpt lat="49.830701" lon="7.816556">
                <time>2015-01-04T15:08:28.000Z</time>
                <sat>175</sat>
            </trkpt>
            <trkpt lat="49.83071817" lon="7.81657183">
                <time>2015-01-04T15:08:29.000Z</time>
                <sat>175</sat>
            </trkpt>
            <trkpt lat="49.83073633" lon="7.816585">
                <time>2015-01-04T15:08:30.000Z</time>
                <sat>175</sat>
            </trkpt>
            <trkpt lat="49.8307545" lon="7.81659567">
                <time>2015-01-04T15:08:31.000Z</time>
                <sat>175</sat>
            </trkpt>
            <trkpt lat="49.83077233" lon="7.81660533">
                <time>2015-01-04T15:08:32.000Z</time>
                <sat>175</sat>
            </trkpt>
            <trkpt lat="49.830791" lon="7.81661383">
                <time>2015-01-04T15:08:33.000Z</time>
                <sat>175</sat>
            </trkpt>
            <trkpt lat="49.83081017" lon="7.81662183">
                <time>2015-01-04T15:08:34.000Z</time>
                <sat>175</sat>
            </trkpt>
            <trkpt lat="49.83082967" lon="7.81662783">
                <time>2015-01-04T15:08:35.000Z</time>
                <sat>175</sat>
            </trkpt>
            <trkpt lat="49.8308515" lon="7.81663183">
                <time>2015-01-04T15:08:36.000Z</time>
                <sat>175</sat>
            </trkpt>
            <trkpt lat="49.83087417" lon="7.81663433">
                <time>2015-01-04T15:08:37.000Z</time>
                <sat>175</sat>
            </trkpt>
            <trkpt lat="49.8308975" lon="7.816634">
                <time>2015-01-04T15:08:38.000Z</time>
                <sat>175</sat>
            </trkpt>
            <trkpt lat="49.830921" lon="7.816631">
                <time>2015-01-04T15:08:39.000Z</time>
                <sat>175</sat>
            </trkpt>
            <trkpt lat="49.83094583" lon="7.81662483">
                <time>2015-01-04T15:08:40.000Z</time>
                <sat>175</sat>
            </trkpt>
            <trkpt lat="49.83096967" lon="7.81661467">
                <time>2015-01-04T15:08:41.000Z</time>
                <sat>175</sat>
            </trkpt>
            <trkpt lat="49.83099133" lon="7.81660183">
                <time>2015-01-04T15:08:42.000Z</time>
                <sat>175</sat>
            </trkpt>
            <trkpt lat="49.831011" lon="7.816585">
                <time>2015-01-04T15:08:43.000Z</time>
                <sat>176</sat>
            </trkpt>
            <trkpt lat="49.8310285" lon="7.81656383">
                <time>2015-01-04T15:08:44.000Z</time>
                <sat>176</sat>
            </trkpt>
            <trkpt lat="49.83104517" lon="7.81654183">
                <time>2015-01-04T15:08:45.000Z</time>
                <sat>176</sat>
            </trkpt>
            <trkpt lat="49.831061" lon="7.81652">
                <time>2015-01-04T15:08:46.000Z</time>
                <sat>176</sat>
            </trkpt>
            <trkpt lat="49.831076" lon="7.81649667">
                <time>2015-01-04T15:08:47.000Z</time>
                <sat>176</sat>
            </trkpt>
            <trkpt lat="49.83109017" lon="7.81647133">
                <time>2015-01-04T15:08:48.000Z</time>
                <sat>176</sat>
            </trkpt>
            <trkpt lat="49.83110333" lon="7.816444">
                <time>2015-01-04T15:08:49.000Z</time>
                <sat>176</sat>
            </trkpt>
            <trkpt lat="49.83111467" lon="7.81641467">
                <time>2015-01-04T15:08:50.000Z</time>
                <sat>177</sat>
            </trkpt>
            <trkpt lat="49.8311245" lon="7.8163845">
                <time>2015-01-04T15:08:51.000Z</time>
                <sat>177</sat>
            </trkpt>
            <trkpt lat="49.83113217" lon="7.81635283">
                <time>2015-01-04T15:08:52.000Z</time>
                <sat>177</sat>
            </trkpt>
            <trkpt lat="49.831139" lon="7.81632067">
                <time>2015-01-04T15:08:53.000Z</time>
                <sat>177</sat>
            </trkpt>
            <trkpt lat="49.83114617" lon="7.81628917">
                <time>2015-01-04T15:08:54.000Z</time>
                <sat>177</sat>
            </trkpt>
            <trkpt lat="49.8311535" lon="7.8162565">
                <time>2015-01-04T15:08:55.000Z</time>
                <sat>177</sat>
            </trkpt>
            <trkpt lat="49.83116117" lon="7.81622517">
                <time>2015-01-04T15:08:56.000Z</time>
                <sat>177</sat>
            </trkpt>
            <trkpt lat="49.8311685" lon="7.81619383">
                <time>2015-01-04T15:08:57.000Z</time>
                <sat>177</sat>
            </trkpt>
            <trkpt lat="49.83117517" lon="7.816161">
                <time>2015-01-04T15:08:58.000Z</time>
                <sat>177</sat>
            </trkpt>
            <trkpt lat="49.83118217" lon="7.81612983">
                <time>2015-01-04T15:08:59.000Z</time>
                <sat>177</sat>
            </trkpt>
            <trkpt lat="49.83119" lon="7.8160995">
                <time>2015-01-04T15:09:00.000Z</time>
                <sat>178</sat>
            </trkpt>
            <trkpt lat="49.83119733" lon="7.816069">
                <time>2015-01-04T15:09:01.000Z</time>
                <sat>177</sat>
            </trkpt>
            <trkpt lat="49.83120417" lon="7.81603733">
                <time>2015-01-04T15:09:02.000Z</time>
                <sat>178</sat>
            </trkpt>
            <trkpt lat="49.8312105" lon="7.81600517">
                <time>2015-01-04T15:09:03.000Z</time>
                <sat>178</sat>
            </trkpt>
            <trkpt lat="49.83121733" lon="7.81597367">
                <time>2015-01-04T15:09:04.000Z</time>
                <sat>178</sat>
            </trkpt>
            <trkpt lat="49.83122383" lon="7.81594233">
                <time>2015-01-04T15:09:05.000Z</time>
                <sat>179</sat>
            </trkpt>
            <trkpt lat="49.83123" lon="7.81591117">
                <time>2015-01-04T15:09:06.000Z</time>
                <sat>178</sat>
            </trkpt>
            <trkpt lat="49.83123683" lon="7.815881">
                <time>2015-01-04T15:09:07.000Z</time>
                <sat>178</sat>
            </trkpt>
            <trkpt lat="49.83124383" lon="7.81585033">
                <time>2015-01-04T15:09:08.000Z</time>
                <sat>179</sat>
            </trkpt>
            <trkpt lat="49.83125083" lon="7.8158195">
                <time>2015-01-04T15:09:09.000Z</time>
                <sat>179</sat>
            </trkpt>
            <trkpt lat="49.83125867" lon="7.81579017">
                <time>2015-01-04T15:09:10.000Z</time>
                <sat>179</sat>
            </trkpt>
            <trkpt lat="49.83126617" lon="7.815759">
                <time>2015-01-04T15:09:11.000Z</time>
                <sat>179</sat>
            </trkpt>
            <trkpt lat="49.83127317" lon="7.8157265">
                <time>2015-01-04T15:09:12.000Z</time>
                <sat>179</sat>
            </trkpt>
            <trkpt lat="49.83128033" lon="7.81569433">
                <time>2015-01-04T15:09:13.000Z</time>
                <sat>179</sat>
            </trkpt>
            <trkpt lat="49.8312875" lon="7.81566367">
                <time>2015-01-04T15:09:14.000Z</time>
                <sat>179</sat>
            </trkpt>
            <trkpt lat="49.83129467" lon="7.81563417">
                <time>2015-01-04T15:09:15.000Z</time>
                <sat>179</sat>
            </trkpt>
            <trkpt lat="49.83130183" lon="7.815605">
                <time>2015-01-04T15:09:16.000Z</time>
                <sat>179</sat>
            </trkpt>
            <trkpt lat="49.83130917" lon="7.81557533">
                <time>2015-01-04T15:09:17.000Z</time>
                <sat>180</sat>
            </trkpt>
            <trkpt lat="49.831315" lon="7.81554383">
                <time>2015-01-04T15:09:18.000Z</time>
                <sat>180</sat>
            </trkpt>
            <trkpt lat="49.83132017" lon="7.81551067">
                <time>2015-01-04T15:09:19.000Z</time>
                <sat>180</sat>
            </trkpt>
            <trkpt lat="49.8313255" lon="7.81547783">
                <time>2015-01-04T15:09:20.000Z</time>
                <sat>180</sat>
            </trkpt>
            <trkpt lat="49.83133067" lon="7.8154455">
                <time>2015-01-04T15:09:21.000Z</time>
                <sat>180</sat>
            </trkpt>
            <trkpt lat="49.83133633" lon="7.81541417">
                <time>2015-01-04T15:09:22.000Z</time>
                <sat>180</sat>
            </trkpt>
            <trkpt lat="49.83134233" lon="7.815385">
                <time>2015-01-04T15:09:23.000Z</time>
                <sat>180</sat>
            </trkpt>
            <trkpt lat="49.83134917" lon="7.81535583">
                <time>2015-01-04T15:09:24.000Z</time>
                <sat>181</sat>
            </trkpt>
            <trkpt lat="49.8313565" lon="7.81532833">
                <time>2015-01-04T15:09:25.000Z</time>
                <sat>181</sat>
            </trkpt>
            <trkpt lat="49.8313635" lon="7.81530167">
                <time>2015-01-04T15:09:26.000Z</time>
                <sat>181</sat>
            </trkpt>
            <trkpt lat="49.83137" lon="7.815274">
                <time>2015-01-04T15:09:27.000Z</time>
                <sat>181</sat>
            </trkpt>
            <trkpt lat="49.831376" lon="7.81524717">
                <time>2015-01-04T15:09:28.000Z</time>
                <sat>181</sat>
            </trkpt>
            <trkpt lat="49.83138117" lon="7.81521917">
                <time>2015-01-04T15:09:29.000Z</time>
                <sat>181</sat>
            </trkpt>
            <trkpt lat="49.83138533" lon="7.81519083">
                <time>2015-01-04T15:09:30.000Z</time>
                <sat>181</sat>
            </trkpt>
            <trkpt lat="49.8313895" lon="7.81516267">
                <time>2015-01-04T15:09:31.000Z</time>
                <sat>181</sat>
            </trkpt>
            <trkpt lat="49.83139283" lon="7.81513467">
                <time>2015-01-04T15:09:32.000Z</time>
                <sat>181</sat>
            </trkpt>
            <trkpt lat="49.83139617" lon="7.815107">
                <time>2015-01-04T15:09:33.000Z</time>
                <sat>181</sat>
            </trkpt>
            <trkpt lat="49.83140067" lon="7.81508133">
                <time>2015-01-04T15:09:34.000Z</time>
                <sat>181</sat>
            </trkpt>
            <trkpt lat="49.83140667" lon="7.81505733">
                <time>2015-01-04T15:09:35.000Z</time>
                <sat>181</sat>
            </trkpt>
            <trkpt lat="49.8314135" lon="7.8150345">
                <time>2015-01-04T15:09:36.000Z</time>
                <sat>180</sat>
            </trkpt>
            <trkpt lat="49.83141833" lon="7.81501083">
                <time>2015-01-04T15:09:37.000Z</time>
                <sat>180</sat>
            </trkpt>
            <trkpt lat="49.83142133" lon="7.81498483">
                <time>2015-01-04T15:09:38.000Z</time>
                <sat>181</sat>
            </trkpt>
            <trkpt lat="49.83142367" lon="7.8149575">
                <time>2015-01-04T15:09:39.000Z</time>
                <sat>181</sat>
            </trkpt>
            <trkpt lat="49.83142517" lon="7.814929">
                <time>2015-01-04T15:09:40.000Z</time>
                <sat>180</sat>
            </trkpt>
            <trkpt lat="49.83142717" lon="7.8149005">
                <time>2015-01-04T15:09:41.000Z</time>
                <sat>180</sat>
            </trkpt>
            <trkpt lat="49.8314285" lon="7.81487083">
                <time>2015-01-04T15:09:42.000Z</time>
                <sat>180</sat>
            </trkpt>
            <trkpt lat="49.83142883" lon="7.8148415">
                <time>2015-01-04T15:09:43.000Z</time>
                <sat>179</sat>
            </trkpt>
            <trkpt lat="49.83142867" lon="7.81481333">
                <time>2015-01-04T15:09:44.000Z</time>
                <sat>179</sat>
            </trkpt>
            <trkpt lat="49.83142967" lon="7.814785">
                <time>2015-01-04T15:09:45.000Z</time>
                <sat>179</sat>
            </trkpt>
            <trkpt lat="49.83142967" lon="7.8147565">
                <time>2015-01-04T15:09:46.000Z</time>
                <sat>179</sat>
            </trkpt>
            <trkpt lat="49.8314285" lon="7.81472783">
                <time>2015-01-04T15:09:47.000Z</time>
                <sat>179</sat>
            </trkpt>
            <trkpt lat="49.83142867" lon="7.81470033">
                <time>2015-01-04T15:09:48.000Z</time>
                <sat>178</sat>
            </trkpt>
            <trkpt lat="49.8314285" lon="7.814672">
                <time>2015-01-04T15:09:49.000Z</time>
                <sat>177</sat>
            </trkpt>
            <trkpt lat="49.831428" lon="7.814643">
                <time>2015-01-04T15:09:50.000Z</time>
                <sat>177</sat>
            </trkpt>
            <trkpt lat="49.8314275" lon="7.8146155">
                <time>2015-01-04T15:09:51.000Z</time>
                <sat>177</sat>
            </trkpt>
            <trkpt lat="49.8314275" lon="7.81458533">
                <time>2015-01-04T15:09:52.000Z</time>
                <sat>177</sat>
            </trkpt>
            <trkpt lat="49.83142767" lon="7.81455383">
                <time>2015-01-04T15:09:53.000Z</time>
                <sat>177</sat>
            </trkpt>
            <trkpt lat="49.83142733" lon="7.81452083">
                <time>2015-01-04T15:09:54.000Z</time>
                <sat>178</sat>
            </trkpt>
            <trkpt lat="49.83142633" lon="7.814486">
                <time>2015-01-04T15:09:55.000Z</time>
                <sat>178</sat>
            </trkpt>
            <trkpt lat="49.831425" lon="7.81445233">
                <time>2015-01-04T15:09:56.000Z</time>
                <sat>177</sat>
            </trkpt>
            <trkpt lat="49.831425" lon="7.81442">
                <time>2015-01-04T15:09:57.000Z</time>
                <sat>177</sat>
            </trkpt>
            <trkpt lat="49.8314255" lon="7.81438917">
                <time>2015-01-04T15:09:58.000Z</time>
                <sat>177</sat>
            </trkpt>
            <trkpt lat="49.83142533" lon="7.81435717">
                <time>2015-01-04T15:09:59.000Z</time>
                <sat>177</sat>
            </trkpt>
            <trkpt lat="49.8314235" lon="7.81432467">
                <time>2015-01-04T15:10:00.000Z</time>
                <sat>177</sat>
            </trkpt>
            <trkpt lat="49.83142133" lon="7.81429233">
                <time>2015-01-04T15:10:01.000Z</time>
                <sat>177</sat>
            </trkpt>
            <trkpt lat="49.83142067" lon="7.814261">
                <time>2015-01-04T15:10:02.000Z</time>
                <sat>177</sat>
            </trkpt>
            <trkpt lat="49.83141933" lon="7.81422983">
                <time>2015-01-04T15:10:03.000Z</time>
                <sat>177</sat>
            </trkpt>
            <trkpt lat="49.831418" lon="7.814198">
                <time>2015-01-04T15:10:04.000Z</time>
                <sat>177</sat>
            </trkpt>
            <trkpt lat="49.83141667" lon="7.81416617">
                <time>2015-01-04T15:10:05.000Z</time>
                <sat>177</sat>
            </trkpt>
            <trkpt lat="49.83141417" lon="7.81413367">
                <time>2015-01-04T15:10:06.000Z</time>
                <sat>177</sat>
            </trkpt>
            <trkpt lat="49.83141117" lon="7.81410167">
                <time>2015-01-04T15:10:07.000Z</time>
                <sat>177</sat>
            </trkpt>
            <trkpt lat="49.83140917" lon="7.814076">
                <time>2015-01-04T15:10:08.000Z</time>
                <sat>178</sat>
            </trkpt>
            <trkpt lat="49.8314085" lon="7.814056">
                <time>2015-01-04T15:10:09.000Z</time>
                <sat>178</sat>
            </trkpt>
            <trkpt lat="49.83140683" lon="7.81404">
                <time>2015-01-04T15:10:10.000Z</time>
                <sat>178</sat>
            </trkpt>
            <trkpt lat="49.8314045" lon="7.81402767">
                <time>2015-01-04T15:10:11.000Z</time>
                <sat>178</sat>
            </trkpt>
            <trkpt lat="49.831403" lon="7.81401867">
                <time>2015-01-04T15:10:12.000Z</time>
                <sat>178</sat>
            </trkpt>
            <trkpt lat="49.83139817" lon="7.81401083">
                <time>2015-01-04T15:10:13.000Z</time>
                <sat>178</sat>
            </trkpt>
            <trkpt lat="49.83139633" lon="7.8140105">
                <time>2015-01-04T15:10:14.000Z</time>
                <sat>178</sat>
            </trkpt>
            <trkpt lat="49.8313925" lon="7.8140105">
                <time>2015-01-04T15:10:15.000Z</time>
                <sat>177</sat>
            </trkpt>
            <trkpt lat="49.83136833" lon="7.81400417">
                <time>2015-01-04T15:10:16.000Z</time>
                <sat>177</sat>
            </trkpt>
            <trkpt lat="49.83136783" lon="7.81400283">
                <time>2015-01-04T15:10:17.000Z</time>
                <sat>177</sat>
            </trkpt>
            <trkpt lat="49.831362" lon="7.81399617">
                <time>2015-01-04T15:10:18.000Z</time>
                <sat>177</sat>
            </trkpt>
            <trkpt lat="49.831362" lon="7.81399583">
                <time>2015-01-04T15:10:19.000Z</time>
                <sat>177</sat>
            </trkpt>
            <trkpt lat="49.83136183" lon="7.813995">
                <time>2015-01-04T15:10:20.000Z</time>
                <sat>177</sat>
            </trkpt>
            <trkpt lat="49.83135867" lon="7.8139915">
                <time>2015-01-04T15:10:21.000Z</time>
                <sat>177</sat>
            </trkpt>
            <trkpt lat="49.8313585" lon="7.81399117">
                <time>2015-01-04T15:10:22.000Z</time>
                <sat>177</sat>
            </trkpt>
            <trkpt lat="49.831358" lon="7.81399017">
                <time>2015-01-04T15:10:23.000Z</time>
                <sat>177</sat>
            </trkpt>
            <trkpt lat="49.8313555" lon="7.81398717">
                <time>2015-01-04T15:10:24.000Z</time>
                <sat>177</sat>
            </trkpt>
            <trkpt lat="49.8313555" lon="7.81398683">
                <time>2015-01-04T15:10:25.000Z</time>
                <sat>177</sat>
            </trkpt>
            <trkpt lat="49.83135517" lon="7.81398633">
                <time>2015-01-04T15:10:26.000Z</time>
                <sat>177</sat>
            </trkpt>
            <trkpt lat="49.83135483" lon="7.8139855">
                <time>2015-01-04T15:10:27.000Z</time>
                <sat>177</sat>
            </trkpt>
            <trkpt lat="49.831355" lon="7.8139835">
                <time>2015-01-04T15:10:28.000Z</time>
                <sat>177</sat>
            </trkpt>
            <trkpt lat="49.831356" lon="7.81397783">
                <time>2015-01-04T15:10:29.000Z</time>
                <sat>177</sat>
            </trkpt>
            <trkpt lat="49.83135833" lon="7.81396767">
                <time>2015-01-04T15:10:30.000Z</time>
                <sat>177</sat>
            </trkpt>
            <trkpt lat="49.83136217" lon="7.81395233">
                <time>2015-01-04T15:10:31.000Z</time>
                <sat>176</sat>
            </trkpt>
            <trkpt lat="49.8313675" lon="7.81393383">
                <time>2015-01-04T15:10:32.000Z</time>
                <sat>176</sat>
            </trkpt>
            <trkpt lat="49.83137417" lon="7.81391083">
                <time>2015-01-04T15:10:33.000Z</time>
                <sat>176</sat>
            </trkpt>
            <trkpt lat="49.83138167" lon="7.8138855">
                <time>2015-01-04T15:10:34.000Z</time>
                <sat>176</sat>
            </trkpt>
            <trkpt lat="49.8313905" lon="7.81385917">
                <time>2015-01-04T15:10:35.000Z</time>
                <sat>176</sat>
            </trkpt>
            <trkpt lat="49.83140633" lon="7.81382033">
                <time>2015-01-04T15:10:36.000Z</time>
                <sat>175</sat>
            </trkpt>
            <trkpt lat="49.83142" lon="7.8137915">
                <time>2015-01-04T15:10:37.000Z</time>
                <sat>174</sat>
            </trkpt>
            <trkpt lat="49.83143467" lon="7.81376167">
                <time>2015-01-04T15:10:38.000Z</time>
                <sat>174</sat>
            </trkpt>
            <trkpt lat="49.8314495" lon="7.81373467">
                <time>2015-01-04T15:10:39.000Z</time>
                <sat>174</sat>
            </trkpt>
            <trkpt lat="49.8314655" lon="7.81371067">
                <time>2015-01-04T15:10:40.000Z</time>
                <sat>174</sat>
            </trkpt>
            <trkpt lat="49.83148233" lon="7.81368933">
                <time>2015-01-04T15:10:41.000Z</time>
                <sat>174</sat>
            </trkpt>
            <trkpt lat="49.8315" lon="7.81367">
                <time>2015-01-04T15:10:42.000Z</time>
                <sat>174</sat>
            </trkpt>
            <trkpt lat="49.83151783" lon="7.81365233">
                <time>2015-01-04T15:10:43.000Z</time>
                <sat>173</sat>
            </trkpt>
            <trkpt lat="49.83153567" lon="7.8136355">
                <time>2015-01-04T15:10:44.000Z</time>
                <sat>173</sat>
            </trkpt>
            <trkpt lat="49.831554" lon="7.81361883">
                <time>2015-01-04T15:10:45.000Z</time>
                <sat>173</sat>
            </trkpt>
            <trkpt lat="49.83157133" lon="7.81360217">
                <time>2015-01-04T15:10:46.000Z</time>
                <sat>173</sat>
            </trkpt>
            <trkpt lat="49.83158933" lon="7.81358433">
                <time>2015-01-04T15:10:47.000Z</time>
                <sat>172</sat>
            </trkpt>
            <trkpt lat="49.83160733" lon="7.81356583">
                <time>2015-01-04T15:10:48.000Z</time>
                <sat>172</sat>
            </trkpt>
            <trkpt lat="49.831626" lon="7.81354767">
                <time>2015-01-04T15:10:49.000Z</time>
                <sat>172</sat>
            </trkpt>
            <trkpt lat="49.831644" lon="7.81353033">
                <time>2015-01-04T15:10:50.000Z</time>
                <sat>172</sat>
            </trkpt>
            <trkpt lat="49.83166167" lon="7.813513">
                <time>2015-01-04T15:10:51.000Z</time>
                <sat>172</sat>
            </trkpt>
            <trkpt lat="49.83167917" lon="7.81349517">
                <time>2015-01-04T15:10:52.000Z</time>
                <sat>172</sat>
            </trkpt>
            <trkpt lat="49.8316955" lon="7.81347733">
                <time>2015-01-04T15:10:53.000Z</time>
                <sat>172</sat>
            </trkpt>
            <trkpt lat="49.83171183" lon="7.813459">
                <time>2015-01-04T15:10:54.000Z</time>
                <sat>172</sat>
            </trkpt>
            <trkpt lat="49.8317275" lon="7.81344017">
                <time>2015-01-04T15:10:55.000Z</time>
                <sat>172</sat>
            </trkpt>
            <trkpt lat="49.83174417" lon="7.8134215">
                <time>2015-01-04T15:10:56.000Z</time>
                <sat>171</sat>
            </trkpt>
            <trkpt lat="49.8317605" lon="7.813403">
                <time>2015-01-04T15:10:57.000Z</time>
                <sat>171</sat>
            </trkpt>
            <trkpt lat="49.83177683" lon="7.81338367">
                <time>2015-01-04T15:10:58.000Z</time>
                <sat>171</sat>
            </trkpt>
            <trkpt lat="49.83179367" lon="7.81336483">
                <time>2015-01-04T15:10:59.000Z</time>
                <sat>171</sat>
            </trkpt>
            <trkpt lat="49.8318105" lon="7.81334667">
                <time>2015-01-04T15:11:00.000Z</time>
                <sat>171</sat>
            </trkpt>
            <trkpt lat="49.8318275" lon="7.81332933">
                <time>2015-01-04T15:11:01.000Z</time>
                <sat>172</sat>
            </trkpt>
            <trkpt lat="49.83184367" lon="7.81331167">
                <time>2015-01-04T15:11:02.000Z</time>
                <sat>172</sat>
            </trkpt>
            <trkpt lat="49.83186017" lon="7.81329333">
                <time>2015-01-04T15:11:03.000Z</time>
                <sat>171</sat>
            </trkpt>
            <trkpt lat="49.8318765" lon="7.81327483">
                <time>2015-01-04T15:11:04.000Z</time>
                <sat>171</sat>
            </trkpt>
            <trkpt lat="49.83189333" lon="7.81325583">
                <time>2015-01-04T15:11:05.000Z</time>
                <sat>172</sat>
            </trkpt>
            <trkpt lat="49.8319105" lon="7.81323783">
                <time>2015-01-04T15:11:06.000Z</time>
                <sat>171</sat>
            </trkpt>
            <trkpt lat="49.83192783" lon="7.81322">
                <time>2015-01-04T15:11:07.000Z</time>
                <sat>171</sat>
            </trkpt>
            <trkpt lat="49.831945" lon="7.81320117">
                <time>2015-01-04T15:11:08.000Z</time>
                <sat>171</sat>
            </trkpt>
            <trkpt lat="49.83196217" lon="7.81318283">
                <time>2015-01-04T15:11:09.000Z</time>
                <sat>172</sat>
            </trkpt>
            <trkpt lat="49.83198" lon="7.8131645">
                <time>2015-01-04T15:11:10.000Z</time>
                <sat>171</sat>
            </trkpt>
            <trkpt lat="49.83199767" lon="7.813147">
                <time>2015-01-04T15:11:11.000Z</time>
                <sat>172</sat>
            </trkpt>
            <trkpt lat="49.83201533" lon="7.81312967">
                <time>2015-01-04T15:11:12.000Z</time>
                <sat>171</sat>
            </trkpt>
            <trkpt lat="49.832032" lon="7.81311133">
                <time>2015-01-04T15:11:13.000Z</time>
                <sat>171</sat>
            </trkpt>
            <trkpt lat="49.83204917" lon="7.81309333">
                <time>2015-01-04T15:11:14.000Z</time>
                <sat>171</sat>
            </trkpt>
            <trkpt lat="49.832066" lon="7.813076">
                <time>2015-01-04T15:11:15.000Z</time>
                <sat>172</sat>
            </trkpt>
            <trkpt lat="49.83208283" lon="7.81305833">
                <time>2015-01-04T15:11:16.000Z</time>
                <sat>171</sat>
            </trkpt>
            <trkpt lat="49.8320995" lon="7.81304033">
                <time>2015-01-04T15:11:17.000Z</time>
                <sat>171</sat>
            </trkpt>
            <trkpt lat="49.83211617" lon="7.81302267">
                <time>2015-01-04T15:11:18.000Z</time>
                <sat>171</sat>
            </trkpt>
            <trkpt lat="49.83213383" lon="7.8130045">
                <time>2015-01-04T15:11:19.000Z</time>
                <sat>171</sat>
            </trkpt>
            <trkpt lat="49.83215083" lon="7.81298617">
                <time>2015-01-04T15:11:20.000Z</time>
                <sat>171</sat>
            </trkpt>
            <trkpt lat="49.83216833" lon="7.81296833">
                <time>2015-01-04T15:11:21.000Z</time>
                <sat>171</sat>
            </trkpt>
            <trkpt lat="49.832185" lon="7.81294967">
                <time>2015-01-04T15:11:22.000Z</time>
                <sat>171</sat>
            </trkpt>
            <trkpt lat="49.83220183" lon="7.81293033">
                <time>2015-01-04T15:11:23.000Z</time>
                <sat>170</sat>
            </trkpt>
            <trkpt lat="49.83221883" lon="7.81291217">
                <time>2015-01-04T15:11:24.000Z</time>
                <sat>170</sat>
            </trkpt>
            <trkpt lat="49.8322355" lon="7.81289517">
                <time>2015-01-04T15:11:25.000Z</time>
                <sat>170</sat>
            </trkpt>
            <trkpt lat="49.83225267" lon="7.81287817">
                <time>2015-01-04T15:11:26.000Z</time>
                <sat>170</sat>
            </trkpt>
            <trkpt lat="49.83226917" lon="7.81286067">
                <time>2015-01-04T15:11:27.000Z</time>
                <sat>170</sat>
            </trkpt>
            <trkpt lat="49.83228583" lon="7.81284333">
                <time>2015-01-04T15:11:28.000Z</time>
                <sat>170</sat>
            </trkpt>
            <trkpt lat="49.83230267" lon="7.81282633">
                <time>2015-01-04T15:11:29.000Z</time>
                <sat>170</sat>
            </trkpt>
            <trkpt lat="49.8323195" lon="7.81280917">
                <time>2015-01-04T15:11:30.000Z</time>
                <sat>170</sat>
            </trkpt>
            <trkpt lat="49.83233633" lon="7.81279167">
                <time>2015-01-04T15:11:31.000Z</time>
                <sat>170</sat>
            </trkpt>
            <trkpt lat="49.83235283" lon="7.81277383">
                <time>2015-01-04T15:11:32.000Z</time>
                <sat>170</sat>
            </trkpt>
            <trkpt lat="49.83236967" lon="7.81275667">
                <time>2015-01-04T15:11:33.000Z</time>
                <sat>170</sat>
            </trkpt>
            <trkpt lat="49.83238633" lon="7.81274017">
                <time>2015-01-04T15:11:34.000Z</time>
                <sat>170</sat>
            </trkpt>
            <trkpt lat="49.83240367" lon="7.81272367">
                <time>2015-01-04T15:11:35.000Z</time>
                <sat>170</sat>
            </trkpt>
            <trkpt lat="49.8324215" lon="7.81270833">
                <time>2015-01-04T15:11:36.000Z</time>
                <sat>170</sat>
            </trkpt>
            <trkpt lat="49.832439" lon="7.81269317">
                <time>2015-01-04T15:11:37.000Z</time>
                <sat>170</sat>
            </trkpt>
            <trkpt lat="49.83245633" lon="7.81267733">
                <time>2015-01-04T15:11:38.000Z</time>
                <sat>170</sat>
            </trkpt>
            <trkpt lat="49.832473" lon="7.81266083">
                <time>2015-01-04T15:11:39.000Z</time>
                <sat>170</sat>
            </trkpt>
            <trkpt lat="49.83248983" lon="7.8126435">
                <time>2015-01-04T15:11:40.000Z</time>
                <sat>169</sat>
            </trkpt>
            <trkpt lat="49.83250617" lon="7.8126265">
                <time>2015-01-04T15:11:41.000Z</time>
                <sat>169</sat>
            </trkpt>
            <trkpt lat="49.83252317" lon="7.81260933">
                <time>2015-01-04T15:11:42.000Z</time>
                <sat>169</sat>
            </trkpt>
            <trkpt lat="49.83254017" lon="7.81259283">
                <time>2015-01-04T15:11:43.000Z</time>
                <sat>169</sat>
            </trkpt>
            <trkpt lat="49.8325575" lon="7.81257633">
                <time>2015-01-04T15:11:44.000Z</time>
                <sat>168</sat>
            </trkpt>
            <trkpt lat="49.83257517" lon="7.8125595">
                <time>2015-01-04T15:11:45.000Z</time>
                <sat>168</sat>
            </trkpt>
            <trkpt lat="49.83259217" lon="7.81254267">
                <time>2015-01-04T15:11:46.000Z</time>
                <sat>168</sat>
            </trkpt>
            <trkpt lat="49.83260917" lon="7.8125255">
                <time>2015-01-04T15:11:47.000Z</time>
                <sat>168</sat>
            </trkpt>
            <trkpt lat="49.83262617" lon="7.812509">
                <time>2015-01-04T15:11:48.000Z</time>
                <sat>167</sat>
            </trkpt>
            <trkpt lat="49.83264333" lon="7.8124925">
                <time>2015-01-04T15:11:49.000Z</time>
                <sat>167</sat>
            </trkpt>
            <trkpt lat="49.83266033" lon="7.812476">
                <time>2015-01-04T15:11:50.000Z</time>
                <sat>167</sat>
            </trkpt>
            <trkpt lat="49.83267733" lon="7.81246017">
                <time>2015-01-04T15:11:51.000Z</time>
                <sat>167</sat>
            </trkpt>
            <trkpt lat="49.83269483" lon="7.812445">
                <time>2015-01-04T15:11:52.000Z</time>
                <sat>166</sat>
            </trkpt>
            <trkpt lat="49.83271217" lon="7.81243017">
                <time>2015-01-04T15:11:53.000Z</time>
                <sat>166</sat>
            </trkpt>
            <trkpt lat="49.83273017" lon="7.81241567">
                <time>2015-01-04T15:11:54.000Z</time>
                <sat>166</sat>
            </trkpt>
            <trkpt lat="49.83274783" lon="7.8124015">
                <time>2015-01-04T15:11:55.000Z</time>
                <sat>166</sat>
            </trkpt>
            <trkpt lat="49.832766" lon="7.81238783">
                <time>2015-01-04T15:11:56.000Z</time>
                <sat>166</sat>
            </trkpt>
            <trkpt lat="49.83278383" lon="7.812374">
                <time>2015-01-04T15:11:57.000Z</time>
                <sat>166</sat>
            </trkpt>
            <trkpt lat="49.83280183" lon="7.81236">
                <time>2015-01-04T15:11:58.000Z</time>
                <sat>166</sat>
            </trkpt>
            <trkpt lat="49.83282" lon="7.81234717">
                <time>2015-01-04T15:11:59.000Z</time>
                <sat>166</sat>
            </trkpt>
            <trkpt lat="49.83283767" lon="7.81233483">
                <time>2015-01-04T15:12:00.000Z</time>
                <sat>166</sat>
            </trkpt>
            <trkpt lat="49.83285533" lon="7.81232233">
                <time>2015-01-04T15:12:01.000Z</time>
                <sat>165</sat>
            </trkpt>
            <trkpt lat="49.83287167" lon="7.81231">
                <time>2015-01-04T15:12:02.000Z</time>
                <sat>164</sat>
            </trkpt>
            <trkpt lat="49.83288917" lon="7.81229717">
                <time>2015-01-04T15:12:03.000Z</time>
                <sat>165</sat>
            </trkpt>
            <trkpt lat="49.83290733" lon="7.812284">
                <time>2015-01-04T15:12:04.000Z</time>
                <sat>165</sat>
            </trkpt>
            <trkpt lat="49.83292533" lon="7.81227167">
                <time>2015-01-04T15:12:05.000Z</time>
                <sat>165</sat>
            </trkpt>
            <trkpt lat="49.83294367" lon="7.812259">
                <time>2015-01-04T15:12:06.000Z</time>
                <sat>165</sat>
            </trkpt>
            <trkpt lat="49.83296117" lon="7.81224583">
                <time>2015-01-04T15:12:07.000Z</time>
                <sat>165</sat>
            </trkpt>
            <trkpt lat="49.83297867" lon="7.81223267">
                <time>2015-01-04T15:12:08.000Z</time>
                <sat>165</sat>
            </trkpt>
            <trkpt lat="49.83299633" lon="7.8122205">
                <time>2015-01-04T15:12:09.000Z</time>
                <sat>165</sat>
            </trkpt>
            <trkpt lat="49.83301417" lon="7.81220967">
                <time>2015-01-04T15:12:10.000Z</time>
                <sat>165</sat>
            </trkpt>
            <trkpt lat="49.833033" lon="7.81219933">
                <time>2015-01-04T15:12:11.000Z</time>
                <sat>165</sat>
            </trkpt>
            <trkpt lat="49.83305233" lon="7.81218833">
                <time>2015-01-04T15:12:12.000Z</time>
                <sat>166</sat>
            </trkpt>
            <trkpt lat="49.833072" lon="7.81217733">
                <time>2015-01-04T15:12:13.000Z</time>
                <sat>166</sat>
            </trkpt>
            <trkpt lat="49.8330915" lon="7.81216683">
                <time>2015-01-04T15:12:14.000Z</time>
                <sat>166</sat>
            </trkpt>
            <trkpt lat="49.8331105" lon="7.81215633">
                <time>2015-01-04T15:12:15.000Z</time>
                <sat>166</sat>
            </trkpt>
            <trkpt lat="49.83312917" lon="7.81214583">
                <time>2015-01-04T15:12:16.000Z</time>
                <sat>166</sat>
            </trkpt>
            <trkpt lat="49.83314833" lon="7.812135">
                <time>2015-01-04T15:12:17.000Z</time>
                <sat>166</sat>
            </trkpt>
            <trkpt lat="49.83316767" lon="7.81212417">
                <time>2015-01-04T15:12:18.000Z</time>
                <sat>166</sat>
            </trkpt>
            <trkpt lat="49.83318683" lon="7.8121135">
                <time>2015-01-04T15:12:19.000Z</time>
                <sat>166</sat>
            </trkpt>
            <trkpt lat="49.83320617" lon="7.81210333">
                <time>2015-01-04T15:12:20.000Z</time>
                <sat>166</sat>
            </trkpt>
            <trkpt lat="49.8332255" lon="7.81209333">
                <time>2015-01-04T15:12:21.000Z</time>
                <sat>166</sat>
            </trkpt>
            <trkpt lat="49.83324517" lon="7.8120835">
                <time>2015-01-04T15:12:22.000Z</time>
                <sat>166</sat>
            </trkpt>
            <trkpt lat="49.83326433" lon="7.81207383">
                <time>2015-01-04T15:12:23.000Z</time>
                <sat>166</sat>
            </trkpt>
            <trkpt lat="49.83328367" lon="7.81206483">
                <time>2015-01-04T15:12:24.000Z</time>
                <sat>165</sat>
            </trkpt>
            <trkpt lat="49.8333035" lon="7.81205583">
                <time>2015-01-04T15:12:25.000Z</time>
                <sat>165</sat>
            </trkpt>
            <trkpt lat="49.83332233" lon="7.81204583">
                <time>2015-01-04T15:12:26.000Z</time>
                <sat>165</sat>
            </trkpt>
            <trkpt lat="49.8333425" lon="7.81203583">
                <time>2015-01-04T15:12:27.000Z</time>
                <sat>165</sat>
            </trkpt>
            <trkpt lat="49.8333625" lon="7.81202667">
                <time>2015-01-04T15:12:28.000Z</time>
                <sat>165</sat>
            </trkpt>
            <trkpt lat="49.83338233" lon="7.81201883">
                <time>2015-01-04T15:12:29.000Z</time>
                <sat>165</sat>
            </trkpt>
            <trkpt lat="49.83340283" lon="7.81201233">
                <time>2015-01-04T15:12:30.000Z</time>
                <sat>164</sat>
            </trkpt>
            <trkpt lat="49.83342233" lon="7.81200583">
                <time>2015-01-04T15:12:31.000Z</time>
                <sat>164</sat>
            </trkpt>
            <trkpt lat="49.83344267" lon="7.81199883">
                <time>2015-01-04T15:12:32.000Z</time>
                <sat>164</sat>
            </trkpt>
            <trkpt lat="49.833463" lon="7.81199267">
                <time>2015-01-04T15:12:33.000Z</time>
                <sat>165</sat>
            </trkpt>
            <trkpt lat="49.83348367" lon="7.81198667">
                <time>2015-01-04T15:12:34.000Z</time>
                <sat>164</sat>
            </trkpt>
            <trkpt lat="49.8335045" lon="7.811981">
                <time>2015-01-04T15:12:35.000Z</time>
                <sat>164</sat>
            </trkpt>
            <trkpt lat="49.83352517" lon="7.8119745">
                <time>2015-01-04T15:12:36.000Z</time>
                <sat>164</sat>
            </trkpt>
            <trkpt lat="49.8335455" lon="7.81196833">
                <time>2015-01-04T15:12:37.000Z</time>
                <sat>164</sat>
            </trkpt>
            <trkpt lat="49.83356533" lon="7.81196183">
                <time>2015-01-04T15:12:38.000Z</time>
                <sat>164</sat>
            </trkpt>
            <trkpt lat="49.83358567" lon="7.8119555">
                <time>2015-01-04T15:12:39.000Z</time>
                <sat>164</sat>
            </trkpt>
            <trkpt lat="49.8336055" lon="7.8119495">
                <time>2015-01-04T15:12:40.000Z</time>
                <sat>164</sat>
            </trkpt>
            <trkpt lat="49.83362483" lon="7.81194333">
                <time>2015-01-04T15:12:41.000Z</time>
                <sat>163</sat>
            </trkpt>
            <trkpt lat="49.83364417" lon="7.81193767">
                <time>2015-01-04T15:12:42.000Z</time>
                <sat>163</sat>
            </trkpt>
            <trkpt lat="49.833663" lon="7.81193133">
                <time>2015-01-04T15:12:43.000Z</time>
                <sat>163</sat>
            </trkpt>
            <trkpt lat="49.83368217" lon="7.811925">
                <time>2015-01-04T15:12:44.000Z</time>
                <sat>163</sat>
            </trkpt>
            <trkpt lat="49.83370033" lon="7.81191867">
                <time>2015-01-04T15:12:45.000Z</time>
                <sat>163</sat>
            </trkpt>
            <trkpt lat="49.83371917" lon="7.81191417">
                <time>2015-01-04T15:12:46.000Z</time>
                <sat>163</sat>
            </trkpt>
            <trkpt lat="49.83373867" lon="7.81191117">
                <time>2015-01-04T15:12:47.000Z</time>
                <sat>162</sat>
            </trkpt>
            <trkpt lat="49.833758" lon="7.81190767">
                <time>2015-01-04T15:12:48.000Z</time>
                <sat>162</sat>
            </trkpt>
            <trkpt lat="49.833778" lon="7.81190517">
                <time>2015-01-04T15:12:49.000Z</time>
                <sat>162</sat>
            </trkpt>
            <trkpt lat="49.8337975" lon="7.81190233">
                <time>2015-01-04T15:12:50.000Z</time>
                <sat>162</sat>
            </trkpt>
            <trkpt lat="49.83381783" lon="7.811899">
                <time>2015-01-04T15:12:51.000Z</time>
                <sat>162</sat>
            </trkpt>
            <trkpt lat="49.83383833" lon="7.8118965">
                <time>2015-01-04T15:12:52.000Z</time>
                <sat>162</sat>
            </trkpt>
            <trkpt lat="49.8338585" lon="7.81189467">
                <time>2015-01-04T15:12:53.000Z</time>
                <sat>162</sat>
            </trkpt>
            <trkpt lat="49.8338785" lon="7.81189217">
                <time>2015-01-04T15:12:54.000Z</time>
                <sat>162</sat>
            </trkpt>
            <trkpt lat="49.8338975" lon="7.8118895">
                <time>2015-01-04T15:12:55.000Z</time>
                <sat>162</sat>
            </trkpt>
            <trkpt lat="49.833917" lon="7.81188783">
                <time>2015-01-04T15:12:56.000Z</time>
                <sat>161</sat>
            </trkpt>
            <trkpt lat="49.83393683" lon="7.81188683">
                <time>2015-01-04T15:12:57.000Z</time>
                <sat>161</sat>
            </trkpt>
            <trkpt lat="49.833956" lon="7.81188567">
                <time>2015-01-04T15:12:58.000Z</time>
                <sat>161</sat>
            </trkpt>
            <trkpt lat="49.8339755" lon="7.81188517">
                <time>2015-01-04T15:12:59.000Z</time>
                <sat>160</sat>
            </trkpt>
            <trkpt lat="49.83399583" lon="7.81188517">
                <time>2015-01-04T15:13:00.000Z</time>
                <sat>161</sat>
            </trkpt>
            <trkpt lat="49.83401667" lon="7.8118855">
                <time>2015-01-04T15:13:01.000Z</time>
                <sat>161</sat>
            </trkpt>
            <trkpt lat="49.83403667" lon="7.81188617">
                <time>2015-01-04T15:13:02.000Z</time>
                <sat>161</sat>
            </trkpt>
            <trkpt lat="49.83405717" lon="7.81188733">
                <time>2015-01-04T15:13:03.000Z</time>
                <sat>161</sat>
            </trkpt>
            <trkpt lat="49.83407783" lon="7.8118895">
                <time>2015-01-04T15:13:04.000Z</time>
                <sat>161</sat>
            </trkpt>
            <trkpt lat="49.83409733" lon="7.811891">
                <time>2015-01-04T15:13:05.000Z</time>
                <sat>160</sat>
            </trkpt>
            <trkpt lat="49.83411683" lon="7.81189217">
                <time>2015-01-04T15:13:06.000Z</time>
                <sat>160</sat>
            </trkpt>
            <trkpt lat="49.83413583" lon="7.8118925">
                <time>2015-01-04T15:13:07.000Z</time>
                <sat>160</sat>
            </trkpt>
            <trkpt lat="49.8341545" lon="7.81189283">
                <time>2015-01-04T15:13:08.000Z</time>
                <sat>160</sat>
            </trkpt>
            <trkpt lat="49.834174" lon="7.81189333">
                <time>2015-01-04T15:13:09.000Z</time>
                <sat>160</sat>
            </trkpt>
            <trkpt lat="49.8341935" lon="7.81189433">
                <time>2015-01-04T15:13:10.000Z</time>
                <sat>160</sat>
            </trkpt>
            <trkpt lat="49.83421267" lon="7.81189583">
                <time>2015-01-04T15:13:11.000Z</time>
                <sat>159</sat>
            </trkpt>
            <trkpt lat="49.83423183" lon="7.81189717">
                <time>2015-01-04T15:13:12.000Z</time>
                <sat>159</sat>
            </trkpt>
            <trkpt lat="49.83425133" lon="7.81189883">
                <time>2015-01-04T15:13:13.000Z</time>
                <sat>159</sat>
            </trkpt>
            <trkpt lat="49.83427" lon="7.811901">
                <time>2015-01-04T15:13:14.000Z</time>
                <sat>159</sat>
            </trkpt>
            <trkpt lat="49.83428833" lon="7.8119035">
                <time>2015-01-04T15:13:15.000Z</time>
                <sat>158</sat>
            </trkpt>
            <trkpt lat="49.8343065" lon="7.81190583">
                <time>2015-01-04T15:13:16.000Z</time>
                <sat>157</sat>
            </trkpt>
            <trkpt lat="49.83432417" lon="7.81190817">
                <time>2015-01-04T15:13:17.000Z</time>
                <sat>157</sat>
            </trkpt>
            <trkpt lat="49.834342" lon="7.81191083">
                <time>2015-01-04T15:13:18.000Z</time>
                <sat>157</sat>
            </trkpt>
            <trkpt lat="49.8343595" lon="7.8119135">
                <time>2015-01-04T15:13:19.000Z</time>
                <sat>157</sat>
            </trkpt>
            <trkpt lat="49.83437733" lon="7.81191733">
                <time>2015-01-04T15:13:20.000Z</time>
                <sat>157</sat>
            </trkpt>
            <trkpt lat="49.834395" lon="7.81192117">
                <time>2015-01-04T15:13:21.000Z</time>
                <sat>156</sat>
            </trkpt>
            <trkpt lat="49.8344125" lon="7.811924">
                <time>2015-01-04T15:13:22.000Z</time>
                <sat>156</sat>
            </trkpt>
            <trkpt lat="49.83442983" lon="7.8119275">
                <time>2015-01-04T15:13:23.000Z</time>
                <sat>155</sat>
            </trkpt>
            <trkpt lat="49.83444817" lon="7.81193083">
                <time>2015-01-04T15:13:24.000Z</time>
                <sat>155</sat>
            </trkpt>
            <trkpt lat="49.834468" lon="7.8119335">
                <time>2015-01-04T15:13:25.000Z</time>
                <sat>156</sat>
            </trkpt>
            <trkpt lat="49.83448817" lon="7.81193583">
                <time>2015-01-04T15:13:26.000Z</time>
                <sat>156</sat>
            </trkpt>
            <trkpt lat="49.83450783" lon="7.81193867">
                <time>2015-01-04T15:13:27.000Z</time>
                <sat>155</sat>
            </trkpt>
            <trkpt lat="49.83452683" lon="7.81194217">
                <time>2015-01-04T15:13:28.000Z</time>
                <sat>155</sat>
            </trkpt>
            <trkpt lat="49.83454567" lon="7.8119455">
                <time>2015-01-04T15:13:29.000Z</time>
                <sat>155</sat>
            </trkpt>
            <trkpt lat="49.834566" lon="7.81194883">
                <time>2015-01-04T15:13:30.000Z</time>
                <sat>155</sat>
            </trkpt>
            <trkpt lat="49.83458633" lon="7.81195117">
                <time>2015-01-04T15:13:31.000Z</time>
                <sat>155</sat>
            </trkpt>
            <trkpt lat="49.8346065" lon="7.81195117">
                <time>2015-01-04T15:13:32.000Z</time>
                <sat>155</sat>
            </trkpt>
            <trkpt lat="49.8346255" lon="7.811948">
                <time>2015-01-04T15:13:33.000Z</time>
                <sat>155</sat>
            </trkpt>
            <trkpt lat="49.834643" lon="7.81194">
                <time>2015-01-04T15:13:34.000Z</time>
                <sat>156</sat>
            </trkpt>
            <trkpt lat="49.83465517" lon="7.8119215">
                <time>2015-01-04T15:13:35.000Z</time>
                <sat>155</sat>
            </trkpt>
            <trkpt lat="49.834661" lon="7.811895">
                <time>2015-01-04T15:13:36.000Z</time>
                <sat>155</sat>
            </trkpt>
            <trkpt lat="49.834664" lon="7.8118665">
                <time>2015-01-04T15:13:37.000Z</time>
                <sat>155</sat>
            </trkpt>
            <trkpt lat="49.83466467" lon="7.81183733">
                <time>2015-01-04T15:13:38.000Z</time>
                <sat>155</sat>
            </trkpt>
            <trkpt lat="49.83466333" lon="7.8118075">
                <time>2015-01-04T15:13:39.000Z</time>
                <sat>155</sat>
            </trkpt>
            <trkpt lat="49.83465983" lon="7.81177733">
                <time>2015-01-04T15:13:40.000Z</time>
                <sat>155</sat>
            </trkpt>
            <trkpt lat="49.83465467" lon="7.811748">
                <time>2015-01-04T15:13:41.000Z</time>
                <sat>155</sat>
            </trkpt>
            <trkpt lat="49.83464783" lon="7.81171967">
                <time>2015-01-04T15:13:42.000Z</time>
                <sat>155</sat>
            </trkpt>
            <trkpt lat="49.83463983" lon="7.81169217">
                <time>2015-01-04T15:13:43.000Z</time>
                <sat>156</sat>
            </trkpt>
            <trkpt lat="49.834631" lon="7.81166417">
                <time>2015-01-04T15:13:44.000Z</time>
                <sat>156</sat>
            </trkpt>
            <trkpt lat="49.83462133" lon="7.81163583">
                <time>2015-01-04T15:13:45.000Z</time>
                <sat>157</sat>
            </trkpt>
            <trkpt lat="49.83461133" lon="7.8116085">
                <time>2015-01-04T15:13:46.000Z</time>
                <sat>157</sat>
            </trkpt>
            <trkpt lat="49.83460033" lon="7.81158117">
                <time>2015-01-04T15:13:47.000Z</time>
                <sat>157</sat>
            </trkpt>
            <trkpt lat="49.8345885" lon="7.811555">
                <time>2015-01-04T15:13:48.000Z</time>
                <sat>157</sat>
            </trkpt>
            <trkpt lat="49.834577" lon="7.81152833">
                <time>2015-01-04T15:13:49.000Z</time>
                <sat>158</sat>
            </trkpt>
            <trkpt lat="49.83456583" lon="7.81150117">
                <time>2015-01-04T15:13:50.000Z</time>
                <sat>158</sat>
            </trkpt>
            <trkpt lat="49.834555" lon="7.8114745">
                <time>2015-01-04T15:13:51.000Z</time>
                <sat>158</sat>
            </trkpt>
            <trkpt lat="49.83454483" lon="7.811446">
                <time>2015-01-04T15:13:52.000Z</time>
                <sat>158</sat>
            </trkpt>
            <trkpt lat="49.83453533" lon="7.81141717">
                <time>2015-01-04T15:13:53.000Z</time>
                <sat>158</sat>
            </trkpt>
            <trkpt lat="49.83452617" lon="7.811389">
                <time>2015-01-04T15:13:54.000Z</time>
                <sat>159</sat>
            </trkpt>
            <trkpt lat="49.83451817" lon="7.81136117">
                <time>2015-01-04T15:13:55.000Z</time>
                <sat>159</sat>
            </trkpt>
            <trkpt lat="49.8345125" lon="7.81133183">
                <time>2015-01-04T15:13:56.000Z</time>
                <sat>158</sat>
            </trkpt>
            <trkpt lat="49.83450917" lon="7.81130233">
                <time>2015-01-04T15:13:57.000Z</time>
                <sat>158</sat>
            </trkpt>
            <trkpt lat="49.834508" lon="7.81127433">
                <time>2015-01-04T15:13:58.000Z</time>
                <sat>157</sat>
            </trkpt>
            <trkpt lat="49.834509" lon="7.8112455">
                <time>2015-01-04T15:13:59.000Z</time>
                <sat>158</sat>
            </trkpt>
            <trkpt lat="49.8345115" lon="7.81121717">
                <time>2015-01-04T15:14:00.000Z</time>
                <sat>158</sat>
            </trkpt>
            <trkpt lat="49.83451567" lon="7.811189">
                <time>2015-01-04T15:14:01.000Z</time>
                <sat>158</sat>
            </trkpt>
            <trkpt lat="49.83452117" lon="7.811162">
                <time>2015-01-04T15:14:02.000Z</time>
                <sat>158</sat>
            </trkpt>
            <trkpt lat="49.83452833" lon="7.81113617">
                <time>2015-01-04T15:14:03.000Z</time>
                <sat>158</sat>
            </trkpt>
            <trkpt lat="49.83453717" lon="7.81111117">
                <time>2015-01-04T15:14:04.000Z</time>
                <sat>158</sat>
            </trkpt>
            <trkpt lat="49.83454717" lon="7.81108717">
                <time>2015-01-04T15:14:05.000Z</time>
                <sat>158</sat>
            </trkpt>
            <trkpt lat="49.83455867" lon="7.81106383">
                <time>2015-01-04T15:14:06.000Z</time>
                <sat>158</sat>
            </trkpt>
            <trkpt lat="49.83457083" lon="7.8110425">
                <time>2015-01-04T15:14:07.000Z</time>
                <sat>158</sat>
            </trkpt>
            <trkpt lat="49.834584" lon="7.81102183">
                <time>2015-01-04T15:14:08.000Z</time>
                <sat>158</sat>
            </trkpt>
            <trkpt lat="49.8345975" lon="7.811002">
                <time>2015-01-04T15:14:09.000Z</time>
                <sat>158</sat>
            </trkpt>
            <trkpt lat="49.83461183" lon="7.81098283">
                <time>2015-01-04T15:14:10.000Z</time>
                <sat>158</sat>
            </trkpt>
            <trkpt lat="49.834627" lon="7.81096483">
                <time>2015-01-04T15:14:11.000Z</time>
                <sat>158</sat>
            </trkpt>
            <trkpt lat="49.83464217" lon="7.81094717">
                <time>2015-01-04T15:14:12.000Z</time>
                <sat>158</sat>
            </trkpt>
            <trkpt lat="49.83465817" lon="7.81093033">
                <time>2015-01-04T15:14:13.000Z</time>
                <sat>158</sat>
            </trkpt>
            <trkpt lat="49.83467417" lon="7.8109145">
                <time>2015-01-04T15:14:14.000Z</time>
                <sat>158</sat>
            </trkpt>
            <trkpt lat="49.83469033" lon="7.81089817">
                <time>2015-01-04T15:14:15.000Z</time>
                <sat>158</sat>
            </trkpt>
            <trkpt lat="49.83470683" lon="7.81088217">
                <time>2015-01-04T15:14:16.000Z</time>
                <sat>158</sat>
            </trkpt>
            <trkpt lat="49.83472367" lon="7.8108665">
                <time>2015-01-04T15:14:17.000Z</time>
                <sat>158</sat>
            </trkpt>
            <trkpt lat="49.83474067" lon="7.81085183">
                <time>2015-01-04T15:14:18.000Z</time>
                <sat>158</sat>
            </trkpt>
            <trkpt lat="49.83475717" lon="7.8108375">
                <time>2015-01-04T15:14:19.000Z</time>
                <sat>157</sat>
            </trkpt>
            <trkpt lat="49.83477383" lon="7.81082283">
                <time>2015-01-04T15:14:20.000Z</time>
                <sat>158</sat>
            </trkpt>
            <trkpt lat="49.83479033" lon="7.81080817">
                <time>2015-01-04T15:14:21.000Z</time>
                <sat>158</sat>
            </trkpt>
            <trkpt lat="49.83480717" lon="7.81079383">
                <time>2015-01-04T15:14:22.000Z</time>
                <sat>158</sat>
            </trkpt>
            <trkpt lat="49.83482417" lon="7.810781">
                <time>2015-01-04T15:14:23.000Z</time>
                <sat>158</sat>
            </trkpt>
            <trkpt lat="49.83484133" lon="7.8107685">
                <time>2015-01-04T15:14:24.000Z</time>
                <sat>158</sat>
            </trkpt>
            <trkpt lat="49.83485867" lon="7.8107565">
                <time>2015-01-04T15:14:25.000Z</time>
                <sat>158</sat>
            </trkpt>
            <trkpt lat="49.83487583" lon="7.81074467">
                <time>2015-01-04T15:14:26.000Z</time>
                <sat>158</sat>
            </trkpt>
            <trkpt lat="49.83489317" lon="7.810733">
                <time>2015-01-04T15:14:27.000Z</time>
                <sat>158</sat>
            </trkpt>
            <trkpt lat="49.83491" lon="7.810721">
                <time>2015-01-04T15:14:28.000Z</time>
                <sat>158</sat>
            </trkpt>
            <trkpt lat="49.83492717" lon="7.810708">
                <time>2015-01-04T15:14:29.000Z</time>
                <sat>158</sat>
            </trkpt>
            <trkpt lat="49.83494367" lon="7.81069483">
                <time>2015-01-04T15:14:30.000Z</time>
                <sat>158</sat>
            </trkpt>
            <trkpt lat="49.8349605" lon="7.81068167">
                <time>2015-01-04T15:14:31.000Z</time>
                <sat>158</sat>
            </trkpt>
            <trkpt lat="49.83497733" lon="7.81066867">
                <time>2015-01-04T15:14:32.000Z</time>
                <sat>158</sat>
            </trkpt>
            <trkpt lat="49.83499467" lon="7.81065633">
                <time>2015-01-04T15:14:33.000Z</time>
                <sat>158</sat>
            </trkpt>
            <trkpt lat="49.83501267" lon="7.81064817">
                <time>2015-01-04T15:14:34.000Z</time>
                <sat>159</sat>
            </trkpt>
            <trkpt lat="49.835055" lon="7.81062933">
                <time>2015-01-04T15:14:35.000Z</time>
                <sat>159</sat>
            </trkpt>
            <trkpt lat="49.8350555" lon="7.8106275">
                <time>2015-01-04T15:14:36.000Z</time>
                <sat>158</sat>
            </trkpt>
            <trkpt lat="49.83505933" lon="7.81062183">
                <time>2015-01-04T15:14:37.000Z</time>
                <sat>158</sat>
            </trkpt>
            <trkpt lat="49.83506733" lon="7.81061367">
                <time>2015-01-04T15:14:38.000Z</time>
                <sat>158</sat>
            </trkpt>
            <trkpt lat="49.83507883" lon="7.81060333">
                <time>2015-01-04T15:14:39.000Z</time>
                <sat>158</sat>
            </trkpt>
            <trkpt lat="49.83509283" lon="7.81059133">
                <time>2015-01-04T15:14:40.000Z</time>
                <sat>158</sat>
            </trkpt>
            <trkpt lat="49.835108" lon="7.81057867">
                <time>2015-01-04T15:14:41.000Z</time>
                <sat>158</sat>
            </trkpt>
            <trkpt lat="49.8351245" lon="7.81056467">
                <time>2015-01-04T15:14:42.000Z</time>
                <sat>159</sat>
            </trkpt>
            <trkpt lat="49.83514133" lon="7.81055033">
                <time>2015-01-04T15:14:43.000Z</time>
                <sat>159</sat>
            </trkpt>
            <trkpt lat="49.83515867" lon="7.810536">
                <time>2015-01-04T15:14:44.000Z</time>
                <sat>159</sat>
            </trkpt>
            <trkpt lat="49.83517633" lon="7.8105215">
                <time>2015-01-04T15:14:45.000Z</time>
                <sat>159</sat>
            </trkpt>
            <trkpt lat="49.8351945" lon="7.8105075">
                <time>2015-01-04T15:14:46.000Z</time>
                <sat>159</sat>
            </trkpt>
            <trkpt lat="49.8352125" lon="7.81049333">
                <time>2015-01-04T15:14:47.000Z</time>
                <sat>160</sat>
            </trkpt>
            <trkpt lat="49.83523067" lon="7.81047867">
                <time>2015-01-04T15:14:48.000Z</time>
                <sat>160</sat>
            </trkpt>
            <trkpt lat="49.835249" lon="7.81046383">
                <time>2015-01-04T15:14:49.000Z</time>
                <sat>160</sat>
            </trkpt>
            <trkpt lat="49.83526617" lon="7.8104485">
                <time>2015-01-04T15:14:50.000Z</time>
                <sat>159</sat>
            </trkpt>
            <trkpt lat="49.8352835" lon="7.81043217">
                <time>2015-01-04T15:14:51.000Z</time>
                <sat>160</sat>
            </trkpt>
            <trkpt lat="49.83530017" lon="7.81041617">
                <time>2015-01-04T15:14:52.000Z</time>
                <sat>159</sat>
            </trkpt>
            <trkpt lat="49.835317" lon="7.81039983">
                <time>2015-01-04T15:14:53.000Z</time>
                <sat>159</sat>
            </trkpt>
            <trkpt lat="49.83533333" lon="7.81038267">
                <time>2015-01-04T15:14:54.000Z</time>
                <sat>160</sat>
            </trkpt>
            <trkpt lat="49.83534817" lon="7.81036333">
                <time>2015-01-04T15:14:55.000Z</time>
                <sat>160</sat>
            </trkpt>
            <trkpt lat="49.83536117" lon="7.81034183">
                <time>2015-01-04T15:14:56.000Z</time>
                <sat>159</sat>
            </trkpt>
            <trkpt lat="49.835371" lon="7.81031767">
                <time>2015-01-04T15:14:57.000Z</time>
                <sat>159</sat>
            </trkpt>
            <trkpt lat="49.83537717" lon="7.81029067">
                <time>2015-01-04T15:14:58.000Z</time>
                <sat>159</sat>
            </trkpt>
            <trkpt lat="49.8353795" lon="7.81026367">
                <time>2015-01-04T15:14:59.000Z</time>
                <sat>159</sat>
            </trkpt>
            <trkpt lat="49.835378" lon="7.81023533">
                <time>2015-01-04T15:15:00.000Z</time>
                <sat>159</sat>
            </trkpt>
            <trkpt lat="49.8353735" lon="7.810207">
                <time>2015-01-04T15:15:01.000Z</time>
                <sat>159</sat>
            </trkpt>
            <trkpt lat="49.83536717" lon="7.81017983">
                <time>2015-01-04T15:15:02.000Z</time>
                <sat>159</sat>
            </trkpt>
            <trkpt lat="49.83535933" lon="7.81015317">
                <time>2015-01-04T15:15:03.000Z</time>
                <sat>159</sat>
            </trkpt>
            <trkpt lat="49.83535067" lon="7.81012633">
                <time>2015-01-04T15:15:04.000Z</time>
                <sat>160</sat>
            </trkpt>
            <trkpt lat="49.8353415" lon="7.81009883">
                <time>2015-01-04T15:15:05.000Z</time>
                <sat>160</sat>
            </trkpt>
            <trkpt lat="49.83533183" lon="7.81007167">
                <time>2015-01-04T15:15:06.000Z</time>
                <sat>159</sat>
            </trkpt>
            <trkpt lat="49.83532183" lon="7.81004467">
                <time>2015-01-04T15:15:07.000Z</time>
                <sat>159</sat>
            </trkpt>
            <trkpt lat="49.8353115" lon="7.8100185">
                <time>2015-01-04T15:15:08.000Z</time>
                <sat>159</sat>
            </trkpt>
            <trkpt lat="49.8353005" lon="7.80999267">
                <time>2015-01-04T15:15:09.000Z</time>
                <sat>159</sat>
            </trkpt>
            <trkpt lat="49.8352895" lon="7.809967">
                <time>2015-01-04T15:15:10.000Z</time>
                <sat>159</sat>
            </trkpt>
            <trkpt lat="49.8352775" lon="7.809942">
                <time>2015-01-04T15:15:11.000Z</time>
                <sat>159</sat>
            </trkpt>
            <trkpt lat="49.8352655" lon="7.8099175">
                <time>2015-01-04T15:15:12.000Z</time>
                <sat>159</sat>
            </trkpt>
            <trkpt lat="49.8352535" lon="7.80989333">
                <time>2015-01-04T15:15:13.000Z</time>
                <sat>159</sat>
            </trkpt>
            <trkpt lat="49.83524133" lon="7.80986833">
                <time>2015-01-04T15:15:14.000Z</time>
                <sat>159</sat>
            </trkpt>
            <trkpt lat="49.8352295" lon="7.809844">
                <time>2015-01-04T15:15:15.000Z</time>
                <sat>159</sat>
            </trkpt>
            <trkpt lat="49.83521767" lon="7.80981967">
                <time>2015-01-04T15:15:16.000Z</time>
                <sat>159</sat>
            </trkpt>
            <trkpt lat="49.835206" lon="7.80979533">
                <time>2015-01-04T15:15:17.000Z</time>
                <sat>159</sat>
            </trkpt>
            <trkpt lat="49.83519483" lon="7.8097705">
                <time>2015-01-04T15:15:18.000Z</time>
                <sat>159</sat>
            </trkpt>
            <trkpt lat="49.83518367" lon="7.809746">
                <time>2015-01-04T15:15:19.000Z</time>
                <sat>159</sat>
            </trkpt>
            <trkpt lat="49.83517267" lon="7.80972167">
                <time>2015-01-04T15:15:20.000Z</time>
                <sat>160</sat>
            </trkpt>
            <trkpt lat="49.83516117" lon="7.80969683">
                <time>2015-01-04T15:15:21.000Z</time>
                <sat>160</sat>
            </trkpt>
            <trkpt lat="49.83514967" lon="7.8096725">
                <time>2015-01-04T15:15:22.000Z</time>
                <sat>160</sat>
            </trkpt>
            <trkpt lat="49.83513817" lon="7.80964767">
                <time>2015-01-04T15:15:23.000Z</time>
                <sat>160</sat>
            </trkpt>
            <trkpt lat="49.83512717" lon="7.80962283">
                <time>2015-01-04T15:15:24.000Z</time>
                <sat>160</sat>
            </trkpt>
            <trkpt lat="49.83511633" lon="7.80959733">
                <time>2015-01-04T15:15:25.000Z</time>
                <sat>160</sat>
            </trkpt>
            <trkpt lat="49.83510567" lon="7.809572">
                <time>2015-01-04T15:15:26.000Z</time>
                <sat>160</sat>
            </trkpt>
            <trkpt lat="49.83509517" lon="7.8095465">
                <time>2015-01-04T15:15:27.000Z</time>
                <sat>160</sat>
            </trkpt>
            <trkpt lat="49.8350845" lon="7.8095205">
                <time>2015-01-04T15:15:28.000Z</time>
                <sat>160</sat>
            </trkpt>
            <trkpt lat="49.83507367" lon="7.809495">
                <time>2015-01-04T15:15:29.000Z</time>
                <sat>160</sat>
            </trkpt>
            <trkpt lat="49.83506333" lon="7.80946883">
                <time>2015-01-04T15:15:30.000Z</time>
                <sat>160</sat>
            </trkpt>
            <trkpt lat="49.83505367" lon="7.80944283">
                <time>2015-01-04T15:15:31.000Z</time>
                <sat>161</sat>
            </trkpt>
            <trkpt lat="49.83504417" lon="7.809416">
                <time>2015-01-04T15:15:32.000Z</time>
                <sat>161</sat>
            </trkpt>
            <trkpt lat="49.83503533" lon="7.809389">
                <time>2015-01-04T15:15:33.000Z</time>
                <sat>161</sat>
            </trkpt>
            <trkpt lat="49.8350275" lon="7.809361">
                <time>2015-01-04T15:15:34.000Z</time>
                <sat>161</sat>
            </trkpt>
            <trkpt lat="49.8350205" lon="7.80933333">
                <time>2015-01-04T15:15:35.000Z</time>
                <sat>161</sat>
            </trkpt>
            <trkpt lat="49.8350145" lon="7.8093055">
                <time>2015-01-04T15:15:36.000Z</time>
                <sat>161</sat>
            </trkpt>
            <trkpt lat="49.83500883" lon="7.80927767">
                <time>2015-01-04T15:15:37.000Z</time>
                <sat>161</sat>
            </trkpt>
            <trkpt lat="49.83500283" lon="7.80924933">
                <time>2015-01-04T15:15:38.000Z</time>
                <sat>161</sat>
            </trkpt>
            <trkpt lat="49.83499733" lon="7.80922067">
                <time>2015-01-04T15:15:39.000Z</time>
                <sat>161</sat>
            </trkpt>
            <trkpt lat="49.834992" lon="7.8091925">
                <time>2015-01-04T15:15:40.000Z</time>
                <sat>161</sat>
            </trkpt>
            <trkpt lat="49.83498733" lon="7.8091635">
                <time>2015-01-04T15:15:41.000Z</time>
                <sat>161</sat>
            </trkpt>
            <trkpt lat="49.834983" lon="7.80913483">
                <time>2015-01-04T15:15:42.000Z</time>
                <sat>161</sat>
            </trkpt>
            <trkpt lat="49.8349785" lon="7.80910567">
                <time>2015-01-04T15:15:43.000Z</time>
                <sat>161</sat>
            </trkpt>
            <trkpt lat="49.83497433" lon="7.80907617">
                <time>2015-01-04T15:15:44.000Z</time>
                <sat>160</sat>
            </trkpt>
            <trkpt lat="49.83497017" lon="7.80904733">
                <time>2015-01-04T15:15:45.000Z</time>
                <sat>161</sat>
            </trkpt>
            <trkpt lat="49.83496583" lon="7.8090185">
                <time>2015-01-04T15:15:46.000Z</time>
                <sat>160</sat>
            </trkpt>
            <trkpt lat="49.83496117" lon="7.80898967">
                <time>2015-01-04T15:15:47.000Z</time>
                <sat>160</sat>
            </trkpt>
            <trkpt lat="49.8349565" lon="7.80895983">
                <time>2015-01-04T15:15:48.000Z</time>
                <sat>160</sat>
            </trkpt>
            <trkpt lat="49.834952" lon="7.80892983">
                <time>2015-01-04T15:15:49.000Z</time>
                <sat>160</sat>
            </trkpt>
            <trkpt lat="49.83494717" lon="7.8089">
                <time>2015-01-04T15:15:50.000Z</time>
                <sat>160</sat>
            </trkpt>
            <trkpt lat="49.83494233" lon="7.80887">
                <time>2015-01-04T15:15:51.000Z</time>
                <sat>160</sat>
            </trkpt>
            <trkpt lat="49.83493733" lon="7.80884">
                <time>2015-01-04T15:15:52.000Z</time>
                <sat>160</sat>
            </trkpt>
            <trkpt lat="49.83493217" lon="7.80880933">
                <time>2015-01-04T15:15:53.000Z</time>
                <sat>159</sat>
            </trkpt>
            <trkpt lat="49.83492733" lon="7.808779">
                <time>2015-01-04T15:15:54.000Z</time>
                <sat>159</sat>
            </trkpt>
            <trkpt lat="49.8349225" lon="7.8087485">
                <time>2015-01-04T15:15:55.000Z</time>
                <sat>159</sat>
            </trkpt>
            <trkpt lat="49.83491783" lon="7.80871817">
                <time>2015-01-04T15:15:56.000Z</time>
                <sat>159</sat>
            </trkpt>
            <trkpt lat="49.83491367" lon="7.80868733">
                <time>2015-01-04T15:15:57.000Z</time>
                <sat>159</sat>
            </trkpt>
            <trkpt lat="49.83490917" lon="7.808657">
                <time>2015-01-04T15:15:58.000Z</time>
                <sat>158</sat>
            </trkpt>
            <trkpt lat="49.83490433" lon="7.80862767">
                <time>2015-01-04T15:15:59.000Z</time>
                <sat>158</sat>
            </trkpt>
            <trkpt lat="49.83489967" lon="7.80859833">
                <time>2015-01-04T15:16:00.000Z</time>
                <sat>158</sat>
            </trkpt>
            <trkpt lat="49.83489467" lon="7.808569">
                <time>2015-01-04T15:16:01.000Z</time>
                <sat>158</sat>
            </trkpt>
            <trkpt lat="49.83488967" lon="7.80853933">
                <time>2015-01-04T15:16:02.000Z</time>
                <sat>158</sat>
            </trkpt>
            <trkpt lat="49.834885" lon="7.8085105">
                <time>2015-01-04T15:16:03.000Z</time>
                <sat>159</sat>
            </trkpt>
            <trkpt lat="49.83488033" lon="7.8084815">
                <time>2015-01-04T15:16:04.000Z</time>
                <sat>158</sat>
            </trkpt>
            <trkpt lat="49.8348755" lon="7.80845283">
                <time>2015-01-04T15:16:05.000Z</time>
                <sat>158</sat>
            </trkpt>
            <trkpt lat="49.83487067" lon="7.80842383">
                <time>2015-01-04T15:16:06.000Z</time>
                <sat>158</sat>
            </trkpt>
            <trkpt lat="49.83486617" lon="7.80839433">
                <time>2015-01-04T15:16:07.000Z</time>
                <sat>158</sat>
            </trkpt>
            <trkpt lat="49.8348615" lon="7.80836467">
                <time>2015-01-04T15:16:08.000Z</time>
                <sat>158</sat>
            </trkpt>
            <trkpt lat="49.83485683" lon="7.8083345">
                <time>2015-01-04T15:16:09.000Z</time>
                <sat>158</sat>
            </trkpt>
            <trkpt lat="49.83485183" lon="7.80830467">
                <time>2015-01-04T15:16:10.000Z</time>
                <sat>158</sat>
            </trkpt>
            <trkpt lat="49.83484683" lon="7.8082745">
                <time>2015-01-04T15:16:11.000Z</time>
                <sat>158</sat>
            </trkpt>
            <trkpt lat="49.83484167" lon="7.80824433">
                <time>2015-01-04T15:16:12.000Z</time>
                <sat>158</sat>
            </trkpt>
            <trkpt lat="49.83483617" lon="7.80821417">
                <time>2015-01-04T15:16:13.000Z</time>
                <sat>157</sat>
            </trkpt>
            <trkpt lat="49.83483067" lon="7.808184">
                <time>2015-01-04T15:16:14.000Z</time>
                <sat>157</sat>
            </trkpt>
            <trkpt lat="49.834825" lon="7.8081535">
                <time>2015-01-04T15:16:15.000Z</time>
                <sat>157</sat>
            </trkpt>
            <trkpt lat="49.83481933" lon="7.8081235">
                <time>2015-01-04T15:16:16.000Z</time>
                <sat>157</sat>
            </trkpt>
            <trkpt lat="49.834814" lon="7.80809417">
                <time>2015-01-04T15:16:17.000Z</time>
                <sat>157</sat>
            </trkpt>
            <trkpt lat="49.8348085" lon="7.8080645">
                <time>2015-01-04T15:16:18.000Z</time>
                <sat>157</sat>
            </trkpt>
            <trkpt lat="49.83480267" lon="7.80803517">
                <time>2015-01-04T15:16:19.000Z</time>
                <sat>157</sat>
            </trkpt>
            <trkpt lat="49.834797" lon="7.80800567">
                <time>2015-01-04T15:16:20.000Z</time>
                <sat>156</sat>
            </trkpt>
            <trkpt lat="49.8347915" lon="7.807976">
                <time>2015-01-04T15:16:21.000Z</time>
                <sat>156</sat>
            </trkpt>
            <trkpt lat="49.83478617" lon="7.80794617">
                <time>2015-01-04T15:16:22.000Z</time>
                <sat>156</sat>
            </trkpt>
            <trkpt lat="49.83478067" lon="7.80791667">
                <time>2015-01-04T15:16:23.000Z</time>
                <sat>156</sat>
            </trkpt>
            <trkpt lat="49.83477517" lon="7.80788717">
                <time>2015-01-04T15:16:24.000Z</time>
                <sat>157</sat>
            </trkpt>
            <trkpt lat="49.83477" lon="7.80785783">
                <time>2015-01-04T15:16:25.000Z</time>
                <sat>156</sat>
            </trkpt>
            <trkpt lat="49.83476467" lon="7.80782867">
                <time>2015-01-04T15:16:26.000Z</time>
                <sat>156</sat>
            </trkpt>
            <trkpt lat="49.83475917" lon="7.80779867">
                <time>2015-01-04T15:16:27.000Z</time>
                <sat>156</sat>
            </trkpt>
            <trkpt lat="49.8347535" lon="7.80776883">
                <time>2015-01-04T15:16:28.000Z</time>
                <sat>156</sat>
            </trkpt>
            <trkpt lat="49.83474817" lon="7.80773917">
                <time>2015-01-04T15:16:29.000Z</time>
                <sat>156</sat>
            </trkpt>
            <trkpt lat="49.83474317" lon="7.80770967">
                <time>2015-01-04T15:16:30.000Z</time>
                <sat>156</sat>
            </trkpt>
            <trkpt lat="49.83473817" lon="7.80768017">
                <time>2015-01-04T15:16:31.000Z</time>
                <sat>156</sat>
            </trkpt>
            <trkpt lat="49.83473367" lon="7.80765117">
                <time>2015-01-04T15:16:32.000Z</time>
                <sat>156</sat>
            </trkpt>
            <trkpt lat="49.83472933" lon="7.80762233">
                <time>2015-01-04T15:16:33.000Z</time>
                <sat>156</sat>
            </trkpt>
            <trkpt lat="49.83472483" lon="7.80759317">
                <time>2015-01-04T15:16:34.000Z</time>
                <sat>155</sat>
            </trkpt>
            <trkpt lat="49.83472033" lon="7.807565">
                <time>2015-01-04T15:16:35.000Z</time>
                <sat>156</sat>
            </trkpt>
            <trkpt lat="49.8347155" lon="7.80753567">
                <time>2015-01-04T15:16:36.000Z</time>
                <sat>155</sat>
            </trkpt>
            <trkpt lat="49.83471033" lon="7.8075065">
                <time>2015-01-04T15:16:37.000Z</time>
                <sat>156</sat>
            </trkpt>
            <trkpt lat="49.83470533" lon="7.80747733">
                <time>2015-01-04T15:16:38.000Z</time>
                <sat>156</sat>
            </trkpt>
            <trkpt lat="49.83470033" lon="7.80744833">
                <time>2015-01-04T15:16:39.000Z</time>
                <sat>156</sat>
            </trkpt>
            <trkpt lat="49.83469583" lon="7.8074195">
                <time>2015-01-04T15:16:40.000Z</time>
                <sat>156</sat>
            </trkpt>
            <trkpt lat="49.83469133" lon="7.8073905">
                <time>2015-01-04T15:16:41.000Z</time>
                <sat>156</sat>
            </trkpt>
            <trkpt lat="49.83468667" lon="7.80736183">
                <time>2015-01-04T15:16:42.000Z</time>
                <sat>156</sat>
            </trkpt>
            <trkpt lat="49.83468233" lon="7.80733267">
                <time>2015-01-04T15:16:43.000Z</time>
                <sat>156</sat>
            </trkpt>
            <trkpt lat="49.834678" lon="7.80730367">
                <time>2015-01-04T15:16:44.000Z</time>
                <sat>156</sat>
            </trkpt>
            <trkpt lat="49.834674" lon="7.80727417">
                <time>2015-01-04T15:16:45.000Z</time>
                <sat>156</sat>
            </trkpt>
            <trkpt lat="49.83467017" lon="7.8072445">
                <time>2015-01-04T15:16:46.000Z</time>
                <sat>156</sat>
            </trkpt>
            <trkpt lat="49.83466617" lon="7.8072145">
                <time>2015-01-04T15:16:47.000Z</time>
                <sat>156</sat>
            </trkpt>
            <trkpt lat="49.83466167" lon="7.80718467">
                <time>2015-01-04T15:16:48.000Z</time>
                <sat>156</sat>
            </trkpt>
            <trkpt lat="49.83465683" lon="7.80715467">
                <time>2015-01-04T15:16:49.000Z</time>
                <sat>156</sat>
            </trkpt>
            <trkpt lat="49.83465183" lon="7.8071245">
                <time>2015-01-04T15:16:50.000Z</time>
                <sat>155</sat>
            </trkpt>
            <trkpt lat="49.83464683" lon="7.80709483">
                <time>2015-01-04T15:16:51.000Z</time>
                <sat>155</sat>
            </trkpt>
            <trkpt lat="49.8346415" lon="7.80706517">
                <time>2015-01-04T15:16:52.000Z</time>
                <sat>155</sat>
            </trkpt>
            <trkpt lat="49.83463617" lon="7.80703617">
                <time>2015-01-04T15:16:53.000Z</time>
                <sat>155</sat>
            </trkpt>
            <trkpt lat="49.8346305" lon="7.80700717">
                <time>2015-01-04T15:16:54.000Z</time>
                <sat>155</sat>
            </trkpt>
            <trkpt lat="49.83462467" lon="7.806979">
                <time>2015-01-04T15:16:55.000Z</time>
                <sat>155</sat>
            </trkpt>
            <trkpt lat="49.834619" lon="7.8069505">
                <time>2015-01-04T15:16:56.000Z</time>
                <sat>155</sat>
            </trkpt>
            <trkpt lat="49.83461283" lon="7.806922">
                <time>2015-01-04T15:16:57.000Z</time>
                <sat>155</sat>
            </trkpt>
            <trkpt lat="49.83460667" lon="7.80689383">
                <time>2015-01-04T15:16:58.000Z</time>
                <sat>155</sat>
            </trkpt>
            <trkpt lat="49.8346005" lon="7.80686617">
                <time>2015-01-04T15:16:59.000Z</time>
                <sat>155</sat>
            </trkpt>
            <trkpt lat="49.8345945" lon="7.8068385">
                <time>2015-01-04T15:17:00.000Z</time>
                <sat>155</sat>
            </trkpt>
            <trkpt lat="49.8345885" lon="7.8068105">
                <time>2015-01-04T15:17:01.000Z</time>
                <sat>155</sat>
            </trkpt>
            <trkpt lat="49.8345825" lon="7.80678317">
                <time>2015-01-04T15:17:02.000Z</time>
                <sat>155</sat>
            </trkpt>
            <trkpt lat="49.83457667" lon="7.80675583">
                <time>2015-01-04T15:17:03.000Z</time>
                <sat>155</sat>
            </trkpt>
            <trkpt lat="49.8345705" lon="7.806729">
                <time>2015-01-04T15:17:04.000Z</time>
                <sat>155</sat>
            </trkpt>
            <trkpt lat="49.834564" lon="7.80670183">
                <time>2015-01-04T15:17:05.000Z</time>
                <sat>155</sat>
            </trkpt>
            <trkpt lat="49.83455683" lon="7.806675">
                <time>2015-01-04T15:17:06.000Z</time>
                <sat>154</sat>
            </trkpt>
            <trkpt lat="49.83454933" lon="7.8066475">
                <time>2015-01-04T15:17:07.000Z</time>
                <sat>154</sat>
            </trkpt>
            <trkpt lat="49.83454183" lon="7.806619">
                <time>2015-01-04T15:17:08.000Z</time>
                <sat>154</sat>
            </trkpt>
            <trkpt lat="49.83453417" lon="7.80659183">
                <time>2015-01-04T15:17:09.000Z</time>
                <sat>154</sat>
            </trkpt>
            <trkpt lat="49.83452633" lon="7.80656467">
                <time>2015-01-04T15:17:10.000Z</time>
                <sat>154</sat>
            </trkpt>
            <trkpt lat="49.83451867" lon="7.80653783">
                <time>2015-01-04T15:17:11.000Z</time>
                <sat>154</sat>
            </trkpt>
            <trkpt lat="49.83451117" lon="7.80651">
                <time>2015-01-04T15:17:12.000Z</time>
                <sat>154</sat>
            </trkpt>
            <trkpt lat="49.83450367" lon="7.8064825">
                <time>2015-01-04T15:17:13.000Z</time>
                <sat>154</sat>
            </trkpt>
            <trkpt lat="49.83449633" lon="7.80645467">
                <time>2015-01-04T15:17:14.000Z</time>
                <sat>154</sat>
            </trkpt>
            <trkpt lat="49.83448883" lon="7.8064265">
                <time>2015-01-04T15:17:15.000Z</time>
                <sat>153</sat>
            </trkpt>
            <trkpt lat="49.83448167" lon="7.80639867">
                <time>2015-01-04T15:17:16.000Z</time>
                <sat>153</sat>
            </trkpt>
            <trkpt lat="49.83447467" lon="7.8063705">
                <time>2015-01-04T15:17:17.000Z</time>
                <sat>153</sat>
            </trkpt>
            <trkpt lat="49.8344675" lon="7.8063425">
                <time>2015-01-04T15:17:18.000Z</time>
                <sat>153</sat>
            </trkpt>
            <trkpt lat="49.83446067" lon="7.80631383">
                <time>2015-01-04T15:17:19.000Z</time>
                <sat>153</sat>
            </trkpt>
            <trkpt lat="49.834454" lon="7.8062855">
                <time>2015-01-04T15:17:20.000Z</time>
                <sat>153</sat>
            </trkpt>
            <trkpt lat="49.834447" lon="7.806257">
                <time>2015-01-04T15:17:21.000Z</time>
                <sat>153</sat>
            </trkpt>
            <trkpt lat="49.83443967" lon="7.80622967">
                <time>2015-01-04T15:17:22.000Z</time>
                <sat>153</sat>
            </trkpt>
            <trkpt lat="49.83443283" lon="7.80620233">
                <time>2015-01-04T15:17:23.000Z</time>
                <sat>153</sat>
            </trkpt>
            <trkpt lat="49.83442567" lon="7.806175">
                <time>2015-01-04T15:17:24.000Z</time>
                <sat>153</sat>
            </trkpt>
            <trkpt lat="49.8344185" lon="7.80614683">
                <time>2015-01-04T15:17:25.000Z</time>
                <sat>153</sat>
            </trkpt>
            <trkpt lat="49.83441067" lon="7.8061185">
                <time>2015-01-04T15:17:26.000Z</time>
                <sat>152</sat>
            </trkpt>
            <trkpt lat="49.83440267" lon="7.80609117">
                <time>2015-01-04T15:17:27.000Z</time>
                <sat>152</sat>
            </trkpt>
            <trkpt lat="49.83439567" lon="7.80606367">
                <time>2015-01-04T15:17:28.000Z</time>
                <sat>153</sat>
            </trkpt>
            <trkpt lat="49.834389" lon="7.80603717">
                <time>2015-01-04T15:17:29.000Z</time>
                <sat>152</sat>
            </trkpt>
            <trkpt lat="49.83438183" lon="7.80601017">
                <time>2015-01-04T15:17:30.000Z</time>
                <sat>152</sat>
            </trkpt>
            <trkpt lat="49.834375" lon="7.80598383">
                <time>2015-01-04T15:17:31.000Z</time>
                <sat>152</sat>
            </trkpt>
            <trkpt lat="49.83436817" lon="7.8059565">
                <time>2015-01-04T15:17:32.000Z</time>
                <sat>152</sat>
            </trkpt>
            <trkpt lat="49.834361" lon="7.80592833">
                <time>2015-01-04T15:17:33.000Z</time>
                <sat>152</sat>
            </trkpt>
            <trkpt lat="49.834354" lon="7.805901">
                <time>2015-01-04T15:17:34.000Z</time>
                <sat>152</sat>
            </trkpt>
            <trkpt lat="49.834347" lon="7.80587383">
                <time>2015-01-04T15:17:35.000Z</time>
                <sat>152</sat>
            </trkpt>
            <trkpt lat="49.83434" lon="7.805847">
                <time>2015-01-04T15:17:36.000Z</time>
                <sat>152</sat>
            </trkpt>
            <trkpt lat="49.834333" lon="7.80581883">
                <time>2015-01-04T15:17:37.000Z</time>
                <sat>152</sat>
            </trkpt>
            <trkpt lat="49.83432633" lon="7.80579167">
                <time>2015-01-04T15:17:38.000Z</time>
                <sat>153</sat>
            </trkpt>
            <trkpt lat="49.8343195" lon="7.80576433">
                <time>2015-01-04T15:17:39.000Z</time>
                <sat>153</sat>
            </trkpt>
            <trkpt lat="49.8343125" lon="7.80573733">
                <time>2015-01-04T15:17:40.000Z</time>
                <sat>153</sat>
            </trkpt>
            <trkpt lat="49.834306" lon="7.8057115">
                <time>2015-01-04T15:17:41.000Z</time>
                <sat>153</sat>
            </trkpt>
            <trkpt lat="49.83429983" lon="7.80568517">
                <time>2015-01-04T15:17:42.000Z</time>
                <sat>153</sat>
            </trkpt>
            <trkpt lat="49.834293" lon="7.805659">
                <time>2015-01-04T15:17:43.000Z</time>
                <sat>153</sat>
            </trkpt>
            <trkpt lat="49.834286" lon="7.80563133">
                <time>2015-01-04T15:17:44.000Z</time>
                <sat>154</sat>
            </trkpt>
            <trkpt lat="49.83427883" lon="7.805604">
                <time>2015-01-04T15:17:45.000Z</time>
                <sat>154</sat>
            </trkpt>
            <trkpt lat="49.83427117" lon="7.80557583">
                <time>2015-01-04T15:17:46.000Z</time>
                <sat>154</sat>
            </trkpt>
            <trkpt lat="49.8342635" lon="7.8055475">
                <time>2015-01-04T15:17:47.000Z</time>
                <sat>154</sat>
            </trkpt>
            <trkpt lat="49.83425617" lon="7.80551917">
                <time>2015-01-04T15:17:48.000Z</time>
                <sat>154</sat>
            </trkpt>
            <trkpt lat="49.834249" lon="7.80549083">
                <time>2015-01-04T15:17:49.000Z</time>
                <sat>154</sat>
            </trkpt>
            <trkpt lat="49.83424133" lon="7.80546267">
                <time>2015-01-04T15:17:50.000Z</time>
                <sat>154</sat>
            </trkpt>
            <trkpt lat="49.83423433" lon="7.80543533">
                <time>2015-01-04T15:17:51.000Z</time>
                <sat>154</sat>
            </trkpt>
            <trkpt lat="49.83422767" lon="7.80540933">
                <time>2015-01-04T15:17:52.000Z</time>
                <sat>154</sat>
            </trkpt>
            <trkpt lat="49.83422067" lon="7.8053825">
                <time>2015-01-04T15:17:53.000Z</time>
                <sat>155</sat>
            </trkpt>
            <trkpt lat="49.83421333" lon="7.80535583">
                <time>2015-01-04T15:17:54.000Z</time>
                <sat>155</sat>
            </trkpt>
            <trkpt lat="49.8342055" lon="7.80532883">
                <time>2015-01-04T15:17:55.000Z</time>
                <sat>155</sat>
            </trkpt>
            <trkpt lat="49.8341975" lon="7.8053035">
                <time>2015-01-04T15:17:56.000Z</time>
                <sat>155</sat>
            </trkpt>
            <trkpt lat="49.83418933" lon="7.80527833">
                <time>2015-01-04T15:17:57.000Z</time>
                <sat>155</sat>
            </trkpt>
            <trkpt lat="49.83418183" lon="7.80525183">
                <time>2015-01-04T15:17:58.000Z</time>
                <sat>155</sat>
            </trkpt>
            <trkpt lat="49.83417467" lon="7.80522617">
                <time>2015-01-04T15:17:59.000Z</time>
                <sat>155</sat>
            </trkpt>
            <trkpt lat="49.83416717" lon="7.80519967">
                <time>2015-01-04T15:18:00.000Z</time>
                <sat>155</sat>
            </trkpt>
            <trkpt lat="49.83415933" lon="7.80517333">
                <time>2015-01-04T15:18:01.000Z</time>
                <sat>155</sat>
            </trkpt>
            <trkpt lat="49.83415217" lon="7.8051455">
                <time>2015-01-04T15:18:02.000Z</time>
                <sat>155</sat>
            </trkpt>
            <trkpt lat="49.83414533" lon="7.80511683">
                <time>2015-01-04T15:18:03.000Z</time>
                <sat>155</sat>
            </trkpt>
            <trkpt lat="49.834138" lon="7.80508833">
                <time>2015-01-04T15:18:04.000Z</time>
                <sat>155</sat>
            </trkpt>
            <trkpt lat="49.834132" lon="7.80506167">
                <time>2015-01-04T15:18:05.000Z</time>
                <sat>156</sat>
            </trkpt>
            <trkpt lat="49.83412617" lon="7.80503617">
                <time>2015-01-04T15:18:06.000Z</time>
                <sat>156</sat>
            </trkpt>
            <trkpt lat="49.834119" lon="7.8050095">
                <time>2015-01-04T15:18:07.000Z</time>
                <sat>157</sat>
            </trkpt>
            <trkpt lat="49.83411167" lon="7.80498383">
                <time>2015-01-04T15:18:08.000Z</time>
                <sat>157</sat>
            </trkpt>
            <trkpt lat="49.8341035" lon="7.8049575">
                <time>2015-01-04T15:18:09.000Z</time>
                <sat>157</sat>
            </trkpt>
            <trkpt lat="49.83409517" lon="7.804931">
                <time>2015-01-04T15:18:10.000Z</time>
                <sat>157</sat>
            </trkpt>
            <trkpt lat="49.83408683" lon="7.8049045">
                <time>2015-01-04T15:18:11.000Z</time>
                <sat>157</sat>
            </trkpt>
            <trkpt lat="49.8340785" lon="7.80487833">
                <time>2015-01-04T15:18:12.000Z</time>
                <sat>157</sat>
            </trkpt>
            <trkpt lat="49.83406983" lon="7.80485217">
                <time>2015-01-04T15:18:13.000Z</time>
                <sat>158</sat>
            </trkpt>
            <trkpt lat="49.834061" lon="7.80482617">
                <time>2015-01-04T15:18:14.000Z</time>
                <sat>158</sat>
            </trkpt>
            <trkpt lat="49.83405233" lon="7.8048005">
                <time>2015-01-04T15:18:15.000Z</time>
                <sat>158</sat>
            </trkpt>
            <trkpt lat="49.83404417" lon="7.80477383">
                <time>2015-01-04T15:18:16.000Z</time>
                <sat>158</sat>
            </trkpt>
            <trkpt lat="49.834036" lon="7.80474733">
                <time>2015-01-04T15:18:17.000Z</time>
                <sat>159</sat>
            </trkpt>
            <trkpt lat="49.83402817" lon="7.80472083">
                <time>2015-01-04T15:18:18.000Z</time>
                <sat>158</sat>
            </trkpt>
            <trkpt lat="49.83402067" lon="7.80469433">
                <time>2015-01-04T15:18:19.000Z</time>
                <sat>159</sat>
            </trkpt>
            <trkpt lat="49.834013" lon="7.8046665">
                <time>2015-01-04T15:18:20.000Z</time>
                <sat>159</sat>
            </trkpt>
            <trkpt lat="49.83400517" lon="7.8046395">
                <time>2015-01-04T15:18:21.000Z</time>
                <sat>159</sat>
            </trkpt>
            <trkpt lat="49.83399733" lon="7.8046135">
                <time>2015-01-04T15:18:22.000Z</time>
                <sat>159</sat>
            </trkpt>
            <trkpt lat="49.83398967" lon="7.80458617">
                <time>2015-01-04T15:18:23.000Z</time>
                <sat>158</sat>
            </trkpt>
            <trkpt lat="49.83398233" lon="7.80455883">
                <time>2015-01-04T15:18:24.000Z</time>
                <sat>158</sat>
            </trkpt>
            <trkpt lat="49.8339745" lon="7.80453083">
                <time>2015-01-04T15:18:25.000Z</time>
                <sat>158</sat>
            </trkpt>
            <trkpt lat="49.83396733" lon="7.80450533">
                <time>2015-01-04T15:18:26.000Z</time>
                <sat>158</sat>
            </trkpt>
            <trkpt lat="49.8339595" lon="7.80448017">
                <time>2015-01-04T15:18:27.000Z</time>
                <sat>157</sat>
            </trkpt>
            <trkpt lat="49.83395117" lon="7.804455">
                <time>2015-01-04T15:18:28.000Z</time>
                <sat>157</sat>
            </trkpt>
            <trkpt lat="49.83394283" lon="7.804431">
                <time>2015-01-04T15:18:29.000Z</time>
                <sat>157</sat>
            </trkpt>
            <trkpt lat="49.83393433" lon="7.80440567">
                <time>2015-01-04T15:18:30.000Z</time>
                <sat>158</sat>
            </trkpt>
            <trkpt lat="49.83392633" lon="7.80438117">
                <time>2015-01-04T15:18:31.000Z</time>
                <sat>157</sat>
            </trkpt>
            <trkpt lat="49.83391767" lon="7.80435667">
                <time>2015-01-04T15:18:32.000Z</time>
                <sat>158</sat>
            </trkpt>
            <trkpt lat="49.83390917" lon="7.80433283">
                <time>2015-01-04T15:18:33.000Z</time>
                <sat>157</sat>
            </trkpt>
            <trkpt lat="49.83390117" lon="7.80430817">
                <time>2015-01-04T15:18:34.000Z</time>
                <sat>157</sat>
            </trkpt>
            <trkpt lat="49.83389283" lon="7.80428283">
                <time>2015-01-04T15:18:35.000Z</time>
                <sat>157</sat>
            </trkpt>
            <trkpt lat="49.8338845" lon="7.80425783">
                <time>2015-01-04T15:18:36.000Z</time>
                <sat>157</sat>
            </trkpt>
            <trkpt lat="49.83387667" lon="7.804232">
                <time>2015-01-04T15:18:37.000Z</time>
                <sat>158</sat>
            </trkpt>
            <trkpt lat="49.833868" lon="7.80420767">
                <time>2015-01-04T15:18:38.000Z</time>
                <sat>157</sat>
            </trkpt>
            <trkpt lat="49.8338585" lon="7.80418267">
                <time>2015-01-04T15:18:39.000Z</time>
                <sat>157</sat>
            </trkpt>
            <trkpt lat="49.8338485" lon="7.804158">
                <time>2015-01-04T15:18:40.000Z</time>
                <sat>157</sat>
            </trkpt>
            <trkpt lat="49.83383867" lon="7.80413317">
                <time>2015-01-04T15:18:41.000Z</time>
                <sat>157</sat>
            </trkpt>
            <trkpt lat="49.833829" lon="7.804108">
                <time>2015-01-04T15:18:42.000Z</time>
                <sat>157</sat>
            </trkpt>
            <trkpt lat="49.8338195" lon="7.80408317">
                <time>2015-01-04T15:18:43.000Z</time>
                <sat>157</sat>
            </trkpt>
            <trkpt lat="49.83381067" lon="7.8040575">
                <time>2015-01-04T15:18:44.000Z</time>
                <sat>157</sat>
            </trkpt>
            <trkpt lat="49.83380233" lon="7.80403233">
                <time>2015-01-04T15:18:45.000Z</time>
                <sat>157</sat>
            </trkpt>
            <trkpt lat="49.83379417" lon="7.804006">
                <time>2015-01-04T15:18:46.000Z</time>
                <sat>156</sat>
            </trkpt>
            <trkpt lat="49.833786" lon="7.80398">
                <time>2015-01-04T15:18:47.000Z</time>
                <sat>157</sat>
            </trkpt>
            <trkpt lat="49.833778" lon="7.803954">
                <time>2015-01-04T15:18:48.000Z</time>
                <sat>156</sat>
            </trkpt>
            <trkpt lat="49.83376983" lon="7.80392817">
                <time>2015-01-04T15:18:49.000Z</time>
                <sat>156</sat>
            </trkpt>
            <trkpt lat="49.8337615" lon="7.80390167">
                <time>2015-01-04T15:18:50.000Z</time>
                <sat>156</sat>
            </trkpt>
            <trkpt lat="49.83375383" lon="7.8038755">
                <time>2015-01-04T15:18:51.000Z</time>
                <sat>156</sat>
            </trkpt>
            <trkpt lat="49.833746" lon="7.80384983">
                <time>2015-01-04T15:18:52.000Z</time>
                <sat>155</sat>
            </trkpt>
            <trkpt lat="49.8337385" lon="7.803824">
                <time>2015-01-04T15:18:53.000Z</time>
                <sat>155</sat>
            </trkpt>
            <trkpt lat="49.8337305" lon="7.803798">
                <time>2015-01-04T15:18:54.000Z</time>
                <sat>155</sat>
            </trkpt>
            <trkpt lat="49.83372217" lon="7.80377117">
                <time>2015-01-04T15:18:55.000Z</time>
                <sat>155</sat>
            </trkpt>
            <trkpt lat="49.83371367" lon="7.8037445">
                <time>2015-01-04T15:18:56.000Z</time>
                <sat>155</sat>
            </trkpt>
            <trkpt lat="49.83370517" lon="7.8037175">
                <time>2015-01-04T15:18:57.000Z</time>
                <sat>155</sat>
            </trkpt>
            <trkpt lat="49.83369683" lon="7.80369117">
                <time>2015-01-04T15:18:58.000Z</time>
                <sat>155</sat>
            </trkpt>
            <trkpt lat="49.83368783" lon="7.8036635">
                <time>2015-01-04T15:18:59.000Z</time>
                <sat>156</sat>
            </trkpt>
            <trkpt lat="49.83367867" lon="7.80363633">
                <time>2015-01-04T15:19:00.000Z</time>
                <sat>156</sat>
            </trkpt>
            <trkpt lat="49.83366917" lon="7.8036095">
                <time>2015-01-04T15:19:01.000Z</time>
                <sat>156</sat>
            </trkpt>
            <trkpt lat="49.83366" lon="7.80358283">
                <time>2015-01-04T15:19:02.000Z</time>
                <sat>157</sat>
            </trkpt>
            <trkpt lat="49.83365083" lon="7.803557">
                <time>2015-01-04T15:19:03.000Z</time>
                <sat>157</sat>
            </trkpt>
            <trkpt lat="49.83364133" lon="7.80353133">
                <time>2015-01-04T15:19:04.000Z</time>
                <sat>157</sat>
            </trkpt>
            <trkpt lat="49.833632" lon="7.80350567">
                <time>2015-01-04T15:19:05.000Z</time>
                <sat>157</sat>
            </trkpt>
            <trkpt lat="49.83362383" lon="7.803481">
                <time>2015-01-04T15:19:06.000Z</time>
                <sat>157</sat>
            </trkpt>
            <trkpt lat="49.83361583" lon="7.80345717">
                <time>2015-01-04T15:19:07.000Z</time>
                <sat>157</sat>
            </trkpt>
            <trkpt lat="49.83360617" lon="7.80343217">
                <time>2015-01-04T15:19:08.000Z</time>
                <sat>157</sat>
            </trkpt>
            <trkpt lat="49.83359617" lon="7.80340783">
                <time>2015-01-04T15:19:09.000Z</time>
                <sat>158</sat>
            </trkpt>
            <trkpt lat="49.83358633" lon="7.80338283">
                <time>2015-01-04T15:19:10.000Z</time>
                <sat>158</sat>
            </trkpt>
            <trkpt lat="49.83357683" lon="7.80335783">
                <time>2015-01-04T15:19:11.000Z</time>
                <sat>158</sat>
            </trkpt>
            <trkpt lat="49.83356733" lon="7.80333183">
                <time>2015-01-04T15:19:12.000Z</time>
                <sat>158</sat>
            </trkpt>
            <trkpt lat="49.83355833" lon="7.80330533">
                <time>2015-01-04T15:19:13.000Z</time>
                <sat>158</sat>
            </trkpt>
            <trkpt lat="49.83354983" lon="7.803279">
                <time>2015-01-04T15:19:14.000Z</time>
                <sat>159</sat>
            </trkpt>
            <trkpt lat="49.83354117" lon="7.8032525">
                <time>2015-01-04T15:19:15.000Z</time>
                <sat>158</sat>
            </trkpt>
            <trkpt lat="49.83353133" lon="7.803227">
                <time>2015-01-04T15:19:16.000Z</time>
                <sat>158</sat>
            </trkpt>
            <trkpt lat="49.83352067" lon="7.80320083">
                <time>2015-01-04T15:19:17.000Z</time>
                <sat>159</sat>
            </trkpt>
            <trkpt lat="49.83351" lon="7.80317483">
                <time>2015-01-04T15:19:18.000Z</time>
                <sat>159</sat>
            </trkpt>
            <trkpt lat="49.83349983" lon="7.80314833">
                <time>2015-01-04T15:19:19.000Z</time>
                <sat>159</sat>
            </trkpt>
            <trkpt lat="49.83349117" lon="7.80312233">
                <time>2015-01-04T15:19:20.000Z</time>
                <sat>158</sat>
            </trkpt>
            <trkpt lat="49.83348333" lon="7.803096">
                <time>2015-01-04T15:19:21.000Z</time>
                <sat>158</sat>
            </trkpt>
            <trkpt lat="49.83347567" lon="7.80306933">
                <time>2015-01-04T15:19:22.000Z</time>
                <sat>158</sat>
            </trkpt>
            <trkpt lat="49.83346783" lon="7.8030425">
                <time>2015-01-04T15:19:23.000Z</time>
                <sat>158</sat>
            </trkpt>
            <trkpt lat="49.83346" lon="7.80301583">
                <time>2015-01-04T15:19:24.000Z</time>
                <sat>158</sat>
            </trkpt>
            <trkpt lat="49.833452" lon="7.80298867">
                <time>2015-01-04T15:19:25.000Z</time>
                <sat>158</sat>
            </trkpt>
            <trkpt lat="49.83344433" lon="7.8029615">
                <time>2015-01-04T15:19:26.000Z</time>
                <sat>158</sat>
            </trkpt>
            <trkpt lat="49.8334365" lon="7.80293483">
                <time>2015-01-04T15:19:27.000Z</time>
                <sat>158</sat>
            </trkpt>
            <trkpt lat="49.8334285" lon="7.80290817">
                <time>2015-01-04T15:19:28.000Z</time>
                <sat>158</sat>
            </trkpt>
            <trkpt lat="49.83342033" lon="7.80288183">
                <time>2015-01-04T15:19:29.000Z</time>
                <sat>158</sat>
            </trkpt>
            <trkpt lat="49.83341183" lon="7.80285433">
                <time>2015-01-04T15:19:30.000Z</time>
                <sat>158</sat>
            </trkpt>
            <trkpt lat="49.83340283" lon="7.80282767">
                <time>2015-01-04T15:19:31.000Z</time>
                <sat>158</sat>
            </trkpt>
            <trkpt lat="49.83339317" lon="7.802801">
                <time>2015-01-04T15:19:32.000Z</time>
                <sat>158</sat>
            </trkpt>
            <trkpt lat="49.83338433" lon="7.80277567">
                <time>2015-01-04T15:19:33.000Z</time>
                <sat>158</sat>
            </trkpt>
            <trkpt lat="49.83337583" lon="7.80275117">
                <time>2015-01-04T15:19:34.000Z</time>
                <sat>159</sat>
            </trkpt>
            <trkpt lat="49.83336767" lon="7.80272667">
                <time>2015-01-04T15:19:35.000Z</time>
                <sat>158</sat>
            </trkpt>
            <trkpt lat="49.83336" lon="7.8027015">
                <time>2015-01-04T15:19:36.000Z</time>
                <sat>158</sat>
            </trkpt>
            <trkpt lat="49.83335217" lon="7.80267517">
                <time>2015-01-04T15:19:37.000Z</time>
                <sat>158</sat>
            </trkpt>
            <trkpt lat="49.83334367" lon="7.802649">
                <time>2015-01-04T15:19:38.000Z</time>
                <sat>158</sat>
            </trkpt>
            <trkpt lat="49.83333533" lon="7.8026225">
                <time>2015-01-04T15:19:39.000Z</time>
                <sat>158</sat>
            </trkpt>
            <trkpt lat="49.83332683" lon="7.80259667">
                <time>2015-01-04T15:19:40.000Z</time>
                <sat>158</sat>
            </trkpt>
            <trkpt lat="49.83331817" lon="7.8025695">
                <time>2015-01-04T15:19:41.000Z</time>
                <sat>159</sat>
            </trkpt>
            <trkpt lat="49.8333095" lon="7.8025435">
                <time>2015-01-04T15:19:42.000Z</time>
                <sat>159</sat>
            </trkpt>
            <trkpt lat="49.833301" lon="7.80251767">
                <time>2015-01-04T15:19:43.000Z</time>
                <sat>158</sat>
            </trkpt>
            <trkpt lat="49.83329267" lon="7.80249183">
                <time>2015-01-04T15:19:44.000Z</time>
                <sat>159</sat>
            </trkpt>
            <trkpt lat="49.83328467" lon="7.80246633">
                <time>2015-01-04T15:19:45.000Z</time>
                <sat>159</sat>
            </trkpt>
            <trkpt lat="49.83327617" lon="7.80244083">
                <time>2015-01-04T15:19:46.000Z</time>
                <sat>159</sat>
            </trkpt>
            <trkpt lat="49.83326733" lon="7.802415">
                <time>2015-01-04T15:19:47.000Z</time>
                <sat>158</sat>
            </trkpt>
            <trkpt lat="49.83325833" lon="7.80238917">
                <time>2015-01-04T15:19:48.000Z</time>
                <sat>158</sat>
            </trkpt>
            <trkpt lat="49.83324933" lon="7.8023635">
                <time>2015-01-04T15:19:49.000Z</time>
                <sat>158</sat>
            </trkpt>
            <trkpt lat="49.83324067" lon="7.80233717">
                <time>2015-01-04T15:19:50.000Z</time>
                <sat>158</sat>
            </trkpt>
            <trkpt lat="49.83323183" lon="7.80231183">
                <time>2015-01-04T15:19:51.000Z</time>
                <sat>158</sat>
            </trkpt>
            <trkpt lat="49.8332225" lon="7.80228567">
                <time>2015-01-04T15:19:52.000Z</time>
                <sat>158</sat>
            </trkpt>
            <trkpt lat="49.8332135" lon="7.80225933">
                <time>2015-01-04T15:19:53.000Z</time>
                <sat>158</sat>
            </trkpt>
            <trkpt lat="49.83320433" lon="7.802233">
                <time>2015-01-04T15:19:54.000Z</time>
                <sat>158</sat>
            </trkpt>
            <trkpt lat="49.83319533" lon="7.80220617">
                <time>2015-01-04T15:19:55.000Z</time>
                <sat>158</sat>
            </trkpt>
            <trkpt lat="49.833186" lon="7.80217967">
                <time>2015-01-04T15:19:56.000Z</time>
                <sat>158</sat>
            </trkpt>
            <trkpt lat="49.8331765" lon="7.80215367">
                <time>2015-01-04T15:19:57.000Z</time>
                <sat>158</sat>
            </trkpt>
            <trkpt lat="49.83316733" lon="7.80212733">
                <time>2015-01-04T15:19:58.000Z</time>
                <sat>158</sat>
            </trkpt>
            <trkpt lat="49.83315833" lon="7.8021005">
                <time>2015-01-04T15:19:59.000Z</time>
                <sat>158</sat>
            </trkpt>
            <trkpt lat="49.8331495" lon="7.80207467">
                <time>2015-01-04T15:20:00.000Z</time>
                <sat>159</sat>
            </trkpt>
            <trkpt lat="49.83314033" lon="7.80204733">
                <time>2015-01-04T15:20:01.000Z</time>
                <sat>159</sat>
            </trkpt>
            <trkpt lat="49.83313117" lon="7.80202033">
                <time>2015-01-04T15:20:02.000Z</time>
                <sat>159</sat>
            </trkpt>
            <trkpt lat="49.83312183" lon="7.801993">
                <time>2015-01-04T15:20:03.000Z</time>
                <sat>159</sat>
            </trkpt>
            <trkpt lat="49.833113" lon="7.80196583">
                <time>2015-01-04T15:20:04.000Z</time>
                <sat>160</sat>
            </trkpt>
            <trkpt lat="49.83310383" lon="7.80193967">
                <time>2015-01-04T15:20:05.000Z</time>
                <sat>159</sat>
            </trkpt>
            <trkpt lat="49.83309417" lon="7.80191417">
                <time>2015-01-04T15:20:06.000Z</time>
                <sat>159</sat>
            </trkpt>
            <trkpt lat="49.83308433" lon="7.80188783">
                <time>2015-01-04T15:20:07.000Z</time>
                <sat>159</sat>
            </trkpt>
            <trkpt lat="49.833075" lon="7.80186117">
                <time>2015-01-04T15:20:08.000Z</time>
                <sat>160</sat>
            </trkpt>
            <trkpt lat="49.83306533" lon="7.80183533">
                <time>2015-01-04T15:20:09.000Z</time>
                <sat>160</sat>
            </trkpt>
            <trkpt lat="49.83305567" lon="7.80180817">
                <time>2015-01-04T15:20:10.000Z</time>
                <sat>160</sat>
            </trkpt>
            <trkpt lat="49.8330465" lon="7.801781">
                <time>2015-01-04T15:20:11.000Z</time>
                <sat>160</sat>
            </trkpt>
            <trkpt lat="49.83303717" lon="7.801753">
                <time>2015-01-04T15:20:12.000Z</time>
                <sat>160</sat>
            </trkpt>
            <trkpt lat="49.83302883" lon="7.80172533">
                <time>2015-01-04T15:20:13.000Z</time>
                <sat>160</sat>
            </trkpt>
            <trkpt lat="49.8330205" lon="7.80169817">
                <time>2015-01-04T15:20:14.000Z</time>
                <sat>160</sat>
            </trkpt>
            <trkpt lat="49.8330125" lon="7.8016715">
                <time>2015-01-04T15:20:15.000Z</time>
                <sat>161</sat>
            </trkpt>
            <trkpt lat="49.83300483" lon="7.8016455">
                <time>2015-01-04T15:20:16.000Z</time>
                <sat>161</sat>
            </trkpt>
            <trkpt lat="49.832996" lon="7.801619">
                <time>2015-01-04T15:20:17.000Z</time>
                <sat>161</sat>
            </trkpt>
            <trkpt lat="49.8329875" lon="7.801592">
                <time>2015-01-04T15:20:18.000Z</time>
                <sat>161</sat>
            </trkpt>
            <trkpt lat="49.83297883" lon="7.80156467">
                <time>2015-01-04T15:20:19.000Z</time>
                <sat>161</sat>
            </trkpt>
            <trkpt lat="49.8329695" lon="7.80153817">
                <time>2015-01-04T15:20:20.000Z</time>
                <sat>161</sat>
            </trkpt>
            <trkpt lat="49.83295983" lon="7.80151083">
                <time>2015-01-04T15:20:21.000Z</time>
                <sat>161</sat>
            </trkpt>
            <trkpt lat="49.83295" lon="7.80148417">
                <time>2015-01-04T15:20:22.000Z</time>
                <sat>161</sat>
            </trkpt>
            <trkpt lat="49.83294" lon="7.8014575">
                <time>2015-01-04T15:20:23.000Z</time>
                <sat>161</sat>
            </trkpt>
            <trkpt lat="49.83293033" lon="7.8014315">
                <time>2015-01-04T15:20:24.000Z</time>
                <sat>161</sat>
            </trkpt>
            <trkpt lat="49.83292133" lon="7.80140583">
                <time>2015-01-04T15:20:25.000Z</time>
                <sat>160</sat>
            </trkpt>
            <trkpt lat="49.83291267" lon="7.80138">
                <time>2015-01-04T15:20:26.000Z</time>
                <sat>160</sat>
            </trkpt>
            <trkpt lat="49.832904" lon="7.801354">
                <time>2015-01-04T15:20:27.000Z</time>
                <sat>160</sat>
            </trkpt>
            <trkpt lat="49.83289533" lon="7.8013275">
                <time>2015-01-04T15:20:28.000Z</time>
                <sat>160</sat>
            </trkpt>
            <trkpt lat="49.83288617" lon="7.80130167">
                <time>2015-01-04T15:20:29.000Z</time>
                <sat>160</sat>
            </trkpt>
            <trkpt lat="49.8328775" lon="7.80127633">
                <time>2015-01-04T15:20:30.000Z</time>
                <sat>159</sat>
            </trkpt>
            <trkpt lat="49.8328685" lon="7.80125183">
                <time>2015-01-04T15:20:31.000Z</time>
                <sat>159</sat>
            </trkpt>
            <trkpt lat="49.83285983" lon="7.80122567">
                <time>2015-01-04T15:20:32.000Z</time>
                <sat>159</sat>
            </trkpt>
            <trkpt lat="49.8328515" lon="7.80119933">
                <time>2015-01-04T15:20:33.000Z</time>
                <sat>159</sat>
            </trkpt>
            <trkpt lat="49.8328425" lon="7.80117317">
                <time>2015-01-04T15:20:34.000Z</time>
                <sat>159</sat>
            </trkpt>
            <trkpt lat="49.83283383" lon="7.80114783">
                <time>2015-01-04T15:20:35.000Z</time>
                <sat>159</sat>
            </trkpt>
            <trkpt lat="49.83282517" lon="7.801123">
                <time>2015-01-04T15:20:36.000Z</time>
                <sat>159</sat>
            </trkpt>
            <trkpt lat="49.83281683" lon="7.80109883">
                <time>2015-01-04T15:20:37.000Z</time>
                <sat>159</sat>
            </trkpt>
            <trkpt lat="49.8328085" lon="7.80107467">
                <time>2015-01-04T15:20:38.000Z</time>
                <sat>159</sat>
            </trkpt>
            <trkpt lat="49.83279933" lon="7.8010495">
                <time>2015-01-04T15:20:39.000Z</time>
                <sat>160</sat>
            </trkpt>
            <trkpt lat="49.83278983" lon="7.80102467">
                <time>2015-01-04T15:20:40.000Z</time>
                <sat>160</sat>
            </trkpt>
            <trkpt lat="49.83278067" lon="7.80099767">
                <time>2015-01-04T15:20:41.000Z</time>
                <sat>160</sat>
            </trkpt>
            <trkpt lat="49.83277133" lon="7.8009715">
                <time>2015-01-04T15:20:42.000Z</time>
                <sat>159</sat>
            </trkpt>
            <trkpt lat="49.832763" lon="7.800945">
                <time>2015-01-04T15:20:43.000Z</time>
                <sat>159</sat>
            </trkpt>
            <trkpt lat="49.83275467" lon="7.80091833">
                <time>2015-01-04T15:20:44.000Z</time>
                <sat>159</sat>
            </trkpt>
            <trkpt lat="49.83274617" lon="7.80089183">
                <time>2015-01-04T15:20:45.000Z</time>
                <sat>159</sat>
            </trkpt>
            <trkpt lat="49.8327375" lon="7.8008645">
                <time>2015-01-04T15:20:46.000Z</time>
                <sat>159</sat>
            </trkpt>
            <trkpt lat="49.83272883" lon="7.800838">
                <time>2015-01-04T15:20:47.000Z</time>
                <sat>159</sat>
            </trkpt>
            <trkpt lat="49.8327205" lon="7.80081133">
                <time>2015-01-04T15:20:48.000Z</time>
                <sat>159</sat>
            </trkpt>
            <trkpt lat="49.8327125" lon="7.80078583">
                <time>2015-01-04T15:20:49.000Z</time>
                <sat>160</sat>
            </trkpt>
            <trkpt lat="49.83270367" lon="7.8007605">
                <time>2015-01-04T15:20:50.000Z</time>
                <sat>160</sat>
            </trkpt>
            <trkpt lat="49.83269433" lon="7.80073533">
                <time>2015-01-04T15:20:51.000Z</time>
                <sat>159</sat>
            </trkpt>
            <trkpt lat="49.832685" lon="7.80071">
                <time>2015-01-04T15:20:52.000Z</time>
                <sat>159</sat>
            </trkpt>
            <trkpt lat="49.832676" lon="7.80068383">
                <time>2015-01-04T15:20:53.000Z</time>
                <sat>159</sat>
            </trkpt>
            <trkpt lat="49.83266717" lon="7.80065783">
                <time>2015-01-04T15:20:54.000Z</time>
                <sat>159</sat>
            </trkpt>
            <trkpt lat="49.832658" lon="7.80063117">
                <time>2015-01-04T15:20:55.000Z</time>
                <sat>159</sat>
            </trkpt>
            <trkpt lat="49.83264883" lon="7.80060517">
                <time>2015-01-04T15:20:56.000Z</time>
                <sat>159</sat>
            </trkpt>
            <trkpt lat="49.83263983" lon="7.8005795">
                <time>2015-01-04T15:20:57.000Z</time>
                <sat>159</sat>
            </trkpt>
            <trkpt lat="49.83263083" lon="7.80055433">
                <time>2015-01-04T15:20:58.000Z</time>
                <sat>159</sat>
            </trkpt>
            <trkpt lat="49.8326215" lon="7.80052967">
                <time>2015-01-04T15:20:59.000Z</time>
                <sat>159</sat>
            </trkpt>
            <trkpt lat="49.83261233" lon="7.800505">
                <time>2015-01-04T15:21:00.000Z</time>
                <sat>159</sat>
            </trkpt>
            <trkpt lat="49.83260383" lon="7.80048067">
                <time>2015-01-04T15:21:01.000Z</time>
                <sat>159</sat>
            </trkpt>
            <trkpt lat="49.8325955" lon="7.80045517">
                <time>2015-01-04T15:21:02.000Z</time>
                <sat>159</sat>
            </trkpt>
            <trkpt lat="49.8325865" lon="7.8004305">
                <time>2015-01-04T15:21:03.000Z</time>
                <sat>159</sat>
            </trkpt>
            <trkpt lat="49.8325775" lon="7.80040533">
                <time>2015-01-04T15:21:04.000Z</time>
                <sat>159</sat>
            </trkpt>
            <trkpt lat="49.83256883" lon="7.80037967">
                <time>2015-01-04T15:21:05.000Z</time>
                <sat>158</sat>
            </trkpt>
            <trkpt lat="49.8325595" lon="7.80035367">
                <time>2015-01-04T15:21:06.000Z</time>
                <sat>158</sat>
            </trkpt>
            <trkpt lat="49.83255" lon="7.80032633">
                <time>2015-01-04T15:21:07.000Z</time>
                <sat>158</sat>
            </trkpt>
            <trkpt lat="49.83254067" lon="7.80029967">
                <time>2015-01-04T15:21:08.000Z</time>
                <sat>158</sat>
            </trkpt>
            <trkpt lat="49.83253067" lon="7.80027217">
                <time>2015-01-04T15:21:09.000Z</time>
                <sat>158</sat>
            </trkpt>
            <trkpt lat="49.83252083" lon="7.80024583">
                <time>2015-01-04T15:21:10.000Z</time>
                <sat>158</sat>
            </trkpt>
            <trkpt lat="49.83251167" lon="7.80021967">
                <time>2015-01-04T15:21:11.000Z</time>
                <sat>158</sat>
            </trkpt>
            <trkpt lat="49.83250333" lon="7.80019417">
                <time>2015-01-04T15:21:12.000Z</time>
                <sat>158</sat>
            </trkpt>
            <trkpt lat="49.832495" lon="7.80016917">
                <time>2015-01-04T15:21:13.000Z</time>
                <sat>158</sat>
            </trkpt>
            <trkpt lat="49.832486" lon="7.80014433">
                <time>2015-01-04T15:21:14.000Z</time>
                <sat>158</sat>
            </trkpt>
            <trkpt lat="49.832477" lon="7.8001195">
                <time>2015-01-04T15:21:15.000Z</time>
                <sat>158</sat>
            </trkpt>
            <trkpt lat="49.832468" lon="7.800093">
                <time>2015-01-04T15:21:16.000Z</time>
                <sat>158</sat>
            </trkpt>
            <trkpt lat="49.83245933" lon="7.800068">
                <time>2015-01-04T15:21:17.000Z</time>
                <sat>157</sat>
            </trkpt>
            <trkpt lat="49.8324505" lon="7.80004217">
                <time>2015-01-04T15:21:18.000Z</time>
                <sat>157</sat>
            </trkpt>
            <trkpt lat="49.83244133" lon="7.800015">
                <time>2015-01-04T15:21:19.000Z</time>
                <sat>157</sat>
            </trkpt>
            <trkpt lat="49.8324325" lon="7.79998867">
                <time>2015-01-04T15:21:20.000Z</time>
                <sat>157</sat>
            </trkpt>
            <trkpt lat="49.83242417" lon="7.79996267">
                <time>2015-01-04T15:21:21.000Z</time>
                <sat>157</sat>
            </trkpt>
            <trkpt lat="49.832416" lon="7.79993767">
                <time>2015-01-04T15:21:22.000Z</time>
                <sat>157</sat>
            </trkpt>
            <trkpt lat="49.83240817" lon="7.799912">
                <time>2015-01-04T15:21:23.000Z</time>
                <sat>157</sat>
            </trkpt>
            <trkpt lat="49.8324005" lon="7.79988633">
                <time>2015-01-04T15:21:24.000Z</time>
                <sat>157</sat>
            </trkpt>
            <trkpt lat="49.83239283" lon="7.79986117">
                <time>2015-01-04T15:21:25.000Z</time>
                <sat>157</sat>
            </trkpt>
            <trkpt lat="49.8323855" lon="7.79983583">
                <time>2015-01-04T15:21:26.000Z</time>
                <sat>157</sat>
            </trkpt>
            <trkpt lat="49.8323785" lon="7.79981117">
                <time>2015-01-04T15:21:27.000Z</time>
                <sat>157</sat>
            </trkpt>
            <trkpt lat="49.83237167" lon="7.79978633">
                <time>2015-01-04T15:21:28.000Z</time>
                <sat>157</sat>
            </trkpt>
            <trkpt lat="49.832365" lon="7.799762">
                <time>2015-01-04T15:21:29.000Z</time>
                <sat>157</sat>
            </trkpt>
            <trkpt lat="49.8323585" lon="7.799738">
                <time>2015-01-04T15:21:30.000Z</time>
                <sat>157</sat>
            </trkpt>
            <trkpt lat="49.83235217" lon="7.799714">
                <time>2015-01-04T15:21:31.000Z</time>
                <sat>157</sat>
            </trkpt>
            <trkpt lat="49.83234533" lon="7.7996895">
                <time>2015-01-04T15:21:32.000Z</time>
                <sat>157</sat>
            </trkpt>
            <trkpt lat="49.8323385" lon="7.79966467">
                <time>2015-01-04T15:21:33.000Z</time>
                <sat>158</sat>
            </trkpt>
            <trkpt lat="49.83233183" lon="7.79964017">
                <time>2015-01-04T15:21:34.000Z</time>
                <sat>158</sat>
            </trkpt>
            <trkpt lat="49.8323255" lon="7.79961467">
                <time>2015-01-04T15:21:35.000Z</time>
                <sat>157</sat>
            </trkpt>
            <trkpt lat="49.83231933" lon="7.79958883">
                <time>2015-01-04T15:21:36.000Z</time>
                <sat>158</sat>
            </trkpt>
            <trkpt lat="49.83231333" lon="7.79956233">
                <time>2015-01-04T15:21:37.000Z</time>
                <sat>158</sat>
            </trkpt>
            <trkpt lat="49.8323065" lon="7.79953683">
                <time>2015-01-04T15:21:38.000Z</time>
                <sat>158</sat>
            </trkpt>
            <trkpt lat="49.83229983" lon="7.79951167">
                <time>2015-01-04T15:21:39.000Z</time>
                <sat>159</sat>
            </trkpt>
            <trkpt lat="49.83229717" lon="7.79949933">
                <time>2015-01-04T15:21:40.000Z</time>
                <sat>159</sat>
            </trkpt>
            <trkpt lat="49.832292" lon="7.79947633">
                <time>2015-01-04T15:21:41.000Z</time>
                <sat>159</sat>
            </trkpt>
            <trkpt lat="49.83228717" lon="7.799454">
                <time>2015-01-04T15:21:42.000Z</time>
                <sat>160</sat>
            </trkpt>
            <trkpt lat="49.83228233" lon="7.79943167">
                <time>2015-01-04T15:21:43.000Z</time>
                <sat>160</sat>
            </trkpt>
            <trkpt lat="49.83227717" lon="7.7994075">
                <time>2015-01-04T15:21:44.000Z</time>
                <sat>160</sat>
            </trkpt>
            <trkpt lat="49.832272" lon="7.7993835">
                <time>2015-01-04T15:21:45.000Z</time>
                <sat>161</sat>
            </trkpt>
            <trkpt lat="49.8322665" lon="7.79935883">
                <time>2015-01-04T15:21:46.000Z</time>
                <sat>161</sat>
            </trkpt>
            <trkpt lat="49.832261" lon="7.7993345">
                <time>2015-01-04T15:21:47.000Z</time>
                <sat>161</sat>
            </trkpt>
            <trkpt lat="49.83225533" lon="7.79930883">
                <time>2015-01-04T15:21:48.000Z</time>
                <sat>161</sat>
            </trkpt>
            <trkpt lat="49.8322495" lon="7.79928317">
                <time>2015-01-04T15:21:49.000Z</time>
                <sat>161</sat>
            </trkpt>
            <trkpt lat="49.83224333" lon="7.79925683">
                <time>2015-01-04T15:21:50.000Z</time>
                <sat>161</sat>
            </trkpt>
            <trkpt lat="49.832237" lon="7.79923017">
                <time>2015-01-04T15:21:51.000Z</time>
                <sat>160</sat>
            </trkpt>
            <trkpt lat="49.83223067" lon="7.799203">
                <time>2015-01-04T15:21:52.000Z</time>
                <sat>160</sat>
            </trkpt>
            <trkpt lat="49.83222467" lon="7.79917567">
                <time>2015-01-04T15:21:53.000Z</time>
                <sat>160</sat>
            </trkpt>
            <trkpt lat="49.83221917" lon="7.7991485">
                <time>2015-01-04T15:21:54.000Z</time>
                <sat>160</sat>
            </trkpt>
            <trkpt lat="49.832214" lon="7.7991205">
                <time>2015-01-04T15:21:55.000Z</time>
                <sat>160</sat>
            </trkpt>
            <trkpt lat="49.83220917" lon="7.7990925">
                <time>2015-01-04T15:21:56.000Z</time>
                <sat>160</sat>
            </trkpt>
            <trkpt lat="49.83220433" lon="7.79906433">
                <time>2015-01-04T15:21:57.000Z</time>
                <sat>160</sat>
            </trkpt>
            <trkpt lat="49.83219967" lon="7.79903683">
                <time>2015-01-04T15:21:58.000Z</time>
                <sat>160</sat>
            </trkpt>
            <trkpt lat="49.83219483" lon="7.799009">
                <time>2015-01-04T15:21:59.000Z</time>
                <sat>159</sat>
            </trkpt>
            <trkpt lat="49.83219017" lon="7.798981">
                <time>2015-01-04T15:22:00.000Z</time>
                <sat>159</sat>
            </trkpt>
            <trkpt lat="49.832186" lon="7.79895367">
                <time>2015-01-04T15:22:01.000Z</time>
                <sat>158</sat>
            </trkpt>
            <trkpt lat="49.83218233" lon="7.79892667">
                <time>2015-01-04T15:22:02.000Z</time>
                <sat>159</sat>
            </trkpt>
            <trkpt lat="49.8321785" lon="7.79890033">
                <time>2015-01-04T15:22:03.000Z</time>
                <sat>159</sat>
            </trkpt>
            <trkpt lat="49.83217483" lon="7.79887283">
                <time>2015-01-04T15:22:04.000Z</time>
                <sat>158</sat>
            </trkpt>
            <trkpt lat="49.83217083" lon="7.79884583">
                <time>2015-01-04T15:22:05.000Z</time>
                <sat>158</sat>
            </trkpt>
            <trkpt lat="49.832167" lon="7.798818">
                <time>2015-01-04T15:22:06.000Z</time>
                <sat>158</sat>
            </trkpt>
            <trkpt lat="49.83216317" lon="7.79879033">
                <time>2015-01-04T15:22:07.000Z</time>
                <sat>158</sat>
            </trkpt>
            <trkpt lat="49.83215933" lon="7.79876283">
                <time>2015-01-04T15:22:08.000Z</time>
                <sat>158</sat>
            </trkpt>
            <trkpt lat="49.832155" lon="7.7987355">
                <time>2015-01-04T15:22:09.000Z</time>
                <sat>158</sat>
            </trkpt>
            <trkpt lat="49.8321505" lon="7.79870817">
                <time>2015-01-04T15:22:10.000Z</time>
                <sat>157</sat>
            </trkpt>
            <trkpt lat="49.83214583" lon="7.79868167">
                <time>2015-01-04T15:22:11.000Z</time>
                <sat>156</sat>
            </trkpt>
            <trkpt lat="49.83214217" lon="7.79865783">
                <time>2015-01-04T15:22:12.000Z</time>
                <sat>156</sat>
            </trkpt>
            <trkpt lat="49.8321385" lon="7.7986345">
                <time>2015-01-04T15:22:13.000Z</time>
                <sat>156</sat>
            </trkpt>
            <trkpt lat="49.832135" lon="7.79861117">
                <time>2015-01-04T15:22:14.000Z</time>
                <sat>156</sat>
            </trkpt>
            <trkpt lat="49.8321315" lon="7.79858583">
                <time>2015-01-04T15:22:15.000Z</time>
                <sat>156</sat>
            </trkpt>
            <trkpt lat="49.832128" lon="7.79856033">
                <time>2015-01-04T15:22:16.000Z</time>
                <sat>156</sat>
            </trkpt>
            <trkpt lat="49.83212433" lon="7.79853317">
                <time>2015-01-04T15:22:17.000Z</time>
                <sat>156</sat>
            </trkpt>
            <trkpt lat="49.8321205" lon="7.79850583">
                <time>2015-01-04T15:22:18.000Z</time>
                <sat>156</sat>
            </trkpt>
            <trkpt lat="49.83211667" lon="7.7984775">
                <time>2015-01-04T15:22:19.000Z</time>
                <sat>156</sat>
            </trkpt>
            <trkpt lat="49.83211267" lon="7.79844917">
                <time>2015-01-04T15:22:20.000Z</time>
                <sat>155</sat>
            </trkpt>
            <trkpt lat="49.8321085" lon="7.79842017">
                <time>2015-01-04T15:22:21.000Z</time>
                <sat>155</sat>
            </trkpt>
            <trkpt lat="49.83210433" lon="7.798391">
                <time>2015-01-04T15:22:22.000Z</time>
                <sat>155</sat>
            </trkpt>
            <trkpt lat="49.83210033" lon="7.798362">
                <time>2015-01-04T15:22:23.000Z</time>
                <sat>155</sat>
            </trkpt>
            <trkpt lat="49.83209617" lon="7.79833267">
                <time>2015-01-04T15:22:24.000Z</time>
                <sat>155</sat>
            </trkpt>
            <trkpt lat="49.83209183" lon="7.79830333">
                <time>2015-01-04T15:22:25.000Z</time>
                <sat>155</sat>
            </trkpt>
            <trkpt lat="49.83208717" lon="7.79827383">
                <time>2015-01-04T15:22:26.000Z</time>
                <sat>155</sat>
            </trkpt>
            <trkpt lat="49.832082" lon="7.79824483">
                <time>2015-01-04T15:22:27.000Z</time>
                <sat>155</sat>
            </trkpt>
            <trkpt lat="49.832077" lon="7.79821583">
                <time>2015-01-04T15:22:28.000Z</time>
                <sat>154</sat>
            </trkpt>
            <trkpt lat="49.83207217" lon="7.79818717">
                <time>2015-01-04T15:22:29.000Z</time>
                <sat>154</sat>
            </trkpt>
            <trkpt lat="49.83206733" lon="7.79815867">
                <time>2015-01-04T15:22:30.000Z</time>
                <sat>154</sat>
            </trkpt>
            <trkpt lat="49.83206233" lon="7.79813067">
                <time>2015-01-04T15:22:31.000Z</time>
                <sat>154</sat>
            </trkpt>
            <trkpt lat="49.83205717" lon="7.798103">
                <time>2015-01-04T15:22:32.000Z</time>
                <sat>155</sat>
            </trkpt>
            <trkpt lat="49.832052" lon="7.79807533">
                <time>2015-01-04T15:22:33.000Z</time>
                <sat>154</sat>
            </trkpt>
            <trkpt lat="49.83204667" lon="7.79804767">
                <time>2015-01-04T15:22:34.000Z</time>
                <sat>154</sat>
            </trkpt>
            <trkpt lat="49.832042" lon="7.7980195">
                <time>2015-01-04T15:22:35.000Z</time>
                <sat>154</sat>
            </trkpt>
            <trkpt lat="49.8320375" lon="7.79799133">
                <time>2015-01-04T15:22:36.000Z</time>
                <sat>154</sat>
            </trkpt>
            <trkpt lat="49.83203367" lon="7.79796367">
                <time>2015-01-04T15:22:37.000Z</time>
                <sat>155</sat>
            </trkpt>
            <trkpt lat="49.8320295" lon="7.79793583">
                <time>2015-01-04T15:22:38.000Z</time>
                <sat>154</sat>
            </trkpt>
            <trkpt lat="49.83202533" lon="7.79790883">
                <time>2015-01-04T15:22:39.000Z</time>
                <sat>155</sat>
            </trkpt>
            <trkpt lat="49.83202083" lon="7.79788067">
                <time>2015-01-04T15:22:40.000Z</time>
                <sat>154</sat>
            </trkpt>
            <trkpt lat="49.83201667" lon="7.797853">
                <time>2015-01-04T15:22:41.000Z</time>
                <sat>155</sat>
            </trkpt>
            <trkpt lat="49.8320125" lon="7.79782533">
                <time>2015-01-04T15:22:42.000Z</time>
                <sat>155</sat>
            </trkpt>
            <trkpt lat="49.83200867" lon="7.79779783">
                <time>2015-01-04T15:22:43.000Z</time>
                <sat>155</sat>
            </trkpt>
            <trkpt lat="49.83200467" lon="7.79777083">
                <time>2015-01-04T15:22:44.000Z</time>
                <sat>155</sat>
            </trkpt>
            <trkpt lat="49.83200067" lon="7.79774333">
                <time>2015-01-04T15:22:45.000Z</time>
                <sat>156</sat>
            </trkpt>
            <trkpt lat="49.83199667" lon="7.7977175">
                <time>2015-01-04T15:22:46.000Z</time>
                <sat>156</sat>
            </trkpt>
            <trkpt lat="49.831993" lon="7.79769217">
                <time>2015-01-04T15:22:47.000Z</time>
                <sat>156</sat>
            </trkpt>
            <trkpt lat="49.83198933" lon="7.79766967">
                <time>2015-01-04T15:22:48.000Z</time>
                <sat>156</sat>
            </trkpt>
            <trkpt lat="49.83198483" lon="7.79764867">
                <time>2015-01-04T15:22:49.000Z</time>
                <sat>155</sat>
            </trkpt>
            <trkpt lat="49.83197933" lon="7.79762983">
                <time>2015-01-04T15:22:50.000Z</time>
                <sat>156</sat>
            </trkpt>
            <trkpt lat="49.8319725" lon="7.79761167">
                <time>2015-01-04T15:22:51.000Z</time>
                <sat>156</sat>
            </trkpt>
            <trkpt lat="49.831964" lon="7.7975945">
                <time>2015-01-04T15:22:52.000Z</time>
                <sat>156</sat>
            </trkpt>
            <trkpt lat="49.831954" lon="7.79757833">
                <time>2015-01-04T15:22:53.000Z</time>
                <sat>156</sat>
            </trkpt>
            <trkpt lat="49.83194217" lon="7.79756467">
                <time>2015-01-04T15:22:54.000Z</time>
                <sat>155</sat>
            </trkpt>
            <trkpt lat="49.83192883" lon="7.79755317">
                <time>2015-01-04T15:22:55.000Z</time>
                <sat>155</sat>
            </trkpt>
            <trkpt lat="49.8319145" lon="7.79754317">
                <time>2015-01-04T15:22:56.000Z</time>
                <sat>155</sat>
            </trkpt>
            <trkpt lat="49.8318995" lon="7.7975325">
                <time>2015-01-04T15:22:57.000Z</time>
                <sat>155</sat>
            </trkpt>
            <trkpt lat="49.83188433" lon="7.79752117">
                <time>2015-01-04T15:22:58.000Z</time>
                <sat>155</sat>
            </trkpt>
            <trkpt lat="49.831869" lon="7.79750917">
                <time>2015-01-04T15:22:59.000Z</time>
                <sat>155</sat>
            </trkpt>
            <trkpt lat="49.831854" lon="7.797496">
                <time>2015-01-04T15:23:00.000Z</time>
                <sat>155</sat>
            </trkpt>
            <trkpt lat="49.83183917" lon="7.79748217">
                <time>2015-01-04T15:23:01.000Z</time>
                <sat>155</sat>
            </trkpt>
            <trkpt lat="49.83182417" lon="7.797468">
                <time>2015-01-04T15:23:02.000Z</time>
                <sat>155</sat>
            </trkpt>
            <trkpt lat="49.83180917" lon="7.797455">
                <time>2015-01-04T15:23:03.000Z</time>
                <sat>155</sat>
            </trkpt>
            <trkpt lat="49.83179367" lon="7.79744183">
                <time>2015-01-04T15:23:04.000Z</time>
                <sat>155</sat>
            </trkpt>
            <trkpt lat="49.83177817" lon="7.79742917">
                <time>2015-01-04T15:23:05.000Z</time>
                <sat>155</sat>
            </trkpt>
            <trkpt lat="49.831763" lon="7.797416">
                <time>2015-01-04T15:23:06.000Z</time>
                <sat>156</sat>
            </trkpt>
            <trkpt lat="49.831748" lon="7.79740267">
                <time>2015-01-04T15:23:07.000Z</time>
                <sat>155</sat>
            </trkpt>
            <trkpt lat="49.83173333" lon="7.79738933">
                <time>2015-01-04T15:23:08.000Z</time>
                <sat>155</sat>
            </trkpt>
            <trkpt lat="49.83171883" lon="7.79737583">
                <time>2015-01-04T15:23:09.000Z</time>
                <sat>155</sat>
            </trkpt>
            <trkpt lat="49.83170467" lon="7.797363">
                <time>2015-01-04T15:23:10.000Z</time>
                <sat>155</sat>
            </trkpt>
            <trkpt lat="49.83169033" lon="7.79734983">
                <time>2015-01-04T15:23:11.000Z</time>
                <sat>155</sat>
            </trkpt>
            <trkpt lat="49.83167583" lon="7.79733717">
                <time>2015-01-04T15:23:12.000Z</time>
                <sat>155</sat>
            </trkpt>
            <trkpt lat="49.83166133" lon="7.79732483">
                <time>2015-01-04T15:23:13.000Z</time>
                <sat>155</sat>
            </trkpt>
            <trkpt lat="49.83164667" lon="7.79731283">
                <time>2015-01-04T15:23:14.000Z</time>
                <sat>155</sat>
            </trkpt>
            <trkpt lat="49.83163233" lon="7.7973015">
                <time>2015-01-04T15:23:15.000Z</time>
                <sat>156</sat>
            </trkpt>
            <trkpt lat="49.83161783" lon="7.79729017">
                <time>2015-01-04T15:23:16.000Z</time>
                <sat>156</sat>
            </trkpt>
            <trkpt lat="49.8316035" lon="7.79727883">
                <time>2015-01-04T15:23:17.000Z</time>
                <sat>156</sat>
            </trkpt>
            <trkpt lat="49.8315885" lon="7.79726733">
                <time>2015-01-04T15:23:18.000Z</time>
                <sat>156</sat>
            </trkpt>
            <trkpt lat="49.83157317" lon="7.79725567">
                <time>2015-01-04T15:23:19.000Z</time>
                <sat>156</sat>
            </trkpt>
            <trkpt lat="49.831558" lon="7.79724417">
                <time>2015-01-04T15:23:20.000Z</time>
                <sat>156</sat>
            </trkpt>
            <trkpt lat="49.83154283" lon="7.7972325">
                <time>2015-01-04T15:23:21.000Z</time>
                <sat>156</sat>
            </trkpt>
            <trkpt lat="49.83152783" lon="7.797221">
                <time>2015-01-04T15:23:22.000Z</time>
                <sat>157</sat>
            </trkpt>
            <trkpt lat="49.83151267" lon="7.79720967">
                <time>2015-01-04T15:23:23.000Z</time>
                <sat>157</sat>
            </trkpt>
            <trkpt lat="49.83149767" lon="7.797198">
                <time>2015-01-04T15:23:24.000Z</time>
                <sat>157</sat>
            </trkpt>
            <trkpt lat="49.83148267" lon="7.797186">
                <time>2015-01-04T15:23:25.000Z</time>
                <sat>157</sat>
            </trkpt>
            <trkpt lat="49.8314675" lon="7.79717333">
                <time>2015-01-04T15:23:26.000Z</time>
                <sat>157</sat>
            </trkpt>
            <trkpt lat="49.83145233" lon="7.79716083">
                <time>2015-01-04T15:23:27.000Z</time>
                <sat>157</sat>
            </trkpt>
            <trkpt lat="49.83143733" lon="7.79714833">
                <time>2015-01-04T15:23:28.000Z</time>
                <sat>157</sat>
            </trkpt>
            <trkpt lat="49.83142233" lon="7.79713633">
                <time>2015-01-04T15:23:29.000Z</time>
                <sat>158</sat>
            </trkpt>
            <trkpt lat="49.83140733" lon="7.797124">
                <time>2015-01-04T15:23:30.000Z</time>
                <sat>158</sat>
            </trkpt>
            <trkpt lat="49.83139233" lon="7.79711083">
                <time>2015-01-04T15:23:31.000Z</time>
                <sat>157</sat>
            </trkpt>
            <trkpt lat="49.831378" lon="7.79709717">
                <time>2015-01-04T15:23:32.000Z</time>
                <sat>157</sat>
            </trkpt>
            <trkpt lat="49.83136367" lon="7.79708317">
                <time>2015-01-04T15:23:33.000Z</time>
                <sat>157</sat>
            </trkpt>
            <trkpt lat="49.83134983" lon="7.79706933">
                <time>2015-01-04T15:23:34.000Z</time>
                <sat>158</sat>
            </trkpt>
            <trkpt lat="49.83133567" lon="7.7970555">
                <time>2015-01-04T15:23:35.000Z</time>
                <sat>158</sat>
            </trkpt>
            <trkpt lat="49.8313215" lon="7.79704183">
                <time>2015-01-04T15:23:36.000Z</time>
                <sat>158</sat>
            </trkpt>
            <trkpt lat="49.83130717" lon="7.797028">
                <time>2015-01-04T15:23:37.000Z</time>
                <sat>158</sat>
            </trkpt>
            <trkpt lat="49.8312925" lon="7.79701383">
                <time>2015-01-04T15:23:38.000Z</time>
                <sat>158</sat>
            </trkpt>
            <trkpt lat="49.83127817" lon="7.79699983">
                <time>2015-01-04T15:23:39.000Z</time>
                <sat>158</sat>
            </trkpt>
            <trkpt lat="49.83126433" lon="7.796986">
                <time>2015-01-04T15:23:40.000Z</time>
                <sat>158</sat>
            </trkpt>
            <trkpt lat="49.83125033" lon="7.79697217">
                <time>2015-01-04T15:23:41.000Z</time>
                <sat>158</sat>
            </trkpt>
            <trkpt lat="49.831236" lon="7.79695917">
                <time>2015-01-04T15:23:42.000Z</time>
                <sat>158</sat>
            </trkpt>
            <trkpt lat="49.831221" lon="7.79694633">
                <time>2015-01-04T15:23:43.000Z</time>
                <sat>158</sat>
            </trkpt>
            <trkpt lat="49.83120633" lon="7.79693417">
                <time>2015-01-04T15:23:44.000Z</time>
                <sat>157</sat>
            </trkpt>
            <trkpt lat="49.8311915" lon="7.79692083">
                <time>2015-01-04T15:23:45.000Z</time>
                <sat>157</sat>
            </trkpt>
            <trkpt lat="49.831177" lon="7.79690767">
                <time>2015-01-04T15:23:46.000Z</time>
                <sat>158</sat>
            </trkpt>
            <trkpt lat="49.83116233" lon="7.79689483">
                <time>2015-01-04T15:23:47.000Z</time>
                <sat>158</sat>
            </trkpt>
            <trkpt lat="49.8311475" lon="7.79688167">
                <time>2015-01-04T15:23:48.000Z</time>
                <sat>158</sat>
            </trkpt>
            <trkpt lat="49.83113283" lon="7.79686883">
                <time>2015-01-04T15:23:49.000Z</time>
                <sat>158</sat>
            </trkpt>
            <trkpt lat="49.83111783" lon="7.7968555">
                <time>2015-01-04T15:23:50.000Z</time>
                <sat>158</sat>
            </trkpt>
            <trkpt lat="49.83110283" lon="7.79684267">
                <time>2015-01-04T15:23:51.000Z</time>
                <sat>158</sat>
            </trkpt>
            <trkpt lat="49.83108767" lon="7.7968295">
                <time>2015-01-04T15:23:52.000Z</time>
                <sat>158</sat>
            </trkpt>
            <trkpt lat="49.831072" lon="7.79681567">
                <time>2015-01-04T15:23:53.000Z</time>
                <sat>158</sat>
            </trkpt>
            <trkpt lat="49.83105633" lon="7.79680167">
                <time>2015-01-04T15:23:54.000Z</time>
                <sat>158</sat>
            </trkpt>
            <trkpt lat="49.83104" lon="7.79678617">
                <time>2015-01-04T15:23:55.000Z</time>
                <sat>158</sat>
            </trkpt>
            <trkpt lat="49.83102417" lon="7.79677083">
                <time>2015-01-04T15:23:56.000Z</time>
                <sat>158</sat>
            </trkpt>
            <trkpt lat="49.83100833" lon="7.796755">
                <time>2015-01-04T15:23:57.000Z</time>
                <sat>158</sat>
            </trkpt>
            <trkpt lat="49.83099233" lon="7.7967395">
                <time>2015-01-04T15:23:58.000Z</time>
                <sat>158</sat>
            </trkpt>
            <trkpt lat="49.83097633" lon="7.79672483">
                <time>2015-01-04T15:23:59.000Z</time>
                <sat>158</sat>
            </trkpt>
            <trkpt lat="49.83095983" lon="7.79670983">
                <time>2015-01-04T15:24:00.000Z</time>
                <sat>158</sat>
            </trkpt>
            <trkpt lat="49.830944" lon="7.79669583">
                <time>2015-01-04T15:24:01.000Z</time>
                <sat>158</sat>
            </trkpt>
            <trkpt lat="49.83092817" lon="7.796681">
                <time>2015-01-04T15:24:02.000Z</time>
                <sat>158</sat>
            </trkpt>
            <trkpt lat="49.83091317" lon="7.79666667">
                <time>2015-01-04T15:24:03.000Z</time>
                <sat>159</sat>
            </trkpt>
            <trkpt lat="49.830898" lon="7.79665167">
                <time>2015-01-04T15:24:04.000Z</time>
                <sat>159</sat>
            </trkpt>
            <trkpt lat="49.830883" lon="7.796637">
                <time>2015-01-04T15:24:05.000Z</time>
                <sat>159</sat>
            </trkpt>
            <trkpt lat="49.830868" lon="7.79662267">
                <time>2015-01-04T15:24:06.000Z</time>
                <sat>159</sat>
            </trkpt>
            <trkpt lat="49.8308525" lon="7.79660783">
                <time>2015-01-04T15:24:07.000Z</time>
                <sat>159</sat>
            </trkpt>
            <trkpt lat="49.83083767" lon="7.79659367">
                <time>2015-01-04T15:24:08.000Z</time>
                <sat>159</sat>
            </trkpt>
            <trkpt lat="49.8308225" lon="7.79657817">
                <time>2015-01-04T15:24:09.000Z</time>
                <sat>159</sat>
            </trkpt>
            <trkpt lat="49.830808" lon="7.7965635">
                <time>2015-01-04T15:24:10.000Z</time>
                <sat>159</sat>
            </trkpt>
            <trkpt lat="49.83079317" lon="7.79654767">
                <time>2015-01-04T15:24:11.000Z</time>
                <sat>158</sat>
            </trkpt>
            <trkpt lat="49.8307785" lon="7.7965325">
                <time>2015-01-04T15:24:12.000Z</time>
                <sat>158</sat>
            </trkpt>
            <trkpt lat="49.83076383" lon="7.79651717">
                <time>2015-01-04T15:24:13.000Z</time>
                <sat>158</sat>
            </trkpt>
            <trkpt lat="49.83074917" lon="7.79650217">
                <time>2015-01-04T15:24:14.000Z</time>
                <sat>158</sat>
            </trkpt>
            <trkpt lat="49.83073483" lon="7.7964875">
                <time>2015-01-04T15:24:15.000Z</time>
                <sat>159</sat>
            </trkpt>
            <trkpt lat="49.83072" lon="7.79647233">
                <time>2015-01-04T15:24:16.000Z</time>
                <sat>159</sat>
            </trkpt>
            <trkpt lat="49.83070567" lon="7.79645833">
                <time>2015-01-04T15:24:17.000Z</time>
                <sat>159</sat>
            </trkpt>
            <trkpt lat="49.83069067" lon="7.79644383">
                <time>2015-01-04T15:24:18.000Z</time>
                <sat>159</sat>
            </trkpt>
            <trkpt lat="49.83067633" lon="7.79643">
                <time>2015-01-04T15:24:19.000Z</time>
                <sat>159</sat>
            </trkpt>
            <trkpt lat="49.83066183" lon="7.7964155">
                <time>2015-01-04T15:24:20.000Z</time>
                <sat>159</sat>
            </trkpt>
            <trkpt lat="49.83064733" lon="7.7964015">
                <time>2015-01-04T15:24:21.000Z</time>
                <sat>159</sat>
            </trkpt>
            <trkpt lat="49.8306325" lon="7.796388">
                <time>2015-01-04T15:24:22.000Z</time>
                <sat>159</sat>
            </trkpt>
            <trkpt lat="49.8306175" lon="7.7963745">
                <time>2015-01-04T15:24:23.000Z</time>
                <sat>160</sat>
            </trkpt>
            <trkpt lat="49.83060283" lon="7.79636117">
                <time>2015-01-04T15:24:24.000Z</time>
                <sat>160</sat>
            </trkpt>
            <trkpt lat="49.83058767" lon="7.79634683">
                <time>2015-01-04T15:24:25.000Z</time>
                <sat>159</sat>
            </trkpt>
            <trkpt lat="49.83057283" lon="7.79633317">
                <time>2015-01-04T15:24:26.000Z</time>
                <sat>159</sat>
            </trkpt>
            <trkpt lat="49.830558" lon="7.796319">
                <time>2015-01-04T15:24:27.000Z</time>
                <sat>159</sat>
            </trkpt>
            <trkpt lat="49.83054333" lon="7.79630533">
                <time>2015-01-04T15:24:28.000Z</time>
                <sat>160</sat>
            </trkpt>
            <trkpt lat="49.83052867" lon="7.7962915">
                <time>2015-01-04T15:24:29.000Z</time>
                <sat>160</sat>
            </trkpt>
            <trkpt lat="49.83051367" lon="7.79627717">
                <time>2015-01-04T15:24:30.000Z</time>
                <sat>159</sat>
            </trkpt>
            <trkpt lat="49.83049917" lon="7.79626317">
                <time>2015-01-04T15:24:31.000Z</time>
                <sat>160</sat>
            </trkpt>
            <trkpt lat="49.83048433" lon="7.79624883">
                <time>2015-01-04T15:24:32.000Z</time>
                <sat>159</sat>
            </trkpt>
            <trkpt lat="49.83047" lon="7.79623483">
                <time>2015-01-04T15:24:33.000Z</time>
                <sat>160</sat>
            </trkpt>
            <trkpt lat="49.83045533" lon="7.79622067">
                <time>2015-01-04T15:24:34.000Z</time>
                <sat>160</sat>
            </trkpt>
            <trkpt lat="49.83044067" lon="7.79620533">
                <time>2015-01-04T15:24:35.000Z</time>
                <sat>160</sat>
            </trkpt>
            <trkpt lat="49.83042617" lon="7.7961905">
                <time>2015-01-04T15:24:36.000Z</time>
                <sat>160</sat>
            </trkpt>
            <trkpt lat="49.83041133" lon="7.796175">
                <time>2015-01-04T15:24:37.000Z</time>
                <sat>160</sat>
            </trkpt>
            <trkpt lat="49.830397" lon="7.796161">
                <time>2015-01-04T15:24:38.000Z</time>
                <sat>160</sat>
            </trkpt>
            <trkpt lat="49.83038217" lon="7.796147">
                <time>2015-01-04T15:24:39.000Z</time>
                <sat>160</sat>
            </trkpt>
            <trkpt lat="49.83036733" lon="7.7961335">
                <time>2015-01-04T15:24:40.000Z</time>
                <sat>160</sat>
            </trkpt>
            <trkpt lat="49.8303525" lon="7.79612">
                <time>2015-01-04T15:24:41.000Z</time>
                <sat>160</sat>
            </trkpt>
            <trkpt lat="49.8303375" lon="7.79610583">
                <time>2015-01-04T15:24:42.000Z</time>
                <sat>160</sat>
            </trkpt>
            <trkpt lat="49.83032267" lon="7.796093">
                <time>2015-01-04T15:24:43.000Z</time>
                <sat>160</sat>
            </trkpt>
            <trkpt lat="49.8303075" lon="7.79608033">
                <time>2015-01-04T15:24:44.000Z</time>
                <sat>160</sat>
            </trkpt>
            <trkpt lat="49.8302925" lon="7.79607017">
                <time>2015-01-04T15:24:45.000Z</time>
                <sat>161</sat>
            </trkpt>
            <trkpt lat="49.830277" lon="7.79606217">
                <time>2015-01-04T15:24:46.000Z</time>
                <sat>161</sat>
            </trkpt>
            <trkpt lat="49.830261" lon="7.7960575">
                <time>2015-01-04T15:24:47.000Z</time>
                <sat>161</sat>
            </trkpt>
            <trkpt lat="49.83024567" lon="7.79605567">
                <time>2015-01-04T15:24:48.000Z</time>
                <sat>161</sat>
            </trkpt>
            <trkpt lat="49.83023033" lon="7.7960585">
                <time>2015-01-04T15:24:49.000Z</time>
                <sat>161</sat>
            </trkpt>
            <trkpt lat="49.83021617" lon="7.796065">
                <time>2015-01-04T15:24:50.000Z</time>
                <sat>162</sat>
            </trkpt>
            <trkpt lat="49.8302025" lon="7.79607583">
                <time>2015-01-04T15:24:51.000Z</time>
                <sat>161</sat>
            </trkpt>
            <trkpt lat="49.8301895" lon="7.79608817">
                <time>2015-01-04T15:24:52.000Z</time>
                <sat>161</sat>
            </trkpt>
            <trkpt lat="49.83017717" lon="7.796102">
                <time>2015-01-04T15:24:53.000Z</time>
                <sat>161</sat>
            </trkpt>
            <trkpt lat="49.83016417" lon="7.796117">
                <time>2015-01-04T15:24:54.000Z</time>
                <sat>161</sat>
            </trkpt>
            <trkpt lat="49.83015183" lon="7.79613267">
                <time>2015-01-04T15:24:55.000Z</time>
                <sat>161</sat>
            </trkpt>
            <trkpt lat="49.830139" lon="7.79614967">
                <time>2015-01-04T15:24:56.000Z</time>
                <sat>162</sat>
            </trkpt>
            <trkpt lat="49.83012633" lon="7.796167">
                <time>2015-01-04T15:24:57.000Z</time>
                <sat>162</sat>
            </trkpt>
            <trkpt lat="49.83011367" lon="7.79618433">
                <time>2015-01-04T15:24:58.000Z</time>
                <sat>162</sat>
            </trkpt>
            <trkpt lat="49.8301005" lon="7.79620133">
                <time>2015-01-04T15:24:59.000Z</time>
                <sat>162</sat>
            </trkpt>
            <trkpt lat="49.83008783" lon="7.79621833">
                <time>2015-01-04T15:25:00.000Z</time>
                <sat>163</sat>
            </trkpt>
            <trkpt lat="49.83007433" lon="7.79623533">
                <time>2015-01-04T15:25:01.000Z</time>
                <sat>163</sat>
            </trkpt>
            <trkpt lat="49.830061" lon="7.796252">
                <time>2015-01-04T15:25:02.000Z</time>
                <sat>162</sat>
            </trkpt>
            <trkpt lat="49.83004767" lon="7.796269">
                <time>2015-01-04T15:25:03.000Z</time>
                <sat>163</sat>
            </trkpt>
            <trkpt lat="49.83003483" lon="7.79628633">
                <time>2015-01-04T15:25:04.000Z</time>
                <sat>163</sat>
            </trkpt>
            <trkpt lat="49.8300225" lon="7.796304">
                <time>2015-01-04T15:25:05.000Z</time>
                <sat>163</sat>
            </trkpt>
            <trkpt lat="49.83000967" lon="7.79632133">
                <time>2015-01-04T15:25:06.000Z</time>
                <sat>162</sat>
            </trkpt>
            <trkpt lat="49.829997" lon="7.79633783">
                <time>2015-01-04T15:25:07.000Z</time>
                <sat>162</sat>
            </trkpt>
            <trkpt lat="49.82998367" lon="7.79635417">
                <time>2015-01-04T15:25:08.000Z</time>
                <sat>162</sat>
            </trkpt>
            <trkpt lat="49.82997033" lon="7.79637033">
                <time>2015-01-04T15:25:09.000Z</time>
                <sat>162</sat>
            </trkpt>
            <trkpt lat="49.82995683" lon="7.79638617">
                <time>2015-01-04T15:25:10.000Z</time>
                <sat>163</sat>
            </trkpt>
            <trkpt lat="49.82994267" lon="7.7964015">
                <time>2015-01-04T15:25:11.000Z</time>
                <sat>162</sat>
            </trkpt>
            <trkpt lat="49.82992867" lon="7.79641617">
                <time>2015-01-04T15:25:12.000Z</time>
                <sat>162</sat>
            </trkpt>
            <trkpt lat="49.82991417" lon="7.79643083">
                <time>2015-01-04T15:25:13.000Z</time>
                <sat>162</sat>
            </trkpt>
            <trkpt lat="49.82989983" lon="7.79644483">
                <time>2015-01-04T15:25:14.000Z</time>
                <sat>162</sat>
            </trkpt>
            <trkpt lat="49.82988517" lon="7.79645867">
                <time>2015-01-04T15:25:15.000Z</time>
                <sat>162</sat>
            </trkpt>
            <trkpt lat="49.82987" lon="7.7964715">
                <time>2015-01-04T15:25:16.000Z</time>
                <sat>162</sat>
            </trkpt>
            <trkpt lat="49.829855" lon="7.79648367">
                <time>2015-01-04T15:25:17.000Z</time>
                <sat>162</sat>
            </trkpt>
            <trkpt lat="49.829839" lon="7.79649517">
                <time>2015-01-04T15:25:18.000Z</time>
                <sat>162</sat>
            </trkpt>
            <trkpt lat="49.82982317" lon="7.79650617">
                <time>2015-01-04T15:25:19.000Z</time>
                <sat>162</sat>
            </trkpt>
            <trkpt lat="49.82980717" lon="7.79651683">
                <time>2015-01-04T15:25:20.000Z</time>
                <sat>162</sat>
            </trkpt>
            <trkpt lat="49.82979117" lon="7.796527">
                <time>2015-01-04T15:25:21.000Z</time>
                <sat>162</sat>
            </trkpt>
            <trkpt lat="49.8297755" lon="7.79653683">
                <time>2015-01-04T15:25:22.000Z</time>
                <sat>162</sat>
            </trkpt>
            <trkpt lat="49.8297595" lon="7.79654633">
                <time>2015-01-04T15:25:23.000Z</time>
                <sat>163</sat>
            </trkpt>
            <trkpt lat="49.82974417" lon="7.7965555">
                <time>2015-01-04T15:25:24.000Z</time>
                <sat>163</sat>
            </trkpt>
            <trkpt lat="49.82972833" lon="7.79656483">
                <time>2015-01-04T15:25:25.000Z</time>
                <sat>163</sat>
            </trkpt>
            <trkpt lat="49.82971283" lon="7.79657367">
                <time>2015-01-04T15:25:26.000Z</time>
                <sat>163</sat>
            </trkpt>
            <trkpt lat="49.8296975" lon="7.79658283">
                <time>2015-01-04T15:25:27.000Z</time>
                <sat>163</sat>
            </trkpt>
            <trkpt lat="49.82968167" lon="7.79659183">
                <time>2015-01-04T15:25:28.000Z</time>
                <sat>163</sat>
            </trkpt>
            <trkpt lat="49.82966633" lon="7.7966015">
                <time>2015-01-04T15:25:29.000Z</time>
                <sat>163</sat>
            </trkpt>
            <trkpt lat="49.82965017" lon="7.7966115">
                <time>2015-01-04T15:25:30.000Z</time>
                <sat>163</sat>
            </trkpt>
            <trkpt lat="49.82963417" lon="7.7966215">
                <time>2015-01-04T15:25:31.000Z</time>
                <sat>163</sat>
            </trkpt>
            <trkpt lat="49.82961767" lon="7.79663083">
                <time>2015-01-04T15:25:32.000Z</time>
                <sat>163</sat>
            </trkpt>
            <trkpt lat="49.82960117" lon="7.79663967">
                <time>2015-01-04T15:25:33.000Z</time>
                <sat>163</sat>
            </trkpt>
            <trkpt lat="49.8295845" lon="7.79664833">
                <time>2015-01-04T15:25:34.000Z</time>
                <sat>163</sat>
            </trkpt>
            <trkpt lat="49.82956767" lon="7.79665683">
                <time>2015-01-04T15:25:35.000Z</time>
                <sat>163</sat>
            </trkpt>
            <trkpt lat="49.82955117" lon="7.79666517">
                <time>2015-01-04T15:25:36.000Z</time>
                <sat>163</sat>
            </trkpt>
            <trkpt lat="49.829534" lon="7.7966735">
                <time>2015-01-04T15:25:37.000Z</time>
                <sat>163</sat>
            </trkpt>
            <trkpt lat="49.82951733" lon="7.79668167">
                <time>2015-01-04T15:25:38.000Z</time>
                <sat>163</sat>
            </trkpt>
            <trkpt lat="49.8295005" lon="7.79669033">
                <time>2015-01-04T15:25:39.000Z</time>
                <sat>163</sat>
            </trkpt>
            <trkpt lat="49.82948383" lon="7.796698">
                <time>2015-01-04T15:25:40.000Z</time>
                <sat>163</sat>
            </trkpt>
            <trkpt lat="49.82946733" lon="7.796706">
                <time>2015-01-04T15:25:41.000Z</time>
                <sat>163</sat>
            </trkpt>
            <trkpt lat="49.82945083" lon="7.7967125">
                <time>2015-01-04T15:25:42.000Z</time>
                <sat>162</sat>
            </trkpt>
            <trkpt lat="49.829435" lon="7.79672017">
                <time>2015-01-04T15:25:43.000Z</time>
                <sat>162</sat>
            </trkpt>
            <trkpt lat="49.829419" lon="7.79672717">
                <time>2015-01-04T15:25:44.000Z</time>
                <sat>162</sat>
            </trkpt>
            <trkpt lat="49.82940333" lon="7.79673517">
                <time>2015-01-04T15:25:45.000Z</time>
                <sat>162</sat>
            </trkpt>
            <trkpt lat="49.82938767" lon="7.79674317">
                <time>2015-01-04T15:25:46.000Z</time>
                <sat>162</sat>
            </trkpt>
            <trkpt lat="49.829372" lon="7.79675117">
                <time>2015-01-04T15:25:47.000Z</time>
                <sat>162</sat>
            </trkpt>
            <trkpt lat="49.82935633" lon="7.79675933">
                <time>2015-01-04T15:25:48.000Z</time>
                <sat>162</sat>
            </trkpt>
            <trkpt lat="49.82934033" lon="7.79676683">
                <time>2015-01-04T15:25:49.000Z</time>
                <sat>162</sat>
            </trkpt>
            <trkpt lat="49.8293245" lon="7.79677383">
                <time>2015-01-04T15:25:50.000Z</time>
                <sat>162</sat>
            </trkpt>
            <trkpt lat="49.82930833" lon="7.79678033">
                <time>2015-01-04T15:25:51.000Z</time>
                <sat>162</sat>
            </trkpt>
            <trkpt lat="49.82929217" lon="7.796787">
                <time>2015-01-04T15:25:52.000Z</time>
                <sat>162</sat>
            </trkpt>
            <trkpt lat="49.829276" lon="7.7967935">
                <time>2015-01-04T15:25:53.000Z</time>
                <sat>162</sat>
            </trkpt>
            <trkpt lat="49.82926" lon="7.79679933">
                <time>2015-01-04T15:25:54.000Z</time>
                <sat>162</sat>
            </trkpt>
            <trkpt lat="49.82924433" lon="7.79680467">
                <time>2015-01-04T15:25:55.000Z</time>
                <sat>162</sat>
            </trkpt>
            <trkpt lat="49.82922833" lon="7.79680983">
                <time>2015-01-04T15:25:56.000Z</time>
                <sat>162</sat>
            </trkpt>
            <trkpt lat="49.82921233" lon="7.79681617">
                <time>2015-01-04T15:25:57.000Z</time>
                <sat>163</sat>
            </trkpt>
            <trkpt lat="49.82919617" lon="7.79682317">
                <time>2015-01-04T15:25:58.000Z</time>
                <sat>163</sat>
            </trkpt>
            <trkpt lat="49.82917983" lon="7.7968305">
                <time>2015-01-04T15:25:59.000Z</time>
                <sat>163</sat>
            </trkpt>
            <trkpt lat="49.8291635" lon="7.79683767">
                <time>2015-01-04T15:26:00.000Z</time>
                <sat>163</sat>
            </trkpt>
            <trkpt lat="49.829147" lon="7.796845">
                <time>2015-01-04T15:26:01.000Z</time>
                <sat>163</sat>
            </trkpt>
            <trkpt lat="49.82913083" lon="7.7968525">
                <time>2015-01-04T15:26:02.000Z</time>
                <sat>163</sat>
            </trkpt>
            <trkpt lat="49.82911417" lon="7.79686083">
                <time>2015-01-04T15:26:03.000Z</time>
                <sat>163</sat>
            </trkpt>
            <trkpt lat="49.82909733" lon="7.79686933">
                <time>2015-01-04T15:26:04.000Z</time>
                <sat>163</sat>
            </trkpt>
            <trkpt lat="49.82908033" lon="7.79687833">
                <time>2015-01-04T15:26:05.000Z</time>
                <sat>163</sat>
            </trkpt>
            <trkpt lat="49.82906317" lon="7.79688717">
                <time>2015-01-04T15:26:06.000Z</time>
                <sat>164</sat>
            </trkpt>
            <trkpt lat="49.8290465" lon="7.79689583">
                <time>2015-01-04T15:26:07.000Z</time>
                <sat>164</sat>
            </trkpt>
            <trkpt lat="49.8290295" lon="7.7969045">
                <time>2015-01-04T15:26:08.000Z</time>
                <sat>164</sat>
            </trkpt>
            <trkpt lat="49.82901283" lon="7.796913">
                <time>2015-01-04T15:26:09.000Z</time>
                <sat>164</sat>
            </trkpt>
            <trkpt lat="49.828996" lon="7.79692133">
                <time>2015-01-04T15:26:10.000Z</time>
                <sat>164</sat>
            </trkpt>
            <trkpt lat="49.82897917" lon="7.79692933">
                <time>2015-01-04T15:26:11.000Z</time>
                <sat>164</sat>
            </trkpt>
            <trkpt lat="49.82896317" lon="7.79693683">
                <time>2015-01-04T15:26:12.000Z</time>
                <sat>164</sat>
            </trkpt>
            <trkpt lat="49.82894717" lon="7.7969435">
                <time>2015-01-04T15:26:13.000Z</time>
                <sat>165</sat>
            </trkpt>
            <trkpt lat="49.82893133" lon="7.79695">
                <time>2015-01-04T15:26:14.000Z</time>
                <sat>165</sat>
            </trkpt>
            <trkpt lat="49.82891533" lon="7.79695667">
                <time>2015-01-04T15:26:15.000Z</time>
                <sat>165</sat>
            </trkpt>
            <trkpt lat="49.828899" lon="7.79696417">
                <time>2015-01-04T15:26:16.000Z</time>
                <sat>165</sat>
            </trkpt>
            <trkpt lat="49.828883" lon="7.79697183">
                <time>2015-01-04T15:26:17.000Z</time>
                <sat>165</sat>
            </trkpt>
            <trkpt lat="49.82886717" lon="7.79697933">
                <time>2015-01-04T15:26:18.000Z</time>
                <sat>165</sat>
            </trkpt>
            <trkpt lat="49.82885167" lon="7.79698617">
                <time>2015-01-04T15:26:19.000Z</time>
                <sat>165</sat>
            </trkpt>
            <trkpt lat="49.82883633" lon="7.79699233">
                <time>2015-01-04T15:26:20.000Z</time>
                <sat>165</sat>
            </trkpt>
            <trkpt lat="49.82882083" lon="7.79699783">
                <time>2015-01-04T15:26:21.000Z</time>
                <sat>165</sat>
            </trkpt>
            <trkpt lat="49.82880583" lon="7.79700283">
                <time>2015-01-04T15:26:22.000Z</time>
                <sat>166</sat>
            </trkpt>
            <trkpt lat="49.8287905" lon="7.79700833">
                <time>2015-01-04T15:26:23.000Z</time>
                <sat>166</sat>
            </trkpt>
            <trkpt lat="49.82877517" lon="7.79701433">
                <time>2015-01-04T15:26:24.000Z</time>
                <sat>166</sat>
            </trkpt>
            <trkpt lat="49.8287595" lon="7.79702083">
                <time>2015-01-04T15:26:25.000Z</time>
                <sat>166</sat>
            </trkpt>
            <trkpt lat="49.82874417" lon="7.79702683">
                <time>2015-01-04T15:26:26.000Z</time>
                <sat>166</sat>
            </trkpt>
            <trkpt lat="49.828729" lon="7.79703283">
                <time>2015-01-04T15:26:27.000Z</time>
                <sat>167</sat>
            </trkpt>
            <trkpt lat="49.82871317" lon="7.7970395">
                <time>2015-01-04T15:26:28.000Z</time>
                <sat>166</sat>
            </trkpt>
            <trkpt lat="49.8286975" lon="7.7970465">
                <time>2015-01-04T15:26:29.000Z</time>
                <sat>167</sat>
            </trkpt>
            <trkpt lat="49.82868167" lon="7.79705367">
                <time>2015-01-04T15:26:30.000Z</time>
                <sat>167</sat>
            </trkpt>
            <trkpt lat="49.82866617" lon="7.79706">
                <time>2015-01-04T15:26:31.000Z</time>
                <sat>167</sat>
            </trkpt>
            <trkpt lat="49.82865033" lon="7.79706667">
                <time>2015-01-04T15:26:32.000Z</time>
                <sat>167</sat>
            </trkpt>
            <trkpt lat="49.828634" lon="7.79707383">
                <time>2015-01-04T15:26:33.000Z</time>
                <sat>167</sat>
            </trkpt>
            <trkpt lat="49.82861767" lon="7.7970815">
                <time>2015-01-04T15:26:34.000Z</time>
                <sat>167</sat>
            </trkpt>
            <trkpt lat="49.82860117" lon="7.797088">
                <time>2015-01-04T15:26:35.000Z</time>
                <sat>166</sat>
            </trkpt>
            <trkpt lat="49.828585" lon="7.79709433">
                <time>2015-01-04T15:26:36.000Z</time>
                <sat>166</sat>
            </trkpt>
            <trkpt lat="49.82856883" lon="7.7971005">
                <time>2015-01-04T15:26:37.000Z</time>
                <sat>166</sat>
            </trkpt>
            <trkpt lat="49.8285525" lon="7.7971075">
                <time>2015-01-04T15:26:38.000Z</time>
                <sat>166</sat>
            </trkpt>
            <trkpt lat="49.82853617" lon="7.79711483">
                <time>2015-01-04T15:26:39.000Z</time>
                <sat>166</sat>
            </trkpt>
            <trkpt lat="49.8285195" lon="7.79712283">
                <time>2015-01-04T15:26:40.000Z</time>
                <sat>166</sat>
            </trkpt>
            <trkpt lat="49.82850317" lon="7.797131">
                <time>2015-01-04T15:26:41.000Z</time>
                <sat>166</sat>
            </trkpt>
            <trkpt lat="49.82848683" lon="7.79713917">
                <time>2015-01-04T15:26:42.000Z</time>
                <sat>166</sat>
            </trkpt>
            <trkpt lat="49.82847067" lon="7.79714733">
                <time>2015-01-04T15:26:43.000Z</time>
                <sat>166</sat>
            </trkpt>
            <trkpt lat="49.82845467" lon="7.797155">
                <time>2015-01-04T15:26:44.000Z</time>
                <sat>166</sat>
            </trkpt>
            <trkpt lat="49.8284385" lon="7.79716233">
                <time>2015-01-04T15:26:45.000Z</time>
                <sat>166</sat>
            </trkpt>
            <trkpt lat="49.82842267" lon="7.79716983">
                <time>2015-01-04T15:26:46.000Z</time>
                <sat>166</sat>
            </trkpt>
            <trkpt lat="49.8284065" lon="7.79717767">
                <time>2015-01-04T15:26:47.000Z</time>
                <sat>166</sat>
            </trkpt>
            <trkpt lat="49.8283905" lon="7.797186">
                <time>2015-01-04T15:26:48.000Z</time>
                <sat>166</sat>
            </trkpt>
            <trkpt lat="49.82837467" lon="7.7971945">
                <time>2015-01-04T15:26:49.000Z</time>
                <sat>166</sat>
            </trkpt>
            <trkpt lat="49.82835833" lon="7.79720317">
                <time>2015-01-04T15:26:50.000Z</time>
                <sat>166</sat>
            </trkpt>
            <trkpt lat="49.82834233" lon="7.79721183">
                <time>2015-01-04T15:26:51.000Z</time>
                <sat>166</sat>
            </trkpt>
            <trkpt lat="49.82832617" lon="7.79722">
                <time>2015-01-04T15:26:52.000Z</time>
                <sat>166</sat>
            </trkpt>
            <trkpt lat="49.82831" lon="7.79722767">
                <time>2015-01-04T15:26:53.000Z</time>
                <sat>166</sat>
            </trkpt>
            <trkpt lat="49.82829433" lon="7.79723533">
                <time>2015-01-04T15:26:54.000Z</time>
                <sat>166</sat>
            </trkpt>
            <trkpt lat="49.82827833" lon="7.797243">
                <time>2015-01-04T15:26:55.000Z</time>
                <sat>167</sat>
            </trkpt>
            <trkpt lat="49.82826267" lon="7.79725033">
                <time>2015-01-04T15:26:56.000Z</time>
                <sat>167</sat>
            </trkpt>
            <trkpt lat="49.82824667" lon="7.7972575">
                <time>2015-01-04T15:26:57.000Z</time>
                <sat>167</sat>
            </trkpt>
            <trkpt lat="49.82823083" lon="7.79726467">
                <time>2015-01-04T15:26:58.000Z</time>
                <sat>167</sat>
            </trkpt>
            <trkpt lat="49.8282155" lon="7.79727167">
                <time>2015-01-04T15:26:59.000Z</time>
                <sat>167</sat>
            </trkpt>
            <trkpt lat="49.82819983" lon="7.797279">
                <time>2015-01-04T15:27:00.000Z</time>
                <sat>167</sat>
            </trkpt>
            <trkpt lat="49.82818433" lon="7.79728667">
                <time>2015-01-04T15:27:01.000Z</time>
                <sat>168</sat>
            </trkpt>
            <trkpt lat="49.82816883" lon="7.79729483">
                <time>2015-01-04T15:27:02.000Z</time>
                <sat>168</sat>
            </trkpt>
            <trkpt lat="49.82815333" lon="7.797303">
                <time>2015-01-04T15:27:03.000Z</time>
                <sat>169</sat>
            </trkpt>
            <trkpt lat="49.82813833" lon="7.79731083">
                <time>2015-01-04T15:27:04.000Z</time>
                <sat>169</sat>
            </trkpt>
            <trkpt lat="49.82812317" lon="7.7973185">
                <time>2015-01-04T15:27:05.000Z</time>
                <sat>169</sat>
            </trkpt>
            <trkpt lat="49.828108" lon="7.79732683">
                <time>2015-01-04T15:27:06.000Z</time>
                <sat>169</sat>
            </trkpt>
            <trkpt lat="49.828093" lon="7.79733567">
                <time>2015-01-04T15:27:07.000Z</time>
                <sat>169</sat>
            </trkpt>
            <trkpt lat="49.82807683" lon="7.79734483">
                <time>2015-01-04T15:27:08.000Z</time>
                <sat>169</sat>
            </trkpt>
            <trkpt lat="49.828061" lon="7.79735317">
                <time>2015-01-04T15:27:09.000Z</time>
                <sat>169</sat>
            </trkpt>
            <trkpt lat="49.8280445" lon="7.797361">
                <time>2015-01-04T15:27:10.000Z</time>
                <sat>169</sat>
            </trkpt>
            <trkpt lat="49.82802817" lon="7.79736883">
                <time>2015-01-04T15:27:11.000Z</time>
                <sat>169</sat>
            </trkpt>
            <trkpt lat="49.8280115" lon="7.7973765">
                <time>2015-01-04T15:27:12.000Z</time>
                <sat>169</sat>
            </trkpt>
            <trkpt lat="49.82799483" lon="7.79738433">
                <time>2015-01-04T15:27:13.000Z</time>
                <sat>169</sat>
            </trkpt>
            <trkpt lat="49.82797867" lon="7.7973925">
                <time>2015-01-04T15:27:14.000Z</time>
                <sat>170</sat>
            </trkpt>
            <trkpt lat="49.82796267" lon="7.7974005">
                <time>2015-01-04T15:27:15.000Z</time>
                <sat>170</sat>
            </trkpt>
            <trkpt lat="49.827947" lon="7.7974085">
                <time>2015-01-04T15:27:16.000Z</time>
                <sat>170</sat>
            </trkpt>
            <trkpt lat="49.82793133" lon="7.79741617">
                <time>2015-01-04T15:27:17.000Z</time>
                <sat>170</sat>
            </trkpt>
            <trkpt lat="49.8279155" lon="7.79742417">
                <time>2015-01-04T15:27:18.000Z</time>
                <sat>171</sat>
            </trkpt>
            <trkpt lat="49.82789983" lon="7.79743267">
                <time>2015-01-04T15:27:19.000Z</time>
                <sat>171</sat>
            </trkpt>
            <trkpt lat="49.827884" lon="7.79744133">
                <time>2015-01-04T15:27:20.000Z</time>
                <sat>171</sat>
            </trkpt>
            <trkpt lat="49.82786833" lon="7.79744967">
                <time>2015-01-04T15:27:21.000Z</time>
                <sat>171</sat>
            </trkpt>
            <trkpt lat="49.82785267" lon="7.79745817">
                <time>2015-01-04T15:27:22.000Z</time>
                <sat>171</sat>
            </trkpt>
            <trkpt lat="49.82783667" lon="7.79746683">
                <time>2015-01-04T15:27:23.000Z</time>
                <sat>171</sat>
            </trkpt>
            <trkpt lat="49.82782117" lon="7.79747517">
                <time>2015-01-04T15:27:24.000Z</time>
                <sat>172</sat>
            </trkpt>
            <trkpt lat="49.82780533" lon="7.79748433">
                <time>2015-01-04T15:27:25.000Z</time>
                <sat>171</sat>
            </trkpt>
            <trkpt lat="49.8277895" lon="7.797494">
                <time>2015-01-04T15:27:26.000Z</time>
                <sat>171</sat>
            </trkpt>
            <trkpt lat="49.827774" lon="7.79750433">
                <time>2015-01-04T15:27:27.000Z</time>
                <sat>171</sat>
            </trkpt>
            <trkpt lat="49.82775883" lon="7.7975135">
                <time>2015-01-04T15:27:28.000Z</time>
                <sat>172</sat>
            </trkpt>
            <trkpt lat="49.82774317" lon="7.7975225">
                <time>2015-01-04T15:27:29.000Z</time>
                <sat>172</sat>
            </trkpt>
            <trkpt lat="49.8277275" lon="7.79753117">
                <time>2015-01-04T15:27:30.000Z</time>
                <sat>171</sat>
            </trkpt>
            <trkpt lat="49.82771117" lon="7.79753933">
                <time>2015-01-04T15:27:31.000Z</time>
                <sat>171</sat>
            </trkpt>
            <trkpt lat="49.82769517" lon="7.797547">
                <time>2015-01-04T15:27:32.000Z</time>
                <sat>171</sat>
            </trkpt>
            <trkpt lat="49.82767933" lon="7.7975545">
                <time>2015-01-04T15:27:33.000Z</time>
                <sat>172</sat>
            </trkpt>
            <trkpt lat="49.82766383" lon="7.79756217">
                <time>2015-01-04T15:27:34.000Z</time>
                <sat>172</sat>
            </trkpt>
            <trkpt lat="49.82764833" lon="7.79757017">
                <time>2015-01-04T15:27:35.000Z</time>
                <sat>172</sat>
            </trkpt>
            <trkpt lat="49.82763267" lon="7.7975775">
                <time>2015-01-04T15:27:36.000Z</time>
                <sat>172</sat>
            </trkpt>
            <trkpt lat="49.827617" lon="7.797585">
                <time>2015-01-04T15:27:37.000Z</time>
                <sat>172</sat>
            </trkpt>
            <trkpt lat="49.82760167" lon="7.79759317">
                <time>2015-01-04T15:27:38.000Z</time>
                <sat>172</sat>
            </trkpt>
            <trkpt lat="49.82758583" lon="7.79760267">
                <time>2015-01-04T15:27:39.000Z</time>
                <sat>173</sat>
            </trkpt>
            <trkpt lat="49.82757" lon="7.7976125">
                <time>2015-01-04T15:27:40.000Z</time>
                <sat>173</sat>
            </trkpt>
            <trkpt lat="49.827554" lon="7.797622">
                <time>2015-01-04T15:27:41.000Z</time>
                <sat>173</sat>
            </trkpt>
            <trkpt lat="49.82753833" lon="7.79763117">
                <time>2015-01-04T15:27:42.000Z</time>
                <sat>173</sat>
            </trkpt>
            <trkpt lat="49.82752267" lon="7.79764033">
                <time>2015-01-04T15:27:43.000Z</time>
                <sat>173</sat>
            </trkpt>
            <trkpt lat="49.8275065" lon="7.79764983">
                <time>2015-01-04T15:27:44.000Z</time>
                <sat>173</sat>
            </trkpt>
            <trkpt lat="49.82749067" lon="7.79765867">
                <time>2015-01-04T15:27:45.000Z</time>
                <sat>173</sat>
            </trkpt>
            <trkpt lat="49.82747417" lon="7.7976675">
                <time>2015-01-04T15:27:46.000Z</time>
                <sat>173</sat>
            </trkpt>
            <trkpt lat="49.82745817" lon="7.797675">
                <time>2015-01-04T15:27:47.000Z</time>
                <sat>172</sat>
            </trkpt>
            <trkpt lat="49.82744233" lon="7.7976825">
                <time>2015-01-04T15:27:48.000Z</time>
                <sat>172</sat>
            </trkpt>
            <trkpt lat="49.82742617" lon="7.79769017">
                <time>2015-01-04T15:27:49.000Z</time>
                <sat>172</sat>
            </trkpt>
            <trkpt lat="49.82741017" lon="7.7976985">
                <time>2015-01-04T15:27:50.000Z</time>
                <sat>172</sat>
            </trkpt>
            <trkpt lat="49.82739367" lon="7.79770683">
                <time>2015-01-04T15:27:51.000Z</time>
                <sat>172</sat>
            </trkpt>
            <trkpt lat="49.82737733" lon="7.79771533">
                <time>2015-01-04T15:27:52.000Z</time>
                <sat>172</sat>
            </trkpt>
            <trkpt lat="49.82736083" lon="7.79772417">
                <time>2015-01-04T15:27:53.000Z</time>
                <sat>172</sat>
            </trkpt>
            <trkpt lat="49.82734367" lon="7.79773267">
                <time>2015-01-04T15:27:54.000Z</time>
                <sat>172</sat>
            </trkpt>
            <trkpt lat="49.82732717" lon="7.79774167">
                <time>2015-01-04T15:27:55.000Z</time>
                <sat>172</sat>
            </trkpt>
            <trkpt lat="49.82731" lon="7.79775067">
                <time>2015-01-04T15:27:56.000Z</time>
                <sat>172</sat>
            </trkpt>
            <trkpt lat="49.827293" lon="7.79776017">
                <time>2015-01-04T15:27:57.000Z</time>
                <sat>171</sat>
            </trkpt>
            <trkpt lat="49.82727583" lon="7.79776867">
                <time>2015-01-04T15:27:58.000Z</time>
                <sat>171</sat>
            </trkpt>
            <trkpt lat="49.82725883" lon="7.79777667">
                <time>2015-01-04T15:27:59.000Z</time>
                <sat>172</sat>
            </trkpt>
            <trkpt lat="49.82724233" lon="7.797784">
                <time>2015-01-04T15:28:00.000Z</time>
                <sat>171</sat>
            </trkpt>
            <trkpt lat="49.8272255" lon="7.79779233">
                <time>2015-01-04T15:28:01.000Z</time>
                <sat>172</sat>
            </trkpt>
            <trkpt lat="49.82720883" lon="7.79780117">
                <time>2015-01-04T15:28:02.000Z</time>
                <sat>172</sat>
            </trkpt>
            <trkpt lat="49.8271915" lon="7.79781167">
                <time>2015-01-04T15:28:03.000Z</time>
                <sat>172</sat>
            </trkpt>
            <trkpt lat="49.82717467" lon="7.79782183">
                <time>2015-01-04T15:28:04.000Z</time>
                <sat>172</sat>
            </trkpt>
            <trkpt lat="49.82715717" lon="7.79783217">
                <time>2015-01-04T15:28:05.000Z</time>
                <sat>173</sat>
            </trkpt>
            <trkpt lat="49.82713983" lon="7.79784183">
                <time>2015-01-04T15:28:06.000Z</time>
                <sat>173</sat>
            </trkpt>
            <trkpt lat="49.82712233" lon="7.79785183">
                <time>2015-01-04T15:28:07.000Z</time>
                <sat>173</sat>
            </trkpt>
            <trkpt lat="49.82710483" lon="7.79786217">
                <time>2015-01-04T15:28:08.000Z</time>
                <sat>173</sat>
            </trkpt>
            <trkpt lat="49.82708767" lon="7.7978725">
                <time>2015-01-04T15:28:09.000Z</time>
                <sat>173</sat>
            </trkpt>
            <trkpt lat="49.8270705" lon="7.79788317">
                <time>2015-01-04T15:28:10.000Z</time>
                <sat>173</sat>
            </trkpt>
            <trkpt lat="49.82705383" lon="7.7978935">
                <time>2015-01-04T15:28:11.000Z</time>
                <sat>174</sat>
            </trkpt>
            <trkpt lat="49.8270375" lon="7.7979025">
                <time>2015-01-04T15:28:12.000Z</time>
                <sat>173</sat>
            </trkpt>
            <trkpt lat="49.82702167" lon="7.79790983">
                <time>2015-01-04T15:28:13.000Z</time>
                <sat>173</sat>
            </trkpt>
            <trkpt lat="49.82700583" lon="7.79791633">
                <time>2015-01-04T15:28:14.000Z</time>
                <sat>173</sat>
            </trkpt>
            <trkpt lat="49.82698933" lon="7.79792283">
                <time>2015-01-04T15:28:15.000Z</time>
                <sat>174</sat>
            </trkpt>
            <trkpt lat="49.826973" lon="7.797929">
                <time>2015-01-04T15:28:16.000Z</time>
                <sat>174</sat>
            </trkpt>
            <trkpt lat="49.826956" lon="7.7979345">
                <time>2015-01-04T15:28:17.000Z</time>
                <sat>174</sat>
            </trkpt>
            <trkpt lat="49.82693983" lon="7.79794033">
                <time>2015-01-04T15:28:18.000Z</time>
                <sat>174</sat>
            </trkpt>
            <trkpt lat="49.82692417" lon="7.797946">
                <time>2015-01-04T15:28:19.000Z</time>
                <sat>174</sat>
            </trkpt>
            <trkpt lat="49.82690933" lon="7.797952">
                <time>2015-01-04T15:28:20.000Z</time>
                <sat>173</sat>
            </trkpt>
            <trkpt lat="49.826895" lon="7.797959">
                <time>2015-01-04T15:28:21.000Z</time>
                <sat>174</sat>
            </trkpt>
            <trkpt lat="49.82687983" lon="7.7979665">
                <time>2015-01-04T15:28:22.000Z</time>
                <sat>174</sat>
            </trkpt>
            <trkpt lat="49.82686533" lon="7.79797467">
                <time>2015-01-04T15:28:23.000Z</time>
                <sat>174</sat>
            </trkpt>
            <trkpt lat="49.8268505" lon="7.797983">
                <time>2015-01-04T15:28:24.000Z</time>
                <sat>174</sat>
            </trkpt>
            <trkpt lat="49.82683567" lon="7.79799267">
                <time>2015-01-04T15:28:25.000Z</time>
                <sat>175</sat>
            </trkpt>
            <trkpt lat="49.82682083" lon="7.79800283">
                <time>2015-01-04T15:28:26.000Z</time>
                <sat>175</sat>
            </trkpt>
            <trkpt lat="49.8268055" lon="7.7980135">
                <time>2015-01-04T15:28:27.000Z</time>
                <sat>175</sat>
            </trkpt>
            <trkpt lat="49.82679067" lon="7.79802367">
                <time>2015-01-04T15:28:28.000Z</time>
                <sat>175</sat>
            </trkpt>
            <trkpt lat="49.82677517" lon="7.798034">
                <time>2015-01-04T15:28:29.000Z</time>
                <sat>174</sat>
            </trkpt>
            <trkpt lat="49.82676017" lon="7.79804383">
                <time>2015-01-04T15:28:30.000Z</time>
                <sat>174</sat>
            </trkpt>
            <trkpt lat="49.82674517" lon="7.7980535">
                <time>2015-01-04T15:28:31.000Z</time>
                <sat>174</sat>
            </trkpt>
            <trkpt lat="49.82673067" lon="7.7980625">
                <time>2015-01-04T15:28:32.000Z</time>
                <sat>174</sat>
            </trkpt>
            <trkpt lat="49.82671667" lon="7.7980715">
                <time>2015-01-04T15:28:33.000Z</time>
                <sat>174</sat>
            </trkpt>
            <trkpt lat="49.8267015" lon="7.79807983">
                <time>2015-01-04T15:28:34.000Z</time>
                <sat>175</sat>
            </trkpt>
            <trkpt lat="49.82668667" lon="7.798088">
                <time>2015-01-04T15:28:35.000Z</time>
                <sat>174</sat>
            </trkpt>
            <trkpt lat="49.8266715" lon="7.79809633">
                <time>2015-01-04T15:28:36.000Z</time>
                <sat>175</sat>
            </trkpt>
            <trkpt lat="49.826657" lon="7.7981045">
                <time>2015-01-04T15:28:37.000Z</time>
                <sat>176</sat>
            </trkpt>
            <trkpt lat="49.82664217" lon="7.79811333">
                <time>2015-01-04T15:28:38.000Z</time>
                <sat>176</sat>
            </trkpt>
            <trkpt lat="49.82662667" lon="7.79812217">
                <time>2015-01-04T15:28:39.000Z</time>
                <sat>176</sat>
            </trkpt>
            <trkpt lat="49.82661083" lon="7.79813167">
                <time>2015-01-04T15:28:40.000Z</time>
                <sat>176</sat>
            </trkpt>
            <trkpt lat="49.82659517" lon="7.798141">
                <time>2015-01-04T15:28:41.000Z</time>
                <sat>175</sat>
            </trkpt>
            <trkpt lat="49.8265795" lon="7.79814983">
                <time>2015-01-04T15:28:42.000Z</time>
                <sat>175</sat>
            </trkpt>
            <trkpt lat="49.82656467" lon="7.7981575">
                <time>2015-01-04T15:28:43.000Z</time>
                <sat>175</sat>
            </trkpt>
            <trkpt lat="49.8265495" lon="7.79816383">
                <time>2015-01-04T15:28:44.000Z</time>
                <sat>175</sat>
            </trkpt>
            <trkpt lat="49.8265345" lon="7.798169">
                <time>2015-01-04T15:28:45.000Z</time>
                <sat>175</sat>
            </trkpt>
            <trkpt lat="49.826519" lon="7.79817333">
                <time>2015-01-04T15:28:46.000Z</time>
                <sat>175</sat>
            </trkpt>
            <trkpt lat="49.82650267" lon="7.79817783">
                <time>2015-01-04T15:28:47.000Z</time>
                <sat>175</sat>
            </trkpt>
            <trkpt lat="49.8264865" lon="7.79818283">
                <time>2015-01-04T15:28:48.000Z</time>
                <sat>175</sat>
            </trkpt>
            <trkpt lat="49.82646933" lon="7.79818833">
                <time>2015-01-04T15:28:49.000Z</time>
                <sat>176</sat>
            </trkpt>
            <trkpt lat="49.826453" lon="7.79819367">
                <time>2015-01-04T15:28:50.000Z</time>
                <sat>176</sat>
            </trkpt>
            <trkpt lat="49.82643583" lon="7.79819817">
                <time>2015-01-04T15:28:51.000Z</time>
                <sat>176</sat>
            </trkpt>
            <trkpt lat="49.82641867" lon="7.79820233">
                <time>2015-01-04T15:28:52.000Z</time>
                <sat>177</sat>
            </trkpt>
            <trkpt lat="49.82640183" lon="7.79820667">
                <time>2015-01-04T15:28:53.000Z</time>
                <sat>177</sat>
            </trkpt>
            <trkpt lat="49.82638483" lon="7.79821183">
                <time>2015-01-04T15:28:54.000Z</time>
                <sat>178</sat>
            </trkpt>
            <trkpt lat="49.82636833" lon="7.79821733">
                <time>2015-01-04T15:28:55.000Z</time>
                <sat>178</sat>
            </trkpt>
            <trkpt lat="49.8263515" lon="7.7982225">
                <time>2015-01-04T15:28:56.000Z</time>
                <sat>178</sat>
            </trkpt>
            <trkpt lat="49.82633417" lon="7.79822667">
                <time>2015-01-04T15:28:57.000Z</time>
                <sat>178</sat>
            </trkpt>
            <trkpt lat="49.82631717" lon="7.7982305">
                <time>2015-01-04T15:28:58.000Z</time>
                <sat>178</sat>
            </trkpt>
            <trkpt lat="49.82630017" lon="7.7982345">
                <time>2015-01-04T15:28:59.000Z</time>
                <sat>178</sat>
            </trkpt>
            <trkpt lat="49.82628367" lon="7.7982385">
                <time>2015-01-04T15:29:00.000Z</time>
                <sat>179</sat>
            </trkpt>
            <trkpt lat="49.82626717" lon="7.7982425">
                <time>2015-01-04T15:29:01.000Z</time>
                <sat>179</sat>
            </trkpt>
            <trkpt lat="49.82625033" lon="7.79824567">
                <time>2015-01-04T15:29:02.000Z</time>
                <sat>179</sat>
            </trkpt>
            <trkpt lat="49.82623383" lon="7.798249">
                <time>2015-01-04T15:29:03.000Z</time>
                <sat>178</sat>
            </trkpt>
            <trkpt lat="49.826217" lon="7.79825183">
                <time>2015-01-04T15:29:04.000Z</time>
                <sat>179</sat>
            </trkpt>
            <trkpt lat="49.8262005" lon="7.79825433">
                <time>2015-01-04T15:29:05.000Z</time>
                <sat>179</sat>
            </trkpt>
            <trkpt lat="49.82618433" lon="7.79825667">
                <time>2015-01-04T15:29:06.000Z</time>
                <sat>179</sat>
            </trkpt>
            <trkpt lat="49.82616767" lon="7.7982585">
                <time>2015-01-04T15:29:07.000Z</time>
                <sat>179</sat>
            </trkpt>
            <trkpt lat="49.82615133" lon="7.798261">
                <time>2015-01-04T15:29:08.000Z</time>
                <sat>179</sat>
            </trkpt>
            <trkpt lat="49.8261345" lon="7.7982635">
                <time>2015-01-04T15:29:09.000Z</time>
                <sat>179</sat>
            </trkpt>
            <trkpt lat="49.826118" lon="7.79826567">
                <time>2015-01-04T15:29:10.000Z</time>
                <sat>179</sat>
            </trkpt>
            <trkpt lat="49.8261015" lon="7.798267">
                <time>2015-01-04T15:29:11.000Z</time>
                <sat>179</sat>
            </trkpt>
            <trkpt lat="49.82608517" lon="7.79826717">
                <time>2015-01-04T15:29:12.000Z</time>
                <sat>179</sat>
            </trkpt>
            <trkpt lat="49.82606917" lon="7.7982675">
                <time>2015-01-04T15:29:13.000Z</time>
                <sat>179</sat>
            </trkpt>
            <trkpt lat="49.82605283" lon="7.79826833">
                <time>2015-01-04T15:29:14.000Z</time>
                <sat>179</sat>
            </trkpt>
            <trkpt lat="49.82603683" lon="7.79826933">
                <time>2015-01-04T15:29:15.000Z</time>
                <sat>179</sat>
            </trkpt>
            <trkpt lat="49.826021" lon="7.79827067">
                <time>2015-01-04T15:29:16.000Z</time>
                <sat>179</sat>
            </trkpt>
            <trkpt lat="49.8260055" lon="7.7982715">
                <time>2015-01-04T15:29:17.000Z</time>
                <sat>179</sat>
            </trkpt>
            <trkpt lat="49.82599033" lon="7.79827267">
                <time>2015-01-04T15:29:18.000Z</time>
                <sat>179</sat>
            </trkpt>
            <trkpt lat="49.82597517" lon="7.79827333">
                <time>2015-01-04T15:29:19.000Z</time>
                <sat>179</sat>
            </trkpt>
            <trkpt lat="49.82596017" lon="7.79827317">
                <time>2015-01-04T15:29:20.000Z</time>
                <sat>179</sat>
            </trkpt>
            <trkpt lat="49.8259455" lon="7.79827267">
                <time>2015-01-04T15:29:21.000Z</time>
                <sat>179</sat>
            </trkpt>
            <trkpt lat="49.82593083" lon="7.79827117">
                <time>2015-01-04T15:29:22.000Z</time>
                <sat>179</sat>
            </trkpt>
            <trkpt lat="49.8259165" lon="7.79826967">
                <time>2015-01-04T15:29:23.000Z</time>
                <sat>179</sat>
            </trkpt>
            <trkpt lat="49.82590267" lon="7.79826733">
                <time>2015-01-04T15:29:24.000Z</time>
                <sat>179</sat>
            </trkpt>
            <trkpt lat="49.82588883" lon="7.79826517">
                <time>2015-01-04T15:29:25.000Z</time>
                <sat>179</sat>
            </trkpt>
            <trkpt lat="49.82587517" lon="7.79826317">
                <time>2015-01-04T15:29:26.000Z</time>
                <sat>179</sat>
            </trkpt>
            <trkpt lat="49.82586117" lon="7.79826167">
                <time>2015-01-04T15:29:27.000Z</time>
                <sat>179</sat>
            </trkpt>
            <trkpt lat="49.8258475" lon="7.79826">
                <time>2015-01-04T15:29:28.000Z</time>
                <sat>179</sat>
            </trkpt>
            <trkpt lat="49.825834" lon="7.79825817">
                <time>2015-01-04T15:29:29.000Z</time>
                <sat>180</sat>
            </trkpt>
            <trkpt lat="49.82582067" lon="7.79825633">
                <time>2015-01-04T15:29:30.000Z</time>
                <sat>180</sat>
            </trkpt>
            <trkpt lat="49.82580733" lon="7.7982545">
                <time>2015-01-04T15:29:31.000Z</time>
                <sat>180</sat>
            </trkpt>
            <trkpt lat="49.82579383" lon="7.79825317">
                <time>2015-01-04T15:29:32.000Z</time>
                <sat>180</sat>
            </trkpt>
            <trkpt lat="49.82578" lon="7.7982515">
                <time>2015-01-04T15:29:33.000Z</time>
                <sat>180</sat>
            </trkpt>
            <trkpt lat="49.8257665" lon="7.79824983">
                <time>2015-01-04T15:29:34.000Z</time>
                <sat>180</sat>
            </trkpt>
            <trkpt lat="49.825753" lon="7.79824667">
                <time>2015-01-04T15:29:35.000Z</time>
                <sat>180</sat>
            </trkpt>
            <trkpt lat="49.82573983" lon="7.79824283">
                <time>2015-01-04T15:29:36.000Z</time>
                <sat>179</sat>
            </trkpt>
            <trkpt lat="49.82572617" lon="7.79823867">
                <time>2015-01-04T15:29:37.000Z</time>
                <sat>180</sat>
            </trkpt>
            <trkpt lat="49.825712" lon="7.79823517">
                <time>2015-01-04T15:29:38.000Z</time>
                <sat>180</sat>
            </trkpt>
            <trkpt lat="49.8256975" lon="7.79823167">
                <time>2015-01-04T15:29:39.000Z</time>
                <sat>180</sat>
            </trkpt>
            <trkpt lat="49.82568267" lon="7.79822767">
                <time>2015-01-04T15:29:40.000Z</time>
                <sat>180</sat>
            </trkpt>
            <trkpt lat="49.82566767" lon="7.79822333">
                <time>2015-01-04T15:29:41.000Z</time>
                <sat>180</sat>
            </trkpt>
            <trkpt lat="49.8256525" lon="7.79821967">
                <time>2015-01-04T15:29:42.000Z</time>
                <sat>181</sat>
            </trkpt>
            <trkpt lat="49.82563767" lon="7.79821633">
                <time>2015-01-04T15:29:43.000Z</time>
                <sat>182</sat>
            </trkpt>
            <trkpt lat="49.825623" lon="7.79821267">
                <time>2015-01-04T15:29:44.000Z</time>
                <sat>182</sat>
            </trkpt>
            <trkpt lat="49.8256085" lon="7.7982085">
                <time>2015-01-04T15:29:45.000Z</time>
                <sat>182</sat>
            </trkpt>
            <trkpt lat="49.82559467" lon="7.79820367">
                <time>2015-01-04T15:29:46.000Z</time>
                <sat>181</sat>
            </trkpt>
            <trkpt lat="49.82558067" lon="7.79819867">
                <time>2015-01-04T15:29:47.000Z</time>
                <sat>181</sat>
            </trkpt>
            <trkpt lat="49.825567" lon="7.79819283">
                <time>2015-01-04T15:29:48.000Z</time>
                <sat>181</sat>
            </trkpt>
            <trkpt lat="49.8255535" lon="7.798187">
                <time>2015-01-04T15:29:49.000Z</time>
                <sat>181</sat>
            </trkpt>
            <trkpt lat="49.82554033" lon="7.798181">
                <time>2015-01-04T15:29:50.000Z</time>
                <sat>181</sat>
            </trkpt>
            <trkpt lat="49.825527" lon="7.79817483">
                <time>2015-01-04T15:29:51.000Z</time>
                <sat>182</sat>
            </trkpt>
            <trkpt lat="49.82551333" lon="7.798168">
                <time>2015-01-04T15:29:52.000Z</time>
                <sat>182</sat>
            </trkpt>
            <trkpt lat="49.8254995" lon="7.798161">
                <time>2015-01-04T15:29:53.000Z</time>
                <sat>182</sat>
            </trkpt>
            <trkpt lat="49.82548567" lon="7.79815367">
                <time>2015-01-04T15:29:54.000Z</time>
                <sat>182</sat>
            </trkpt>
            <trkpt lat="49.82547233" lon="7.7981465">
                <time>2015-01-04T15:29:55.000Z</time>
                <sat>182</sat>
            </trkpt>
            <trkpt lat="49.82545917" lon="7.79813867">
                <time>2015-01-04T15:29:56.000Z</time>
                <sat>182</sat>
            </trkpt>
            <trkpt lat="49.82544583" lon="7.79813083">
                <time>2015-01-04T15:29:57.000Z</time>
                <sat>182</sat>
            </trkpt>
            <trkpt lat="49.82543267" lon="7.798123">
                <time>2015-01-04T15:29:58.000Z</time>
                <sat>182</sat>
            </trkpt>
            <trkpt lat="49.82541917" lon="7.79811533">
                <time>2015-01-04T15:29:59.000Z</time>
                <sat>183</sat>
            </trkpt>
            <trkpt lat="49.8254055" lon="7.79810817">
                <time>2015-01-04T15:30:00.000Z</time>
                <sat>183</sat>
            </trkpt>
            <trkpt lat="49.825392" lon="7.79810067">
                <time>2015-01-04T15:30:01.000Z</time>
                <sat>183</sat>
            </trkpt>
            <trkpt lat="49.82537867" lon="7.79809283">
                <time>2015-01-04T15:30:02.000Z</time>
                <sat>183</sat>
            </trkpt>
            <trkpt lat="49.8253655" lon="7.798085">
                <time>2015-01-04T15:30:03.000Z</time>
                <sat>183</sat>
            </trkpt>
            <trkpt lat="49.82535267" lon="7.79807767">
                <time>2015-01-04T15:30:04.000Z</time>
                <sat>183</sat>
            </trkpt>
            <trkpt lat="49.8253395" lon="7.79806983">
                <time>2015-01-04T15:30:05.000Z</time>
                <sat>183</sat>
            </trkpt>
            <trkpt lat="49.82532667" lon="7.79806183">
                <time>2015-01-04T15:30:06.000Z</time>
                <sat>183</sat>
            </trkpt>
            <trkpt lat="49.82531383" lon="7.798054">
                <time>2015-01-04T15:30:07.000Z</time>
                <sat>183</sat>
            </trkpt>
            <trkpt lat="49.8253005" lon="7.798047">
                <time>2015-01-04T15:30:08.000Z</time>
                <sat>183</sat>
            </trkpt>
            <trkpt lat="49.82528683" lon="7.79804083">
                <time>2015-01-04T15:30:09.000Z</time>
                <sat>184</sat>
            </trkpt>
            <trkpt lat="49.82527333" lon="7.79803533">
                <time>2015-01-04T15:30:10.000Z</time>
                <sat>185</sat>
            </trkpt>
            <trkpt lat="49.82525967" lon="7.79803033">
                <time>2015-01-04T15:30:11.000Z</time>
                <sat>184</sat>
            </trkpt>
            <trkpt lat="49.82524567" lon="7.79802517">
                <time>2015-01-04T15:30:12.000Z</time>
                <sat>185</sat>
            </trkpt>
            <trkpt lat="49.82523133" lon="7.79802033">
                <time>2015-01-04T15:30:13.000Z</time>
                <sat>186</sat>
            </trkpt>
            <trkpt lat="49.825217" lon="7.79801567">
                <time>2015-01-04T15:30:14.000Z</time>
                <sat>186</sat>
            </trkpt>
            <trkpt lat="49.82520217" lon="7.79801133">
                <time>2015-01-04T15:30:15.000Z</time>
                <sat>186</sat>
            </trkpt>
            <trkpt lat="49.82518733" lon="7.798007">
                <time>2015-01-04T15:30:16.000Z</time>
                <sat>187</sat>
            </trkpt>
            <trkpt lat="49.8251725" lon="7.79800283">
                <time>2015-01-04T15:30:17.000Z</time>
                <sat>187</sat>
            </trkpt>
            <trkpt lat="49.82515733" lon="7.797999">
                <time>2015-01-04T15:30:18.000Z</time>
                <sat>188</sat>
            </trkpt>
            <trkpt lat="49.82514233" lon="7.7979945">
                <time>2015-01-04T15:30:19.000Z</time>
                <sat>188</sat>
            </trkpt>
            <trkpt lat="49.825128" lon="7.7979895">
                <time>2015-01-04T15:30:20.000Z</time>
                <sat>188</sat>
            </trkpt>
            <trkpt lat="49.82511417" lon="7.797984">
                <time>2015-01-04T15:30:21.000Z</time>
                <sat>188</sat>
            </trkpt>
            <trkpt lat="49.8251005" lon="7.7979785">
                <time>2015-01-04T15:30:22.000Z</time>
                <sat>188</sat>
            </trkpt>
            <trkpt lat="49.82508717" lon="7.79797283">
                <time>2015-01-04T15:30:23.000Z</time>
                <sat>188</sat>
            </trkpt>
            <trkpt lat="49.82507433" lon="7.79796667">
                <time>2015-01-04T15:30:24.000Z</time>
                <sat>188</sat>
            </trkpt>
            <trkpt lat="49.82506167" lon="7.79795983">
                <time>2015-01-04T15:30:25.000Z</time>
                <sat>188</sat>
            </trkpt>
            <trkpt lat="49.825049" lon="7.79795317">
                <time>2015-01-04T15:30:26.000Z</time>
                <sat>188</sat>
            </trkpt>
            <trkpt lat="49.82503667" lon="7.79794717">
                <time>2015-01-04T15:30:27.000Z</time>
                <sat>189</sat>
            </trkpt>
            <trkpt lat="49.82502417" lon="7.79794183">
                <time>2015-01-04T15:30:28.000Z</time>
                <sat>189</sat>
            </trkpt>
            <trkpt lat="49.82501217" lon="7.79793683">
                <time>2015-01-04T15:30:29.000Z</time>
                <sat>189</sat>
            </trkpt>
            <trkpt lat="49.825" lon="7.79793217">
                <time>2015-01-04T15:30:30.000Z</time>
                <sat>190</sat>
            </trkpt>
            <trkpt lat="49.82498717" lon="7.797927">
                <time>2015-01-04T15:30:31.000Z</time>
                <sat>190</sat>
            </trkpt>
            <trkpt lat="49.82497467" lon="7.7979215">
                <time>2015-01-04T15:30:32.000Z</time>
                <sat>190</sat>
            </trkpt>
            <trkpt lat="49.82496217" lon="7.79791533">
                <time>2015-01-04T15:30:33.000Z</time>
                <sat>191</sat>
            </trkpt>
            <trkpt lat="49.82495033" lon="7.7979085">
                <time>2015-01-04T15:30:34.000Z</time>
                <sat>191</sat>
            </trkpt>
            <trkpt lat="49.82493817" lon="7.7979015">
                <time>2015-01-04T15:30:35.000Z</time>
                <sat>191</sat>
            </trkpt>
            <trkpt lat="49.8249255" lon="7.79789467">
                <time>2015-01-04T15:30:36.000Z</time>
                <sat>192</sat>
            </trkpt>
            <trkpt lat="49.82491267" lon="7.7978885">
                <time>2015-01-04T15:30:37.000Z</time>
                <sat>192</sat>
            </trkpt>
            <trkpt lat="49.82489983" lon="7.797883">
                <time>2015-01-04T15:30:38.000Z</time>
                <sat>192</sat>
            </trkpt>
            <trkpt lat="49.824887" lon="7.79787783">
                <time>2015-01-04T15:30:39.000Z</time>
                <sat>192</sat>
            </trkpt>
            <trkpt lat="49.82487417" lon="7.79787283">
                <time>2015-01-04T15:30:40.000Z</time>
                <sat>192</sat>
            </trkpt>
            <trkpt lat="49.82486067" lon="7.79786817">
                <time>2015-01-04T15:30:41.000Z</time>
                <sat>192</sat>
            </trkpt>
            <trkpt lat="49.824847" lon="7.79786383">
                <time>2015-01-04T15:30:42.000Z</time>
                <sat>192</sat>
            </trkpt>
            <trkpt lat="49.82483383" lon="7.79785967">
                <time>2015-01-04T15:30:43.000Z</time>
                <sat>192</sat>
            </trkpt>
            <trkpt lat="49.82482033" lon="7.79785583">
                <time>2015-01-04T15:30:44.000Z</time>
                <sat>192</sat>
            </trkpt>
            <trkpt lat="49.82480633" lon="7.79785167">
                <time>2015-01-04T15:30:45.000Z</time>
                <sat>192</sat>
            </trkpt>
            <trkpt lat="49.82479233" lon="7.79784833">
                <time>2015-01-04T15:30:46.000Z</time>
                <sat>192</sat>
            </trkpt>
            <trkpt lat="49.82477833" lon="7.797845">
                <time>2015-01-04T15:30:47.000Z</time>
                <sat>192</sat>
            </trkpt>
            <trkpt lat="49.82476433" lon="7.797842">
                <time>2015-01-04T15:30:48.000Z</time>
                <sat>192</sat>
            </trkpt>
            <trkpt lat="49.82475033" lon="7.79783933">
                <time>2015-01-04T15:30:49.000Z</time>
                <sat>192</sat>
            </trkpt>
            <trkpt lat="49.8247365" lon="7.79783733">
                <time>2015-01-04T15:30:50.000Z</time>
                <sat>192</sat>
            </trkpt>
            <trkpt lat="49.824723" lon="7.79783567">
                <time>2015-01-04T15:30:51.000Z</time>
                <sat>192</sat>
            </trkpt>
            <trkpt lat="49.8247095" lon="7.79783383">
                <time>2015-01-04T15:30:52.000Z</time>
                <sat>192</sat>
            </trkpt>
            <trkpt lat="49.82469633" lon="7.79783283">
                <time>2015-01-04T15:30:53.000Z</time>
                <sat>192</sat>
            </trkpt>
            <trkpt lat="49.82468317" lon="7.79783233">
                <time>2015-01-04T15:30:54.000Z</time>
                <sat>192</sat>
            </trkpt>
            <trkpt lat="49.82467017" lon="7.79783233">
                <time>2015-01-04T15:30:55.000Z</time>
                <sat>192</sat>
            </trkpt>
            <trkpt lat="49.82465717" lon="7.797833">
                <time>2015-01-04T15:30:56.000Z</time>
                <sat>192</sat>
            </trkpt>
            <trkpt lat="49.82464417" lon="7.79783433">
                <time>2015-01-04T15:30:57.000Z</time>
                <sat>192</sat>
            </trkpt>
            <trkpt lat="49.82463117" lon="7.79783633">
                <time>2015-01-04T15:30:58.000Z</time>
                <sat>192</sat>
            </trkpt>
            <trkpt lat="49.82461867" lon="7.79783733">
                <time>2015-01-04T15:30:59.000Z</time>
                <sat>192</sat>
            </trkpt>
            <trkpt lat="49.82460633" lon="7.79783867">
                <time>2015-01-04T15:31:00.000Z</time>
                <sat>192</sat>
            </trkpt>
            <trkpt lat="49.82459333" lon="7.79784">
                <time>2015-01-04T15:31:01.000Z</time>
                <sat>192</sat>
            </trkpt>
            <trkpt lat="49.82458017" lon="7.79784217">
                <time>2015-01-04T15:31:02.000Z</time>
                <sat>192</sat>
            </trkpt>
            <trkpt lat="49.82456667" lon="7.79784467">
                <time>2015-01-04T15:31:03.000Z</time>
                <sat>192</sat>
            </trkpt>
            <trkpt lat="49.82455383" lon="7.79784733">
                <time>2015-01-04T15:31:04.000Z</time>
                <sat>192</sat>
            </trkpt>
            <trkpt lat="49.82454117" lon="7.79784967">
                <time>2015-01-04T15:31:05.000Z</time>
                <sat>192</sat>
            </trkpt>
            <trkpt lat="49.82452867" lon="7.79785217">
                <time>2015-01-04T15:31:06.000Z</time>
                <sat>193</sat>
            </trkpt>
            <trkpt lat="49.824516" lon="7.79785483">
                <time>2015-01-04T15:31:07.000Z</time>
                <sat>192</sat>
            </trkpt>
            <trkpt lat="49.824503" lon="7.79785833">
                <time>2015-01-04T15:31:08.000Z</time>
                <sat>193</sat>
            </trkpt>
            <trkpt lat="49.82449" lon="7.797862">
                <time>2015-01-04T15:31:09.000Z</time>
                <sat>193</sat>
            </trkpt>
            <trkpt lat="49.82447717" lon="7.79786617">
                <time>2015-01-04T15:31:10.000Z</time>
                <sat>193</sat>
            </trkpt>
            <trkpt lat="49.82446467" lon="7.79787017">
                <time>2015-01-04T15:31:11.000Z</time>
                <sat>193</sat>
            </trkpt>
            <trkpt lat="49.82445217" lon="7.79787417">
                <time>2015-01-04T15:31:12.000Z</time>
                <sat>193</sat>
            </trkpt>
            <trkpt lat="49.82443983" lon="7.79787833">
                <time>2015-01-04T15:31:13.000Z</time>
                <sat>192</sat>
            </trkpt>
            <trkpt lat="49.82442733" lon="7.79788283">
                <time>2015-01-04T15:31:14.000Z</time>
                <sat>192</sat>
            </trkpt>
            <trkpt lat="49.82441467" lon="7.79788717">
                <time>2015-01-04T15:31:15.000Z</time>
                <sat>192</sat>
            </trkpt>
            <trkpt lat="49.82440167" lon="7.7978925">
                <time>2015-01-04T15:31:16.000Z</time>
                <sat>193</sat>
            </trkpt>
            <trkpt lat="49.824389" lon="7.797898">
                <time>2015-01-04T15:31:17.000Z</time>
                <sat>193</sat>
            </trkpt>
            <trkpt lat="49.82437583" lon="7.79790433">
                <time>2015-01-04T15:31:18.000Z</time>
                <sat>193</sat>
            </trkpt>
            <trkpt lat="49.824363" lon="7.79791083">
                <time>2015-01-04T15:31:19.000Z</time>
                <sat>193</sat>
            </trkpt>
            <trkpt lat="49.82435033" lon="7.797918">
                <time>2015-01-04T15:31:20.000Z</time>
                <sat>193</sat>
            </trkpt>
            <trkpt lat="49.8243375" lon="7.797926">
                <time>2015-01-04T15:31:21.000Z</time>
                <sat>193</sat>
            </trkpt>
            <trkpt lat="49.8243245" lon="7.797935">
                <time>2015-01-04T15:31:22.000Z</time>
                <sat>194</sat>
            </trkpt>
            <trkpt lat="49.82431217" lon="7.797944">
                <time>2015-01-04T15:31:23.000Z</time>
                <sat>194</sat>
            </trkpt>
            <trkpt lat="49.82430017" lon="7.79795367">
                <time>2015-01-04T15:31:24.000Z</time>
                <sat>194</sat>
            </trkpt>
            <trkpt lat="49.82428783" lon="7.79796333">
                <time>2015-01-04T15:31:25.000Z</time>
                <sat>195</sat>
            </trkpt>
            <trkpt lat="49.82427567" lon="7.79797317">
                <time>2015-01-04T15:31:26.000Z</time>
                <sat>195</sat>
            </trkpt>
            <trkpt lat="49.82426333" lon="7.79798283">
                <time>2015-01-04T15:31:27.000Z</time>
                <sat>196</sat>
            </trkpt>
            <trkpt lat="49.8242515" lon="7.79799167">
                <time>2015-01-04T15:31:28.000Z</time>
                <sat>196</sat>
            </trkpt>
            <trkpt lat="49.82423883" lon="7.79800117">
                <time>2015-01-04T15:31:29.000Z</time>
                <sat>196</sat>
            </trkpt>
            <trkpt lat="49.82422633" lon="7.79801067">
                <time>2015-01-04T15:31:30.000Z</time>
                <sat>196</sat>
            </trkpt>
            <trkpt lat="49.824214" lon="7.79802217">
                <time>2015-01-04T15:31:31.000Z</time>
                <sat>197</sat>
            </trkpt>
            <trkpt lat="49.824202" lon="7.79803433">
                <time>2015-01-04T15:31:32.000Z</time>
                <sat>197</sat>
            </trkpt>
            <trkpt lat="49.82419067" lon="7.79804683">
                <time>2015-01-04T15:31:33.000Z</time>
                <sat>197</sat>
            </trkpt>
            <trkpt lat="49.82418" lon="7.79805917">
                <time>2015-01-04T15:31:34.000Z</time>
                <sat>197</sat>
            </trkpt>
            <trkpt lat="49.82416983" lon="7.79807117">
                <time>2015-01-04T15:31:35.000Z</time>
                <sat>198</sat>
            </trkpt>
            <trkpt lat="49.82415983" lon="7.79808333">
                <time>2015-01-04T15:31:36.000Z</time>
                <sat>198</sat>
            </trkpt>
            <trkpt lat="49.82415017" lon="7.79809533">
                <time>2015-01-04T15:31:37.000Z</time>
                <sat>198</sat>
            </trkpt>
            <trkpt lat="49.8241415" lon="7.79810717">
                <time>2015-01-04T15:31:38.000Z</time>
                <sat>198</sat>
            </trkpt>
            <trkpt lat="49.82413233" lon="7.798119">
                <time>2015-01-04T15:31:39.000Z</time>
                <sat>198</sat>
            </trkpt>
            <trkpt lat="49.82412333" lon="7.79813067">
                <time>2015-01-04T15:31:40.000Z</time>
                <sat>199</sat>
            </trkpt>
            <trkpt lat="49.82411417" lon="7.798142">
                <time>2015-01-04T15:31:41.000Z</time>
                <sat>199</sat>
            </trkpt>
            <trkpt lat="49.824105" lon="7.798153">
                <time>2015-01-04T15:31:42.000Z</time>
                <sat>199</sat>
            </trkpt>
            <trkpt lat="49.82409517" lon="7.79816383">
                <time>2015-01-04T15:31:43.000Z</time>
                <sat>199</sat>
            </trkpt>
            <trkpt lat="49.82408483" lon="7.79817433">
                <time>2015-01-04T15:31:44.000Z</time>
                <sat>200</sat>
            </trkpt>
            <trkpt lat="49.8240745" lon="7.79818417">
                <time>2015-01-04T15:31:45.000Z</time>
                <sat>200</sat>
            </trkpt>
            <trkpt lat="49.82406383" lon="7.7981935">
                <time>2015-01-04T15:31:46.000Z</time>
                <sat>200</sat>
            </trkpt>
            <trkpt lat="49.82405267" lon="7.798203">
                <time>2015-01-04T15:31:47.000Z</time>
                <sat>200</sat>
            </trkpt>
            <trkpt lat="49.824041" lon="7.798212">
                <time>2015-01-04T15:31:48.000Z</time>
                <sat>200</sat>
            </trkpt>
            <trkpt lat="49.82402933" lon="7.79822067">
                <time>2015-01-04T15:31:49.000Z</time>
                <sat>201</sat>
            </trkpt>
            <trkpt lat="49.82401767" lon="7.79822867">
                <time>2015-01-04T15:31:50.000Z</time>
                <sat>201</sat>
            </trkpt>
            <trkpt lat="49.824006" lon="7.798237">
                <time>2015-01-04T15:31:51.000Z</time>
                <sat>201</sat>
            </trkpt>
            <trkpt lat="49.8239945" lon="7.79824517">
                <time>2015-01-04T15:31:52.000Z</time>
                <sat>201</sat>
            </trkpt>
            <trkpt lat="49.82398317" lon="7.798253">
                <time>2015-01-04T15:31:53.000Z</time>
                <sat>201</sat>
            </trkpt>
            <trkpt lat="49.8239715" lon="7.79826067">
                <time>2015-01-04T15:31:54.000Z</time>
                <sat>202</sat>
            </trkpt>
            <trkpt lat="49.82395933" lon="7.7982685">
                <time>2015-01-04T15:31:55.000Z</time>
                <sat>202</sat>
            </trkpt>
            <trkpt lat="49.82394667" lon="7.79827667">
                <time>2015-01-04T15:31:56.000Z</time>
                <sat>202</sat>
            </trkpt>
            <trkpt lat="49.8239345" lon="7.7982845">
                <time>2015-01-04T15:31:57.000Z</time>
                <sat>202</sat>
            </trkpt>
            <trkpt lat="49.82392167" lon="7.798293">
                <time>2015-01-04T15:31:58.000Z</time>
                <sat>203</sat>
            </trkpt>
            <trkpt lat="49.82390883" lon="7.79830117">
                <time>2015-01-04T15:31:59.000Z</time>
                <sat>203</sat>
            </trkpt>
            <trkpt lat="49.823896" lon="7.79830983">
                <time>2015-01-04T15:32:00.000Z</time>
                <sat>203</sat>
            </trkpt>
            <trkpt lat="49.823884" lon="7.79831783">
                <time>2015-01-04T15:32:01.000Z</time>
                <sat>204</sat>
            </trkpt>
            <trkpt lat="49.82387167" lon="7.79832617">
                <time>2015-01-04T15:32:02.000Z</time>
                <sat>204</sat>
            </trkpt>
            <trkpt lat="49.82385917" lon="7.798334">
                <time>2015-01-04T15:32:03.000Z</time>
                <sat>204</sat>
            </trkpt>
            <trkpt lat="49.82384717" lon="7.79834183">
                <time>2015-01-04T15:32:04.000Z</time>
                <sat>205</sat>
            </trkpt>
            <trkpt lat="49.82383583" lon="7.79834933">
                <time>2015-01-04T15:32:05.000Z</time>
                <sat>205</sat>
            </trkpt>
            <trkpt lat="49.823825" lon="7.79835933">
                <time>2015-01-04T15:32:06.000Z</time>
                <sat>206</sat>
            </trkpt>
            <trkpt lat="49.82381417" lon="7.79837">
                <time>2015-01-04T15:32:07.000Z</time>
                <sat>206</sat>
            </trkpt>
            <trkpt lat="49.82380383" lon="7.7983815">
                <time>2015-01-04T15:32:08.000Z</time>
                <sat>206</sat>
            </trkpt>
            <trkpt lat="49.82379367" lon="7.79839283">
                <time>2015-01-04T15:32:09.000Z</time>
                <sat>206</sat>
            </trkpt>
            <trkpt lat="49.82378383" lon="7.79840483">
                <time>2015-01-04T15:32:10.000Z</time>
                <sat>206</sat>
            </trkpt>
            <trkpt lat="49.82377417" lon="7.7984175">
                <time>2015-01-04T15:32:11.000Z</time>
                <sat>207</sat>
            </trkpt>
            <trkpt lat="49.82376517" lon="7.79842967">
                <time>2015-01-04T15:32:12.000Z</time>
                <sat>207</sat>
            </trkpt>
            <trkpt lat="49.82375783" lon="7.798441">
                <time>2015-01-04T15:32:13.000Z</time>
                <sat>207</sat>
            </trkpt>
            <trkpt lat="49.82375217" lon="7.79845333">
                <time>2015-01-04T15:32:14.000Z</time>
                <sat>207</sat>
            </trkpt>
            <trkpt lat="49.82375017" lon="7.79846667">
                <time>2015-01-04T15:32:15.000Z</time>
                <sat>208</sat>
            </trkpt>
            <trkpt lat="49.8237515" lon="7.7984825">
                <time>2015-01-04T15:32:16.000Z</time>
                <sat>208</sat>
            </trkpt>
            <trkpt lat="49.82375483" lon="7.79849917">
                <time>2015-01-04T15:32:17.000Z</time>
                <sat>209</sat>
            </trkpt>
            <trkpt lat="49.8237585" lon="7.798517">
                <time>2015-01-04T15:32:18.000Z</time>
                <sat>209</sat>
            </trkpt>
            <trkpt lat="49.8237625" lon="7.79853617">
                <time>2015-01-04T15:32:19.000Z</time>
                <sat>209</sat>
            </trkpt>
            <trkpt lat="49.82376683" lon="7.798556">
                <time>2015-01-04T15:32:20.000Z</time>
                <sat>210</sat>
            </trkpt>
            <trkpt lat="49.8237715" lon="7.79857567">
                <time>2015-01-04T15:32:21.000Z</time>
                <sat>210</sat>
            </trkpt>
            <trkpt lat="49.823776" lon="7.79859533">
                <time>2015-01-04T15:32:22.000Z</time>
                <sat>210</sat>
            </trkpt>
            <trkpt lat="49.82378067" lon="7.798615">
                <time>2015-01-04T15:32:23.000Z</time>
                <sat>210</sat>
            </trkpt>
            <trkpt lat="49.82378517" lon="7.79863483">
                <time>2015-01-04T15:32:24.000Z</time>
                <sat>210</sat>
            </trkpt>
            <trkpt lat="49.8237895" lon="7.798655">
                <time>2015-01-04T15:32:25.000Z</time>
                <sat>210</sat>
            </trkpt>
            <trkpt lat="49.8237935" lon="7.79867517">
                <time>2015-01-04T15:32:26.000Z</time>
                <sat>210</sat>
            </trkpt>
            <trkpt lat="49.82379683" lon="7.79869567">
                <time>2015-01-04T15:32:27.000Z</time>
                <sat>210</sat>
            </trkpt>
            <trkpt lat="49.82380033" lon="7.79871633">
                <time>2015-01-04T15:32:28.000Z</time>
                <sat>210</sat>
            </trkpt>
            <trkpt lat="49.82380417" lon="7.79873733">
                <time>2015-01-04T15:32:29.000Z</time>
                <sat>210</sat>
            </trkpt>
            <trkpt lat="49.82380883" lon="7.79875783">
                <time>2015-01-04T15:32:30.000Z</time>
                <sat>210</sat>
            </trkpt>
            <trkpt lat="49.82381267" lon="7.798779">
                <time>2015-01-04T15:32:31.000Z</time>
                <sat>210</sat>
            </trkpt>
            <trkpt lat="49.82381617" lon="7.79880067">
                <time>2015-01-04T15:32:32.000Z</time>
                <sat>210</sat>
            </trkpt>
            <trkpt lat="49.823819" lon="7.79882317">
                <time>2015-01-04T15:32:33.000Z</time>
                <sat>210</sat>
            </trkpt>
            <trkpt lat="49.82382167" lon="7.79884517">
                <time>2015-01-04T15:32:34.000Z</time>
                <sat>210</sat>
            </trkpt>
            <trkpt lat="49.82382383" lon="7.7988675">
                <time>2015-01-04T15:32:35.000Z</time>
                <sat>210</sat>
            </trkpt>
            <trkpt lat="49.82382583" lon="7.79889">
                <time>2015-01-04T15:32:36.000Z</time>
                <sat>210</sat>
            </trkpt>
            <trkpt lat="49.82382717" lon="7.79891217">
                <time>2015-01-04T15:32:37.000Z</time>
                <sat>210</sat>
            </trkpt>
            <trkpt lat="49.82382733" lon="7.79893417">
                <time>2015-01-04T15:32:38.000Z</time>
                <sat>209</sat>
            </trkpt>
            <trkpt lat="49.82382667" lon="7.79895583">
                <time>2015-01-04T15:32:39.000Z</time>
                <sat>209</sat>
            </trkpt>
            <trkpt lat="49.82382617" lon="7.79897783">
                <time>2015-01-04T15:32:40.000Z</time>
                <sat>209</sat>
            </trkpt>
            <trkpt lat="49.82382567" lon="7.79900033">
                <time>2015-01-04T15:32:41.000Z</time>
                <sat>209</sat>
            </trkpt>
            <trkpt lat="49.82382483" lon="7.7990225">
                <time>2015-01-04T15:32:42.000Z</time>
                <sat>209</sat>
            </trkpt>
            <trkpt lat="49.8238235" lon="7.799045">
                <time>2015-01-04T15:32:43.000Z</time>
                <sat>209</sat>
            </trkpt>
            <trkpt lat="49.8238215" lon="7.799067">
                <time>2015-01-04T15:32:44.000Z</time>
                <sat>209</sat>
            </trkpt>
            <trkpt lat="49.82381883" lon="7.7990895">
                <time>2015-01-04T15:32:45.000Z</time>
                <sat>209</sat>
            </trkpt>
            <trkpt lat="49.82381633" lon="7.799112">
                <time>2015-01-04T15:32:46.000Z</time>
                <sat>209</sat>
            </trkpt>
            <trkpt lat="49.8238145" lon="7.7991335">
                <time>2015-01-04T15:32:47.000Z</time>
                <sat>209</sat>
            </trkpt>
            <trkpt lat="49.823813" lon="7.79915433">
                <time>2015-01-04T15:32:48.000Z</time>
                <sat>209</sat>
            </trkpt>
            <trkpt lat="49.82381117" lon="7.799175">
                <time>2015-01-04T15:32:49.000Z</time>
                <sat>209</sat>
            </trkpt>
            <trkpt lat="49.8238095" lon="7.79919617">
                <time>2015-01-04T15:32:50.000Z</time>
                <sat>210</sat>
            </trkpt>
            <trkpt lat="49.82380867" lon="7.799218">
                <time>2015-01-04T15:32:51.000Z</time>
                <sat>210</sat>
            </trkpt>
            <trkpt lat="49.82380767" lon="7.79924117">
                <time>2015-01-04T15:32:52.000Z</time>
                <sat>210</sat>
            </trkpt>
            <trkpt lat="49.82380633" lon="7.79926467">
                <time>2015-01-04T15:32:53.000Z</time>
                <sat>210</sat>
            </trkpt>
            <trkpt lat="49.8238045" lon="7.79928867">
                <time>2015-01-04T15:32:54.000Z</time>
                <sat>210</sat>
            </trkpt>
            <trkpt lat="49.82380467" lon="7.79931267">
                <time>2015-01-04T15:32:55.000Z</time>
                <sat>210</sat>
            </trkpt>
            <trkpt lat="49.82380633" lon="7.7993365">
                <time>2015-01-04T15:32:56.000Z</time>
                <sat>211</sat>
            </trkpt>
            <trkpt lat="49.8238085" lon="7.79936017">
                <time>2015-01-04T15:32:57.000Z</time>
                <sat>211</sat>
            </trkpt>
            <trkpt lat="49.82381" lon="7.79938333">
                <time>2015-01-04T15:32:58.000Z</time>
                <sat>210</sat>
            </trkpt>
            <trkpt lat="49.82381167" lon="7.7994065">
                <time>2015-01-04T15:32:59.000Z</time>
                <sat>210</sat>
            </trkpt>
            <trkpt lat="49.82381317" lon="7.79943">
                <time>2015-01-04T15:33:00.000Z</time>
                <sat>210</sat>
            </trkpt>
            <trkpt lat="49.8238145" lon="7.7994535">
                <time>2015-01-04T15:33:01.000Z</time>
                <sat>210</sat>
            </trkpt>
            <trkpt lat="49.82381567" lon="7.79947667">
                <time>2015-01-04T15:33:02.000Z</time>
                <sat>210</sat>
            </trkpt>
            <trkpt lat="49.82381733" lon="7.7995">
                <time>2015-01-04T15:33:03.000Z</time>
                <sat>210</sat>
            </trkpt>
            <trkpt lat="49.82381867" lon="7.799523">
                <time>2015-01-04T15:33:04.000Z</time>
                <sat>210</sat>
            </trkpt>
            <trkpt lat="49.82381983" lon="7.79954683">
                <time>2015-01-04T15:33:05.000Z</time>
                <sat>210</sat>
            </trkpt>
            <trkpt lat="49.82381983" lon="7.7995705">
                <time>2015-01-04T15:33:06.000Z</time>
                <sat>210</sat>
            </trkpt>
            <trkpt lat="49.82382017" lon="7.799594">
                <time>2015-01-04T15:33:07.000Z</time>
                <sat>210</sat>
            </trkpt>
            <trkpt lat="49.82382033" lon="7.79961767">
                <time>2015-01-04T15:33:08.000Z</time>
                <sat>209</sat>
            </trkpt>
            <trkpt lat="49.8238205" lon="7.79964117">
                <time>2015-01-04T15:33:09.000Z</time>
                <sat>209</sat>
            </trkpt>
            <trkpt lat="49.82382" lon="7.799665">
                <time>2015-01-04T15:33:10.000Z</time>
                <sat>209</sat>
            </trkpt>
            <trkpt lat="49.82381867" lon="7.79968867">
                <time>2015-01-04T15:33:11.000Z</time>
                <sat>209</sat>
            </trkpt>
            <trkpt lat="49.8238175" lon="7.7997125">
                <time>2015-01-04T15:33:12.000Z</time>
                <sat>210</sat>
            </trkpt>
            <trkpt lat="49.823816" lon="7.79973617">
                <time>2015-01-04T15:33:13.000Z</time>
                <sat>209</sat>
            </trkpt>
            <trkpt lat="49.82381483" lon="7.79976017">
                <time>2015-01-04T15:33:14.000Z</time>
                <sat>209</sat>
            </trkpt>
            <trkpt lat="49.82381333" lon="7.79978367">
                <time>2015-01-04T15:33:15.000Z</time>
                <sat>209</sat>
            </trkpt>
            <trkpt lat="49.8238125" lon="7.7998065">
                <time>2015-01-04T15:33:16.000Z</time>
                <sat>208</sat>
            </trkpt>
            <trkpt lat="49.82381217" lon="7.79983">
                <time>2015-01-04T15:33:17.000Z</time>
                <sat>209</sat>
            </trkpt>
            <trkpt lat="49.82381283" lon="7.79985367">
                <time>2015-01-04T15:33:18.000Z</time>
                <sat>209</sat>
            </trkpt>
            <trkpt lat="49.823814" lon="7.799878">
                <time>2015-01-04T15:33:19.000Z</time>
                <sat>209</sat>
            </trkpt>
            <trkpt lat="49.82381617" lon="7.79990217">
                <time>2015-01-04T15:33:20.000Z</time>
                <sat>210</sat>
            </trkpt>
            <trkpt lat="49.82381883" lon="7.79992633">
                <time>2015-01-04T15:33:21.000Z</time>
                <sat>210</sat>
            </trkpt>
            <trkpt lat="49.82382183" lon="7.79995067">
                <time>2015-01-04T15:33:22.000Z</time>
                <sat>210</sat>
            </trkpt>
            <trkpt lat="49.8238245" lon="7.7999745">
                <time>2015-01-04T15:33:23.000Z</time>
                <sat>210</sat>
            </trkpt>
            <trkpt lat="49.82382733" lon="7.79999867">
                <time>2015-01-04T15:33:24.000Z</time>
                <sat>210</sat>
            </trkpt>
            <trkpt lat="49.82383033" lon="7.80002267">
                <time>2015-01-04T15:33:25.000Z</time>
                <sat>210</sat>
            </trkpt>
            <trkpt lat="49.8238345" lon="7.8000465">
                <time>2015-01-04T15:33:26.000Z</time>
                <sat>211</sat>
            </trkpt>
            <trkpt lat="49.82383917" lon="7.8000705">
                <time>2015-01-04T15:33:27.000Z</time>
                <sat>211</sat>
            </trkpt>
            <trkpt lat="49.8238445" lon="7.80009367">
                <time>2015-01-04T15:33:28.000Z</time>
                <sat>211</sat>
            </trkpt>
            <trkpt lat="49.82384967" lon="7.80011683">
                <time>2015-01-04T15:33:29.000Z</time>
                <sat>211</sat>
            </trkpt>
            <trkpt lat="49.82385367" lon="7.80014133">
                <time>2015-01-04T15:33:30.000Z</time>
                <sat>211</sat>
            </trkpt>
            <trkpt lat="49.82385683" lon="7.80016533">
                <time>2015-01-04T15:33:31.000Z</time>
                <sat>211</sat>
            </trkpt>
            <trkpt lat="49.8238595" lon="7.80018983">
                <time>2015-01-04T15:33:32.000Z</time>
                <sat>211</sat>
            </trkpt>
            <trkpt lat="49.823862" lon="7.800214">
                <time>2015-01-04T15:33:33.000Z</time>
                <sat>211</sat>
            </trkpt>
            <trkpt lat="49.82386367" lon="7.8002385">
                <time>2015-01-04T15:33:34.000Z</time>
                <sat>211</sat>
            </trkpt>
            <trkpt lat="49.82386483" lon="7.800264">
                <time>2015-01-04T15:33:35.000Z</time>
                <sat>211</sat>
            </trkpt>
            <trkpt lat="49.82386533" lon="7.80028883">
                <time>2015-01-04T15:33:36.000Z</time>
                <sat>211</sat>
            </trkpt>
            <trkpt lat="49.82386567" lon="7.80031367">
                <time>2015-01-04T15:33:37.000Z</time>
                <sat>211</sat>
            </trkpt>
            <trkpt lat="49.82386583" lon="7.8003385">
                <time>2015-01-04T15:33:38.000Z</time>
                <sat>211</sat>
            </trkpt>
            <trkpt lat="49.82386733" lon="7.80036333">
                <time>2015-01-04T15:33:39.000Z</time>
                <sat>212</sat>
            </trkpt>
            <trkpt lat="49.82386917" lon="7.80038867">
                <time>2015-01-04T15:33:40.000Z</time>
                <sat>212</sat>
            </trkpt>
            <trkpt lat="49.82387267" lon="7.80041383">
                <time>2015-01-04T15:33:41.000Z</time>
                <sat>212</sat>
            </trkpt>
            <trkpt lat="49.82387683" lon="7.8004385">
                <time>2015-01-04T15:33:42.000Z</time>
                <sat>213</sat>
            </trkpt>
            <trkpt lat="49.823882" lon="7.80046317">
                <time>2015-01-04T15:33:43.000Z</time>
                <sat>213</sat>
            </trkpt>
            <trkpt lat="49.82388733" lon="7.80048683">
                <time>2015-01-04T15:33:44.000Z</time>
                <sat>214</sat>
            </trkpt>
            <trkpt lat="49.82389233" lon="7.80051017">
                <time>2015-01-04T15:33:45.000Z</time>
                <sat>214</sat>
            </trkpt>
            <trkpt lat="49.823897" lon="7.80053283">
                <time>2015-01-04T15:33:46.000Z</time>
                <sat>214</sat>
            </trkpt>
            <trkpt lat="49.82389933" lon="7.80055617">
                <time>2015-01-04T15:33:47.000Z</time>
                <sat>214</sat>
            </trkpt>
            <trkpt lat="49.8239" lon="7.8005805">
                <time>2015-01-04T15:33:48.000Z</time>
                <sat>214</sat>
            </trkpt>
            <trkpt lat="49.82389867" lon="7.80060583">
                <time>2015-01-04T15:33:49.000Z</time>
                <sat>215</sat>
            </trkpt>
            <trkpt lat="49.82389617" lon="7.800631">
                <time>2015-01-04T15:33:50.000Z</time>
                <sat>214</sat>
            </trkpt>
            <trkpt lat="49.82389133" lon="7.80065583">
                <time>2015-01-04T15:33:51.000Z</time>
                <sat>213</sat>
            </trkpt>
            <trkpt lat="49.823885" lon="7.8006805">
                <time>2015-01-04T15:33:52.000Z</time>
                <sat>212</sat>
            </trkpt>
            <trkpt lat="49.82387783" lon="7.80070583">
                <time>2015-01-04T15:33:53.000Z</time>
                <sat>212</sat>
            </trkpt>
            <trkpt lat="49.823871" lon="7.80073117">
                <time>2015-01-04T15:33:54.000Z</time>
                <sat>212</sat>
            </trkpt>
            <trkpt lat="49.823864" lon="7.800756">
                <time>2015-01-04T15:33:55.000Z</time>
                <sat>212</sat>
            </trkpt>
            <trkpt lat="49.823857" lon="7.80078133">
                <time>2015-01-04T15:33:56.000Z</time>
                <sat>211</sat>
            </trkpt>
            <trkpt lat="49.82385017" lon="7.80080583">
                <time>2015-01-04T15:33:57.000Z</time>
                <sat>212</sat>
            </trkpt>
            <trkpt lat="49.82384333" lon="7.80083017">
                <time>2015-01-04T15:33:58.000Z</time>
                <sat>212</sat>
            </trkpt>
            <trkpt lat="49.82383633" lon="7.80085417">
                <time>2015-01-04T15:33:59.000Z</time>
                <sat>212</sat>
            </trkpt>
            <trkpt lat="49.823829" lon="7.80087733">
                <time>2015-01-04T15:34:00.000Z</time>
                <sat>211</sat>
            </trkpt>
            <trkpt lat="49.82382183" lon="7.8009">
                <time>2015-01-04T15:34:01.000Z</time>
                <sat>211</sat>
            </trkpt>
            <trkpt lat="49.82381517" lon="7.80092167">
                <time>2015-01-04T15:34:02.000Z</time>
                <sat>211</sat>
            </trkpt>
            <trkpt lat="49.82380883" lon="7.80094333">
                <time>2015-01-04T15:34:03.000Z</time>
                <sat>211</sat>
            </trkpt>
            <trkpt lat="49.823803" lon="7.800965">
                <time>2015-01-04T15:34:04.000Z</time>
                <sat>211</sat>
            </trkpt>
            <trkpt lat="49.823797" lon="7.80098683">
                <time>2015-01-04T15:34:05.000Z</time>
                <sat>211</sat>
            </trkpt>
            <trkpt lat="49.8237915" lon="7.8010095">
                <time>2015-01-04T15:34:06.000Z</time>
                <sat>211</sat>
            </trkpt>
            <trkpt lat="49.82378667" lon="7.80103217">
                <time>2015-01-04T15:34:07.000Z</time>
                <sat>212</sat>
            </trkpt>
            <trkpt lat="49.82378317" lon="7.801055">
                <time>2015-01-04T15:34:08.000Z</time>
                <sat>212</sat>
            </trkpt>
            <trkpt lat="49.82378017" lon="7.80107817">
                <time>2015-01-04T15:34:09.000Z</time>
                <sat>212</sat>
            </trkpt>
            <trkpt lat="49.8237775" lon="7.80110167">
                <time>2015-01-04T15:34:10.000Z</time>
                <sat>212</sat>
            </trkpt>
            <trkpt lat="49.82377533" lon="7.80112533">
                <time>2015-01-04T15:34:11.000Z</time>
                <sat>212</sat>
            </trkpt>
            <trkpt lat="49.82377317" lon="7.80114917">
                <time>2015-01-04T15:34:12.000Z</time>
                <sat>212</sat>
            </trkpt>
            <trkpt lat="49.823771" lon="7.80117333">
                <time>2015-01-04T15:34:13.000Z</time>
                <sat>212</sat>
            </trkpt>
            <trkpt lat="49.82376883" lon="7.801198">
                <time>2015-01-04T15:34:14.000Z</time>
                <sat>212</sat>
            </trkpt>
            <trkpt lat="49.82376667" lon="7.80122217">
                <time>2015-01-04T15:34:15.000Z</time>
                <sat>212</sat>
            </trkpt>
            <trkpt lat="49.82376467" lon="7.80124583">
                <time>2015-01-04T15:34:16.000Z</time>
                <sat>213</sat>
            </trkpt>
            <trkpt lat="49.82376317" lon="7.8012685">
                <time>2015-01-04T15:34:17.000Z</time>
                <sat>213</sat>
            </trkpt>
            <trkpt lat="49.82376467" lon="7.80129133">
                <time>2015-01-04T15:34:18.000Z</time>
                <sat>216</sat>
            </trkpt>
            <trkpt lat="49.82376683" lon="7.80131383">
                <time>2015-01-04T15:34:19.000Z</time>
                <sat>215</sat>
            </trkpt>
            <trkpt lat="49.823769" lon="7.8013375">
                <time>2015-01-04T15:34:20.000Z</time>
                <sat>215</sat>
            </trkpt>
            <trkpt lat="49.823768" lon="7.8013615">
                <time>2015-01-04T15:34:21.000Z</time>
                <sat>215</sat>
            </trkpt>
            <trkpt lat="49.823766" lon="7.80138583">
                <time>2015-01-04T15:34:22.000Z</time>
                <sat>214</sat>
            </trkpt>
            <trkpt lat="49.82376367" lon="7.80141">
                <time>2015-01-04T15:34:23.000Z</time>
                <sat>214</sat>
            </trkpt>
            <trkpt lat="49.82376067" lon="7.801434">
                <time>2015-01-04T15:34:24.000Z</time>
                <sat>214</sat>
            </trkpt>
            <trkpt lat="49.82375733" lon="7.8014575">
                <time>2015-01-04T15:34:25.000Z</time>
                <sat>214</sat>
            </trkpt>
            <trkpt lat="49.82375367" lon="7.80148067">
                <time>2015-01-04T15:34:26.000Z</time>
                <sat>214</sat>
            </trkpt>
            <trkpt lat="49.82374833" lon="7.80150267">
                <time>2015-01-04T15:34:27.000Z</time>
                <sat>213</sat>
            </trkpt>
            <trkpt lat="49.82374217" lon="7.80152433">
                <time>2015-01-04T15:34:28.000Z</time>
                <sat>213</sat>
            </trkpt>
            <trkpt lat="49.823734" lon="7.8015445">
                <time>2015-01-04T15:34:29.000Z</time>
                <sat>213</sat>
            </trkpt>
            <trkpt lat="49.8237245" lon="7.801563">
                <time>2015-01-04T15:34:30.000Z</time>
                <sat>213</sat>
            </trkpt>
            <trkpt lat="49.82371317" lon="7.80157983">
                <time>2015-01-04T15:34:31.000Z</time>
                <sat>213</sat>
            </trkpt>
            <trkpt lat="49.82370033" lon="7.80159433">
                <time>2015-01-04T15:34:32.000Z</time>
                <sat>213</sat>
            </trkpt>
            <trkpt lat="49.8236865" lon="7.801608">
                <time>2015-01-04T15:34:33.000Z</time>
                <sat>213</sat>
            </trkpt>
            <trkpt lat="49.8236715" lon="7.80162033">
                <time>2015-01-04T15:34:34.000Z</time>
                <sat>213</sat>
            </trkpt>
            <trkpt lat="49.82365583" lon="7.8016325">
                <time>2015-01-04T15:34:35.000Z</time>
                <sat>213</sat>
            </trkpt>
            <trkpt lat="49.82364" lon="7.80164317">
                <time>2015-01-04T15:34:36.000Z</time>
                <sat>212</sat>
            </trkpt>
            <trkpt lat="49.82362433" lon="7.80165317">
                <time>2015-01-04T15:34:37.000Z</time>
                <sat>212</sat>
            </trkpt>
            <trkpt lat="49.8236085" lon="7.80166183">
                <time>2015-01-04T15:34:38.000Z</time>
                <sat>212</sat>
            </trkpt>
            <trkpt lat="49.82359333" lon="7.80166917">
                <time>2015-01-04T15:34:39.000Z</time>
                <sat>211</sat>
            </trkpt>
            <trkpt lat="49.82357817" lon="7.8016755">
                <time>2015-01-04T15:34:40.000Z</time>
                <sat>211</sat>
            </trkpt>
            <trkpt lat="49.82356267" lon="7.801681">
                <time>2015-01-04T15:34:41.000Z</time>
                <sat>211</sat>
            </trkpt>
            <trkpt lat="49.82354683" lon="7.80168667">
                <time>2015-01-04T15:34:42.000Z</time>
                <sat>211</sat>
            </trkpt>
            <trkpt lat="49.8235305" lon="7.80169333">
                <time>2015-01-04T15:34:43.000Z</time>
                <sat>212</sat>
            </trkpt>
            <trkpt lat="49.823514" lon="7.80170067">
                <time>2015-01-04T15:34:44.000Z</time>
                <sat>212</sat>
            </trkpt>
            <trkpt lat="49.82349767" lon="7.80170833">
                <time>2015-01-04T15:34:45.000Z</time>
                <sat>212</sat>
            </trkpt>
            <trkpt lat="49.82348183" lon="7.80171483">
                <time>2015-01-04T15:34:46.000Z</time>
                <sat>212</sat>
            </trkpt>
            <trkpt lat="49.823467" lon="7.8017215">
                <time>2015-01-04T15:34:47.000Z</time>
                <sat>212</sat>
            </trkpt>
            <trkpt lat="49.823453" lon="7.80172883">
                <time>2015-01-04T15:34:48.000Z</time>
                <sat>213</sat>
            </trkpt>
            <trkpt lat="49.82344" lon="7.8017365">
                <time>2015-01-04T15:34:49.000Z</time>
                <sat>213</sat>
            </trkpt>
        </trkseg>
    </trk>
</gpx>
